ECMWFFLT1_700_spd_000.txt.gz
Wind_Speed
16 18 19 21 26 29 31 31 30 29 27 26 26 25 26 28 31 32 30 29 27 27 26 24 23 22 22 21 22 22 21 21 21 20 20 19 19 18 16 14 13 11 10 9 8 7 6 5 6 7 8 9 11 12 13 14 15 15 16 15 12 11 11
15 16 17 19 22 26 30 32 30 29 28 28 27 26 26 27 29 31 31 29 27 27 27 25 24 22 21 21 23 22 21 21 21 21 22 21 20 18 17 16 15 14 13 12 10 9 7 6 7 8 9 10 12 14 15 16 16 16 16 16 14 13 12
18 18 18 20 22 24 28 30 29 28 29 29 29 28 27 26 26 28 30 29 28 28 28 26 25 23 22 22 23 23 22 23 23 22 23 23 22 21 20 18 17 17 16 14 12 10 9 8 8 9 10 11 13 14 16 17 18 18 18 16 15 14 14
22 21 18 18 20 22 24 26 26 27 28 29 30 29 28 25 24 25 28 29 29 29 29 27 25 24 24 23 24 24 24 24 24 24 26 27 26 26 24 23 21 20 19 16 14 12 11 10 10 10 10 11 13 14 16 17 19 20 20 18 17 16 15
22 21 19 17 18 20 22 24 25 27 29 30 31 31 29 26 24 24 25 26 27 28 29 27 26 26 26 25 25 25 25 26 26 28 30 31 30 30 29 27 25 24 22 19 16 15 13 12 11 10 10 11 13 15 16 17 19 21 21 20 18 17 17
18 18 20 19 19 20 23 24 25 28 29 30 32 32 30 27 24 24 24 24 25 26 27 27 28 28 27 26 26 26 26 28 29 31 32 33 34 34 33 31 29 27 24 21 19 17 14 14 13 12 13 14 14 15 17 18 19 20 21 21 20 18 17
18 17 18 18 17 19 22 23 24 26 28 31 33 34 32 29 26 25 24 24 25 26 27 28 29 28 27 27 26 26 27 29 30 32 33 34 35 36 35 34 32 29 27 25 22 19 17 16 16 18 20 19 17 16 18 18 19 20 21 21 21 20 18
19 18 19 18 17 17 19 22 24 25 27 31 34 36 34 31 28 26 25 25 25 27 28 29 30 28 25 25 25 25 27 28 30 33 34 35 37 38 37 36 35 33 30 29 26 24 22 20 20 23 25 22 18 19 20 20 20 21 21 21 21 21 19
19 18 19 19 19 19 21 24 26 27 28 30 32 35 35 33 31 28 27 27 27 28 28 29 30 29 26 24 24 25 26 28 30 33 35 36 37 38 37 36 36 35 35 35 30 27 25 23 23 26 29 26 22 22 25 26 25 24 23 22 21 22 20
20 20 21 23 23 22 25 29 30 30 29 28 30 32 33 34 33 30 28 29 30 30 29 28 29 28 27 25 25 27 27 28 29 31 34 35 37 38 36 34 36 37 40 40 32 27 28 28 28 30 31 29 26 26 28 29 30 30 28 24 22 22 21
22 21 22 23 25 25 27 31 32 30 29 28 29 30 30 32 33 31 30 31 32 32 29 28 27 26 25 24 26 28 28 29 31 32 35 36 38 40 36 32 34 37 41 43 39 35 35 34 35 36 36 34 31 30 30 30 31 34 32 27 23 22 21
22 20 20 20 23 27 29 31 29 29 29 28 27 27 27 28 29 31 32 32 33 32 29 27 25 25 26 25 26 28 30 34 37 38 40 41 41 45 41 32 28 28 31 38 43 40 37 38 40 41 42 43 42 40 37 35 34 35 33 29 24 22 21
23 21 20 20 22 25 28 29 28 29 29 28 27 25 25 26 27 29 31 32 33 32 29 26 25 27 28 24 24 29 34 37 37 37 40 40 42 48 48 40 33 27 26 26 29 28 25 28 31 30 29 29 31 33 35 36 37 36 34 31 26 22 21
27 25 23 22 22 25 28 28 28 29 27 27 27 25 24 25 27 28 29 30 32 31 28 25 25 26 25 23 26 33 37 36 33 32 35 38 42 48 50 47 42 32 25 24 24 22 21 24 27 25 21 17 16 19 24 30 34 33 34 34 30 25 23
29 29 26 23 23 27 30 28 27 27 25 25 25 24 24 25 26 27 27 28 28 28 27 25 25 25 23 24 32 38 37 34 34 34 33 36 42 45 43 40 36 30 29 31 30 26 24 25 25 23 22 21 19 19 23 29 32 31 33 35 33 28 25
29 29 28 25 25 29 30 26 25 25 25 26 25 24 25 25 26 26 25 25 25 25 26 26 27 26 24 26 33 38 38 37 39 42 39 37 40 39 34 32 29 28 30 31 27 23 20 17 17 18 22 25 26 24 27 32 34 32 33 35 34 30 27
31 30 28 26 27 30 31 29 26 24 25 27 26 26 27 27 27 27 25 25 25 25 26 28 28 27 27 29 32 34 35 35 37 39 37 33 33 32 29 27 26 25 26 23 19 17 15 13 14 17 22 27 29 29 30 33 35 34 34 36 35 32 30
31 30 27 25 27 31 34 33 28 24 25 27 28 28 29 29 29 29 28 27 27 27 28 28 28 29 30 31 30 29 29 30 31 31 31 29 29 30 29 27 25 24 25 23 20 19 17 14 14 16 20 24 28 32 32 32 34 36 37 37 36 35 35
31 31 30 27 28 31 35 38 32 27 28 31 31 31 31 31 32 31 30 29 28 28 28 28 28 29 30 29 27 28 30 31 32 31 31 30 29 29 28 26 25 24 24 23 22 22 20 17 15 17 20 23 26 31 34 34 34 35 36 37 37 37 38
33 35 35 32 29 29 35 40 36 31 32 34 33 33 34 33 33 32 31 30 29 29 29 28 28 29 29 29 29 30 32 32 33 33 32 29 27 25 24 22 21 20 20 19 20 21 20 18 17 18 21 23 25 30 35 37 38 36 35 36 36 36 39
35 36 36 34 31 28 32 38 36 34 36 37 34 34 35 34 34 33 32 32 32 32 31 30 30 30 30 31 32 32 32 32 32 30 28 24 22 21 22 21 19 16 15 16 17 17 17 17 17 18 21 22 25 29 33 36 39 39 36 34 34 34 38
37 37 36 35 31 28 30 34 36 38 40 39 37 36 35 35 35 35 34 34 35 35 35 33 32 32 32 32 32 31 30 28 26 24 21 19 19 19 20 20 17 12 11 12 13 14 15 16 16 17 19 20 23 26 28 30 35 36 34 33 33 33 35
41 38 37 36 32 29 32 35 38 41 41 40 39 37 36 36 36 35 35 35 36 36 36 36 35 34 33 32 31 30 27 23 21 18 16 16 17 19 20 18 14 10 9 11 13 16 17 16 14 15 16 19 21 23 24 25 28 31 31 30 29 30 34
43 39 37 38 35 31 34 38 39 39 39 40 40 39 38 37 35 35 36 36 37 37 37 36 35 34 32 30 28 26 23 20 18 16 14 15 17 18 18 15 12 12 13 15 18 19 17 14 13 14 14 16 18 19 20 21 23 27 29 28 27 29 34
44 40 37 39 38 35 36 38 35 33 36 41 41 40 40 38 37 37 39 39 39 39 38 36 35 32 29 27 25 23 21 19 17 15 14 17 18 19 18 17 16 16 17 18 18 17 14 12 12 13 12 13 16 16 16 18 22 25 27 26 27 30 32
42 40 38 39 40 38 38 37 32 30 37 42 42 42 42 40 39 40 41 41 41 40 38 36 33 29 26 24 22 20 18 16 15 15 18 20 20 20 20 21 21 19 17 17 17 15 13 12 11 11 9 10 11 12 13 16 20 24 26 26 27 28 29
36 36 36 38 39 38 38 36 31 32 39 43 43 42 42 42 41 41 40 40 40 39 38 36 32 27 22 19 17 16 17 18 19 22 23 23 23 23 23 22 21 19 17 16 15 14 12 10 9 7 7 7 8 9 12 16 19 22 25 26 28 30 32
34 33 34 35 35 34 35 34 33 35 40 44 44 43 43 42 40 38 37 36 36 37 37 35 30 24 18 15 16 19 22 24 26 27 26 25 26 26 24 23 21 19 18 17 16 13 9 6 6 5 5 6 7 9 13 18 20 22 24 27 29 32 34
30 29 30 30 29 29 30 33 36 39 42 43 43 42 42 41 37 34 33 32 32 32 32 31 27 22 19 20 23 27 28 28 28 28 27 27 28 26 24 22 20 18 17 16 13 10 6 4 4 4 4 6 8 11 14 17 19 20 23 26 27 29 31
24 25 26 28 29 31 33 35 39 41 42 41 40 39 39 38 37 36 33 30 28 26 25 25 26 27 28 29 29 30 30 30 30 28 27 27 26 24 21 20 18 17 15 13 10 7 6 5 4 4 4 5 7 10 12 14 16 19 22 25 27 29 32
30 31 32 33 34 35 36 36 37 38 38 37 37 37 37 36 35 36 33 29 24 22 22 24 26 28 30 31 32 33 33 32 29 27 26 26 24 21 18 17 17 16 14 11 9 8 7 6 6 5 6 6 8 10 12 14 17 19 22 25 28 31 33
34 34 35 36 37 37 37 36 36 36 36 35 34 33 33 33 31 30 30 29 26 24 24 25 24 25 26 29 32 31 29 27 26 26 27 27 24 20 17 15 15 14 12 10 9 9 8 7 7 6 7 8 10 12 15 17 20 23 26 29 30 30 30
34 35 35 36 36 35 35 34 34 33 32 31 30 29 29 30 29 27 28 29 27 25 24 23 23 25 27 30 30 28 26 25 26 28 28 26 22 18 17 16 15 14 13 11 10 10 9 8 8 7 8 10 12 15 19 22 25 27 28 28 27 27 27
34 33 33 32 31 29 29 29 27 26 25 24 23 23 23 23 24 24 24 24 23 22 22 24 26 28 29 30 28 27 27 27 27 28 26 22 20 19 19 18 16 15 13 12 12 12 11 10 9 10 11 12 14 18 21 23 24 25 26 26 27 27 26
31 29 28 27 25 23 22 22 21 21 21 20 19 19 19 19 20 21 21 21 21 23 26 28 29 29 29 27 24 24 26 26 26 25 23 20 20 21 21 19 17 16 14 14 15 14 13 12 12 12 13 15 18 20 20 21 22 24 28 31 31 28 25
26 25 23 22 22 21 20 21 21 21 20 20 19 19 19 20 21 22 23 25 27 29 30 31 30 27 25 22 22 23 24 24 23 21 19 18 20 22 23 21 19 17 16 17 17 15 14 13 13 13 14 16 18 19 19 22 25 28 29 29 27 26 25
21 22 20 19 20 20 20 21 21 21 20 20 20 20 21 22 22 24 26 28 30 31 31 29 27 25 23 21 21 22 22 20 19 18 18 18 20 23 25 23 20 18 17 17 16 14 13 13 12 12 13 15 16 18 20 23 25 26 25 25 25 26 28
19 19 18 17 18 19 20 22 23 23 22 21 21 22 22 22 23 25 27 29 29 29 28 27 25 23 22 21 22 22 21 19 17 17 17 17 19 22 25 23 21 20 19 17 15 13 12 12 12 12 13 15 17 18 20 22 24 25 26 27 28 30 31

ECMWFFLT1_700_spd_003.txt.gz
Wind_Speed
25 24 23 23 25 31 32 24 22 24 23 24 23 24 26 26 26 27 28 29 29 26 25 25 25 23 21 20 19 20 21 22 22 22 22 21 20 19 20 19 18 17 15 14 14 13 12 11 9 8 8 9 9 10 11 11 12 13 13 14 14 14 14
23 25 25 25 24 28 30 24 21 22 22 23 23 23 26 25 24 25 26 28 28 26 25 25 25 25 22 20 20 21 22 23 23 23 23 22 21 21 21 20 19 18 16 16 15 13 12 12 10 10 10 10 11 11 12 12 13 14 15 15 16 15 15
22 25 27 27 23 24 28 26 22 21 21 22 22 23 24 25 24 23 23 25 28 28 26 26 26 26 23 21 21 22 22 23 23 23 23 22 22 23 22 21 21 20 19 18 16 14 13 13 12 12 12 12 13 14 14 14 14 15 17 18 18 18 17
23 24 26 26 25 25 28 27 23 22 23 22 21 21 23 25 24 22 21 22 27 29 27 26 26 26 25 24 23 23 23 23 23 23 23 23 23 24 24 23 22 22 21 19 17 16 15 15 14 15 15 15 16 16 17 17 17 18 19 20 20 20 20
25 25 25 25 26 27 28 26 23 23 24 22 22 22 23 26 25 23 22 22 26 29 29 28 27 27 28 27 25 24 23 23 24 23 24 24 25 25 25 25 24 23 22 21 20 20 18 17 18 19 20 20 21 22 22 22 23 24 25 23 21 21 22
22 24 25 25 26 26 24 23 22 22 23 23 24 24 24 26 27 25 24 24 26 29 31 30 29 29 29 29 28 25 23 24 24 25 26 26 27 27 27 27 26 25 24 23 23 23 21 21 25 28 30 30 31 32 31 29 28 29 28 25 22 21 23
21 23 25 25 29 26 19 19 21 22 24 25 26 25 24 26 28 27 26 25 26 29 31 32 31 31 30 30 30 27 24 24 25 26 27 28 28 29 29 29 28 28 28 26 24 23 23 26 30 35 40 43 43 42 40 36 33 31 30 28 26 26 27
24 26 24 21 26 25 16 14 18 22 26 28 28 26 25 26 28 29 28 26 26 28 31 32 32 33 32 31 31 29 27 25 25 27 30 32 31 30 31 31 31 31 30 26 24 25 25 26 28 33 39 45 46 45 44 41 38 34 32 33 33 32 33
24 27 24 20 22 23 18 13 15 19 23 28 31 28 26 26 29 30 29 27 27 28 30 32 33 32 33 33 31 30 28 27 28 28 31 33 32 31 33 33 32 32 30 29 29 27 26 28 30 32 34 39 43 44 44 44 42 38 36 37 37 36 37
22 23 25 23 20 20 20 15 15 19 22 26 31 31 27 26 29 30 29 29 29 28 29 33 33 30 30 31 32 31 30 30 30 30 31 31 32 34 35 33 31 30 29 31 31 27 28 32 34 33 31 32 37 42 42 42 45 45 42 40 39 39 39
18 16 21 23 20 19 21 18 17 21 23 26 30 32 29 26 28 31 31 30 30 29 29 33 33 29 28 28 30 33 32 31 31 31 31 33 35 37 35 31 30 29 29 30 28 26 28 32 34 34 30 26 29 37 39 41 44 46 44 42 41 41 40
20 18 20 22 20 20 22 22 22 23 25 27 31 32 30 27 27 30 31 31 31 30 31 32 31 29 29 27 27 31 33 33 31 31 33 36 38 37 32 29 30 29 30 31 30 28 27 30 34 36 33 27 25 29 34 37 39 40 41 42 43 42 40
23 23 23 23 22 23 25 25 24 24 26 29 32 32 30 28 26 27 31 33 32 32 33 32 28 27 28 27 26 28 32 33 32 32 34 36 36 34 31 31 32 30 28 30 32 32 29 29 33 34 34 31 26 25 27 30 33 36 39 41 41 40 38
24 28 28 25 25 26 27 25 23 24 26 27 31 32 31 28 25 26 30 31 32 35 34 30 27 26 26 27 26 26 28 29 30 32 34 33 32 32 31 32 33 30 26 25 28 31 31 30 30 30 31 30 25 23 25 27 29 32 33 35 36 37 37
21 27 29 27 25 23 23 24 25 26 25 24 28 31 30 28 26 27 30 30 31 36 36 31 27 26 26 27 28 27 28 30 32 33 32 31 31 31 31 31 31 30 27 26 27 27 28 29 30 29 27 24 22 21 22 25 29 31 30 30 31 32 33
21 22 23 26 28 24 21 21 24 28 28 25 27 30 29 29 29 29 31 31 31 35 38 35 31 30 29 28 30 31 32 33 33 32 31 30 30 30 30 29 30 30 31 32 31 28 24 25 29 29 26 23 22 21 21 24 30 32 32 30 28 29 30
25 23 21 26 32 31 25 20 23 28 29 28 29 29 30 30 30 29 29 31 30 32 37 36 32 32 32 32 33 34 33 32 31 29 29 29 30 31 31 32 34 36 36 35 33 28 22 20 23 27 27 25 24 23 23 25 30 32 33 31 30 30 30
27 27 24 26 33 34 28 22 24 27 27 30 31 30 32 31 30 29 29 31 29 29 34 36 33 33 35 35 36 34 31 29 28 27 28 29 31 33 33 34 37 37 35 31 27 24 21 18 19 24 27 28 26 24 25 27 31 33 34 34 33 33 32
28 27 26 30 36 36 30 25 27 28 26 33 33 32 33 31 29 31 31 32 30 27 32 36 35 35 37 36 35 31 29 29 29 29 30 30 30 30 29 29 29 28 26 22 20 19 19 18 19 21 25 26 26 25 26 29 32 34 35 35 36 36 35
33 30 32 35 36 35 32 33 35 31 26 34 36 34 34 32 31 32 32 31 31 30 32 35 36 36 36 35 33 31 30 30 31 32 32 30 28 26 26 25 24 21 19 17 16 17 17 17 18 21 23 24 25 25 28 32 35 35 34 36 37 37 35
36 36 39 38 34 33 37 42 41 33 27 36 41 38 37 37 33 32 33 33 34 34 34 33 34 35 35 35 34 33 33 34 34 33 32 30 28 27 26 24 22 19 17 15 15 15 15 16 19 21 23 23 24 26 29 33 35 35 35 36 37 35 34
38 40 44 44 40 39 41 43 41 34 27 35 45 42 40 40 36 35 37 38 37 37 35 33 35 36 36 35 35 35 36 36 36 35 33 32 30 27 25 23 20 17 16 15 15 16 16 17 20 22 22 22 24 27 30 33 34 34 34 35 34 31 31
40 42 48 50 45 43 43 42 41 35 28 32 45 46 42 41 40 39 40 39 38 37 36 36 37 38 37 36 37 38 37 37 37 36 34 31 28 25 22 19 17 14 14 15 16 16 17 19 21 23 23 23 25 28 31 33 33 31 29 29 28 27 26
41 42 46 47 43 43 44 42 39 35 28 30 42 47 44 44 43 42 41 40 38 38 38 38 39 39 38 38 38 38 37 36 36 33 30 27 24 22 19 17 15 14 15 17 17 18 19 21 23 24 24 24 27 29 30 32 31 28 25 24 24 22 21
42 41 43 42 40 42 43 41 39 35 29 30 41 48 47 45 43 42 42 40 39 39 39 40 40 40 39 38 38 38 37 35 32 28 25 22 21 20 18 17 17 17 19 20 20 20 22 23 24 24 24 25 27 28 28 28 28 24 22 22 21 19 19
41 41 40 40 41 43 43 40 38 33 28 30 40 46 46 44 43 44 43 42 41 41 41 41 41 41 40 39 37 36 34 30 26 23 20 19 19 19 18 18 19 21 21 21 21 22 23 24 25 24 25 25 26 25 25 26 25 22 20 21 20 19 19
38 39 39 40 41 42 41 39 37 31 27 28 35 40 40 41 43 45 43 42 42 42 42 43 42 41 39 36 33 29 26 23 21 19 17 18 20 21 21 21 22 22 22 23 25 25 25 25 25 25 25 25 24 24 24 24 23 20 19 20 19 18 19
33 34 36 38 40 40 39 37 33 28 26 27 30 33 34 37 43 45 44 44 44 44 44 43 40 37 33 30 26 22 19 17 16 16 17 20 23 24 23 23 23 24 27 28 27 25 24 24 24 24 24 23 23 22 21 20 19 17 17 18 19 18 19
28 29 31 33 35 35 35 33 31 28 27 29 29 30 32 38 43 45 44 44 44 43 42 38 34 29 24 21 20 18 16 16 16 18 21 25 27 27 26 26 26 27 27 26 23 22 22 22 23 22 21 22 22 21 20 18 16 14 14 15 16 16 16
29 27 26 25 27 29 31 32 30 27 27 28 30 31 34 38 41 41 40 40 39 37 36 33 30 27 24 24 23 20 17 17 19 21 23 26 27 27 26 26 26 24 22 20 19 20 20 20 20 20 20 21 21 21 19 16 13 12 13 13 13 13 13
19 18 19 21 25 27 29 30 30 29 29 31 33 36 38 39 38 37 37 36 33 30 28 26 26 26 26 26 26 23 23 25 27 27 26 26 27 26 24 24 22 20 19 19 19 19 18 18 19 20 20 19 18 17 15 13 12 12 13 13 12 12 12
19 21 24 25 26 26 26 27 29 30 32 34 36 39 39 38 36 35 35 33 29 27 24 20 18 19 21 22 24 27 29 30 30 29 28 28 27 24 22 21 20 20 19 19 18 18 17 18 18 19 19 18 16 14 12 11 12 13 13 13 13 13 14
27 29 31 30 30 30 31 33 34 35 37 38 38 37 36 34 32 32 32 31 29 27 23 20 20 22 24 25 25 26 27 27 25 24 23 22 21 21 21 21 20 20 19 18 18 17 17 17 18 18 18 16 14 12 11 11 12 13 14 14 15 15 15
31 33 35 37 39 41 40 39 39 38 38 37 35 32 29 28 26 26 26 25 23 23 24 26 26 26 26 27 25 23 22 22 21 21 19 17 19 21 22 21 20 19 19 19 18 17 16 17 17 17 17 15 13 12 12 12 13 14 15 15 14 15 17
32 34 37 41 41 41 39 37 35 34 32 30 29 27 23 20 20 20 19 17 19 21 24 26 27 26 26 26 24 21 19 19 19 18 17 17 20 21 21 20 20 20 20 20 19 17 17 17 17 17 17 15 14 14 14 14 14 15 15 15 15 17 19
33 34 37 38 37 35 35 33 32 30 27 24 24 24 20 17 16 18 19 18 19 20 21 23 25 26 24 22 20 17 16 16 16 15 16 19 20 20 20 20 20 21 21 20 20 20 20 20 19 18 19 18 16 14 15 15 15 15 16 16 17 18 19
28 29 30 30 30 29 29 28 27 27 25 22 21 21 20 17 15 16 18 18 17 17 16 17 18 19 17 16 15 14 13 13 13 14 16 18 19 18 20 20 21 21 21 21 22 22 22 22 21 21 21 20 17 15 15 16 16 15 16 17 18 19 21
19 19 20 21 22 22 22 22 22 22 22 21 19 18 18 17 16 16 17 18 17 16 15 14 13 12 12 12 12 12 12 13 14 14 17 18 18 18 19 19 20 20 21 23 24 23 23 23 22 22 21 20 18 17 16 16 16 16 17 18 20 22 23

ECMWFFLT1_700_spd_006.txt.gz
Wind_Speed
34 36 31 28 29 29 29 26 22 21 19 18 19 21 24 24 23 24 24 23 23 25 26 26 24 23 22 22 22 21 21 20 20 20 19 19 19 18 18 18 17 17 16 15 14 14 15 13 10 10 11 13 16 17 16 15 15 14 14 16 17 17 18
36 36 32 30 30 28 26 25 22 20 20 20 20 22 24 24 22 23 23 20 19 22 24 24 24 24 23 23 23 22 21 21 20 20 20 20 20 19 19 18 18 17 15 15 14 14 14 12 10 11 14 15 17 19 19 17 17 16 15 16 18 19 21
41 41 35 32 31 26 21 23 24 22 23 23 22 22 24 24 23 23 22 18 17 20 22 23 24 24 23 23 23 23 21 21 21 21 22 21 20 20 19 19 19 18 16 15 15 13 12 11 12 14 15 17 19 21 22 20 20 20 19 20 21 22 23
40 42 38 32 28 22 19 21 25 24 24 25 23 23 23 25 24 23 23 20 17 18 20 21 24 25 24 24 24 23 21 21 21 22 22 22 21 21 20 20 20 19 17 15 14 12 10 10 12 14 16 18 21 24 25 25 25 26 26 27 28 28 27
35 36 34 31 26 19 18 21 24 25 26 26 24 23 24 25 25 24 25 23 20 19 20 21 24 25 25 25 25 23 22 22 22 22 22 22 21 21 21 20 19 18 16 14 13 11 10 10 12 14 17 20 22 24 26 28 29 30 31 32 33 33 32
36 34 31 29 25 19 20 24 26 26 28 28 26 24 24 24 26 26 25 25 23 21 21 22 24 26 26 26 26 25 24 23 23 22 21 21 22 22 21 20 18 17 16 14 13 12 11 12 14 17 20 21 21 23 25 28 31 32 34 34 35 36 35
33 35 32 27 24 22 23 27 29 26 28 31 31 29 27 26 27 27 26 27 25 23 23 23 24 27 27 27 27 27 26 24 23 21 21 22 22 21 21 20 18 18 17 15 14 14 13 14 17 20 22 22 22 23 25 28 30 31 33 35 35 36 36
31 35 32 28 28 24 20 24 30 27 27 32 34 32 30 28 29 28 27 28 27 25 24 24 24 26 27 28 28 28 27 26 24 22 21 23 23 22 23 22 20 20 19 17 16 17 17 17 20 22 23 24 25 25 27 28 28 28 30 32 34 36 37
33 35 35 34 31 24 18 21 26 26 27 31 34 35 33 29 29 30 28 29 28 26 25 25 25 26 27 29 29 28 28 27 26 23 23 24 24 24 23 23 21 21 21 18 17 18 20 21 23 24 24 26 27 29 30 31 29 28 29 30 32 34 37
33 35 40 38 29 22 21 21 24 26 27 27 30 35 35 31 29 30 29 30 30 28 26 25 27 28 28 29 29 29 29 28 27 26 25 25 25 25 23 22 21 20 19 18 17 18 20 22 23 24 25 27 29 31 33 32 31 31 32 30 30 32 35
33 30 35 35 25 21 22 21 21 23 21 20 24 32 37 33 30 30 30 30 31 29 27 27 28 29 29 28 29 29 30 29 28 27 27 27 27 26 24 23 22 20 18 17 16 17 19 21 22 23 25 27 30 33 34 34 33 34 34 32 30 31 33
29 26 30 30 23 22 23 19 18 18 16 15 17 26 35 35 31 30 31 31 31 30 28 28 30 31 30 28 26 26 29 30 30 28 28 29 28 26 25 25 23 21 20 19 18 19 19 20 21 23 24 26 30 34 37 36 35 35 36 33 30 30 32
15 16 21 21 20 23 23 20 18 17 16 15 15 21 30 34 32 31 32 33 32 30 29 29 31 31 29 26 24 24 27 28 29 29 29 29 29 27 26 25 24 23 22 21 22 22 20 20 21 23 24 25 28 33 38 40 37 36 36 34 30 30 31
14 15 18 20 21 23 23 22 20 20 19 18 17 21 28 32 33 32 32 34 33 31 29 30 32 32 28 25 24 25 25 25 26 29 30 30 29 28 27 25 25 23 21 22 24 24 22 21 21 23 25 26 28 31 36 41 40 37 36 36 33 30 30
23 21 18 18 21 22 23 23 22 22 21 19 19 22 28 32 33 33 34 35 34 33 31 30 31 32 28 24 24 25 24 24 25 27 30 30 29 29 28 26 25 23 21 23 25 25 24 25 25 25 25 27 29 32 34 38 38 36 36 37 35 33 32
24 24 22 19 20 22 25 25 20 15 14 16 19 23 28 31 31 32 34 36 35 34 34 31 31 31 27 24 25 26 25 25 26 27 29 30 29 29 29 27 25 22 20 22 24 25 25 27 29 30 29 29 31 32 34 34 34 35 35 36 36 35 35
22 22 24 26 26 25 27 28 23 15 12 14 16 18 21 26 29 31 35 37 36 35 35 34 32 30 27 24 25 25 25 26 27 27 28 29 28 28 27 26 23 21 21 21 23 24 26 29 33 34 34 35 33 31 32 32 32 34 35 36 38 38 38
29 24 24 27 27 23 24 28 29 24 18 17 16 14 14 19 25 31 36 37 36 35 36 37 34 30 27 25 25 25 26 27 28 28 29 29 28 26 25 24 23 22 23 24 25 26 29 33 35 35 36 36 33 30 31 32 32 33 35 37 39 41 41
36 33 30 29 27 22 19 23 29 30 26 23 22 19 15 17 21 29 34 36 36 35 38 39 36 31 29 29 29 29 29 31 31 31 30 29 28 26 24 22 22 23 25 28 29 31 33 34 35 37 37 35 32 31 32 32 32 32 35 37 40 41 40
33 33 31 29 28 25 23 22 24 29 30 28 25 22 19 18 20 25 32 37 38 37 37 39 37 33 32 32 32 32 33 34 34 32 31 30 29 27 24 24 25 27 28 29 30 31 31 32 32 34 35 34 32 32 33 33 33 33 34 37 39 39 37
32 29 28 28 27 28 28 27 28 31 33 30 28 26 22 20 21 24 32 38 41 38 36 37 39 36 34 34 34 35 36 35 34 34 33 31 29 27 27 28 28 28 28 27 27 28 28 29 30 30 30 30 30 31 34 34 33 33 34 36 38 37 37
39 36 33 31 30 30 30 31 33 35 33 30 29 29 26 21 20 25 32 37 40 41 37 37 40 38 36 37 39 38 36 34 33 34 34 31 30 30 31 30 28 26 25 25 26 27 26 26 26 26 25 26 28 30 33 34 34 34 35 37 38 38 40
43 44 40 36 35 36 36 38 40 40 38 35 33 32 28 22 22 25 33 39 40 41 40 39 41 40 39 41 41 39 36 34 33 32 32 31 31 32 31 29 26 24 23 24 25 24 22 21 22 22 22 23 27 29 31 33 35 36 37 39 40 40 40
40 42 41 37 35 38 42 44 43 43 42 39 36 35 31 28 27 27 33 41 41 39 40 41 42 42 42 41 40 38 36 34 33 33 33 33 32 32 29 26 22 20 20 21 21 20 19 18 19 20 21 24 27 30 32 34 36 39 40 40 39 39 39
40 42 43 40 33 32 38 43 43 44 44 41 40 39 36 33 31 29 32 39 43 41 41 42 43 43 42 41 40 38 35 33 34 36 37 35 32 29 25 22 19 18 18 17 16 17 18 18 18 21 25 29 31 31 32 36 37 37 38 37 37 38 38
40 38 41 44 41 34 36 41 43 44 45 43 41 40 38 35 33 30 30 37 44 44 43 44 44 42 41 42 40 37 35 35 36 37 36 33 29 26 23 20 18 17 16 16 17 19 19 18 23 28 31 32 31 30 31 34 35 34 34 35 36 36 35
38 33 31 36 40 38 39 42 44 47 47 44 41 38 35 34 33 31 31 37 44 47 47 47 45 42 42 43 41 38 37 37 36 34 32 30 26 23 20 18 17 16 18 20 21 22 22 25 31 32 30 28 27 26 29 32 32 33 34 33 32 31 29
37 34 30 33 35 35 39 43 45 47 47 43 41 39 35 33 33 31 32 37 43 47 48 48 47 45 45 44 41 39 37 36 33 30 27 24 21 19 19 19 20 23 25 24 26 30 30 29 28 26 25 24 23 24 27 29 30 31 32 30 27 25 23
43 38 32 33 36 34 35 40 45 48 47 43 41 39 35 33 32 31 31 36 43 47 48 48 48 46 45 42 40 38 36 33 29 26 23 21 20 19 20 22 25 27 27 28 30 31 28 23 21 20 22 23 23 25 26 26 27 28 27 27 24 21 20
44 44 37 35 38 37 34 39 45 47 45 42 39 37 35 33 31 30 30 35 41 43 43 44 45 44 43 42 40 38 34 31 28 26 25 23 21 21 24 25 25 26 27 27 26 24 22 21 20 20 21 22 23 25 25 25 25 25 24 23 21 19 18
39 45 43 40 39 38 36 39 42 41 39 36 34 35 35 33 31 31 32 36 40 39 39 41 43 42 42 40 37 34 31 30 29 26 23 22 21 23 26 26 24 24 23 21 21 21 22 21 20 20 22 23 23 24 24 23 23 23 21 20 18 16 15
37 40 43 42 40 36 33 32 31 30 32 33 34 35 35 32 32 32 33 36 38 37 38 40 39 38 36 34 32 30 29 26 23 20 20 22 24 24 24 22 19 19 19 19 21 22 22 21 21 22 22 23 24 24 23 22 21 20 19 18 17 15 15
37 40 43 42 39 37 35 32 30 30 34 35 35 36 36 35 35 33 33 35 35 34 34 34 33 34 33 31 30 27 23 20 18 17 19 21 21 19 17 16 17 18 20 20 21 22 22 22 23 22 22 23 24 24 23 21 20 19 17 16 16 16 16
43 48 47 40 36 36 33 30 29 32 36 37 37 37 36 34 33 31 31 34 33 32 32 32 32 32 30 28 25 22 19 19 19 19 19 18 18 17 17 18 19 18 18 19 21 21 22 23 23 22 22 22 23 23 23 20 17 16 15 14 15 17 17
31 33 35 34 34 34 31 30 31 33 34 34 34 33 30 28 28 28 31 34 34 33 32 30 28 27 25 23 21 19 18 19 20 20 18 18 19 20 20 18 17 17 18 19 20 22 22 23 23 22 22 22 22 23 22 19 16 15 15 15 16 17 17
26 29 30 31 33 33 30 29 31 30 29 29 29 28 28 28 30 31 32 32 31 30 28 26 24 23 20 19 18 17 18 20 19 17 16 16 17 17 15 14 15 17 18 19 21 22 22 22 22 22 23 22 21 20 20 18 17 17 17 17 18 17 17
23 23 22 21 23 24 21 20 22 23 23 25 27 27 28 29 28 28 28 26 25 24 22 20 20 19 17 15 14 13 13 14 13 12 13 13 13 12 13 14 17 19 19 20 22 23 23 21 21 22 22 21 20 20 19 18 18 19 19 20 19 18 17
21 20 19 18 20 22 23 24 25 23 21 23 23 22 23 22 21 21 22 21 21 20 18 17 17 16 15 14 13 11 10 9 8 8 9 11 11 12 14 17 19 20 20 20 22 22 21 20 20 20 20 20 21 22 21 20 20 21 20 19 19 18 17

ECMWFFLT1_700_spd_009.txt.gz
Wind_Speed
37 39 39 39 40 38 34 31 28 25 23 20 18 18 18 20 21 21 20 20 21 21 22 23 24 25 25 24 23 21 20 19 18 18 17 16 15 15 16 16 13 11 12 11 9 9 9 8 7 6 4 5 7 8 11 12 12 13 13 13 15 17 18
38 38 40 40 40 40 34 31 29 27 25 23 22 22 20 20 21 20 18 18 18 19 21 22 23 25 24 23 22 21 21 20 19 18 17 16 17 16 15 14 12 12 13 12 10 10 10 7 6 5 5 7 8 9 12 13 12 14 16 17 19 20 21
36 35 37 39 39 37 33 31 30 26 23 23 25 25 24 22 21 20 18 17 16 16 18 21 23 24 24 22 22 22 21 21 20 19 17 17 17 16 15 14 13 14 14 11 10 10 9 7 5 5 6 8 9 10 12 12 12 15 18 20 21 21 23
33 32 34 38 39 33 28 29 27 24 22 22 25 25 25 24 22 20 20 18 17 17 16 18 21 22 23 22 22 23 22 22 21 19 17 18 18 17 16 15 13 13 12 10 10 10 9 6 5 6 6 7 9 9 10 12 13 15 17 20 21 22 24
35 35 35 37 36 30 29 29 25 23 23 23 26 26 25 25 23 22 22 20 19 18 16 17 19 21 21 22 23 23 23 22 21 20 18 19 19 17 17 16 14 12 11 10 10 10 10 7 6 8 8 8 8 8 9 11 12 14 16 19 21 22 24
36 36 35 34 30 28 31 30 26 25 25 24 25 26 25 25 25 25 24 22 21 20 19 19 20 21 21 23 25 25 24 23 22 21 19 19 19 17 17 16 14 11 10 11 11 10 11 10 8 9 10 11 11 10 11 12 13 14 16 17 19 20 23
38 35 35 33 28 26 29 29 27 26 25 24 24 25 27 26 26 27 26 25 24 22 22 21 20 21 22 23 26 26 25 24 23 22 20 19 19 18 17 16 14 12 11 12 12 11 11 11 10 11 12 13 13 14 15 16 16 17 18 19 19 20 22
39 36 35 34 30 26 26 28 28 26 25 26 26 27 29 28 27 28 28 28 27 25 25 23 22 22 22 24 26 27 25 25 24 23 21 20 20 18 16 15 14 13 12 12 11 10 10 12 12 14 15 15 16 16 18 19 20 21 22 23 23 23 23
38 38 36 35 34 29 28 29 28 26 26 27 29 29 29 28 28 28 30 30 29 28 26 25 23 23 24 25 26 26 26 26 25 24 22 22 21 18 15 13 12 13 12 12 11 10 11 12 13 15 16 15 15 16 18 20 21 23 25 26 27 27 27
35 38 36 34 33 31 30 32 30 26 26 27 29 29 28 28 28 29 31 32 30 29 27 25 25 25 26 26 25 26 27 26 26 25 24 23 21 18 15 13 11 11 12 12 12 12 12 13 15 15 15 13 13 15 17 18 19 22 25 27 29 29 30
34 35 34 33 31 30 31 35 32 25 24 26 28 29 28 29 29 29 31 32 31 30 28 27 27 27 27 27 26 26 27 27 26 25 25 24 22 19 16 15 13 13 13 13 12 12 12 13 14 14 13 13 13 15 17 18 19 21 23 26 28 30 31
37 37 35 33 32 31 32 36 33 23 21 24 25 26 27 28 28 27 28 30 32 31 29 28 29 29 28 28 28 27 26 27 27 26 25 25 23 20 18 17 16 15 15 14 14 14 14 14 14 14 14 13 14 16 19 21 23 24 25 26 27 30 31
35 38 35 32 30 29 30 33 30 22 19 21 20 20 22 23 23 22 23 26 29 31 30 29 30 30 30 29 28 27 26 26 26 26 26 25 24 22 20 19 18 17 16 16 16 16 17 16 16 16 16 16 17 19 21 23 26 27 28 28 29 30 31
31 38 34 29 28 28 29 30 26 20 19 20 19 20 20 20 21 19 19 20 24 29 31 30 31 31 31 30 30 28 27 25 25 25 26 26 25 24 23 22 21 19 19 19 19 18 17 18 18 19 20 20 20 21 22 24 26 29 30 30 29 29 29
26 35 32 27 27 28 29 28 25 21 21 21 21 22 22 22 23 21 20 18 20 25 29 30 32 32 31 31 31 29 27 24 24 25 27 28 27 26 25 25 24 23 23 22 20 19 19 20 21 22 22 22 23 25 26 27 29 30 31 32 32 30 29
16 23 25 24 25 28 29 30 27 24 23 23 22 23 23 24 24 23 21 18 18 22 26 29 31 32 31 31 31 29 27 25 24 25 27 28 28 27 27 27 26 26 24 23 22 21 21 22 23 24 25 25 26 27 28 29 31 33 34 35 36 35 33
13 15 19 22 25 28 30 30 28 25 24 24 24 25 25 24 24 23 21 19 18 20 23 26 28 31 32 30 29 29 28 26 25 26 28 28 28 28 28 27 27 26 25 24 22 22 22 23 24 25 26 27 28 29 30 32 33 34 36 37 37 34 33
15 16 19 23 26 29 29 27 26 23 23 24 26 28 28 25 23 21 19 18 18 19 23 25 26 29 31 29 28 29 29 27 27 27 28 29 29 28 28 27 27 27 26 24 23 23 24 23 23 24 25 27 29 30 31 31 33 35 36 39 40 36 32
21 18 22 26 25 24 26 27 25 23 23 24 27 31 31 26 21 18 16 16 16 19 22 25 26 28 30 30 29 29 29 28 28 29 29 30 30 29 28 27 26 25 24 24 24 24 23 23 22 24 26 28 30 31 31 31 32 35 36 40 43 38 31
24 19 23 27 25 22 22 23 24 23 22 20 24 30 31 25 21 18 16 16 17 19 23 26 28 29 31 31 30 30 30 29 30 31 31 32 32 30 29 27 25 22 22 22 23 23 23 23 24 26 29 31 31 32 31 30 30 31 34 41 44 37 31
31 27 25 26 27 27 25 25 26 28 26 22 22 28 31 27 23 20 19 18 19 21 24 27 30 31 32 32 32 31 32 32 32 33 33 34 33 31 29 26 24 22 21 21 22 23 24 25 27 28 29 30 31 31 29 26 24 25 30 39 44 38 32
38 37 34 29 27 28 28 30 30 31 32 28 24 25 29 29 27 26 24 23 23 22 23 27 30 32 33 33 33 33 33 34 35 36 36 35 33 30 27 25 23 22 22 22 24 25 26 26 27 27 26 27 27 25 23 21 21 25 30 36 41 39 34
39 41 40 35 33 33 31 32 31 29 30 32 29 27 29 29 29 29 28 27 27 24 24 28 32 33 34 34 34 34 34 36 38 39 39 37 34 30 26 23 23 23 24 26 27 26 25 25 25 23 22 21 18 16 18 21 26 33 37 38 39 39 36
36 39 37 32 32 37 37 34 33 29 27 29 29 29 30 30 29 30 30 30 30 28 26 29 33 36 36 36 35 35 35 37 40 42 42 38 34 31 28 25 24 25 27 28 28 27 25 24 22 19 16 14 14 16 21 28 35 42 43 38 35 36 36
33 32 32 31 30 35 39 40 40 40 37 35 35 35 35 37 36 35 36 36 35 35 32 31 34 39 40 38 37 37 37 40 43 45 43 39 34 31 29 28 27 27 28 29 28 25 23 21 17 14 14 15 19 23 28 34 40 43 41 34 31 33 35
33 30 29 33 34 35 37 37 39 45 47 44 42 41 41 42 43 43 44 43 42 43 41 36 35 39 41 40 39 40 41 43 45 46 44 39 35 32 32 31 30 31 31 29 25 23 22 19 16 15 17 20 24 29 34 38 39 39 35 31 30 32 33
30 31 27 28 34 39 41 39 37 40 42 39 38 39 40 43 46 48 49 49 48 48 46 42 38 37 40 42 43 44 45 44 45 46 44 39 36 35 34 33 33 33 31 26 24 23 21 18 17 19 22 25 29 33 34 34 32 31 29 28 29 30 29
26 28 26 23 24 31 40 44 43 42 41 41 42 42 43 46 49 51 52 53 54 52 48 44 42 40 41 44 45 46 46 45 45 46 42 38 36 35 35 34 33 31 27 24 24 23 20 19 21 23 24 26 29 30 29 27 25 24 23 23 24 24 25
31 30 30 28 24 25 32 39 41 40 37 36 37 39 41 44 48 52 53 52 53 52 46 43 44 44 44 47 49 49 47 46 46 45 41 39 37 36 36 34 31 27 26 26 25 21 19 21 22 22 22 25 27 26 24 22 21 20 20 20 21 22 23
34 31 31 30 26 24 27 33 38 40 38 34 32 35 40 43 45 49 51 53 53 50 46 45 46 46 46 49 52 51 50 50 48 45 43 41 39 38 35 30 27 27 28 28 24 20 19 18 17 19 22 25 27 25 22 20 19 18 19 19 20 21 22
36 33 31 32 31 27 25 29 34 38 40 40 37 37 40 42 43 43 45 49 52 50 47 48 50 51 52 54 56 56 56 55 52 49 48 45 40 35 31 29 30 30 29 25 21 16 13 13 15 20 23 25 26 23 20 19 19 18 18 20 20 20 19
37 36 34 33 33 30 27 28 31 34 37 38 37 39 41 44 48 49 46 48 53 54 51 53 56 58 58 58 59 60 60 59 56 53 49 42 35 30 31 32 30 26 23 19 15 11 11 15 19 21 23 25 25 21 19 19 19 18 18 19 18 17 17
37 39 39 37 37 36 35 35 36 36 37 37 37 40 43 46 52 54 51 53 59 59 56 56 57 57 56 54 53 53 53 52 51 46 39 33 31 33 33 29 23 18 17 14 12 13 17 20 20 22 24 24 22 20 19 18 18 18 18 17 16 16 16
37 39 41 42 42 43 43 44 46 46 45 44 45 47 49 50 52 52 50 52 59 59 58 58 55 49 46 45 41 39 38 38 37 34 32 33 34 32 27 22 18 16 14 14 16 18 20 20 20 22 23 22 21 20 19 17 17 18 16 15 15 16 16
36 38 40 42 44 45 46 46 48 48 49 49 49 50 51 52 53 52 50 51 54 54 52 53 49 40 35 35 32 28 27 29 31 33 33 32 29 24 20 17 15 15 16 18 18 17 17 18 20 21 21 21 21 21 18 15 16 17 16 16 17 17 17
34 36 39 40 41 43 45 46 46 47 48 50 51 54 55 55 53 51 47 46 49 49 45 43 41 36 31 29 28 28 30 32 32 29 25 22 19 16 13 13 13 13 14 15 14 15 16 18 19 20 20 20 20 20 17 14 14 16 17 17 18 18 18
31 35 38 38 36 35 38 41 41 40 40 41 43 44 43 41 40 38 34 35 37 36 33 29 29 30 31 31 31 30 29 26 23 20 18 17 16 15 14 14 12 10 10 11 13 15 17 18 19 19 19 18 19 19 17 14 14 17 18 17 18 19 19
28 30 32 32 27 20 19 24 28 29 27 25 25 25 25 26 26 23 20 18 17 19 21 22 25 27 28 27 25 23 20 17 15 14 14 14 16 15 14 13 10 8 9 11 13 15 16 18 18 18 18 17 18 18 16 15 15 16 17 18 19 19 19

ECMWFFLT1_700_spd_012.txt.gz
Wind_Speed
40 40 38 36 34 33 32 31 29 26 24 23 22 21 20 22 25 27 28 29 30 31 32 33 32 32 31 30 27 25 25 23 22 20 18 18 18 17 16 15 15 14 13 13 12 12 13 13 12 9 9 9 8 8 8 4 1 2 3 5 6 8 10
38 38 38 35 33 33 31 30 29 26 25 24 22 21 21 22 24 26 26 26 27 28 29 30 31 32 31 31 29 27 26 25 22 21 20 19 19 18 16 15 14 13 13 15 15 15 15 15 13 10 9 9 9 9 8 5 3 2 2 4 6 8 10
37 36 35 33 31 30 28 28 28 26 25 24 23 22 22 23 24 25 25 24 24 25 27 28 29 30 31 31 30 28 27 25 23 22 21 20 19 17 16 15 15 15 15 17 17 17 16 15 14 12 10 10 9 9 9 7 5 5 3 4 5 7 9
34 34 33 30 28 27 27 26 26 25 26 25 24 23 23 24 24 24 24 23 23 24 25 26 27 28 30 31 30 29 27 26 24 23 22 22 20 18 17 17 16 16 17 18 18 19 18 16 15 13 11 10 10 11 11 9 8 8 6 4 5 6 8
33 33 33 31 29 29 29 29 27 26 26 25 24 23 23 24 25 26 25 24 24 23 22 22 24 27 29 30 30 28 27 26 25 24 24 23 21 19 18 18 18 18 18 18 19 19 18 17 16 14 12 11 11 12 12 10 10 10 9 6 5 6 7
33 33 32 30 29 30 30 30 28 26 25 26 26 24 23 24 26 28 28 27 26 24 22 21 23 25 27 28 28 27 27 27 26 26 26 25 23 21 20 20 20 20 19 19 19 19 18 17 16 14 13 12 12 13 13 12 11 11 11 9 8 7 8
32 32 31 29 28 28 27 27 28 27 26 27 27 25 25 25 27 29 30 29 28 25 24 24 24 25 25 25 25 26 27 27 27 27 27 26 24 22 22 22 21 21 21 21 20 19 19 17 16 15 14 14 14 13 13 13 13 13 12 12 12 11 12
31 30 30 28 26 26 25 24 25 26 28 28 28 27 27 27 28 30 31 30 28 26 26 27 26 26 25 24 23 24 26 27 28 28 28 27 26 24 23 23 23 22 22 21 20 20 19 18 17 16 15 15 13 13 13 13 14 13 13 14 15 15 15
31 29 28 25 24 25 25 24 24 26 29 31 30 29 28 29 30 31 31 29 28 28 29 29 29 27 26 25 23 22 24 27 29 29 29 29 27 25 24 24 24 23 22 21 21 20 19 19 18 17 16 15 13 12 13 13 13 12 11 12 14 16 18
36 31 26 24 25 26 27 26 25 27 30 32 32 30 30 31 32 32 31 29 28 28 30 31 30 29 28 27 25 23 24 27 30 30 30 30 28 26 24 24 24 24 22 22 22 21 20 19 18 17 16 15 13 12 12 11 12 12 11 11 12 15 18
39 33 27 26 29 31 32 32 30 28 30 32 32 32 32 32 33 34 31 28 27 28 30 32 31 30 30 29 27 25 25 27 30 31 31 30 29 27 25 24 24 24 23 23 23 23 22 21 19 18 17 15 13 12 11 11 12 14 14 14 15 16 18
41 36 30 28 31 33 34 36 35 30 29 31 32 32 33 34 35 35 31 28 28 29 29 30 31 31 31 30 29 28 26 26 29 31 31 31 29 27 25 23 23 24 24 24 24 24 23 22 20 19 17 15 14 13 12 12 13 15 16 17 18 18 20
42 39 32 30 32 34 35 36 37 34 30 32 32 32 34 35 36 35 32 29 29 29 28 29 30 32 32 32 32 30 28 27 28 30 31 30 29 28 26 24 24 25 26 26 26 25 24 23 21 18 17 16 16 15 14 14 15 16 16 18 20 20 21
41 40 34 33 33 32 34 36 38 36 33 33 33 31 33 35 36 35 32 30 29 28 28 29 30 32 32 32 33 32 30 28 28 30 31 31 31 30 28 26 26 27 28 28 27 26 25 23 21 20 19 19 18 18 18 19 19 19 19 21 23 23 23
40 43 37 35 34 33 33 34 36 36 34 35 34 31 31 34 35 34 32 30 29 28 27 27 29 31 33 33 33 33 31 30 29 30 31 32 32 31 30 29 29 29 30 30 29 27 26 25 24 24 23 22 21 21 22 22 22 22 23 24 25 26 26
33 37 36 34 33 35 36 33 32 34 33 34 35 31 29 31 32 32 32 30 28 26 25 25 28 31 33 33 32 33 33 32 31 32 33 33 33 32 32 31 31 31 31 30 28 27 26 25 25 24 24 22 22 23 23 23 23 24 25 27 28 29 29
29 29 31 30 29 35 39 34 30 31 31 32 34 31 28 28 28 29 29 29 27 26 25 25 27 29 32 33 32 33 34 33 33 33 34 34 34 33 33 32 32 32 32 31 29 28 27 26 26 25 23 23 23 23 23 24 25 27 28 29 30 30 30
28 26 26 27 26 30 36 36 32 30 30 31 32 30 28 28 29 29 30 29 28 27 26 27 27 29 31 32 33 35 35 34 34 34 35 35 35 34 34 34 34 34 33 32 31 29 28 28 27 26 25 25 24 24 24 25 26 27 29 30 30 31 30
23 24 24 23 19 20 27 32 31 29 30 31 30 29 30 31 31 31 31 30 29 28 27 28 28 29 31 33 34 36 36 35 34 34 35 35 35 34 35 36 36 35 35 34 31 30 30 30 29 28 27 26 24 23 24 25 27 28 30 31 32 33 32
21 22 25 24 18 14 19 25 27 28 30 30 29 28 29 29 29 28 28 28 29 30 28 27 27 28 31 34 36 37 37 36 35 34 35 36 36 35 35 36 36 35 34 32 31 32 32 31 30 28 27 25 23 23 25 27 28 29 31 32 33 34 33
21 20 23 28 25 19 18 21 25 27 27 28 29 28 27 26 26 25 27 30 32 31 29 27 26 26 29 34 38 38 36 35 34 34 35 36 37 37 36 35 35 35 32 29 29 30 30 30 29 27 25 23 23 24 26 28 29 29 29 30 31 32 33
20 18 17 23 27 26 24 24 26 28 29 30 31 29 27 25 24 24 26 29 31 31 29 27 26 24 26 31 38 38 36 34 34 34 35 37 37 37 37 36 36 33 30 29 28 28 28 27 26 25 24 24 25 26 27 28 27 26 26 26 28 31 32
25 23 19 19 24 28 28 26 26 29 30 31 32 32 28 25 25 24 26 29 31 29 28 26 25 23 22 26 34 38 36 32 32 33 35 36 37 37 37 37 35 32 31 31 30 28 26 24 23 23 25 25 25 26 26 25 23 23 24 26 29 31 32
25 25 24 23 22 24 26 26 25 27 27 27 32 34 29 26 27 27 28 31 32 31 29 27 26 24 22 21 27 35 37 33 30 32 36 36 36 37 38 38 35 33 33 33 30 28 26 23 23 25 26 24 24 23 23 22 21 23 25 27 30 32 31
23 24 25 25 23 21 22 23 25 27 27 28 32 34 29 26 28 30 31 33 33 31 31 30 28 25 23 20 21 27 33 35 33 32 35 37 38 38 39 38 35 34 34 32 29 28 27 25 26 27 25 23 23 22 21 21 22 25 28 30 31 31 30
25 24 24 24 24 23 23 23 24 26 28 29 32 31 28 27 29 30 31 31 31 32 32 31 28 25 24 24 23 25 28 34 37 36 35 37 39 40 41 39 36 35 33 30 28 28 28 28 28 26 24 23 22 21 21 21 23 28 31 32 32 31 29
27 26 25 24 25 25 25 27 27 26 26 30 33 33 33 33 33 34 33 33 35 37 36 35 33 31 30 29 29 30 30 31 35 38 38 37 39 42 43 40 38 36 34 32 31 30 30 30 28 25 24 23 23 22 22 22 25 30 34 33 31 29 27
25 26 26 26 27 28 28 28 30 29 27 30 34 36 37 37 37 39 40 41 42 42 41 41 39 36 34 32 33 34 35 34 34 36 38 40 41 43 44 42 40 39 37 35 35 33 32 30 28 25 25 25 25 23 22 23 25 30 32 31 28 26 25
22 23 23 24 25 27 28 28 29 31 30 30 30 31 34 37 39 41 43 45 46 46 46 45 40 35 32 33 34 34 36 38 37 36 38 41 43 45 45 42 39 39 39 38 37 36 35 33 30 27 26 27 26 23 22 22 24 27 28 27 25 25 24
26 25 25 24 23 24 26 27 27 29 31 31 30 29 30 34 38 40 42 43 46 48 47 44 40 36 33 33 33 33 34 37 37 37 39 42 44 46 47 43 39 40 41 41 42 40 37 34 31 28 28 27 24 21 20 20 23 25 25 24 24 24 24
31 30 30 30 27 26 25 25 26 28 29 31 31 30 30 31 35 42 46 45 46 49 48 45 42 39 36 35 34 34 35 37 38 39 41 43 45 48 50 47 43 42 44 45 45 41 36 34 32 29 27 25 22 20 20 21 23 24 24 23 23 23 23
32 33 33 33 32 30 27 25 25 28 29 31 31 31 30 30 34 42 48 48 48 50 49 47 43 39 37 37 37 35 36 37 40 43 44 46 47 49 52 50 47 46 48 47 43 38 37 37 34 29 25 22 21 22 23 23 24 24 23 22 22 22 21
28 30 33 33 35 35 33 30 28 28 30 32 33 34 33 32 34 39 43 47 49 46 41 37 36 35 36 38 37 37 39 42 45 47 49 50 52 52 52 52 51 50 47 42 38 38 40 38 32 26 21 21 21 23 24 24 23 23 21 20 20 20 19
23 25 28 30 33 36 37 38 37 35 34 33 34 36 38 37 35 35 37 41 42 39 33 32 34 36 38 40 41 43 45 47 51 55 57 57 56 55 53 52 51 48 43 38 36 37 36 31 27 22 20 21 22 23 22 22 23 22 21 20 19 18 17
24 24 25 27 29 32 36 40 42 42 40 39 38 39 40 41 40 38 37 38 39 38 36 37 39 39 39 40 42 44 48 52 55 57 61 62 58 54 53 52 49 45 42 38 35 32 29 26 24 23 22 23 24 23 21 22 23 22 21 19 18 16 15
26 26 25 27 28 30 34 37 40 41 42 42 43 44 44 45 45 44 44 45 45 45 44 44 44 44 44 45 45 47 55 66 71 68 66 66 62 56 54 53 49 45 41 36 33 32 29 25 26 27 26 26 25 21 19 21 23 22 19 17 16 14 13
26 26 25 26 27 29 31 33 35 37 39 41 43 45 47 49 49 49 50 52 52 53 53 52 52 52 51 51 50 49 49 55 63 65 63 59 55 51 48 47 47 44 38 34 33 32 28 27 27 27 26 25 23 20 18 20 22 20 18 15 15 13 12
23 23 23 25 26 27 27 28 29 30 32 35 38 41 44 47 48 48 48 50 51 53 54 54 55 55 53 50 50 50 46 40 38 42 47 45 40 37 35 36 39 39 37 34 32 29 27 26 26 25 25 25 21 18 18 19 19 18 16 15 14 13 13

ECMWFFLT1_700_spd_015.txt.gz
Wind_Speed
35 33 31 30 32 33 32 31 30 28 27 26 25 25 25 24 24 26 28 31 33 34 34 34 34 33 32 31 29 28 28 27 25 24 24 24 23 21 20 19 19 19 18 17 15 12 11 13 14 14 13 13 13 12 11 9 7 6 5 3 2 1 1
40 36 33 31 31 32 33 33 32 31 29 28 26 25 25 25 25 26 26 28 30 32 34 34 35 35 33 32 31 31 30 28 26 25 25 25 24 23 21 20 19 19 19 18 16 14 14 15 15 15 14 14 14 14 12 10 9 7 6 4 3 2 2
42 39 37 33 30 30 32 34 34 32 31 29 28 27 26 26 26 26 26 25 26 28 32 33 34 34 34 34 34 33 32 31 29 27 27 26 25 23 22 21 20 19 19 19 17 16 16 17 17 16 15 15 15 15 14 12 10 9 8 7 5 4 2
41 40 37 34 31 30 31 34 35 33 31 29 29 28 27 26 26 26 25 24 24 25 27 29 30 32 33 34 35 35 34 33 31 28 27 27 26 24 23 23 21 20 20 19 18 18 18 19 19 17 16 16 16 16 15 13 12 11 11 10 8 6 4
40 41 39 37 34 31 31 33 34 33 30 28 28 28 27 26 26 25 24 23 23 23 23 24 26 28 30 32 34 34 35 34 32 30 29 28 27 26 25 24 22 21 21 20 18 19 20 21 20 19 18 18 17 17 15 14 13 13 13 12 11 9 8
33 35 38 38 35 32 30 30 32 31 28 27 26 26 27 27 27 26 25 24 23 23 23 23 24 25 27 29 31 33 34 34 33 31 30 30 29 27 25 24 23 22 21 21 20 20 21 22 22 21 20 19 18 17 16 15 15 15 14 13 13 13 13
25 27 32 35 34 32 28 28 29 29 28 26 24 25 27 28 28 27 27 26 25 24 24 24 24 25 27 28 29 31 32 33 32 31 31 31 30 28 26 25 24 23 22 22 22 22 23 23 23 23 21 20 19 18 18 17 17 16 16 15 14 15 16
22 24 28 31 32 30 26 25 26 27 27 27 27 27 28 28 28 28 28 27 26 26 26 25 25 26 27 28 29 30 31 31 31 30 30 31 31 29 27 26 25 24 24 24 23 23 24 24 25 24 23 22 20 19 18 18 18 18 17 16 15 15 16
25 27 27 28 30 29 25 23 23 25 27 28 28 28 27 28 29 29 29 27 27 27 27 27 27 28 27 28 28 29 30 30 30 30 30 31 31 29 27 27 26 26 25 24 23 23 24 26 26 26 25 23 22 20 19 19 19 18 17 16 15 14 15
26 29 28 28 30 29 26 24 24 26 28 27 27 28 28 29 29 29 28 28 28 28 29 28 28 29 29 29 29 28 28 28 28 29 29 29 30 29 27 27 27 27 26 25 24 25 25 26 27 27 26 24 23 21 20 19 19 18 17 16 15 15 15
19 23 28 30 32 31 29 27 26 27 27 26 26 27 28 29 30 29 29 29 29 29 29 28 29 30 30 30 30 29 28 28 27 27 27 27 28 28 27 27 29 29 27 26 26 26 26 28 28 28 27 25 23 21 20 19 19 18 18 18 18 18 18
18 19 24 29 33 33 30 28 28 28 27 27 27 27 29 31 31 30 30 29 29 29 29 29 30 31 32 31 31 30 29 29 27 26 25 25 27 27 27 28 29 29 28 27 27 27 28 29 29 28 27 24 23 22 20 19 19 19 19 19 20 20 21
22 21 21 26 32 36 34 30 29 30 29 28 27 27 29 32 31 31 30 29 28 28 30 31 31 32 33 33 33 32 32 30 28 26 25 25 26 27 28 28 29 29 28 28 28 28 29 30 29 28 26 25 24 22 21 21 20 20 20 21 21 21 21
28 28 26 26 30 37 39 34 30 31 30 29 29 28 30 31 32 31 30 29 27 28 30 32 33 34 34 34 35 35 34 32 30 27 25 25 26 27 28 28 29 29 28 28 29 30 30 30 29 28 27 26 25 23 23 23 22 22 22 22 23 22 23
27 31 31 28 26 32 39 38 32 30 30 29 29 30 31 31 32 32 31 30 29 28 30 33 34 34 34 34 35 36 35 34 32 29 27 26 26 27 27 28 29 29 29 29 30 31 31 31 30 30 29 28 26 25 25 25 24 23 23 24 25 25 25
24 28 30 28 23 25 35 40 37 32 31 31 30 30 31 31 32 32 31 31 30 29 31 33 35 34 33 33 33 34 35 35 34 32 30 28 26 26 27 28 29 30 29 29 30 32 33 32 32 32 31 29 28 27 27 26 25 25 25 27 27 27 28
22 22 24 25 23 23 29 38 40 35 33 34 32 31 30 30 31 32 31 31 31 31 32 33 35 35 34 33 33 34 35 35 35 34 32 30 28 27 28 29 29 30 30 30 32 33 34 34 34 33 31 30 29 29 29 28 26 26 27 28 29 30 31
20 19 19 21 24 25 26 33 38 37 34 34 33 32 32 31 31 32 32 31 30 32 33 34 35 34 33 33 33 35 36 36 36 36 34 33 31 29 29 29 30 30 31 33 33 34 36 36 35 34 32 31 31 31 30 28 26 26 27 29 30 31 32
17 17 16 17 21 25 26 29 33 35 34 33 33 34 32 31 31 31 31 30 30 31 34 34 34 34 33 32 33 35 36 36 37 37 36 35 34 32 31 31 31 31 33 34 35 36 37 37 36 36 34 34 33 31 29 28 27 27 28 29 31 31 32
15 17 17 17 19 22 24 27 30 33 33 30 30 32 32 31 30 30 30 31 30 31 32 32 32 32 32 31 31 32 34 36 37 37 37 37 36 36 34 33 32 33 34 36 37 38 39 39 39 39 37 35 33 31 30 29 28 29 29 30 31 32 34
18 18 17 16 17 18 19 23 27 31 32 30 28 29 31 30 29 30 31 32 31 31 31 29 29 30 30 30 30 30 32 33 35 36 37 38 38 38 37 35 34 35 36 38 38 39 39 40 41 41 38 36 34 32 32 31 30 30 30 31 32 32 35
24 22 20 17 16 17 17 18 22 26 29 29 27 28 29 29 28 30 32 32 32 31 28 26 26 27 28 30 31 31 33 33 33 33 35 38 38 38 38 38 37 36 37 40 41 39 39 41 43 43 41 38 36 35 34 32 32 32 31 32 34 33 35
29 29 26 21 17 16 15 15 18 22 24 25 25 27 29 29 30 31 32 32 30 27 25 24 25 26 29 31 32 32 32 33 33 33 33 36 38 38 39 39 39 38 38 40 41 40 40 42 44 44 42 39 37 37 35 33 33 32 31 32 34 35 34
29 30 29 24 20 18 17 14 14 18 21 23 24 26 27 30 32 32 31 30 27 24 23 24 25 25 27 30 32 31 29 30 33 35 34 34 35 37 39 40 40 40 40 40 40 40 39 41 43 42 40 38 37 36 34 33 33 32 32 33 36 38 35
28 28 28 27 25 24 22 19 18 20 21 22 24 25 28 31 34 33 31 29 27 25 24 25 25 25 25 28 29 28 24 24 27 31 33 35 37 37 38 39 41 41 41 41 40 39 39 40 41 40 38 35 34 33 33 34 34 32 32 32 36 39 35
28 28 29 30 30 29 26 24 23 24 25 25 25 27 29 32 34 34 32 30 29 28 27 26 27 26 27 28 27 24 22 21 20 20 23 29 34 37 37 39 40 41 41 41 40 39 39 40 40 39 37 34 32 31 33 35 33 32 31 31 32 36 34
26 27 30 33 33 31 29 26 26 26 27 27 26 27 30 31 33 33 33 33 33 32 28 27 28 29 30 30 27 24 23 21 19 18 19 21 25 30 35 38 40 41 41 41 40 40 40 40 40 39 38 36 33 33 34 35 34 31 30 29 30 33 34
24 25 27 29 29 29 28 29 29 30 30 29 28 29 31 32 32 32 33 35 37 34 29 28 30 32 33 32 28 26 25 24 24 25 26 25 23 24 28 34 39 41 41 40 41 41 42 43 42 41 40 39 37 35 35 36 36 32 29 29 30 32 35
20 20 21 22 23 24 25 26 28 29 30 31 31 32 34 36 36 35 36 37 36 35 33 32 33 35 36 35 33 31 30 29 27 28 30 31 29 26 26 29 34 39 40 40 40 41 44 45 43 41 41 39 37 37 38 40 38 32 30 31 31 32 34
15 16 17 17 18 19 20 22 23 25 27 29 31 33 35 38 41 42 43 42 39 38 37 36 36 37 39 39 38 36 35 33 31 31 33 33 32 30 30 30 31 34 37 39 39 41 44 45 44 41 40 38 37 39 42 42 38 33 32 32 31 30 31
15 16 17 18 18 19 19 19 20 21 23 25 28 31 33 35 38 41 43 43 42 42 42 41 41 42 43 43 43 42 41 39 38 36 35 35 35 34 34 34 32 32 34 36 39 41 44 45 45 43 41 40 40 42 42 40 36 34 34 34 34 32 30
15 17 18 20 22 23 24 24 23 23 23 23 25 27 29 31 33 35 36 38 40 42 44 45 46 46 47 47 47 46 45 45 44 41 39 40 41 39 37 38 38 37 37 37 38 40 44 47 47 45 44 44 45 44 41 38 35 34 33 36 38 34 29
14 16 17 19 21 24 26 27 27 27 27 27 27 27 28 28 29 31 32 33 35 37 40 43 45 47 49 50 50 49 49 50 49 48 45 44 45 44 42 41 42 43 43 41 39 39 41 44 48 49 48 47 46 43 40 38 36 34 33 36 38 34 29
16 16 17 18 19 22 24 27 28 29 30 30 30 31 31 31 31 31 32 32 33 34 36 39 41 43 46 49 51 53 54 53 52 52 50 48 47 45 42 42 45 46 46 44 43 41 39 42 48 51 48 44 41 39 39 37 33 30 31 34 34 30 27
16 17 18 19 19 20 22 24 27 28 30 31 32 32 33 34 34 35 36 36 36 37 38 39 40 41 43 45 48 52 53 51 49 50 51 52 51 48 46 47 49 49 49 50 49 48 47 48 49 48 44 39 36 36 36 32 27 27 31 33 30 27 26
16 18 19 20 20 21 22 22 24 27 29 31 33 33 34 35 36 37 39 39 40 40 40 40 41 41 41 40 41 44 46 46 46 48 51 53 56 58 59 59 57 55 56 57 56 55 56 54 51 48 43 36 32 32 31 28 27 31 34 32 28 26 24
17 18 19 20 21 22 22 23 23 24 27 30 33 35 36 38 39 40 40 41 41 42 43 44 44 44 43 42 41 42 44 45 47 50 50 51 54 59 61 61 59 58 59 60 60 61 62 59 53 48 42 33 29 29 29 28 29 34 36 33 29 26 22
18 19 19 19 20 21 21 23 23 24 24 26 29 32 34 36 38 40 41 41 43 44 45 47 49 50 50 49 49 49 50 51 52 53 53 52 52 54 56 55 54 56 59 62 64 64 61 56 49 43 37 32 30 29 29 27 29 33 33 31 30 27 23

ECMWFFLT1_700_spd_021.txt.gz
Wind_Speed
19 18 15 13 15 20 26 30 31 30 31 30 27 25 26 29 30 32 32 33 33 32 32 33 33 33 32 31 29 27 26 26 25 24 23 22 20 19 19 18 17 15 13 12 13 16 18 18 19 19 18 18 18 17 17 18 18 17 15 14 14 12 11
21 18 16 14 15 16 20 26 30 31 31 32 30 27 26 27 29 30 31 31 32 31 32 33 33 33 32 31 30 29 27 26 25 25 24 23 21 20 20 20 19 17 15 13 13 16 19 21 21 21 21 21 20 20 20 20 20 18 17 16 15 14 14
22 19 17 16 16 16 17 21 27 31 32 32 32 31 29 28 28 28 28 29 30 30 31 32 33 33 32 32 31 30 29 28 26 25 24 23 21 21 21 21 20 19 18 16 14 16 20 22 22 23 23 23 22 22 22 22 21 20 19 18 17 17 16
22 18 16 16 17 17 17 17 21 28 32 33 32 31 31 30 29 28 27 27 28 28 29 29 30 31 31 32 32 31 31 29 28 26 25 24 23 23 23 23 22 21 19 18 17 16 19 22 23 24 24 24 24 24 24 24 23 21 20 20 20 19 17
22 18 17 17 17 16 15 13 15 20 27 32 33 32 31 31 31 30 29 28 27 26 27 28 29 30 30 31 31 31 31 30 29 28 27 26 25 25 25 24 23 22 21 20 19 18 19 21 24 24 25 25 25 25 26 26 25 23 22 22 21 20 17
24 19 18 17 16 15 14 12 13 15 20 26 30 32 31 32 33 33 31 30 29 28 28 29 30 30 30 31 31 31 31 31 31 31 30 29 28 28 27 26 25 24 23 22 22 20 19 21 23 25 26 26 26 27 27 27 26 25 23 23 22 20 18
27 21 18 19 18 16 15 15 14 14 16 19 25 30 32 34 35 34 33 32 30 30 30 29 29 29 29 30 31 32 32 33 33 32 32 31 31 30 29 28 28 27 25 24 23 23 21 21 23 25 27 27 28 28 28 28 28 27 25 24 23 21 19
26 24 20 20 20 17 18 17 13 11 13 16 20 25 30 35 35 35 35 33 31 32 32 31 31 29 27 27 27 28 30 33 34 34 34 33 33 33 32 31 31 29 28 26 25 25 24 23 23 26 28 30 30 30 30 29 29 28 27 26 24 22 20
21 24 23 23 23 22 23 20 14 10 11 15 17 20 24 30 34 35 35 34 33 34 33 32 32 30 28 27 25 24 25 28 31 34 35 35 34 34 34 33 33 32 31 29 28 27 26 25 25 26 29 31 32 32 31 31 31 30 29 27 25 23 22
19 22 25 25 25 25 26 23 17 13 11 14 17 20 21 24 29 32 34 35 35 34 33 32 32 31 30 29 27 25 24 24 26 29 32 34 34 34 34 34 34 33 33 32 30 29 29 27 27 28 30 33 34 34 33 33 32 32 31 29 27 25 23
21 21 22 23 24 26 26 23 18 13 10 13 18 22 24 23 26 29 32 33 33 33 33 33 33 31 30 29 29 28 26 24 24 25 27 29 31 32 33 33 34 34 35 34 32 31 31 31 30 29 31 34 36 36 35 34 34 33 32 30 29 26 24
20 21 22 22 23 23 23 22 18 13 10 12 17 23 25 26 27 29 30 30 30 31 32 33 33 32 31 30 30 29 27 26 26 26 25 26 27 28 29 31 32 33 33 33 31 32 33 33 32 32 32 34 37 37 37 36 35 35 34 32 30 28 26
14 18 22 24 25 24 23 23 22 18 12 12 17 21 23 25 27 29 30 31 30 31 32 32 32 32 32 31 31 30 29 28 28 27 26 26 26 26 26 27 28 29 29 30 31 32 34 34 34 33 33 34 37 38 38 38 37 36 35 34 33 31 29
10 12 16 20 22 22 23 24 25 21 16 13 16 21 23 24 27 29 30 31 31 31 31 31 32 33 33 32 32 32 31 29 29 28 28 28 28 27 27 26 26 27 27 28 30 32 33 35 35 35 34 35 37 39 40 40 39 38 37 36 34 33 31
12 11 12 14 16 17 19 22 24 23 20 15 15 21 24 24 26 29 31 31 31 31 30 31 32 32 33 34 34 34 32 31 30 29 29 30 30 30 29 27 26 26 26 27 28 30 33 35 36 37 36 36 37 40 41 41 41 40 38 37 35 34 33
16 12 9 8 9 11 14 18 22 24 23 19 14 17 23 26 27 29 31 32 32 32 32 32 32 33 34 35 36 34 33 32 32 31 31 32 32 32 32 29 28 27 27 27 27 29 32 35 37 39 38 37 38 40 42 43 42 41 40 38 36 35 35
21 17 13 10 9 10 11 14 20 24 25 22 16 15 20 26 29 29 30 32 33 33 33 32 33 33 35 36 36 35 33 33 33 33 33 34 33 33 34 32 30 28 28 28 27 28 31 35 38 40 40 39 38 39 42 43 42 41 41 40 38 36 36
27 24 21 19 16 15 13 13 17 22 25 24 20 17 19 24 29 31 31 31 32 33 32 32 32 33 34 36 36 35 35 35 34 34 35 35 35 35 35 34 32 30 30 30 29 28 30 34 39 40 40 40 39 40 41 42 41 42 42 41 40 38 38
30 28 26 24 21 19 17 15 15 20 24 25 23 21 20 23 28 31 33 32 31 32 32 31 31 32 33 34 35 35 36 35 34 34 35 35 35 35 34 34 34 32 32 31 31 29 30 34 38 40 41 41 41 41 41 42 41 42 43 42 41 40 40
30 29 27 25 23 20 20 18 16 19 22 24 24 23 22 23 26 29 33 34 33 32 31 30 29 29 30 31 33 34 34 34 33 34 34 34 34 34 34 34 34 34 34 33 32 32 32 34 37 39 40 42 43 42 42 42 42 42 43 43 42 42 42
29 28 26 24 23 22 22 21 18 19 21 23 25 25 24 24 26 27 30 33 33 33 31 29 28 28 29 30 31 32 33 33 32 32 32 33 34 34 34 34 34 35 35 35 34 34 35 35 36 38 40 42 43 43 44 44 44 43 43 44 43 43 43
27 26 25 24 23 22 24 23 19 18 20 23 25 26 25 24 27 29 29 29 31 31 30 30 29 29 29 29 30 31 32 32 33 33 33 33 33 34 34 35 35 35 36 36 36 36 37 37 37 38 40 43 44 45 46 46 45 44 44 45 44 44 45
25 24 23 22 22 23 26 25 20 17 18 20 22 24 25 25 28 31 31 29 29 28 29 29 29 30 30 29 29 30 32 33 33 33 33 32 33 34 35 35 35 36 36 37 38 38 38 39 39 39 41 43 45 46 47 47 46 46 46 46 46 45 46
23 23 22 20 19 22 27 27 22 18 17 18 20 22 25 26 28 31 32 31 29 29 30 31 30 30 31 31 31 31 32 33 33 32 33 33 33 34 35 35 36 36 36 37 38 40 39 39 41 42 42 43 45 47 47 48 48 47 47 47 47 47 47
21 21 22 20 18 19 25 28 25 22 20 19 18 20 23 26 28 30 32 32 30 30 31 32 31 31 33 34 35 34 33 32 32 33 34 34 32 33 34 34 35 35 36 37 39 40 41 41 42 43 44 44 45 47 49 49 49 48 48 48 48 48 48
21 21 21 21 19 18 21 26 27 26 23 22 20 19 20 23 26 28 30 31 31 31 29 29 31 33 34 36 36 36 34 33 32 32 32 30 29 30 31 32 33 34 35 37 38 39 41 42 42 43 45 46 46 47 49 50 51 50 50 50 49 49 50
22 21 21 21 20 19 19 21 23 24 25 24 23 21 21 21 23 25 27 29 31 30 29 28 30 33 35 36 37 36 34 33 31 30 28 27 26 27 28 29 31 33 35 36 37 39 41 42 42 42 45 47 49 49 49 50 51 51 51 51 51 51 51
23 22 21 21 22 21 20 19 20 22 24 25 24 23 23 23 22 23 25 27 28 29 30 30 30 32 34 35 35 34 33 33 31 28 27 27 27 28 28 30 31 33 34 35 37 39 40 41 41 41 44 47 51 52 51 50 50 51 52 53 53 53 54
24 23 23 22 23 23 22 21 20 21 24 26 26 26 26 26 25 24 23 24 25 26 28 28 28 29 31 33 34 33 32 33 32 30 29 29 29 29 30 31 31 32 33 36 38 40 41 41 40 41 43 46 50 53 54 54 53 51 52 53 53 54 55
26 26 25 24 25 24 23 23 22 22 24 27 29 30 30 29 28 27 25 25 25 24 25 26 27 28 29 31 33 33 32 33 33 32 32 31 31 31 31 31 32 33 34 35 37 39 41 41 41 42 42 44 46 50 54 56 56 55 55 54 54 55 56
28 28 27 27 27 26 25 25 24 23 24 27 30 32 33 33 31 29 28 28 27 27 26 26 27 28 29 31 32 34 35 35 36 35 34 33 32 32 31 31 32 35 35 35 36 38 39 40 41 42 44 45 46 48 51 54 56 57 57 56 56 55 55
30 30 29 29 28 28 27 26 25 24 24 26 29 32 34 35 33 32 30 30 29 29 28 28 28 30 31 31 32 34 36 38 38 36 35 35 35 34 34 34 34 36 37 38 38 38 39 40 40 40 41 43 45 46 49 52 53 55 56 56 55 53 52
31 31 30 29 29 29 28 28 27 26 25 25 27 30 34 35 34 33 32 32 31 31 30 30 30 30 31 32 32 34 36 36 36 36 36 37 38 38 39 39 38 38 40 42 42 42 43 43 42 41 41 42 43 45 47 49 50 52 53 54 53 53 54
32 31 31 30 29 28 28 28 28 28 28 27 28 30 34 35 35 33 33 33 33 33 32 32 31 31 32 32 32 33 34 35 36 37 38 39 39 40 41 41 41 42 43 44 46 47 48 48 48 47 46 46 46 46 46 47 49 50 50 50 51 53 54
31 31 31 30 29 28 27 27 28 29 29 29 29 30 32 33 33 32 32 32 32 31 31 30 30 31 32 32 33 34 35 37 39 40 41 42 43 44 45 45 46 48 48 49 49 50 51 53 53 53 53 53 52 52 51 51 50 50 49 49 50 53 55
30 30 30 29 28 27 26 26 27 28 29 28 28 28 29 29 29 29 29 29 30 29 29 29 29 29 30 31 33 34 36 38 40 41 42 44 45 46 48 49 50 52 53 53 53 54 55 56 57 57 57 57 57 57 57 55 52 49 49 51 51 52 52
28 28 28 29 28 26 25 24 24 25 25 25 25 26 27 27 27 28 28 29 29 29 29 30 30 31 31 32 33 35 36 38 39 40 41 42 43 45 47 48 49 51 53 53 54 55 56 58 60 61 61 61 62 61 60 59 57 54 53 52 52 52 50
26 25 25 26 25 24 23 22 22 22 22 22 23 24 24 25 26 26 27 28 28 29 30 31 31 32 33 35 36 38 39 40 41 42 43 44 46 47 49 50 52 53 54 54 55 56 57 59 60 61 62 62 63 63 63 63 62 60 59 56 52 52 50

ECMWFFLT1_700_spd_027.txt.gz
Wind_Speed
24 23 23 18 17 23 23 21 22 22 22 21 21 21 22 22 23 26 27 28 29 30 32 33 33 32 31 30 29 27 27 26 26 27 26 25 24 24 23 20 18 17 15 13 13 13 13 15 17 18 18 18 19 20 20 20 20 19 18 17 17 17 17
26 24 24 21 18 19 19 19 21 23 23 22 21 22 23 23 22 23 25 27 28 29 30 32 33 33 32 31 29 28 27 26 26 27 27 26 25 25 23 21 20 18 16 15 14 14 13 14 16 18 19 19 20 21 21 21 21 20 19 19 18 18 18
31 27 24 22 20 18 17 16 17 20 23 24 23 22 22 22 21 20 21 23 27 28 29 31 32 32 33 32 30 29 27 27 27 27 27 27 26 25 23 22 21 19 18 18 17 16 15 15 15 17 18 20 21 22 22 22 22 22 21 21 20 19 18
31 28 25 24 21 18 18 16 14 17 21 23 23 23 22 21 22 21 19 19 23 27 29 30 31 31 32 32 31 30 29 28 27 27 27 28 27 26 25 24 22 21 20 20 19 19 18 16 15 16 17 19 21 23 23 23 23 23 23 22 21 20 19
29 28 28 26 23 22 20 16 14 16 18 20 22 24 25 24 23 23 20 18 19 23 26 27 29 30 31 31 31 30 28 27 27 27 28 29 29 28 27 25 23 22 22 22 22 21 20 19 18 17 17 17 19 22 23 23 24 24 24 23 23 22 21
29 30 29 26 24 23 20 16 15 15 15 17 20 23 27 27 25 24 23 21 18 19 22 26 28 30 30 29 30 30 29 28 27 27 28 30 30 29 28 26 25 24 23 24 24 23 22 21 20 19 19 18 17 19 21 23 25 26 25 25 25 24 23
28 29 29 28 26 24 19 16 15 15 14 16 19 22 26 27 26 26 25 24 21 19 20 23 26 28 29 29 30 30 30 28 28 27 28 29 30 29 28 27 26 26 25 26 25 25 24 23 22 21 21 21 20 19 20 22 24 26 26 26 26 26 25
26 29 29 28 27 25 20 17 15 14 13 14 17 20 23 26 27 27 27 26 25 23 22 21 21 23 25 28 30 30 30 29 29 28 28 29 30 29 28 28 28 27 27 27 27 26 26 25 24 24 23 23 22 21 21 21 22 25 26 27 27 27 27
23 27 27 25 25 24 21 18 17 16 14 12 14 17 20 24 27 28 28 28 28 27 24 22 21 20 21 24 26 27 28 29 30 30 29 29 29 29 29 29 28 28 28 28 28 28 28 27 27 27 26 25 25 24 23 22 21 23 25 26 28 29 28
20 24 26 25 23 22 23 22 20 19 17 14 13 15 18 22 25 28 30 30 29 28 26 25 24 23 22 22 22 23 25 27 28 29 30 30 30 29 29 29 29 29 29 29 29 30 30 30 29 29 29 28 27 26 25 23 22 22 24 26 27 29 29
20 24 26 25 23 22 24 24 23 22 19 16 14 15 16 19 24 28 30 31 31 31 30 29 28 27 25 24 23 23 23 24 26 27 28 29 29 29 29 29 29 30 30 30 30 31 32 32 32 32 31 30 30 28 27 25 24 23 23 25 26 28 30
20 23 23 20 17 17 19 21 23 24 21 17 16 15 17 20 23 27 30 31 33 34 34 33 32 31 28 26 26 25 24 24 25 26 26 27 28 28 28 28 30 30 31 30 30 32 33 33 33 33 33 33 32 31 29 28 27 26 25 25 26 28 30
17 18 18 15 13 13 14 16 20 21 18 17 16 16 16 18 21 25 29 31 34 37 38 36 36 35 32 30 29 28 27 26 25 25 25 25 26 26 27 28 30 31 31 31 31 32 34 35 34 34 34 34 34 33 32 31 30 29 28 27 27 28 30
10 11 12 13 13 13 13 13 14 15 15 16 17 15 14 14 16 20 25 30 33 36 38 39 39 38 36 34 32 31 29 28 27 26 25 25 25 25 26 27 29 31 32 32 32 33 34 35 36 35 35 35 35 35 34 34 33 32 32 30 29 29 30
8 6 7 10 13 13 14 13 14 15 16 16 17 16 14 13 13 15 19 25 31 35 38 40 41 40 39 38 35 33 31 30 29 28 27 27 26 26 26 27 28 29 30 30 30 31 32 34 36 36 36 36 36 36 36 36 35 34 34 33 32 32 32
5 5 6 8 10 12 15 16 15 16 16 16 18 18 17 16 15 15 17 20 26 32 36 39 39 40 40 38 36 35 34 33 32 31 30 29 29 28 27 28 28 28 28 29 29 29 29 30 33 35 35 35 35 36 36 36 36 35 35 35 34 34 34
4 4 5 6 7 11 17 18 16 15 14 14 17 19 19 18 16 16 17 19 22 27 34 37 37 37 38 38 37 37 36 36 35 34 33 31 31 30 29 29 30 30 30 30 31 30 29 28 31 33 33 33 33 34 34 34 34 34 34 35 35 35 35
5 5 5 5 6 9 13 15 15 14 15 15 16 19 19 19 17 16 16 18 21 25 30 34 34 33 34 36 38 38 37 37 36 36 35 34 33 32 32 32 32 32 33 33 33 33 32 30 30 31 32 32 31 31 31 31 31 32 32 33 35 36 36
7 6 6 7 8 7 8 11 13 15 16 16 16 18 19 20 19 17 16 17 20 23 26 30 31 29 29 31 34 35 36 36 36 36 35 34 34 34 34 34 33 33 34 35 35 35 35 33 32 32 32 33 32 32 31 31 31 30 30 30 32 35 36
12 11 10 10 10 10 11 13 15 16 17 16 16 17 18 20 21 20 18 17 18 21 23 27 29 27 24 25 28 30 31 32 34 35 35 34 35 35 35 35 33 33 34 35 35 35 35 35 35 34 33 33 34 33 32 32 32 32 31 30 30 32 35
15 16 15 13 14 16 17 18 17 17 17 17 18 19 19 20 22 23 21 18 18 20 23 26 29 27 22 21 23 25 26 27 29 32 34 34 34 34 35 34 33 33 34 35 35 35 35 36 37 36 35 35 35 35 33 32 32 32 32 31 30 31 34
13 13 15 16 19 20 20 20 19 19 18 18 19 20 20 20 22 23 23 21 19 21 23 25 28 28 24 21 22 23 23 23 26 28 30 31 32 32 32 33 33 33 35 36 36 36 36 36 37 37 37 37 36 36 34 33 33 33 33 32 31 32 34
13 15 19 21 21 21 22 23 22 20 19 19 19 20 21 21 22 22 22 22 22 21 23 24 27 30 28 24 23 24 24 23 24 26 27 28 28 28 29 31 33 34 35 36 37 37 37 37 37 38 38 38 37 36 35 34 35 34 33 33 32 33 35
17 20 23 22 19 20 24 26 24 22 21 22 22 21 21 22 21 21 21 22 23 23 23 23 24 27 31 31 28 27 27 27 26 27 28 27 27 28 29 31 33 34 36 37 38 38 38 38 38 38 38 38 38 37 35 35 35 35 35 34 34 34 35
22 22 20 19 20 21 23 24 25 24 23 23 24 24 23 23 22 21 20 21 23 24 23 23 22 23 28 33 35 32 30 30 29 29 29 30 29 30 32 33 34 36 37 38 39 40 41 41 40 40 40 40 39 38 37 36 37 36 35 35 35 35 36
22 21 19 20 22 20 20 22 25 25 24 25 26 26 26 25 23 22 21 21 22 24 24 24 23 22 24 29 36 38 35 33 32 31 31 32 33 33 34 35 37 38 38 39 40 42 43 42 42 42 41 41 41 40 39 38 39 38 37 36 36 37 38
21 22 21 22 22 20 20 21 22 23 24 24 25 27 29 29 26 23 22 21 21 22 24 26 26 25 24 25 31 38 40 37 35 34 34 34 34 36 37 37 38 39 40 41 42 43 43 43 43 43 43 42 42 42 41 40 41 40 39 37 37 37 38
23 23 23 24 23 22 21 21 21 22 23 23 24 26 29 30 29 26 23 21 20 20 22 26 28 27 27 26 27 33 40 41 39 37 36 35 36 37 38 39 40 41 41 42 43 44 44 44 44 44 44 44 44 44 43 43 43 43 41 39 38 38 38
25 24 24 25 25 24 22 21 21 23 24 24 23 25 27 30 31 29 26 23 22 20 20 24 27 28 28 26 26 30 38 42 42 40 39 39 39 40 40 42 43 43 44 44 45 46 46 46 46 46 46 46 46 46 45 45 46 46 43 40 39 39 38
27 26 25 25 26 25 24 23 22 24 26 26 24 23 24 26 29 30 29 26 24 22 20 21 23 24 24 24 24 28 35 42 44 43 43 43 43 43 44 44 45 46 46 46 47 48 48 48 47 47 47 48 48 48 47 48 48 49 47 44 41 40 38
26 27 27 27 27 27 27 27 25 24 27 27 26 24 23 24 25 27 29 28 25 23 22 21 21 21 20 20 20 23 29 36 41 44 45 45 46 47 46 46 47 47 47 47 47 48 48 48 48 48 48 49 49 48 49 50 50 51 49 46 43 42 41
25 28 29 29 29 28 29 29 27 25 26 28 28 25 23 22 23 24 25 26 26 25 24 23 22 21 20 20 19 19 22 26 30 35 39 42 44 45 45 45 45 45 46 46 47 47 47 47 47 48 49 49 49 49 50 50 48 48 47 45 42 41 41
22 26 28 30 30 29 29 30 29 27 26 27 28 27 24 23 22 22 22 24 25 25 25 25 24 23 22 22 21 21 20 20 21 24 27 30 32 34 35 37 38 39 40 41 43 44 45 46 47 48 48 48 47 47 46 44 43 42 43 43 42 40 40
21 23 26 29 31 30 30 31 31 29 28 27 27 26 25 23 22 21 22 23 24 25 25 25 26 26 25 24 24 24 23 22 21 21 21 23 24 26 27 28 30 33 34 36 38 40 42 43 44 43 42 41 41 40 40 39 40 40 41 43 43 41 41
22 23 25 27 29 30 30 31 31 30 30 28 27 25 25 24 23 22 22 22 22 22 23 24 24 25 26 26 27 27 27 26 25 24 23 23 23 24 24 25 27 29 31 32 34 36 36 37 37 36 36 36 36 37 38 39 39 40 42 44 45 45 44
24 25 26 27 28 29 30 31 31 31 30 29 27 25 24 24 24 24 23 23 22 21 21 21 22 24 25 27 28 28 28 28 27 26 25 24 24 24 24 24 25 26 28 30 32 32 33 34 34 34 35 36 37 39 40 41 42 43 45 47 49 50 51
28 28 29 29 29 29 29 31 31 30 29 28 27 26 25 25 25 25 25 24 24 23 22 22 23 25 26 26 27 28 28 28 28 27 26 25 25 25 25 26 26 27 28 29 31 32 33 34 35 35 37 38 40 41 43 45 46 48 49 50 52 54 56
31 32 31 30 30 29 30 31 31 30 29 28 28 28 27 27 27 26 26 26 25 25 24 24 25 25 26 26 26 27 27 27 27 26 26 26 26 27 27 28 28 29 30 30 31 32 34 35 37 38 39 41 43 45 47 48 49 50 52 53 54 55 56

ECMWFFLT1_700_spd_030.txt.gz
Wind_Speed
36 36 31 25 21 22 25 28 28 26 26 29 30 29 26 22 20 18 19 23 25 25 26 26 26 26 26 26 25 24 24 23 23 23 23 23 22 22 20 19 19 17 15 13 11 10 10 11 13 13 13 13 13 13 14 15 15 15 15 15 15 13 12
32 34 30 26 24 23 25 30 31 31 31 32 31 31 28 24 21 18 16 20 25 26 26 26 26 26 27 27 26 25 24 24 24 24 23 23 23 22 22 21 20 18 16 13 12 11 11 11 12 12 12 13 14 14 14 14 15 16 16 16 16 14 13
32 33 29 26 25 22 22 25 26 29 32 33 31 29 26 23 20 17 14 16 22 26 26 26 26 26 26 27 27 26 25 24 24 24 23 22 22 22 22 22 22 20 17 15 14 13 12 11 11 11 11 12 14 15 15 14 15 17 17 17 17 16 14
35 32 30 30 28 22 20 21 19 22 28 30 28 25 23 22 21 19 15 14 18 23 26 26 26 26 26 27 27 27 26 25 24 23 22 22 21 22 23 23 23 22 20 17 15 14 13 13 13 12 11 10 11 14 15 15 15 17 18 18 18 17 16
37 32 30 32 31 24 22 22 19 20 24 27 28 26 25 24 22 20 17 15 16 19 22 25 26 26 27 27 28 27 26 25 24 23 22 22 22 23 24 24 25 23 21 19 18 16 15 15 14 14 13 11 10 11 13 15 15 16 18 19 19 19 17
35 33 32 33 33 29 26 23 21 20 21 25 28 26 26 26 24 21 19 17 16 17 20 23 26 27 27 28 28 27 27 26 25 24 23 23 23 24 24 25 25 24 23 21 20 18 18 17 15 14 15 14 13 11 12 13 14 15 17 19 19 20 19
35 36 33 33 35 32 27 22 20 19 19 23 26 26 26 26 26 24 21 20 18 17 18 20 24 27 28 27 27 27 27 27 27 26 25 24 24 24 25 26 26 25 24 23 21 20 20 19 18 16 15 16 16 15 13 13 14 14 15 16 18 19 20
35 35 29 31 35 30 25 24 23 22 22 22 24 25 23 24 26 26 23 22 21 20 19 19 21 24 25 26 27 27 28 28 27 27 26 25 25 25 26 27 27 26 25 25 23 22 21 21 21 20 18 17 17 18 17 15 14 15 15 14 16 18 19
34 34 28 31 34 29 25 28 27 26 24 20 20 22 21 21 24 24 23 23 23 23 22 21 21 21 23 25 26 28 28 28 28 28 28 27 27 26 26 27 28 28 27 26 24 23 23 22 23 23 22 20 18 19 19 18 16 16 16 14 14 16 18
33 34 32 32 31 28 29 30 27 25 22 17 17 19 19 19 21 22 24 24 24 24 24 22 21 20 21 24 26 28 28 29 29 29 29 29 27 27 26 27 28 28 28 27 26 25 24 24 24 24 24 23 21 20 20 20 19 18 18 17 16 15 17
29 32 35 32 30 30 30 28 24 23 21 17 17 19 19 18 19 21 23 24 25 26 25 24 23 21 20 22 25 27 28 29 30 30 30 29 28 27 26 26 27 28 28 28 27 26 25 25 26 25 25 24 24 22 21 21 22 22 21 20 19 18 18
29 32 33 29 32 35 30 26 24 24 22 18 16 17 18 16 18 20 21 23 25 27 27 26 26 25 22 22 24 25 27 28 30 30 30 30 29 28 27 27 27 27 27 28 27 27 27 26 27 27 26 26 25 25 24 24 24 25 24 23 23 22 20
29 31 29 25 29 33 29 27 27 27 27 21 14 14 16 15 16 18 19 21 24 26 28 28 28 28 26 24 24 24 25 26 28 29 28 29 29 28 28 28 27 27 27 27 27 27 28 27 27 28 28 28 27 27 27 27 27 27 27 26 25 25 24
28 31 31 30 32 31 30 27 24 25 28 23 16 16 17 16 17 17 18 19 21 24 27 29 30 31 30 27 26 25 25 24 25 26 26 26 27 28 28 27 27 27 27 27 27 26 27 28 27 28 28 29 29 28 28 29 30 30 30 29 27 27 27
25 31 31 32 32 30 30 28 24 25 26 22 19 20 20 18 18 17 16 16 18 21 25 28 29 31 31 30 28 28 27 25 24 25 25 25 26 26 26 26 25 26 26 26 26 25 26 27 28 28 28 29 29 29 29 31 32 31 31 30 29 28 28
16 21 22 22 23 24 27 27 25 24 22 22 23 21 20 20 18 16 14 13 14 16 21 25 27 30 32 31 30 30 30 28 26 26 25 25 26 25 25 25 24 25 25 26 25 25 25 26 27 28 28 28 29 29 29 30 31 30 31 30 30 29 28
11 14 15 15 17 19 21 21 20 19 18 18 19 18 18 19 18 16 15 13 13 13 17 21 23 26 28 30 31 32 32 32 30 29 28 27 26 26 25 24 24 24 25 25 25 24 24 24 25 26 27 26 26 27 27 27 28 28 28 28 29 29 29
9 15 14 10 13 16 20 21 19 17 16 16 16 17 18 18 18 18 16 15 15 14 15 17 19 21 24 27 30 31 32 33 33 32 31 29 28 28 26 26 26 26 26 26 26 26 25 24 24 24 26 26 25 24 25 24 25 25 25 25 25 27 28
7 12 11 9 11 14 18 20 15 12 14 15 17 18 18 19 19 19 18 17 18 17 15 16 17 18 19 21 24 26 28 32 34 34 34 32 30 29 29 29 29 28 28 27 28 28 28 27 26 26 26 27 26 25 24 24 24 24 25 25 24 25 26
6 8 8 9 11 13 15 15 13 14 15 16 16 16 16 19 19 19 19 19 20 20 18 16 16 17 16 16 17 19 23 27 30 33 35 34 33 32 31 31 31 30 30 30 30 31 30 29 29 28 28 28 28 27 26 25 24 24 24 25 25 25 26
4 4 4 6 11 16 18 17 18 19 20 19 18 15 15 19 21 21 21 21 20 21 20 18 17 16 15 14 14 16 18 21 24 29 33 35 35 34 33 33 32 32 32 32 32 31 31 30 30 29 29 29 29 29 28 27 26 26 25 25 26 27 27
5 5 6 9 15 19 20 19 18 18 19 20 19 16 15 18 20 21 21 21 21 22 21 20 18 16 15 15 14 15 17 19 20 23 28 32 35 35 35 34 34 34 33 34 34 33 32 32 31 30 30 30 30 31 30 29 28 28 27 27 27 28 28
11 14 15 15 18 19 19 21 19 17 19 20 18 16 17 17 18 19 21 22 22 22 22 22 19 17 16 16 16 16 17 19 20 21 23 27 30 33 34 34 35 35 34 35 35 34 34 33 33 32 32 32 32 31 31 31 30 30 29 29 29 30 30
18 18 17 16 17 18 18 18 18 19 21 22 20 18 18 18 19 20 21 23 23 23 23 23 21 18 17 17 18 19 19 19 21 21 22 24 27 30 32 34 35 35 35 36 36 35 35 34 34 34 34 34 33 32 32 32 32 32 31 31 31 32 32
20 20 17 16 18 18 17 16 18 19 21 23 22 20 18 18 19 20 21 22 23 24 24 23 22 20 19 18 19 19 20 21 22 22 23 24 26 28 29 32 33 34 35 36 36 36 37 36 35 34 34 35 34 34 33 33 34 34 33 33 34 34 34
20 21 20 20 20 19 17 19 20 20 21 23 23 21 21 20 19 20 21 21 22 23 23 23 24 23 21 20 19 19 19 19 22 24 24 24 25 27 29 31 32 33 34 35 35 36 37 37 36 35 35 36 36 36 35 35 35 36 35 36 36 37 37
20 19 19 21 21 20 19 20 21 21 21 23 23 24 24 22 21 21 21 22 22 21 21 23 25 25 24 22 21 20 19 19 20 23 26 27 27 28 30 31 31 32 33 34 34 35 36 37 38 38 37 37 37 37 36 37 38 38 38 38 39 39 40
23 21 19 19 20 21 21 20 21 22 22 23 24 25 25 24 24 23 23 24 24 21 21 24 25 25 25 24 23 22 21 20 20 21 25 29 31 32 32 32 32 33 34 34 35 36 37 38 39 40 40 40 39 39 39 40 41 41 39 39 40 42 43
25 23 21 19 21 22 21 20 22 22 23 23 23 23 25 26 25 25 25 26 27 25 23 23 24 25 24 24 24 24 24 23 22 21 23 27 32 35 35 35 36 36 36 37 37 38 38 39 40 41 42 43 43 44 44 44 44 43 41 41 41 43 44
28 27 25 23 23 23 22 22 24 24 23 23 22 22 25 26 26 26 27 28 28 28 27 25 24 24 24 24 24 24 25 26 25 24 23 25 30 36 39 40 39 39 39 39 40 40 41 41 42 43 44 45 46 47 47 48 47 47 45 44 44 45 45
28 28 28 26 26 25 24 24 25 24 24 23 22 22 24 26 27 27 26 27 29 29 29 28 26 24 24 24 24 23 24 26 26 26 25 24 27 32 37 42 43 42 42 42 42 42 43 43 44 45 45 46 47 48 49 50 50 50 50 49 48 48 48
26 28 28 27 27 26 25 25 25 25 25 24 23 22 23 26 28 27 26 27 28 28 29 29 28 26 24 24 24 23 23 24 25 26 26 25 26 28 32 38 43 45 45 44 44 44 45 45 46 47 47 48 48 49 50 50 50 50 50 50 50 50 50
23 25 25 26 25 25 25 26 26 25 25 26 25 23 22 25 27 28 27 27 26 26 27 28 28 27 25 24 24 23 22 21 22 23 24 24 25 25 27 32 39 44 46 46 45 45 45 46 46 46 46 46 46 47 47 47 47 47 46 47 48 48 46
18 19 21 22 23 23 24 25 26 26 25 26 26 25 23 24 26 28 28 27 25 25 25 26 27 27 26 25 24 24 23 22 20 20 21 21 22 23 24 26 31 37 41 43 43 42 42 42 41 40 40 40 40 41 41 41 41 41 41 42 43 41 40
13 15 17 18 20 21 21 22 25 26 25 24 24 26 25 24 25 28 29 28 25 24 25 25 27 27 27 27 26 25 25 23 22 21 21 21 22 22 22 23 25 27 31 33 33 33 32 32 32 32 32 32 32 33 33 33 33 34 35 37 37 37 36
14 15 16 16 17 18 18 19 22 25 25 24 24 25 26 25 26 28 29 29 26 25 24 24 25 26 27 27 27 27 26 25 25 24 23 23 24 24 24 24 24 24 25 26 26 26 25 26 26 25 26 27 28 28 29 29 30 31 33 34 36 37 38
19 20 20 20 20 19 19 19 21 22 23 23 23 24 25 26 27 28 29 29 27 26 25 24 25 26 26 27 27 27 26 26 25 25 24 25 26 26 25 26 26 26 26 25 25 24 24 24 23 23 24 25 26 27 28 30 31 32 34 35 37 38 39
23 24 25 25 24 24 24 23 22 22 22 22 23 24 25 26 27 27 27 28 27 26 24 24 25 26 26 25 25 25 24 24 24 24 23 24 24 24 25 25 24 24 24 23 23 23 23 24 24 25 25 26 27 28 30 31 33 35 36 37 39 40 41

ECMWFFLT1_700_spd_033.txt.gz
Wind_Speed
36 34 31 28 28 26 23 24 25 24 23 23 24 24 23 21 22 21 20 20 22 22 22 23 23 23 24 24 25 26 25 24 24 23 23 22 21 21 20 19 18 17 14 12 11 12 13 13 13 13 13 12 11 10 10 10 10 10 9 8 7 7 6
39 37 34 30 28 27 25 25 25 24 23 24 25 25 23 21 20 20 20 20 22 24 24 23 24 24 23 24 25 26 25 25 25 24 23 23 22 21 20 20 19 17 15 13 12 13 14 14 13 12 13 13 12 11 10 10 10 10 9 8 7 7 7
39 37 35 30 26 24 25 27 27 25 24 25 25 24 22 21 20 19 18 18 21 24 25 25 24 24 23 24 26 27 26 26 26 25 24 22 21 20 20 20 20 19 17 15 14 14 14 13 13 12 12 12 12 11 10 10 10 9 9 8 7 7 7
41 39 36 30 25 23 25 28 28 27 26 24 24 22 21 23 23 21 18 18 20 24 26 25 25 24 24 25 27 28 27 27 26 25 23 21 20 19 20 20 20 19 19 17 16 15 14 13 13 11 10 10 11 11 9 9 9 10 10 8 7 7 7
43 40 35 31 27 25 26 28 28 27 26 25 24 24 25 25 25 23 19 18 19 22 24 25 25 25 25 26 27 28 27 26 26 25 24 22 20 20 21 20 19 19 19 18 17 17 16 14 12 11 10 9 9 8 7 6 6 8 9 9 8 8 8
45 41 34 31 27 24 27 28 25 24 25 26 25 25 26 26 24 23 19 18 19 21 24 26 27 27 27 27 27 27 28 27 26 25 24 23 22 21 21 19 19 19 19 18 18 18 17 15 13 11 10 9 9 8 7 6 5 5 6 7 8 8 8
43 38 31 27 23 22 27 27 23 21 23 25 24 24 26 25 23 22 20 19 19 21 24 26 27 28 27 27 27 28 28 28 27 26 24 24 23 22 21 20 20 19 19 19 20 19 18 17 15 13 11 10 9 8 8 7 6 5 5 5 6 7 8
40 38 31 26 23 22 25 25 23 23 23 25 25 24 25 24 23 23 22 20 20 21 23 24 25 27 27 27 27 27 28 28 27 27 26 25 25 23 22 22 21 20 20 20 20 20 19 18 16 15 14 13 11 10 9 8 8 7 6 5 6 7 8
40 38 31 26 25 22 21 23 24 24 24 25 25 24 25 25 23 23 23 22 22 22 23 23 24 25 26 27 28 28 28 29 29 29 28 27 26 25 24 23 21 21 21 21 20 20 20 19 17 16 14 14 13 12 11 10 9 8 8 7 7 7 8
41 39 31 27 26 22 20 23 25 26 26 25 22 22 24 25 24 24 24 24 23 23 23 23 23 23 24 25 26 28 29 30 30 30 30 29 28 27 25 24 23 22 22 22 21 21 21 20 19 18 17 15 14 13 13 12 11 10 10 9 9 9 10
36 35 30 27 26 24 24 26 27 28 28 25 21 22 25 26 24 25 25 25 24 23 23 23 23 23 24 23 24 26 28 30 30 31 31 30 29 28 27 25 24 24 23 23 23 22 22 21 21 21 20 17 15 13 13 12 13 13 12 11 11 11 12
31 29 29 29 28 28 27 27 28 29 28 25 22 23 25 24 22 23 24 24 24 24 23 24 24 24 24 23 23 24 27 29 30 31 31 31 30 29 28 27 26 25 24 24 24 23 23 22 22 21 20 19 17 16 14 14 14 14 14 14 14 14 14
32 29 31 32 31 31 28 26 26 26 26 24 21 23 23 20 19 20 22 23 23 24 24 24 25 25 25 24 24 23 25 27 28 29 29 30 30 29 28 28 27 26 25 24 24 24 24 23 23 22 21 20 19 18 17 16 17 16 16 16 16 16 16
34 33 35 34 33 32 27 25 24 21 21 23 21 21 19 16 15 17 19 20 21 22 24 25 26 27 26 25 24 23 22 23 25 26 27 28 29 29 29 28 27 27 25 25 25 25 24 24 23 22 21 20 20 19 19 19 19 18 18 18 18 18 18
38 39 38 36 35 32 27 24 22 18 19 22 22 20 18 14 14 15 16 17 18 19 22 24 26 28 27 27 25 23 22 21 22 24 26 27 28 29 29 28 28 27 26 26 25 25 24 23 23 22 22 21 20 20 20 20 20 19 19 19 19 20 19
38 39 38 38 36 32 26 22 21 20 19 21 23 23 21 17 16 16 16 16 16 18 20 22 25 27 28 27 26 24 23 22 21 22 24 26 27 27 28 28 27 27 26 26 25 24 24 23 23 23 22 21 20 20 20 20 20 20 20 20 21 21 21
37 37 37 38 36 31 26 21 21 22 23 23 25 26 24 21 19 18 17 17 16 16 18 19 21 24 26 27 26 26 26 25 23 22 23 24 25 26 27 26 26 26 26 25 24 23 23 23 23 22 21 20 19 19 19 19 19 19 20 20 21 21 22
37 37 36 34 32 30 27 24 24 24 25 26 24 24 25 24 22 21 19 18 16 15 16 16 16 18 20 23 25 26 28 28 27 25 24 24 23 24 25 25 26 26 25 24 23 22 22 22 21 21 20 20 19 19 18 18 17 18 19 19 19 19 19
30 30 29 28 27 27 27 27 27 26 27 27 25 24 25 25 24 23 21 19 18 16 15 14 13 12 14 16 19 22 25 28 30 30 28 27 25 24 24 25 26 25 24 23 22 22 21 21 20 20 20 20 19 19 18 18 17 17 18 18 18 18 19
24 21 22 23 22 22 24 25 25 24 24 24 23 24 25 25 25 25 23 22 20 18 16 14 12 11 10 11 14 16 18 22 27 30 32 31 29 27 26 26 26 25 24 24 23 23 22 21 20 20 20 20 20 20 20 19 19 19 19 19 19 20 20
23 20 19 21 20 21 22 22 22 23 22 21 21 21 21 21 23 24 25 24 22 20 18 16 14 12 11 11 12 13 14 15 18 23 28 32 33 32 31 29 28 27 26 26 26 25 23 23 22 22 22 22 22 22 22 21 21 21 21 22 22 22 23
22 22 20 20 20 21 23 21 21 23 23 23 24 24 23 21 20 21 22 23 23 21 20 18 16 15 13 13 13 13 13 13 13 14 19 25 31 35 35 33 31 30 29 28 28 27 26 26 25 25 24 24 24 25 24 23 23 23 23 24 25 26 26
21 21 19 19 18 17 17 16 17 19 20 21 22 23 24 23 23 23 21 21 22 21 20 20 18 17 16 14 14 14 14 14 13 13 13 16 22 28 33 35 35 33 32 31 31 30 29 29 28 27 27 26 26 26 25 24 24 25 25 26 27 28 29
20 19 17 18 19 17 15 15 15 16 17 17 18 19 20 21 23 25 25 25 24 22 21 21 20 19 18 17 16 16 16 15 14 14 14 15 17 20 25 30 34 35 35 34 34 33 32 31 31 30 29 29 28 27 27 26 27 27 28 29 29 30 31
19 19 16 17 20 21 20 19 18 18 17 17 18 18 19 19 19 20 22 24 25 24 24 23 22 21 20 19 18 17 17 16 15 15 16 17 17 18 19 23 28 32 35 36 36 35 35 34 34 32 31 30 29 29 29 29 29 30 30 31 32 33 34
17 18 17 17 20 23 23 21 19 19 20 21 22 23 23 22 20 19 20 21 22 23 23 23 23 23 22 21 20 19 19 17 16 15 16 18 19 19 20 21 23 27 31 33 35 36 36 36 35 34 33 32 31 31 31 30 31 31 32 33 35 36 37
18 18 18 19 22 24 24 24 23 22 21 23 26 27 27 26 24 22 21 20 21 22 22 23 24 25 25 25 24 23 21 19 17 16 16 18 20 21 22 23 24 26 28 30 33 34 35 36 35 35 34 34 33 33 33 33 33 33 34 36 37 38 39
21 20 18 20 22 23 23 25 26 25 23 23 25 27 29 29 27 24 23 23 22 22 23 24 25 25 26 26 26 25 24 22 20 18 17 17 19 21 23 24 25 27 28 30 31 32 33 34 35 35 35 35 34 34 34 34 35 35 37 38 39 40 41
19 18 17 18 21 21 22 24 26 26 24 23 24 25 27 29 28 28 27 25 24 23 23 24 24 24 25 26 26 26 25 24 23 21 19 18 18 20 23 26 27 28 29 30 31 32 33 33 34 35 35 35 35 34 34 35 36 37 38 39 40 41 41
18 18 19 21 20 20 21 23 24 24 24 23 24 25 25 27 28 29 29 27 26 25 24 24 23 23 24 25 26 26 26 26 25 24 23 22 20 20 21 24 28 30 31 32 32 33 33 33 34 34 35 35 35 36 36 36 36 37 38 39 40 40 40
23 24 25 26 24 23 23 24 23 22 22 23 23 24 24 25 26 28 28 29 29 28 27 26 25 25 24 25 25 25 26 26 27 26 25 24 23 23 22 22 25 28 31 33 34 35 35 35 35 35 36 36 36 37 38 38 39 40 41 40 40 40 41
26 26 26 27 26 26 27 27 26 23 22 22 23 24 24 24 24 25 27 29 30 30 30 29 28 28 28 27 27 26 27 27 28 27 27 26 26 25 24 24 23 24 27 30 33 35 37 37 37 37 37 38 38 38 38 39 39 40 41 41 40 40 41
22 21 22 23 24 25 26 27 27 25 23 22 23 24 24 23 22 23 25 27 29 30 31 31 31 31 30 30 29 28 28 28 28 28 27 27 27 27 26 26 25 25 25 27 28 31 34 36 37 38 38 38 38 38 38 38 38 39 40 39 38 37 36
15 15 16 16 17 19 20 21 22 22 22 22 24 25 25 24 24 22 23 24 26 28 30 31 32 31 31 31 30 29 29 28 27 27 27 27 27 26 25 25 24 24 24 24 25 26 28 31 33 35 36 37 37 37 37 37 37 37 36 34 32 30 29
12 11 12 12 13 14 14 15 17 18 20 22 24 25 25 25 25 24 23 23 24 26 28 29 29 30 29 29 30 30 29 28 27 27 26 25 24 24 23 23 22 22 23 23 23 23 24 26 28 30 32 33 33 33 33 32 31 30 28 27 27 26 25
10 8 9 10 11 12 13 13 13 15 17 21 23 24 25 26 26 26 25 23 24 25 26 27 28 28 28 28 29 29 29 29 29 28 26 25 24 23 23 23 23 24 24 23 22 22 23 23 24 25 26 26 26 26 25 25 24 24 25 25 26 26 27
9 10 10 10 11 12 14 14 13 14 16 19 21 22 24 25 26 26 25 24 23 24 24 26 28 28 28 28 28 28 29 29 29 28 27 25 25 25 26 25 25 24 24 23 22 22 21 21 22 22 22 22 22 22 22 22 23 24 25 26 26 27 28
12 14 15 15 15 15 16 16 16 16 16 17 18 19 21 23 24 25 24 22 22 22 23 25 28 28 28 27 27 28 28 28 28 27 26 25 25 25 26 26 25 25 24 23 23 23 22 22 22 22 22 22 21 22 23 24 24 25 26 26 27 27 27

ECMWFFLT1_700_spd_036.txt.gz
Wind_Speed
43 40 39 38 34 29 27 26 22 20 24 29 31 31 30 29 29 30 31 31 30 28 27 26 26 26 26 27 27 28 27 27 26 25 24 24 24 24 23 21 20 19 17 16 16 15 14 14 15 15 14 14 14 13 13 13 12 12 11 10 10 10 9
43 39 39 40 37 31 28 26 22 20 23 28 30 31 31 29 28 29 30 31 31 29 28 27 27 27 26 25 26 27 28 28 27 26 25 24 24 24 23 22 21 20 17 16 16 16 16 16 16 16 17 16 15 14 13 12 12 11 11 11 11 10 10
40 37 39 41 40 35 30 27 23 22 23 26 29 31 31 30 28 28 28 29 30 31 31 30 29 27 26 25 26 27 28 28 28 27 26 25 24 24 23 23 22 20 19 18 17 17 18 18 17 17 17 16 15 15 13 12 11 10 10 10 10 10 10
40 39 39 41 41 37 32 28 26 24 23 24 27 27 25 25 26 27 27 27 30 32 32 32 30 28 27 27 27 28 28 29 28 27 26 25 24 23 23 24 23 21 20 18 18 18 18 19 17 16 16 16 15 14 13 12 11 9 9 9 9 10 10
37 38 40 41 41 40 34 28 26 25 22 24 26 25 22 23 25 26 27 27 28 30 31 31 30 29 28 28 28 28 29 29 29 28 26 25 24 24 24 23 23 21 20 18 18 19 19 19 18 16 15 14 13 13 13 12 10 9 8 7 8 8 9
37 36 39 40 40 41 35 27 25 25 24 25 26 26 26 26 26 25 26 27 27 29 30 31 31 30 29 28 29 29 29 29 29 28 27 26 25 25 24 22 21 21 20 19 19 19 19 20 19 17 14 13 13 12 11 10 9 7 6 5 6 7 7
40 37 37 38 39 41 35 27 24 25 25 26 26 27 29 28 26 24 24 26 26 27 30 32 32 31 29 29 29 30 30 30 30 28 27 27 26 25 23 22 21 20 20 21 20 19 20 20 19 17 15 14 12 11 10 9 8 6 5 5 4 5 5
39 37 36 36 38 40 34 27 26 26 27 28 28 29 30 28 26 25 24 25 26 27 29 30 31 31 29 29 29 30 31 30 30 29 28 28 27 26 25 23 22 21 21 21 20 19 19 20 19 18 17 16 14 12 11 9 7 6 6 5 4 4 3
32 34 34 33 36 38 32 26 26 27 28 29 30 30 29 28 27 26 25 25 26 27 27 28 30 30 28 28 27 28 30 30 30 30 29 29 29 27 26 24 22 22 22 21 20 20 19 20 20 19 18 17 16 15 13 11 9 8 6 5 4 4 3
29 30 32 31 35 35 29 25 27 28 28 28 30 31 31 29 27 26 26 27 27 27 26 26 28 29 28 28 26 27 29 31 32 32 31 31 30 28 26 25 24 23 22 21 21 21 20 20 21 21 20 19 17 16 15 13 12 10 9 7 6 6 5
33 31 32 33 36 35 28 26 28 29 29 29 30 32 31 29 28 27 27 28 27 27 26 26 27 27 27 27 27 28 29 30 32 32 33 32 30 29 27 25 25 24 23 22 21 21 20 21 22 23 22 20 19 17 16 14 14 13 11 10 9 9 9
36 33 34 34 34 32 29 28 29 30 30 29 30 31 31 30 29 28 28 28 28 27 26 26 26 26 26 25 26 27 28 30 31 32 32 32 31 29 28 26 26 25 24 22 22 21 21 21 22 22 22 20 19 18 17 17 16 15 14 13 12 12 12
37 31 32 32 30 30 31 29 29 30 30 30 30 29 28 28 29 28 28 28 27 27 26 26 26 26 25 24 24 26 28 29 30 30 31 31 30 29 28 28 27 26 25 23 23 22 21 21 22 21 21 19 18 18 18 18 18 17 17 16 15 15 14
36 31 30 28 28 31 33 30 29 30 31 30 29 26 24 24 26 27 28 27 26 26 26 26 26 25 24 23 24 24 25 26 27 28 29 29 29 29 29 28 28 27 25 25 24 24 22 22 21 21 21 20 19 19 18 18 19 19 18 18 17 16 15
36 34 30 28 31 33 32 29 27 29 30 30 27 25 23 20 22 24 26 26 26 27 26 26 26 25 24 24 23 22 21 22 23 25 26 27 28 28 28 28 28 27 27 26 26 25 24 23 22 22 22 21 21 21 20 20 19 18 18 17 16 16 15
33 34 32 32 33 32 28 25 24 25 28 29 27 26 23 19 20 22 23 25 27 28 27 27 26 26 25 25 22 20 19 20 20 21 23 24 25 26 27 28 28 28 28 27 27 26 25 24 23 23 22 21 21 22 22 21 19 17 17 16 16 16 16
31 32 34 36 34 31 28 25 22 23 27 28 27 25 22 19 19 20 20 23 26 27 27 27 27 27 27 25 23 21 21 20 20 20 20 21 23 24 25 26 27 28 28 27 27 26 26 25 24 23 22 21 21 21 21 20 18 17 17 16 16 16 17
31 31 33 35 34 33 29 25 24 25 26 26 25 24 22 20 20 19 18 21 23 25 26 28 29 29 28 27 25 24 24 23 22 21 20 20 21 22 23 25 27 27 27 27 27 26 26 26 25 24 22 21 21 21 21 19 18 17 17 17 17 17 18
32 32 32 33 34 32 28 25 25 25 24 23 21 20 20 21 21 19 18 18 20 22 24 27 29 30 29 29 28 27 27 26 25 23 22 21 20 20 22 24 25 26 26 26 26 26 26 26 25 24 22 22 21 21 20 19 18 18 18 17 17 18 19
33 35 36 35 35 33 30 26 24 24 24 22 19 17 17 19 21 20 19 19 19 20 22 24 26 28 28 29 29 30 29 28 28 27 25 24 22 22 22 23 23 24 24 25 25 26 25 25 24 23 23 22 21 21 21 20 19 18 18 17 17 17 19
35 39 41 39 37 35 33 29 26 24 23 21 19 18 19 20 20 20 21 23 22 21 22 22 23 24 24 25 26 27 28 30 30 30 29 28 26 25 25 24 23 23 23 24 24 24 24 23 23 23 23 22 22 21 21 20 19 18 18 18 17 18 20
35 38 40 39 38 37 35 32 29 26 25 24 23 21 22 23 22 22 23 25 25 23 23 22 21 21 21 21 21 23 25 27 29 31 32 31 31 30 28 26 25 24 23 23 24 23 23 23 23 23 23 23 23 23 23 21 20 20 20 20 20 21 23
33 35 36 37 39 38 37 35 32 30 28 26 25 24 24 25 25 25 25 27 27 26 25 24 22 20 19 17 17 17 18 21 24 27 30 32 33 34 33 31 29 27 26 26 25 25 24 24 24 24 24 24 24 24 24 23 23 23 23 23 23 24 26
35 35 34 35 36 37 36 34 31 30 28 26 26 26 27 27 27 27 27 28 29 27 26 26 24 21 19 17 15 15 14 15 18 22 25 29 31 33 34 34 34 32 30 29 28 28 27 26 26 26 26 26 26 26 26 25 25 26 26 27 27 28 29
36 36 35 34 33 32 32 31 29 28 26 24 24 24 24 25 26 25 26 27 29 28 28 28 25 23 21 18 17 16 15 14 15 18 22 25 26 27 29 31 34 35 35 34 33 32 31 30 30 29 28 28 28 28 28 28 28 28 29 30 30 30 30
35 35 35 34 32 29 29 28 27 25 22 21 20 20 21 22 22 22 22 24 25 26 27 28 26 24 22 20 19 18 17 16 15 16 20 22 23 23 24 25 28 31 34 36 37 36 36 35 34 32 31 30 30 30 30 30 31 31 32 32 32 32 33
31 32 31 31 29 27 25 24 23 22 21 20 20 19 20 20 21 21 21 21 22 23 24 24 24 24 23 22 21 19 19 18 17 16 18 20 22 23 23 24 25 26 29 32 35 36 37 37 36 35 34 33 33 33 33 33 33 34 34 34 34 34 34
28 27 27 27 26 25 24 23 23 22 21 21 20 19 20 20 21 22 22 22 21 21 22 23 24 24 23 23 23 22 21 20 20 19 18 19 22 24 25 25 25 26 27 28 30 32 33 34 35 35 35 35 35 35 35 35 35 35 35 35 35 35 35
27 25 25 25 25 25 25 24 24 23 22 22 22 22 22 23 24 25 25 25 23 22 23 24 24 24 24 24 24 24 24 23 22 21 20 20 21 24 26 27 27 27 28 28 28 29 30 30 31 33 33 34 34 34 35 36 36 36 36 35 35 35 35
28 26 26 26 26 26 26 26 26 25 24 24 25 25 26 27 28 29 30 30 28 26 25 24 25 25 24 24 24 25 25 25 24 23 23 22 22 23 25 27 28 29 29 29 30 30 30 31 31 32 33 33 34 34 35 36 36 36 36 35 35 36 36
26 26 26 27 27 27 27 28 28 28 27 27 27 27 28 30 31 32 33 33 33 31 29 28 27 26 25 25 25 25 25 25 25 25 24 23 24 24 24 25 27 29 30 31 32 32 32 33 33 34 34 34 34 35 35 36 37 37 36 35 35 36 36
23 22 22 23 24 24 24 24 25 26 28 29 29 29 30 30 31 33 34 34 34 33 32 31 29 28 27 26 26 26 26 25 26 25 24 23 24 25 25 25 26 28 30 32 33 34 34 34 35 35 35 35 35 35 36 37 37 37 36 35 35 36 37
21 20 20 21 21 21 21 21 22 24 27 29 30 30 30 31 32 33 34 34 34 33 34 34 33 31 30 29 28 28 27 27 27 26 25 24 24 25 26 26 27 27 28 29 32 33 35 36 36 36 36 36 36 36 37 38 38 37 37 37 37 37 37
18 18 19 20 21 22 23 23 23 24 26 28 28 28 29 30 32 33 34 34 34 33 33 34 34 34 33 32 31 30 29 29 29 28 27 27 26 26 27 27 27 27 27 28 29 30 31 33 35 36 36 37 37 38 38 39 40 39 39 38 38 37 36
12 13 14 16 17 18 20 22 24 25 25 26 27 26 27 29 30 31 32 32 32 32 32 32 33 34 35 35 34 33 32 32 32 31 31 31 30 29 28 28 28 28 28 29 29 29 30 30 31 32 33 35 36 37 38 38 38 38 37 36 35 33 32
11 11 12 14 14 15 15 17 19 21 22 22 23 23 23 24 26 28 29 29 30 30 30 30 31 32 33 34 35 35 35 34 33 32 33 33 33 31 30 30 31 31 30 29 29 30 30 29 29 29 30 31 32 33 34 34 33 33 32 31 30 29 28
13 13 14 14 15 15 15 15 16 18 19 18 18 19 19 19 20 22 24 26 27 28 29 29 29 29 30 31 32 34 34 33 32 32 32 33 33 32 32 32 32 32 32 31 30 30 29 28 27 27 26 27 27 27 27 28 27 27 27 26 25 25 23
16 15 15 15 14 14 14 14 15 16 17 16 16 15 15 16 16 18 20 22 24 25 27 28 27 26 26 27 28 30 30 30 30 30 31 32 33 33 32 32 32 31 31 30 30 29 28 27 26 24 24 23 22 22 22 22 22 23 23 22 22 21 21

ECMWFFLT1_700_spd_042.txt.gz
Wind_Speed
34 35 34 34 35 35 33 31 30 29 27 26 27 27 27 28 28 29 30 30 30 31 32 33 33 32 31 30 30 30 28 27 27 26 25 25 25 25 26 26 26 25 24 23 21 20 19 18 17 16 15 15 14 14 14 14 15 15 15 14 12 12 11
35 37 37 35 36 36 33 32 32 31 29 28 27 27 29 30 30 30 30 30 30 30 31 32 33 32 31 30 30 30 29 28 27 26 25 25 25 25 26 26 26 26 25 24 23 22 21 19 18 16 16 16 16 15 15 15 16 16 16 15 14 14 13
34 37 38 36 35 36 34 33 33 32 30 29 28 28 28 30 31 31 30 30 30 30 31 32 32 32 31 30 30 31 30 29 28 27 26 25 25 25 25 26 26 26 26 25 24 22 21 20 19 18 16 16 17 17 17 17 17 17 17 16 16 15 14
33 36 37 35 34 35 35 34 33 32 30 30 29 28 27 28 30 31 31 30 30 30 31 31 31 31 31 31 30 30 31 30 29 27 26 25 25 25 26 26 26 27 26 25 24 23 22 21 21 19 18 17 17 18 18 17 18 17 17 17 17 17 16
33 35 36 36 35 36 37 36 34 33 32 31 30 29 27 27 28 30 31 31 31 30 30 31 31 31 31 31 31 30 30 30 29 28 27 26 26 27 27 26 26 26 26 26 25 24 24 23 22 21 19 17 17 17 18 17 17 16 16 16 17 18 17
33 35 37 36 34 35 38 37 35 34 33 32 30 29 28 27 28 30 31 31 31 30 31 32 32 32 32 32 31 31 31 31 31 30 28 28 28 28 27 27 26 26 26 26 26 26 26 25 24 22 20 18 17 17 17 17 17 16 15 16 16 17 18
32 33 35 34 32 33 36 36 35 35 35 35 33 31 30 28 27 28 30 32 31 31 32 33 33 33 33 32 32 32 31 31 31 30 29 29 29 28 28 27 27 27 27 27 27 26 26 25 24 22 20 19 18 18 17 16 16 16 16 16 16 16 17
28 29 30 31 30 29 31 33 33 35 37 38 36 33 30 29 27 28 30 31 32 31 31 32 33 34 34 33 33 32 31 31 31 31 31 31 30 29 29 28 28 27 28 28 27 26 26 25 24 22 21 19 18 18 17 16 17 18 18 17 16 16 16
28 26 26 26 27 26 26 28 31 34 37 38 37 33 30 29 28 28 29 31 32 32 30 29 30 32 33 33 33 32 32 31 31 32 32 32 31 30 29 29 28 28 28 27 27 26 25 24 24 23 22 21 19 18 17 17 17 19 19 17 17 16 16
30 28 25 24 26 25 23 26 30 34 36 37 37 35 32 30 29 28 29 31 32 31 29 27 27 29 32 33 33 32 32 32 32 32 32 32 32 31 30 29 29 29 28 28 27 27 25 24 24 24 23 22 20 18 17 17 18 19 19 18 17 17 16
29 30 28 24 26 26 26 28 30 31 33 34 35 35 34 31 29 29 30 31 32 31 29 27 26 27 29 31 32 33 33 33 32 32 32 32 32 31 30 30 29 29 28 28 27 26 26 25 25 25 24 23 20 18 17 17 19 20 19 19 18 17 16
30 33 32 28 28 28 28 30 29 29 31 31 31 33 34 33 30 29 30 31 31 29 28 28 28 27 27 28 30 33 33 33 33 32 32 32 31 31 31 30 29 28 28 27 27 27 27 26 26 25 25 23 21 19 18 18 20 21 20 20 19 18 17
28 34 36 33 31 30 29 30 30 30 31 29 28 30 33 34 31 29 30 30 29 28 28 29 29 29 28 28 28 30 32 33 33 32 31 31 31 31 31 30 29 28 27 27 27 27 27 27 26 25 24 23 22 21 19 19 21 22 22 21 20 19 18
29 33 39 38 35 33 29 29 30 29 30 28 26 28 33 34 32 30 30 30 29 28 28 28 28 29 29 29 28 28 29 30 31 32 31 31 31 31 30 30 29 28 27 27 28 27 27 26 26 25 24 24 24 23 22 22 23 23 23 22 21 20 18
30 34 43 43 40 36 30 28 28 27 28 26 25 27 33 35 33 31 30 31 32 31 29 27 27 27 28 28 28 26 25 26 28 30 31 31 31 31 30 30 29 28 28 28 27 27 27 26 25 25 25 24 24 24 25 24 24 24 23 22 21 20 19
32 38 46 47 43 39 33 28 27 27 27 25 23 27 33 34 33 32 31 31 32 31 30 28 27 26 26 26 26 24 24 24 25 27 29 31 31 30 30 30 29 29 28 27 27 26 26 26 25 25 25 24 25 25 26 26 25 24 23 23 22 21 20
34 38 46 49 46 43 37 31 29 29 28 24 21 25 31 33 32 31 30 31 30 30 30 29 28 26 25 25 24 24 24 23 23 25 27 29 29 29 29 29 29 29 28 27 27 26 26 26 25 24 24 24 24 25 26 26 25 24 25 24 24 23 23
32 33 39 47 49 46 41 35 31 29 26 22 21 25 30 33 33 31 29 29 29 29 29 29 29 28 26 25 24 25 25 24 23 24 26 27 28 28 28 28 29 29 28 28 27 26 26 26 25 24 24 24 24 24 25 25 25 25 25 25 25 25 24
28 29 33 43 49 47 41 35 30 27 25 23 24 27 29 31 31 29 27 28 28 28 28 29 29 29 27 26 26 25 24 24 23 23 24 25 26 27 27 28 28 28 28 27 27 27 27 27 26 25 24 23 23 23 24 24 24 24 24 25 25 25 25
25 28 29 34 43 45 40 34 29 26 25 25 26 28 29 30 29 27 26 27 27 27 28 29 29 30 29 28 27 26 25 23 22 21 21 22 24 25 27 27 27 27 27 27 27 28 28 27 27 26 26 25 24 23 23 23 22 23 23 23 24 24 25
21 26 27 28 35 41 40 33 28 28 28 28 28 28 29 29 29 27 27 25 24 25 27 28 28 29 28 29 29 28 28 26 25 23 22 21 22 23 24 25 26 26 26 26 27 27 27 27 27 27 27 27 26 25 24 22 21 22 22 22 22 24 25
21 25 26 27 30 34 35 31 28 29 30 30 29 28 28 28 28 27 25 22 21 22 24 25 25 25 26 28 30 30 30 29 28 26 24 24 23 23 23 23 23 23 24 25 25 26 25 26 26 26 26 26 26 25 23 21 21 21 21 21 22 23 25
22 26 28 29 30 30 31 30 30 31 31 30 29 28 28 28 27 26 23 21 21 22 22 22 22 23 25 26 28 29 30 29 29 28 27 26 26 25 24 23 23 22 23 23 23 23 23 24 24 24 24 24 25 24 22 20 21 21 21 21 22 23 24
22 27 30 30 31 32 32 32 32 31 30 28 28 28 28 29 28 25 23 22 22 23 23 23 22 23 23 23 24 26 27 27 27 28 28 28 27 26 26 25 24 23 23 23 22 22 22 22 22 23 23 23 23 22 21 21 21 22 22 22 22 23 25
23 27 29 30 32 34 34 33 32 30 27 27 28 29 29 29 27 25 23 23 24 24 24 22 21 20 20 21 22 24 24 25 25 26 26 27 26 26 26 25 25 24 24 23 23 23 22 22 22 22 22 22 22 22 22 22 22 23 23 23 23 25 26
24 27 29 30 33 35 34 33 32 29 27 27 29 29 30 29 27 25 24 25 26 26 24 22 20 20 19 20 21 22 23 24 25 24 25 25 24 24 24 24 25 25 25 25 24 24 24 23 23 23 22 22 22 22 23 23 23 23 23 24 25 26 28
26 29 30 32 34 34 33 32 31 28 27 29 30 30 30 29 26 25 26 27 28 27 24 22 20 19 19 19 20 22 23 24 25 25 24 24 24 23 23 24 25 25 26 26 26 27 26 25 25 24 24 23 23 23 23 24 24 24 24 25 27 28 29
27 29 31 32 33 32 31 31 31 29 28 30 32 31 30 28 27 27 28 28 28 26 23 21 19 17 17 17 18 20 22 23 24 25 25 24 24 25 25 24 25 25 26 27 28 29 30 29 29 28 27 26 25 24 24 25 25 26 26 27 28 30 31
27 29 29 30 30 29 28 30 30 29 29 32 32 31 29 28 28 28 27 26 25 23 21 19 18 17 16 15 15 17 18 19 20 21 22 23 23 24 24 24 24 25 26 27 28 29 30 31 32 32 31 31 30 28 27 27 27 28 28 30 31 31 32
25 27 27 27 27 25 26 27 28 29 30 32 32 30 28 27 27 26 25 24 23 21 20 19 18 16 15 14 15 15 15 16 16 16 17 18 19 20 22 23 24 25 25 26 27 27 29 30 31 32 33 34 34 33 32 31 31 31 31 32 33 34 34
23 24 24 25 24 24 24 24 25 27 30 32 32 30 28 27 27 25 24 23 22 20 19 18 16 15 15 15 15 14 13 14 14 14 15 15 16 16 18 19 21 23 24 25 26 27 27 28 28 30 31 33 34 35 35 35 35 35 35 36 37 37 37
25 24 24 25 25 24 24 24 25 26 29 31 31 30 29 28 28 27 25 24 23 21 19 18 17 16 16 16 14 12 12 13 13 14 15 16 17 16 16 17 17 18 20 22 23 25 27 27 28 28 29 30 31 32 34 35 37 38 38 39 39 39 39
28 27 27 27 27 27 26 26 26 26 27 29 29 28 28 29 28 27 25 24 24 23 21 20 18 17 17 17 17 15 13 13 14 14 14 16 17 17 17 16 16 16 17 17 18 20 23 26 28 29 29 29 29 30 31 33 35 37 39 40 40 41 41
30 30 30 30 29 29 29 28 28 28 28 28 29 28 28 28 28 27 26 25 23 22 20 18 17 16 16 16 18 18 18 18 18 18 16 16 16 17 17 17 16 16 16 16 16 17 18 21 24 26 29 30 31 31 31 32 33 34 36 37 38 38 39
30 30 31 32 32 32 32 31 31 31 30 29 30 29 29 29 28 27 26 25 22 21 20 19 18 18 18 18 19 20 21 22 22 22 21 19 18 17 17 17 17 16 16 17 17 17 18 19 20 22 25 27 29 30 31 32 32 33 34 34 35 35 36
30 30 30 31 31 31 32 33 32 31 31 30 30 30 30 29 28 27 25 24 23 22 22 22 21 22 22 22 23 24 24 25 24 23 23 23 21 20 19 19 19 18 18 19 19 19 20 20 20 21 22 23 24 26 28 29 30 32 33 33 34 35 35
30 31 30 29 29 29 29 30 30 30 30 30 30 30 30 29 29 27 26 25 25 25 25 24 24 24 25 26 26 26 27 27 26 25 24 24 23 23 22 22 22 22 22 22 22 22 22 22 22 22 23 23 23 23 24 25 26 28 28 29 30 31 31
29 30 30 28 28 28 27 28 29 28 28 28 28 29 29 29 28 28 27 27 27 26 25 24 23 23 24 25 26 27 27 27 27 26 25 24 24 24 25 25 25 25 25 25 25 24 24 24 24 24 25 25 24 24 24 24 25 25 26 25 25 25 26

ECMWFFLT1_700_spd_045.txt.gz
Wind_Speed
27 25 25 26 27 28 27 27 26 28 30 29 29 29 29 29 29 29 30 30 31 31 32 32 31 31 30 30 30 29 29 28 27 27 28 29 29 28 28 27 26 25 25 23 21 19 18 18 17 16 15 14 13 13 12 12 12 13 13 12 10 9 8
29 25 24 26 29 31 28 27 28 29 31 30 29 29 29 29 28 28 29 29 30 30 31 32 32 31 31 30 30 30 30 29 28 27 28 28 29 28 28 27 27 26 26 25 23 22 21 20 19 17 16 16 15 15 15 14 13 14 14 14 13 12 10
31 27 24 24 29 33 31 29 29 30 32 31 30 29 29 29 29 29 29 28 29 30 31 32 32 32 31 30 30 30 30 30 29 28 27 27 28 28 28 27 27 27 27 27 25 24 23 21 20 19 18 17 17 17 17 16 15 15 16 16 15 14 12
32 27 23 22 26 32 33 31 31 32 33 31 30 29 29 29 29 29 29 29 29 30 30 31 32 32 32 31 30 30 30 30 30 28 27 26 27 28 28 28 28 28 28 28 27 26 24 23 21 20 19 19 19 19 18 18 17 16 17 17 16 15 14
33 27 23 21 23 31 35 34 33 33 33 33 31 31 30 29 28 29 29 29 29 29 30 30 31 32 32 32 31 31 31 30 30 29 27 27 27 28 29 28 28 29 29 29 28 27 26 25 23 22 21 20 19 19 19 19 18 18 18 18 18 17 16
31 27 24 22 22 30 36 35 34 34 34 34 33 32 31 29 29 29 29 29 29 29 30 31 32 33 33 33 32 31 31 31 31 30 28 28 27 28 29 28 28 28 29 29 29 28 27 26 25 23 22 21 19 19 19 19 19 19 19 18 18 18 17
31 27 25 22 20 26 33 35 34 35 34 34 34 34 33 31 31 30 29 30 30 30 30 31 32 33 33 33 33 32 31 31 32 31 30 29 28 28 28 28 28 28 29 29 29 29 28 27 25 24 23 21 20 19 18 19 19 19 19 18 17 17 18
29 26 25 23 20 21 29 34 34 35 36 36 37 35 33 32 32 30 30 30 30 30 31 32 32 32 33 33 33 32 32 31 32 32 32 31 30 29 29 28 28 28 29 29 29 29 28 27 26 25 24 22 21 19 19 19 19 19 19 18 17 17 18
27 25 24 23 19 19 25 31 33 35 36 36 36 35 33 33 32 31 30 29 30 31 32 32 32 32 32 33 33 33 32 32 32 32 32 32 31 30 29 29 29 29 29 29 29 29 28 28 27 26 25 24 22 20 20 19 19 18 19 19 18 18 18
28 25 24 23 20 18 22 29 32 34 37 36 36 35 35 34 32 31 31 30 30 31 31 32 32 32 32 33 33 33 33 32 32 31 32 32 31 31 30 29 29 29 29 29 29 29 29 28 28 28 27 26 24 21 20 19 19 18 18 19 19 19 19
28 26 24 24 22 19 21 27 31 34 36 37 36 35 35 35 33 32 31 31 30 30 30 31 32 32 32 33 33 34 33 33 32 32 32 32 32 31 30 30 30 30 29 29 29 29 29 29 29 29 28 26 24 22 20 19 19 19 19 19 20 20 20
26 26 24 24 24 22 21 24 29 32 34 35 35 34 33 34 34 32 31 31 31 30 29 31 32 32 32 32 33 34 33 33 33 32 31 31 31 31 31 31 30 30 29 29 28 28 28 28 28 28 28 26 25 23 21 20 20 19 20 20 22 22 21
28 28 26 24 25 25 24 24 27 30 33 34 33 31 30 32 34 34 32 31 30 30 29 30 31 32 31 31 32 33 33 33 33 31 30 30 30 30 31 31 31 30 29 29 28 28 28 27 27 27 26 26 25 24 22 21 21 21 21 21 22 23 22
29 30 30 28 27 27 27 26 26 28 32 35 34 30 28 28 31 34 33 31 30 30 29 29 31 32 30 30 30 30 31 32 32 31 30 30 30 30 30 31 31 31 30 29 29 28 27 27 26 26 26 26 25 25 24 23 23 22 21 22 23 23 22
26 29 29 29 29 28 27 28 28 27 30 36 35 32 28 27 29 32 34 33 31 30 29 29 31 32 30 29 28 27 28 30 31 31 31 30 30 30 30 30 30 30 30 30 29 29 28 27 26 26 26 25 25 25 25 25 24 22 21 22 23 24 23
23 27 28 28 29 27 27 30 32 29 29 33 34 32 29 26 27 30 32 32 31 29 29 30 30 31 31 30 28 26 26 27 28 30 31 31 30 30 29 29 29 29 29 29 29 29 28 27 27 26 25 25 25 26 26 25 24 22 21 22 24 25 24
20 25 28 29 29 29 31 34 36 32 29 32 33 32 29 26 27 29 31 32 32 30 30 31 30 31 31 30 28 27 26 25 25 27 28 29 30 30 30 29 28 28 27 27 28 28 28 28 27 26 25 25 25 26 26 25 23 23 22 23 24 26 26
20 23 27 30 32 33 35 38 38 35 31 32 33 32 29 26 28 30 31 32 33 32 32 32 32 31 30 29 29 28 27 26 26 25 26 27 28 29 29 29 28 27 26 27 27 27 28 28 27 25 25 24 24 25 26 24 23 23 23 23 25 26 27
21 22 26 31 35 37 39 41 40 36 33 30 31 31 28 25 27 29 29 31 33 33 33 34 33 32 31 30 29 29 28 27 26 26 25 25 26 27 28 28 28 27 26 26 26 27 28 28 27 26 26 25 24 24 24 24 23 23 23 24 25 26 27
22 22 26 33 40 41 42 42 41 39 34 29 28 28 25 23 27 30 30 32 32 33 34 35 35 34 32 32 30 30 29 28 26 26 25 24 25 26 27 27 27 26 26 26 26 27 28 28 27 27 26 25 24 24 23 23 22 23 24 24 25 26 27
24 23 24 33 41 42 42 43 43 40 35 29 28 27 23 23 29 32 32 33 32 32 33 33 34 34 33 33 32 31 30 28 26 26 25 25 25 26 27 28 27 27 27 26 27 27 27 27 27 27 27 26 25 25 24 22 22 23 23 24 25 26 27
25 22 22 30 35 37 39 43 44 41 35 31 29 26 23 26 31 33 33 33 32 31 31 30 31 32 32 33 33 31 29 27 26 26 26 26 26 27 28 29 28 28 27 27 27 27 27 27 28 28 27 27 27 26 25 23 22 23 23 23 24 26 27
23 18 20 27 31 33 38 42 44 42 37 34 31 26 24 29 33 33 33 33 32 30 29 28 29 31 32 33 33 31 30 28 26 24 24 24 25 26 27 27 27 27 27 27 27 26 26 26 26 26 26 27 27 27 26 24 24 24 24 24 25 26 28
20 14 20 27 29 34 39 43 45 45 42 39 34 27 26 30 32 32 32 32 30 29 29 30 30 32 33 33 32 31 30 29 27 26 25 24 23 23 23 23 23 24 24 24 25 24 24 24 24 25 25 26 27 26 26 26 26 26 26 27 27 28 28
18 13 22 27 28 33 40 44 47 47 45 42 35 28 28 31 31 31 31 30 30 29 30 31 31 31 32 32 32 31 31 31 30 28 27 26 24 24 23 22 22 21 22 22 22 22 22 22 23 23 24 25 25 25 26 26 26 27 28 28 29 29 29
15 14 23 29 29 32 38 43 45 45 44 41 33 29 30 32 32 31 31 30 30 30 30 30 30 30 31 32 32 32 32 32 31 29 28 27 27 26 25 25 25 24 24 24 23 22 22 22 22 22 22 23 24 25 26 26 26 27 28 28 29 29 30
13 14 21 27 29 30 35 38 39 40 40 36 31 30 33 33 32 32 32 31 31 30 29 30 30 30 31 31 31 31 31 31 31 30 29 29 29 28 28 27 27 26 26 26 25 25 24 23 23 23 22 23 23 23 24 25 25 26 27 28 29 29 30
12 14 18 23 26 28 31 34 35 36 34 31 30 33 34 33 32 33 32 32 31 30 29 30 30 30 29 29 28 29 29 30 29 29 29 29 29 29 28 28 28 27 27 27 27 26 26 25 25 24 24 24 23 23 23 23 24 25 26 27 28 29 30
12 15 17 20 24 26 28 30 32 33 31 30 32 35 34 33 33 33 34 33 31 30 30 30 30 28 27 26 26 26 27 27 27 28 28 28 28 28 28 28 28 28 28 28 28 28 27 27 27 27 27 26 25 24 23 24 24 25 26 27 27 28 30
13 15 17 20 23 25 27 28 29 30 31 32 35 35 34 33 33 34 34 32 30 30 30 30 28 25 23 22 21 22 23 24 24 25 26 26 27 27 27 27 27 27 27 27 28 28 28 29 29 29 29 28 27 27 26 26 26 26 26 27 27 28 29
14 15 17 20 22 24 25 26 27 29 32 35 36 35 34 34 34 35 34 32 31 30 29 27 24 22 20 19 18 19 20 21 23 24 25 26 26 27 27 27 26 26 25 26 26 26 27 27 28 29 29 29 29 29 29 28 28 29 29 29 29 29 30
15 16 17 20 22 23 25 26 27 30 34 36 37 36 35 36 35 34 33 32 31 29 27 24 22 20 19 18 18 20 21 22 22 23 24 25 26 26 26 26 26 26 26 25 25 25 25 26 26 27 27 27 28 28 29 30 30 31 31 32 32 32 31
16 16 17 19 21 23 24 26 28 30 34 36 38 37 37 37 36 34 32 31 30 28 26 24 21 19 18 18 19 21 21 20 19 19 20 21 22 22 23 24 24 25 24 24 24 24 24 24 24 25 25 26 26 27 28 29 29 30 31 33 34 34 35
18 17 18 20 22 23 24 25 27 29 32 35 37 38 38 37 36 34 32 31 29 28 27 24 20 18 17 19 21 22 20 19 17 17 16 16 17 18 20 20 21 21 21 21 21 21 21 22 21 22 23 24 26 27 28 28 28 29 30 31 32 33 34
21 20 20 21 23 25 25 25 26 27 30 32 36 38 37 36 35 35 34 32 30 28 27 24 21 21 20 19 21 22 21 20 19 16 15 14 14 14 16 17 19 19 18 19 19 18 18 18 18 19 20 21 23 25 26 27 29 29 30 30 30 30 31
25 24 23 23 23 25 26 27 27 28 29 31 35 37 37 36 36 35 33 31 29 28 26 23 22 24 23 20 20 22 21 20 19 17 15 14 13 13 14 15 16 18 18 18 18 18 18 18 18 18 18 18 19 20 21 23 26 28 30 31 31 31 31
27 27 25 24 23 24 25 26 27 29 30 31 34 36 37 36 36 36 34 30 27 26 25 22 20 21 22 20 19 19 18 17 17 16 15 15 15 15 15 16 17 18 19 19 20 20 19 19 19 18 18 18 18 18 19 20 22 24 26 28 29 30 31
29 29 29 28 27 26 26 26 27 28 30 31 33 34 36 35 34 33 34 33 30 27 26 23 20 21 21 19 18 18 17 17 18 18 18 18 17 17 17 18 19 20 20 21 21 21 21 20 20 20 19 19 19 19 20 21 21 22 23 23 25 26 27

ECMWFFLT1_700_spd_048.txt.gz
Wind_Speed
28 27 27 27 26 24 22 24 25 26 28 27 26 25 25 26 29 30 31 31 32 32 31 31 31 31 32 32 32 31 31 31 30 29 29 28 29 29 29 28 27 26 25 23 22 20 20 19 18 17 16 14 13 12 11 10 10 10 11 11 10 9 8
29 29 28 28 27 25 23 24 26 27 28 29 28 27 26 25 27 28 29 30 30 31 31 31 31 31 31 31 31 31 31 30 30 30 29 29 29 29 29 29 28 27 26 25 24 23 22 21 21 19 17 16 15 14 13 12 12 12 12 13 12 11 10
30 31 31 30 28 25 24 25 27 28 29 30 30 29 28 26 26 27 27 28 29 30 30 31 31 31 31 31 30 30 30 30 30 30 29 29 28 29 29 29 29 28 27 27 26 25 24 24 23 21 19 18 17 16 15 14 14 14 14 14 14 13 12
32 33 32 30 28 25 24 25 27 28 29 30 31 29 29 28 27 26 27 27 28 29 29 29 30 31 32 31 30 29 30 30 30 29 29 28 28 28 29 30 29 29 28 28 28 27 26 26 24 22 20 20 19 18 17 16 16 16 16 16 16 15 14
35 35 33 31 28 25 24 25 27 29 29 30 30 30 30 30 29 28 27 26 27 28 29 29 30 31 32 32 31 30 30 30 30 30 29 29 29 29 30 30 30 29 29 28 29 28 28 27 25 23 22 21 20 19 19 18 17 17 17 17 17 16 16
37 37 35 32 29 26 24 23 26 29 30 31 31 31 32 32 31 30 28 27 27 28 29 29 29 30 31 32 32 31 31 30 30 31 31 30 30 30 30 29 29 29 29 29 30 30 29 28 27 25 23 22 22 21 20 19 18 18 18 18 17 17 17
36 38 36 33 29 26 24 22 24 29 31 31 32 32 33 33 32 31 30 29 28 28 29 29 29 29 30 31 32 32 31 31 30 31 31 32 31 30 30 29 29 30 30 31 31 30 30 29 28 26 25 24 23 22 20 20 19 19 19 19 18 18 18
35 37 37 33 30 27 24 22 24 29 32 33 33 34 35 34 33 32 32 31 30 30 29 29 29 29 29 30 30 31 31 31 31 31 31 32 32 30 30 29 30 30 31 31 31 31 31 30 29 28 26 25 24 23 21 21 20 19 19 19 18 17 18
31 37 36 32 30 27 24 23 24 29 34 35 34 35 35 34 34 34 33 33 32 31 30 30 29 29 28 29 29 29 30 31 32 32 32 32 32 31 30 30 30 30 31 31 31 31 31 31 30 29 27 27 25 24 22 21 20 20 20 18 17 17 18
27 34 36 32 30 26 23 24 25 29 35 36 35 35 35 35 34 34 34 34 33 32 31 31 31 30 29 28 28 29 30 31 32 32 32 32 32 31 30 30 29 29 30 31 31 31 31 31 30 29 28 27 26 24 23 21 21 21 20 19 18 18 18
24 28 32 32 29 25 24 26 26 29 35 37 36 36 36 35 34 34 34 34 33 32 32 32 32 32 30 29 29 30 30 31 31 32 32 32 32 31 31 30 30 29 30 31 31 31 30 30 30 29 28 27 26 24 23 22 21 21 21 20 19 19 19
23 23 26 29 29 26 26 27 26 28 35 37 37 37 37 35 34 34 34 34 34 33 33 33 33 33 32 31 30 30 30 31 32 32 31 32 32 32 32 31 31 29 29 30 30 30 30 30 29 28 27 26 26 25 23 23 22 21 21 21 20 20 20
23 22 24 26 28 28 29 28 25 26 33 37 37 38 38 36 34 34 34 34 34 34 33 33 33 33 32 31 31 31 31 31 32 32 31 31 31 32 32 32 32 30 29 29 30 30 29 29 29 28 28 27 27 26 25 24 23 22 22 22 22 20 21
20 20 22 25 27 28 28 28 25 23 28 35 38 38 37 36 35 34 34 34 34 35 34 33 33 33 32 32 32 31 30 30 31 31 30 30 31 31 32 33 32 31 30 30 30 29 29 29 29 29 29 28 28 27 26 25 24 24 23 23 23 21 21
12 13 15 19 23 26 26 26 26 24 24 30 37 39 38 37 37 35 35 35 35 35 35 34 34 34 33 32 32 31 30 30 31 31 31 31 31 31 31 32 32 32 31 30 30 29 28 28 28 28 29 29 29 29 28 27 26 25 23 23 23 22 21
9 10 10 12 16 21 24 24 25 26 24 25 30 36 39 39 38 36 35 36 36 35 35 35 35 34 33 32 31 31 30 29 30 31 31 31 30 30 30 30 31 32 31 31 31 30 29 28 28 28 28 28 29 29 29 28 27 25 23 23 22 22 22
12 11 10 10 12 17 22 23 24 26 26 25 26 31 37 39 38 36 36 36 36 36 35 35 34 34 33 32 31 31 30 29 29 30 31 31 30 29 29 29 30 31 31 31 31 31 31 29 29 28 27 27 28 28 28 28 27 25 24 23 23 23 23
14 13 12 12 13 15 20 24 26 27 28 27 26 27 33 38 38 36 36 36 35 36 36 35 35 34 34 33 32 31 30 28 28 28 30 31 31 30 29 29 29 29 29 29 30 31 31 30 30 29 28 28 28 27 27 27 26 25 24 24 23 23 23
15 15 14 14 15 17 19 22 26 29 29 29 29 27 30 36 39 36 34 35 35 35 36 36 35 35 35 33 31 31 30 29 28 28 28 30 30 30 30 30 29 28 28 28 28 29 30 30 30 29 29 28 28 27 26 25 24 24 24 24 24 24 24
18 17 16 16 18 20 21 23 26 31 32 31 31 29 28 32 38 36 34 35 35 35 36 36 36 36 36 33 30 28 29 30 29 28 28 28 29 30 31 30 30 29 28 28 28 28 29 29 29 29 29 29 28 26 25 24 23 22 23 23 24 24 25
20 18 17 16 18 21 24 27 29 32 34 33 33 33 30 30 35 36 35 35 36 36 37 37 37 37 36 33 29 27 28 29 30 29 29 28 28 29 30 30 30 30 29 29 29 28 28 29 29 29 29 29 28 27 25 24 22 21 22 23 23 24 25
22 20 17 16 17 20 24 29 32 34 35 35 34 34 32 31 34 35 34 36 37 37 38 38 38 38 36 33 30 28 29 29 29 29 29 29 29 29 29 30 31 31 30 30 30 30 29 29 29 29 29 29 28 27 26 24 22 21 21 23 23 24 25
25 21 19 18 18 19 24 30 34 35 37 37 36 35 33 33 33 32 33 37 38 38 39 40 40 38 36 33 31 30 30 31 31 30 29 28 28 29 30 30 31 31 31 30 30 31 30 29 29 29 29 28 28 28 26 24 23 22 22 23 25 25 26
26 23 21 20 18 19 27 33 36 38 39 39 39 37 36 35 33 30 32 37 39 39 40 41 40 38 35 33 33 31 32 33 32 31 30 28 27 28 29 29 30 30 30 31 31 31 30 29 29 29 29 28 29 29 27 25 25 24 24 25 26 27 27
27 26 25 22 19 21 29 36 39 41 42 42 42 40 38 37 34 31 32 37 39 40 41 41 39 37 35 34 34 33 33 33 33 32 31 29 28 28 29 29 29 29 30 31 31 31 30 29 29 29 29 29 30 29 28 27 27 27 26 27 28 28 29
29 27 26 25 23 22 27 33 40 43 44 44 44 42 40 39 36 32 32 36 39 40 41 40 38 36 35 35 35 34 33 33 33 32 31 30 28 29 30 30 30 29 30 30 30 30 29 29 28 28 29 29 29 29 28 28 29 28 28 28 29 30 31
30 27 25 24 22 21 24 28 35 41 43 46 46 44 42 41 38 33 32 35 38 39 39 38 37 36 36 35 34 33 32 33 33 34 33 31 29 29 29 28 28 28 29 29 29 29 28 28 28 28 28 28 28 29 29 29 29 29 29 29 31 32 33
29 25 23 20 18 19 22 25 30 36 42 46 47 45 44 43 37 32 31 33 36 37 38 38 37 36 36 35 34 32 32 33 33 34 34 33 32 30 29 28 27 27 27 27 27 27 27 27 26 27 27 27 28 29 29 29 29 30 29 30 32 33 34
27 23 19 17 16 20 23 26 30 34 38 41 44 45 44 40 34 30 30 32 35 38 39 38 37 35 35 35 34 33 33 33 33 33 33 33 33 32 31 30 30 29 28 28 28 28 28 27 27 27 27 27 28 28 29 29 29 29 30 30 32 34 35
25 20 16 15 17 20 24 27 32 35 36 37 39 41 38 34 30 30 31 34 38 41 40 38 36 35 34 34 34 33 33 32 32 32 33 33 33 33 33 33 32 32 31 31 32 32 31 30 30 29 29 29 29 29 29 28 28 28 29 30 31 33 34
20 15 14 15 18 21 25 27 30 33 34 34 36 35 32 31 31 32 35 39 41 41 40 38 35 34 34 34 34 34 33 32 32 32 32 33 33 34 34 34 34 34 34 34 34 34 33 33 33 32 32 31 31 30 29 28 27 28 29 29 30 31 32
16 12 12 16 19 23 26 28 30 31 32 33 34 34 32 32 33 37 40 42 42 41 39 37 35 34 35 34 33 32 32 31 31 32 32 32 32 33 33 34 34 34 34 34 34 34 34 34 34 34 33 32 32 31 29 29 29 29 29 29 29 30 31
13 11 13 17 20 24 27 29 31 32 32 33 34 35 35 35 38 42 43 42 41 40 38 36 36 35 34 32 30 29 29 29 29 29 29 29 30 31 31 32 32 32 32 32 32 33 33 33 33 33 33 33 32 31 31 30 31 31 31 31 31 31 30
12 11 14 17 21 25 27 29 31 33 34 36 37 37 38 40 43 44 43 42 41 40 38 37 35 33 30 28 27 26 26 26 26 27 27 27 27 28 28 29 29 30 29 30 30 30 30 30 30 30 30 29 29 29 29 29 30 31 32 32 31 31 32
14 13 14 15 18 25 28 29 31 35 37 38 40 40 42 45 46 45 44 43 41 39 37 36 33 30 29 27 26 26 26 26 26 27 27 27 26 26 27 27 27 27 27 27 28 28 27 27 27 27 26 26 26 26 27 27 27 28 29 29 29 30 31
16 16 18 17 16 22 28 30 31 36 38 39 42 44 46 47 47 46 45 43 41 39 36 34 32 31 30 28 27 26 26 26 27 27 26 26 25 24 23 23 23 23 24 24 24 24 25 25 25 25 25 24 25 26 27 26 26 27 27 28 28 29 28
19 19 22 22 17 18 25 29 32 35 38 40 43 46 48 47 46 46 45 43 41 39 36 33 33 31 29 28 27 26 26 26 26 25 25 24 22 20 20 21 21 21 22 22 21 21 22 23 24 25 26 26 25 26 27 27 27 27 27 27 28 28 28
24 22 24 26 23 19 21 26 30 33 37 41 43 45 47 48 47 46 45 43 40 38 37 35 34 32 30 29 27 25 25 26 25 24 23 22 20 20 21 22 22 22 22 22 22 22 23 24 25 25 26 26 26 26 26 26 26 26 26 27 28 29 30

ECMWFFLT1_700_spd_051.txt.gz
Wind_Speed
30 30 32 32 29 27 26 23 22 24 25 24 24 24 24 25 26 28 28 27 27 29 30 30 29 29 30 30 30 29 29 29 28 28 28 27 27 26 26 25 24 23 21 20 19 19 18 17 16 15 14 13 13 12 11 10 9 9 9 9 9 7 6
30 31 32 32 32 30 28 23 21 25 26 24 24 24 24 25 25 27 26 25 27 28 29 29 29 29 29 30 30 30 29 29 29 28 28 28 28 27 27 26 25 24 23 21 21 21 21 20 19 17 16 15 14 13 12 11 11 10 9 10 10 9 8
31 31 32 32 33 32 29 24 22 25 27 27 26 26 26 25 23 24 25 25 25 27 29 30 29 29 29 30 30 30 30 30 29 29 28 28 28 27 27 26 26 25 24 23 23 23 22 21 21 20 18 16 15 14 14 13 12 11 10 10 11 11 10
29 30 31 31 32 33 31 27 23 24 27 28 27 27 26 24 23 23 24 25 25 27 28 29 29 29 29 30 30 29 30 30 29 29 28 29 28 28 28 27 26 26 26 26 25 24 23 22 22 22 20 18 17 16 15 14 13 12 12 11 11 11 11
28 29 30 30 31 33 33 27 22 23 26 28 27 27 26 25 24 24 24 25 26 26 27 28 28 29 29 30 30 29 29 29 29 29 29 29 29 29 29 28 27 27 27 27 26 26 26 24 23 23 22 20 19 17 16 16 14 13 13 12 11 11 11
28 29 29 30 31 34 36 31 24 22 23 26 27 26 26 27 27 26 25 25 26 26 28 28 29 29 28 29 30 29 28 28 29 29 29 30 30 30 29 28 27 27 28 28 27 27 27 26 25 24 23 21 20 19 18 17 16 14 14 13 12 12 11
31 31 30 30 31 33 37 35 28 22 20 23 27 27 28 28 28 28 27 26 26 26 28 28 29 28 28 28 29 30 29 28 28 28 29 30 30 30 29 29 28 27 28 28 27 27 27 26 26 26 24 23 23 21 20 19 17 16 16 15 14 13 13
32 33 32 31 31 31 35 36 32 26 21 22 26 29 29 29 29 29 29 28 27 27 27 28 28 28 28 28 29 29 29 28 28 28 29 30 30 30 29 29 28 28 29 29 28 28 28 26 27 27 26 25 24 23 22 21 20 19 18 17 15 14 14
30 33 32 31 31 30 33 37 36 29 22 21 24 28 30 29 29 28 29 29 28 28 28 28 28 28 27 28 28 28 29 29 29 29 29 29 30 30 29 29 29 28 29 28 27 27 28 27 27 27 27 26 25 24 23 22 21 20 20 19 16 14 14
28 31 33 32 32 31 31 34 35 30 25 23 24 27 30 30 28 28 29 30 29 28 28 29 29 28 27 28 28 28 29 29 30 30 30 30 29 29 29 29 28 28 29 29 28 27 27 27 28 27 26 26 26 25 25 24 23 21 21 19 17 15 15
26 29 33 32 31 33 30 30 33 33 28 24 23 25 30 30 29 28 29 30 30 29 29 30 30 29 28 27 28 28 29 29 30 30 30 30 29 29 29 29 28 28 27 28 29 28 27 27 28 28 26 25 26 26 25 24 23 22 21 20 18 16 16
25 27 31 33 32 32 32 30 32 33 30 26 22 23 28 31 30 29 29 30 30 31 31 31 31 30 28 28 29 29 28 29 29 29 29 30 30 29 29 29 28 28 27 27 28 29 28 26 27 27 26 24 25 25 25 25 24 22 21 20 18 17 17
25 24 26 28 28 28 29 30 32 33 30 27 23 22 27 31 31 30 30 30 31 32 32 32 31 30 29 29 29 29 28 28 29 29 28 29 30 29 29 29 28 28 28 28 28 29 29 27 25 25 25 24 24 25 25 25 24 22 22 21 20 18 17
20 22 23 25 27 27 27 29 33 33 29 26 24 23 26 31 33 32 30 30 31 32 33 33 32 31 29 29 29 29 28 28 28 28 28 28 29 30 30 29 29 29 29 28 28 28 28 27 25 24 24 24 24 25 25 24 24 23 22 21 20 19 18
12 16 18 19 23 26 29 33 35 34 29 26 25 24 26 32 35 34 33 32 32 33 34 34 33 32 30 29 29 28 28 28 28 28 28 28 29 29 30 30 30 30 30 29 28 28 27 27 26 24 24 24 25 25 26 25 24 24 23 21 20 19 19
16 18 18 18 17 16 21 28 31 31 29 27 26 25 26 33 37 37 35 34 33 33 34 35 34 33 32 29 28 28 28 28 28 28 27 28 28 29 30 30 30 31 31 30 29 28 28 27 27 25 23 24 25 26 26 26 25 24 22 21 20 19 19
16 16 17 19 17 12 14 20 22 25 28 27 26 24 26 32 38 39 37 35 35 35 35 35 34 34 33 30 28 28 28 28 28 28 27 27 27 28 29 30 30 30 31 31 29 29 29 28 28 26 24 24 25 25 26 25 25 24 22 20 20 20 20
10 9 11 13 12 11 14 18 21 23 25 24 23 24 26 31 38 40 39 38 36 36 36 36 35 34 34 32 31 30 28 28 28 28 27 27 27 28 29 30 30 30 31 31 30 29 30 30 29 27 26 26 26 26 26 25 25 24 21 20 21 21 21
13 11 11 11 11 11 13 18 21 24 24 23 22 23 25 28 35 39 40 40 38 37 37 37 35 35 35 34 33 32 30 28 28 27 27 28 27 28 29 31 31 30 30 30 30 29 30 31 30 28 28 28 27 26 25 25 25 24 22 21 21 22 23
18 16 14 12 11 12 13 16 19 22 24 24 23 23 22 23 28 33 36 37 39 40 39 38 37 36 36 35 35 33 32 30 28 27 27 28 28 28 30 31 32 31 30 30 30 30 30 31 31 30 29 29 28 28 26 26 26 25 22 21 22 23 24
21 20 18 15 12 12 14 16 18 19 21 23 24 25 24 22 23 27 29 34 39 41 40 39 38 37 37 37 36 35 34 32 29 28 28 29 30 29 30 32 32 32 31 30 30 30 30 31 32 31 30 30 29 29 27 27 28 26 22 21 22 23 25
23 22 19 17 14 13 13 16 20 21 21 24 26 27 27 25 24 26 28 32 37 41 41 40 40 39 38 38 38 36 35 34 31 28 28 30 31 30 30 32 34 33 33 32 31 31 30 30 31 31 30 30 30 30 28 27 29 27 22 20 22 24 26
26 23 21 19 17 14 14 16 20 22 24 27 29 30 30 27 26 27 28 30 35 40 42 42 41 39 38 38 39 38 37 35 31 27 28 30 32 31 30 32 34 35 35 33 33 32 31 30 30 30 30 30 30 30 29 28 29 27 23 21 23 25 27
27 24 22 21 18 17 16 17 21 24 26 28 30 31 31 30 29 29 29 30 34 39 42 43 41 39 37 38 39 39 39 36 31 27 27 29 31 31 30 31 33 34 35 34 33 33 32 31 30 30 31 31 30 30 29 28 28 27 24 23 24 25 27
29 26 24 22 20 19 18 19 22 24 25 28 30 31 32 33 32 32 31 30 32 36 41 42 40 37 35 37 40 41 40 36 31 27 26 27 30 31 31 31 31 32 33 33 33 33 32 31 31 31 31 31 31 30 29 28 28 27 26 25 25 26 27
30 27 25 23 21 20 19 19 21 22 24 28 31 32 33 35 35 34 33 30 30 33 39 41 39 36 36 38 41 42 41 36 32 28 26 25 27 29 31 31 31 31 31 31 32 33 32 32 32 32 32 31 31 30 29 29 29 29 27 26 26 27 28
31 28 26 23 21 21 20 20 21 23 26 30 33 35 36 37 38 36 34 32 30 30 34 39 40 39 39 40 42 43 41 37 34 31 27 25 26 28 29 30 30 30 30 30 31 32 33 33 32 32 31 31 32 32 31 29 30 30 29 28 28 28 29
32 30 27 24 22 22 21 21 21 25 29 31 35 38 39 40 41 39 37 35 31 28 31 37 41 42 41 41 43 43 41 37 35 33 31 28 28 29 30 30 30 29 29 29 30 32 32 33 33 32 31 31 32 33 31 30 30 32 31 29 29 29 30
32 30 29 26 24 23 22 22 21 25 30 33 36 39 40 41 43 41 39 36 32 30 32 36 40 42 41 42 43 43 40 38 36 34 32 30 28 28 29 30 30 30 30 31 32 33 33 33 33 33 32 32 31 32 31 31 31 32 32 30 30 30 31
30 30 29 27 25 23 23 22 21 24 28 31 35 38 39 42 44 43 39 36 34 34 34 35 37 41 41 42 44 43 40 37 36 35 32 30 28 28 29 29 30 31 32 32 33 34 34 33 33 33 32 32 31 31 31 31 31 31 32 31 30 31 32
29 29 27 25 22 21 22 22 21 22 24 26 30 34 37 41 44 43 40 38 36 35 35 35 37 39 40 41 43 43 39 37 36 35 32 30 29 30 31 30 30 31 31 31 32 34 34 33 32 32 32 32 31 31 31 31 31 31 31 30 30 31 32
25 25 24 22 20 19 20 21 21 22 22 22 25 28 32 37 40 41 40 38 36 36 35 36 37 38 40 42 44 42 39 37 36 33 32 32 32 33 33 32 32 32 32 30 30 31 31 30 29 29 29 29 29 29 29 29 29 28 28 29 30 31 32
20 19 20 20 18 18 19 20 21 23 24 24 24 27 30 32 34 37 39 37 37 37 37 36 37 39 41 44 44 42 39 37 36 34 33 34 35 34 34 34 33 34 33 32 31 31 30 29 29 28 28 29 29 29 28 28 27 26 26 27 28 30 32
17 15 17 18 18 18 18 20 21 23 26 27 26 27 31 31 31 34 38 38 39 39 37 37 38 41 44 45 44 42 40 38 36 36 36 36 36 35 34 34 33 33 33 33 33 33 33 32 32 31 31 31 32 31 30 29 28 27 27 27 28 30 32
17 15 15 17 16 16 17 19 22 24 27 28 26 26 29 31 31 33 37 40 40 39 37 39 41 44 46 46 44 42 40 39 38 38 38 37 36 34 33 33 33 32 32 33 33 33 33 33 33 32 32 32 32 31 30 30 30 29 29 30 30 30 31
21 19 16 15 14 16 18 20 24 26 27 28 27 26 28 30 29 29 32 37 39 39 39 42 45 47 47 46 45 43 41 41 39 38 37 36 34 32 31 31 31 31 31 31 31 31 31 31 30 30 29 28 28 28 28 28 29 29 30 31 32 32 31
25 23 20 17 18 20 19 21 23 25 27 28 29 29 28 29 30 30 30 33 38 42 43 44 47 48 48 46 45 44 42 40 38 36 34 33 31 30 30 29 29 29 29 28 27 27 27 27 26 26 26 25 25 26 26 26 27 28 29 30 30 30 29
28 26 24 23 22 23 22 22 23 23 25 28 30 31 31 32 33 34 33 34 38 43 46 47 48 49 48 47 45 43 40 37 34 33 32 31 29 28 28 28 28 28 28 26 25 25 25 24 24 24 25 25 25 25 25 26 26 26 27 27 27 27 26

ECMWFFLT1_700_spd_054.txt.gz
Wind_Speed
37 34 31 32 31 31 32 31 30 30 29 28 28 27 26 26 28 29 29 26 25 28 30 29 27 26 27 27 26 25 26 27 27 26 26 26 25 24 23 22 21 20 18 17 16 15 14 14 13 11 11 11 10 10 9 8 7 6 6 6 5 5 5
36 35 33 33 32 31 32 31 29 29 30 28 28 26 24 25 27 29 27 24 24 26 28 28 27 26 26 26 26 26 26 26 26 27 27 26 25 24 23 23 22 20 19 18 17 17 16 16 15 13 12 12 11 11 10 9 8 7 6 6 6 6 6
35 35 34 34 33 32 31 30 29 29 29 28 28 27 25 25 26 27 25 23 23 25 27 28 27 25 25 26 27 26 26 26 26 26 26 27 26 25 24 23 22 21 20 19 19 19 18 17 17 16 14 13 13 12 11 10 9 7 6 6 7 7 8
34 33 33 31 29 30 30 30 30 30 30 29 28 28 26 23 24 25 24 22 23 25 27 28 27 26 26 26 27 26 27 27 27 26 26 26 26 25 25 24 23 22 21 20 20 19 19 19 18 17 16 15 14 13 12 10 10 8 7 6 7 8 9
29 31 32 31 28 29 29 29 30 29 29 29 27 27 25 22 24 27 25 22 22 24 25 27 27 27 26 26 27 26 26 27 27 26 26 25 25 26 26 25 24 23 23 22 21 20 20 20 18 18 18 17 16 15 13 12 11 9 8 7 7 8 9
30 32 34 33 31 29 27 28 29 29 29 28 27 27 26 24 27 31 29 24 22 23 25 27 28 27 27 27 27 26 26 26 27 27 26 26 26 26 26 25 24 24 24 24 23 22 22 21 19 18 19 18 18 17 15 14 13 11 10 9 9 9 9
30 33 34 33 32 31 28 28 30 29 29 28 27 27 28 28 28 31 33 27 23 24 26 27 28 28 27 27 27 27 26 25 26 26 27 27 27 27 26 25 25 24 24 25 25 24 24 23 20 19 20 20 19 18 17 15 14 13 12 10 9 9 9
27 31 33 33 33 32 32 32 31 30 30 29 29 29 30 30 28 30 34 31 25 25 26 27 27 27 27 27 27 27 26 25 25 25 26 27 28 28 26 26 26 25 25 25 26 25 25 24 22 19 20 22 21 20 18 17 16 15 13 12 10 10 9
27 28 31 32 33 34 35 34 31 29 31 32 32 30 30 31 29 27 31 32 29 26 26 26 26 26 26 26 27 27 26 26 26 25 26 26 27 28 27 26 26 26 25 26 26 26 25 25 23 20 20 22 22 22 20 18 18 17 16 13 12 11 10
30 30 30 29 32 35 33 30 28 28 31 34 34 31 29 29 28 25 27 31 31 28 25 25 25 25 25 25 26 27 27 27 27 27 26 26 26 27 27 26 26 26 26 26 26 27 26 24 24 23 22 22 22 23 22 20 19 19 17 15 14 13 12
30 32 31 29 31 36 34 30 30 30 30 33 34 31 28 27 27 26 26 28 31 30 27 25 25 25 24 24 25 27 27 27 28 28 27 27 26 26 25 26 26 26 27 26 27 27 26 24 24 24 24 23 22 22 23 21 20 19 19 17 15 14 14
27 30 31 32 33 35 35 33 33 31 27 31 34 29 26 25 27 28 26 25 28 30 29 27 26 25 24 24 25 26 26 27 28 28 28 28 27 26 25 25 26 26 27 26 26 27 27 25 24 23 23 22 22 21 22 22 21 20 19 19 17 16 15
26 26 26 34 35 33 34 34 34 31 26 29 33 29 24 25 27 29 28 26 28 30 30 28 27 25 24 24 25 25 25 26 27 27 27 28 28 27 26 26 26 26 26 26 26 26 26 25 24 23 22 21 21 21 21 21 21 21 20 19 18 17 16
24 21 19 29 34 32 34 34 33 30 25 25 31 30 25 24 24 26 26 27 29 30 29 28 27 26 24 24 25 25 24 24 24 25 26 27 27 27 27 26 26 26 25 25 26 26 26 25 23 23 23 21 20 21 22 21 22 22 21 20 19 18 16
23 20 19 28 34 33 33 32 31 30 25 23 27 31 30 26 23 21 23 26 30 32 30 28 27 27 24 24 24 24 23 23 23 24 25 26 27 27 27 27 26 26 26 26 26 27 27 26 23 22 23 22 20 21 23 23 22 22 21 20 19 19 17
19 23 26 32 35 35 36 33 28 26 26 25 26 28 31 30 24 20 21 25 30 33 32 29 28 27 25 23 23 23 24 24 23 24 25 25 26 26 27 27 27 27 27 26 26 27 27 27 25 22 22 23 22 21 23 24 23 21 21 19 19 19 18
15 19 25 29 29 30 34 36 33 30 31 33 31 30 31 31 27 22 21 24 30 34 34 30 27 27 25 23 23 23 24 24 24 24 25 24 24 25 26 27 26 27 27 27 27 27 28 28 26 23 21 22 23 22 23 24 22 21 20 20 19 19 19
13 14 19 22 22 24 27 30 34 37 37 39 38 36 35 32 29 25 23 24 29 34 37 33 28 27 26 24 23 24 24 24 24 24 25 24 24 24 25 26 27 27 28 28 27 27 28 28 28 26 22 22 24 24 23 23 23 21 20 20 20 19 19
13 14 17 19 19 21 23 23 27 32 35 35 35 35 35 31 28 28 26 25 27 32 38 37 31 29 28 26 25 24 24 24 24 23 24 24 24 24 25 26 27 27 28 28 28 27 28 28 29 28 25 23 23 23 23 23 23 22 21 20 19 19 19
13 13 14 16 15 16 19 20 21 25 30 32 29 29 30 28 27 29 29 27 27 30 35 38 37 32 29 28 26 25 25 25 24 23 23 23 24 25 25 26 27 27 27 28 29 29 28 28 29 29 28 26 25 24 24 23 22 21 20 19 18 18 19
12 11 11 12 11 11 14 17 18 21 27 31 30 28 28 27 28 31 31 29 29 31 33 37 40 37 32 30 29 27 27 26 25 25 23 23 24 25 26 26 26 27 28 29 30 30 29 28 28 29 30 29 28 26 25 24 24 23 21 19 17 17 19
16 14 12 12 12 11 12 14 16 19 23 28 31 29 27 27 29 32 32 28 29 31 31 33 40 41 36 33 31 29 28 27 27 26 26 25 25 25 26 26 26 26 27 29 30 31 30 29 28 29 30 30 30 29 27 26 25 24 24 21 18 18 19
21 19 17 15 14 14 13 14 15 16 17 21 27 29 26 25 27 30 31 30 31 33 33 33 37 42 40 35 33 31 30 29 28 28 28 27 26 25 25 26 27 27 27 28 30 32 33 31 29 29 30 30 31 30 29 28 26 25 25 23 20 19 21
26 24 21 19 17 16 15 15 16 17 15 16 22 28 28 26 26 29 32 32 32 34 36 36 37 40 40 37 34 32 31 31 31 30 30 29 28 26 25 26 28 28 28 28 29 32 33 32 30 30 30 31 31 30 29 29 28 27 26 24 22 21 21
30 28 26 23 21 19 18 17 17 18 18 16 18 24 30 29 26 27 31 33 31 31 35 37 37 39 39 37 36 34 33 33 33 32 32 32 29 27 26 26 27 29 29 28 28 30 32 33 32 32 31 31 31 30 29 29 29 28 27 26 24 23 23
33 30 29 28 25 23 20 20 19 19 19 18 16 19 29 34 31 29 33 33 30 30 33 35 36 36 37 37 37 37 36 35 35 34 34 34 32 28 26 26 27 29 30 29 28 29 32 33 34 33 31 31 30 30 29 28 28 29 27 26 25 24 24
36 34 32 31 29 26 23 21 22 21 20 20 18 18 25 33 34 33 33 33 30 29 29 30 31 33 35 38 38 38 37 36 36 36 36 36 34 30 27 27 28 29 31 29 28 28 30 33 34 33 32 32 31 31 30 29 29 29 29 27 26 25 25
40 38 35 32 30 29 25 23 22 22 21 21 20 20 24 31 35 34 33 34 33 29 27 27 28 30 33 36 38 39 38 37 37 38 39 39 37 32 29 28 28 29 30 30 28 28 29 31 33 34 33 33 32 32 32 31 31 31 30 29 28 26 27
40 39 36 33 31 29 27 24 24 23 22 21 22 22 26 31 35 35 35 36 34 30 29 30 30 31 32 34 37 38 38 38 38 39 41 41 39 34 31 29 27 27 29 29 29 28 29 30 31 32 33 33 33 33 32 32 31 31 30 30 29 28 27
37 37 36 34 32 30 28 26 25 24 23 22 22 24 28 34 37 37 37 37 35 33 35 35 33 32 33 34 35 37 38 38 40 41 42 42 40 36 33 29 27 26 26 27 28 29 29 29 29 30 31 32 32 32 31 31 31 30 28 29 29 29 28
34 34 35 34 32 31 29 27 26 25 23 23 23 26 30 35 39 41 40 38 37 38 40 38 35 34 35 35 35 36 38 39 41 42 43 43 40 37 35 31 28 27 26 26 27 28 28 28 28 29 30 31 31 31 31 31 31 30 27 27 29 29 29
33 32 32 31 31 31 29 26 25 25 24 24 25 27 30 34 39 42 42 41 42 42 42 41 38 36 35 35 35 36 39 41 42 42 43 43 40 38 36 34 31 28 27 26 27 28 29 29 29 29 29 29 30 30 30 30 30 30 28 28 28 28 28
31 30 28 29 30 30 27 25 25 25 25 25 25 26 29 34 38 41 43 44 45 45 45 44 42 39 38 37 37 38 40 42 43 43 43 43 41 38 37 36 33 31 29 27 27 28 28 29 29 29 29 29 30 29 29 29 29 29 29 27 25 25 26
28 26 25 25 27 27 25 23 24 25 25 25 25 26 29 33 35 38 41 45 46 47 48 47 45 42 41 39 39 40 41 42 42 42 43 42 40 38 37 36 34 32 30 28 27 26 26 26 26 25 24 24 25 26 27 26 26 27 26 24 22 22 22
23 23 22 21 22 25 24 22 23 26 26 25 25 28 30 33 35 36 39 43 46 48 49 49 47 45 43 42 42 42 42 41 41 42 42 42 40 39 38 36 34 32 30 28 27 26 26 26 25 23 21 20 21 21 22 22 22 22 23 22 22 22 22
20 21 20 20 21 24 26 25 24 25 26 26 27 31 33 34 36 37 40 42 44 46 48 49 48 47 46 46 46 45 42 41 41 42 42 42 41 39 37 35 33 32 31 30 28 27 27 27 27 27 26 26 25 25 24 24 23 24 25 27 26 25 25
21 22 22 23 24 24 25 28 28 27 27 27 29 32 35 36 38 40 42 42 42 44 47 49 48 48 49 48 47 45 42 40 41 43 42 41 40 39 37 35 34 34 33 31 29 28 28 28 28 28 29 29 29 29 28 27 27 28 29 29 29 28 28
25 26 26 28 27 23 21 25 29 29 28 28 31 34 37 39 40 41 41 41 40 42 46 48 48 48 48 47 45 45 43 42 43 43 42 42 40 38 36 36 36 36 33 31 29 29 28 28 28 29 30 30 30 29 28 27 27 28 28 28 29 29 28

ECMWFFLT1_700_spd_057.txt.gz
Wind_Speed
28 28 27 26 25 26 28 30 31 31 31 31 31 31 31 30 29 29 28 28 27 27 27 26 26 27 27 25 24 25 26 26 24 23 23 26 26 24 23 22 21 20 19 18 17 16 15 14 13 13 12 12 11 10 10 9 8 7 7 7 7 7 6
30 27 26 26 25 25 27 29 29 30 30 31 32 31 31 30 29 28 27 27 27 26 26 26 25 26 27 26 25 25 26 26 26 25 24 24 25 26 24 23 22 21 19 18 18 17 16 15 14 13 12 12 11 11 10 10 9 8 7 7 7 7 7
31 27 25 25 25 25 27 28 28 30 31 32 32 31 30 30 27 26 27 26 26 25 25 26 25 25 26 26 26 26 26 26 26 26 25 24 23 24 24 23 23 22 21 20 19 19 17 16 15 14 13 13 12 11 11 10 10 8 7 7 7 7 8
30 27 26 23 24 26 26 26 26 28 31 31 30 29 29 29 25 24 26 25 25 25 25 26 26 25 26 27 27 27 27 26 26 25 25 24 23 23 23 23 23 23 22 21 20 20 18 17 17 16 15 14 13 12 11 11 10 9 8 7 7 7 8
30 28 27 23 24 28 26 25 26 27 28 29 29 29 29 28 25 24 25 25 24 25 25 25 25 25 25 27 27 27 27 27 26 25 25 25 24 24 24 23 23 23 22 22 21 21 19 18 18 17 17 16 15 14 13 12 11 10 9 8 8 7 7
32 30 29 25 22 25 25 24 26 26 27 28 28 29 30 29 27 25 25 25 25 25 26 27 27 26 26 26 27 28 28 28 28 27 26 25 25 25 24 23 23 23 23 23 22 21 21 19 18 18 17 17 17 16 15 14 13 12 10 9 8 8 7
34 33 30 25 21 22 23 22 25 27 27 29 28 28 30 30 28 26 25 25 26 27 29 30 29 28 27 26 26 27 28 28 28 28 28 27 26 26 25 24 24 24 24 24 23 22 22 21 20 19 18 18 18 18 17 16 15 14 13 11 10 9 8
32 32 27 24 22 21 21 21 23 27 28 30 30 30 31 31 29 27 27 26 27 28 30 31 30 28 27 27 27 27 27 27 27 28 28 28 28 27 26 25 25 24 25 25 25 24 23 21 20 20 19 19 18 18 18 18 17 16 15 14 12 11 10
25 27 24 21 23 24 22 21 22 27 30 30 30 31 30 31 30 29 28 27 27 29 30 30 30 28 27 28 28 27 27 26 26 27 28 29 30 29 28 26 25 25 25 26 25 25 24 23 21 20 21 21 20 19 19 19 19 18 17 15 14 12 11
23 23 24 24 28 27 24 21 23 26 29 29 30 31 30 31 31 30 29 28 27 28 29 29 29 28 27 27 27 28 28 27 26 27 27 28 29 29 29 28 27 26 26 26 26 26 25 24 22 21 20 22 22 21 20 20 20 19 18 17 16 15 13
31 25 25 26 29 30 25 22 24 27 27 28 30 31 30 30 31 31 30 28 27 27 28 29 29 28 26 26 26 28 28 28 27 27 28 28 28 29 29 29 28 28 27 26 27 27 26 25 24 22 20 21 22 22 21 20 20 20 19 18 17 16 15
31 26 26 25 26 29 26 23 25 26 26 26 28 29 30 30 31 31 29 28 28 28 28 29 29 29 27 25 26 27 28 28 28 28 28 28 27 27 27 28 29 29 28 27 26 26 26 25 24 23 21 20 21 22 21 20 21 21 20 19 19 18 17
22 27 33 33 31 28 23 23 25 26 26 25 26 26 26 28 31 30 29 28 29 28 28 29 29 28 28 26 25 26 26 27 27 28 28 28 27 26 26 27 28 28 28 28 27 27 26 26 24 22 21 20 20 21 20 20 21 21 22 21 20 20 19
21 34 40 40 42 37 28 25 25 24 25 26 26 23 22 26 30 30 28 27 29 30 29 29 29 28 28 27 26 25 25 25 25 26 27 27 28 27 27 27 27 27 27 27 28 28 27 26 24 22 21 20 20 20 20 21 22 22 23 23 22 21 20
24 34 37 36 42 42 35 32 30 25 24 25 25 23 21 23 27 29 29 28 29 30 29 29 30 29 29 28 26 23 22 22 23 24 26 27 28 28 28 27 26 26 26 26 28 28 27 26 24 22 22 21 21 20 20 22 22 22 23 23 23 22 20
20 24 26 27 33 40 41 41 40 36 32 30 28 25 22 23 26 27 27 28 30 31 29 29 30 29 28 27 24 23 22 22 22 23 24 26 27 27 27 27 26 26 26 26 26 27 27 27 25 23 22 21 21 22 22 22 22 22 22 23 23 22 21
24 23 21 21 27 39 46 46 44 42 38 35 34 31 28 28 29 29 27 26 27 30 30 29 30 30 29 26 24 24 24 23 23 23 23 24 24 25 26 26 26 26 26 26 26 27 27 28 27 24 23 22 22 22 22 22 21 21 22 22 23 23 23
26 25 22 20 23 33 43 47 46 43 40 39 37 34 33 31 31 32 32 29 28 31 34 34 33 32 31 29 28 27 25 24 24 24 24 23 23 24 24 25 25 25 26 26 26 26 27 28 28 25 23 23 23 23 22 22 21 21 21 22 23 24 24
20 21 20 19 20 26 35 41 45 44 42 42 40 37 36 34 32 31 32 32 31 33 36 39 39 39 37 33 31 30 27 26 25 24 24 24 24 24 24 25 25 24 25 25 25 26 27 27 28 27 25 24 24 23 23 22 21 21 21 21 22 23 24
14 15 15 15 16 19 20 25 36 44 44 43 42 39 36 34 32 33 33 32 31 32 34 37 39 41 40 37 34 31 30 29 26 25 24 24 25 25 26 26 25 23 24 24 24 25 26 27 28 28 27 25 24 24 23 22 22 21 21 21 22 23 23
11 10 11 11 13 14 10 9 19 32 39 43 42 40 37 35 35 37 37 32 30 31 32 32 33 34 35 36 36 33 32 31 29 27 26 25 26 26 27 27 26 24 24 24 24 24 24 25 27 28 28 27 25 24 24 23 22 22 21 21 21 21 22
11 8 8 8 9 11 10 9 9 13 23 34 39 38 38 39 39 40 38 34 32 30 28 28 29 30 32 34 35 34 32 31 30 29 27 27 27 27 27 27 27 27 25 24 24 23 24 25 26 27 28 29 27 26 25 24 23 23 22 21 20 20 20
17 12 9 9 9 9 8 8 9 9 12 20 28 32 35 37 39 39 38 36 35 33 30 29 29 30 33 34 34 33 32 31 30 30 29 29 28 27 27 27 28 28 28 27 25 24 24 25 26 26 27 28 29 28 26 25 24 24 24 23 21 21 21
27 22 17 14 13 11 8 6 7 9 12 15 19 23 27 31 34 37 38 37 36 34 33 34 32 32 34 36 34 33 32 31 31 31 30 30 29 29 28 28 28 29 29 29 27 25 24 24 25 26 26 27 29 29 28 26 25 25 25 24 23 23 22
34 30 24 20 18 16 13 10 7 8 12 15 17 20 24 28 31 34 37 38 37 35 35 37 36 34 35 37 36 34 33 32 32 32 32 31 30 30 30 29 28 28 29 30 30 28 26 25 25 26 27 27 28 29 29 28 27 26 25 24 24 24 24
34 32 28 25 23 21 18 14 10 9 11 14 17 19 23 27 30 33 36 37 38 37 37 36 35 34 35 37 38 38 37 35 34 33 33 32 32 32 32 31 30 30 30 30 31 31 30 28 27 26 27 28 28 29 30 30 29 28 26 25 25 25 25
35 33 31 29 27 25 23 18 14 12 12 15 18 20 22 25 29 34 37 38 39 40 38 35 33 35 37 39 40 41 40 38 37 36 35 34 34 34 34 34 33 32 31 31 31 31 32 31 29 27 26 28 29 30 31 30 30 29 28 27 26 25 25
37 36 34 32 30 28 26 24 19 16 15 16 19 22 24 26 29 33 37 40 40 40 39 37 36 37 39 41 42 43 42 40 39 38 37 37 37 37 37 36 35 34 33 32 32 31 32 33 32 29 27 27 29 31 31 30 30 29 29 27 27 26 26
39 40 38 35 33 31 29 28 24 20 18 18 20 23 25 28 29 31 36 39 39 38 39 40 40 40 41 43 45 45 44 41 39 39 40 39 39 39 39 38 38 36 35 34 33 32 33 33 33 32 29 28 29 31 31 31 30 30 29 28 28 28 28
36 38 39 37 34 33 33 31 29 26 23 21 22 24 27 29 30 32 35 36 37 38 40 41 41 40 40 42 45 46 44 42 40 40 40 40 40 40 41 41 40 40 38 35 34 33 33 34 34 34 32 30 29 30 31 31 31 30 29 29 29 29 29
33 34 38 39 36 35 34 33 32 31 27 24 24 26 28 29 31 33 34 34 36 39 41 42 42 40 39 40 43 45 44 42 41 40 40 40 41 41 42 42 42 42 41 37 35 35 34 34 34 35 34 32 30 29 29 30 30 30 29 29 29 29 28
31 30 35 38 38 37 35 34 33 33 31 28 27 28 29 30 31 32 33 33 35 38 40 42 42 41 39 38 39 41 41 41 40 39 39 40 41 41 42 42 43 44 43 40 37 35 34 33 34 34 34 33 30 28 27 28 28 29 28 27 27 27 26
29 29 32 35 36 36 35 34 34 35 34 32 30 29 31 32 31 32 33 34 36 37 39 41 42 41 40 38 37 37 38 38 38 39 39 40 41 42 42 43 43 45 44 41 38 36 34 32 32 32 33 33 30 27 25 25 26 27 27 27 26 26 25
28 29 31 33 34 34 33 32 33 35 35 35 33 32 32 33 32 32 32 34 36 38 39 41 43 43 42 41 39 38 38 39 39 39 40 40 41 41 42 43 44 44 43 41 39 38 35 31 29 29 29 29 27 25 24 23 24 24 24 24 23 23 23
29 30 31 32 32 32 31 31 33 35 36 36 36 34 34 35 34 33 33 35 37 39 40 43 46 46 44 43 43 42 42 42 42 43 42 41 41 41 42 44 44 44 42 41 41 39 35 31 26 24 23 23 24 24 24 23 21 19 18 18 18 19 20
30 30 30 31 31 29 29 30 32 34 36 36 37 37 36 36 36 35 34 35 37 40 42 44 48 49 46 44 44 45 46 46 46 46 45 42 41 42 44 45 45 43 42 41 41 39 36 32 28 24 23 23 23 22 21 19 17 15 14 15 16 17 17
32 30 28 29 30 28 27 29 30 33 36 37 37 37 37 38 39 38 36 36 39 42 42 44 47 49 48 46 46 47 48 48 48 49 48 46 45 45 46 46 45 43 41 41 41 40 38 34 30 28 28 27 25 24 22 20 19 18 17 16 17 18 18
32 30 26 26 28 27 26 26 27 30 34 36 38 39 38 39 40 39 37 38 40 41 42 44 47 48 48 49 49 49 51 52 52 52 53 51 48 47 48 48 46 43 41 41 41 40 39 35 31 30 30 29 28 27 27 25 23 23 22 21 21 21 22

ECMWFFLT1_700_spd_060.txt.gz
Wind_Speed
28 31 30 30 33 35 33 32 31 30 30 30 29 28 28 28 29 31 30 28 27 28 29 29 28 27 25 24 24 23 23 23 23 24 25 26 25 24 23 22 21 19 18 17 15 15 15 15 15 14 14 14 13 12 11 10 9 9 9 9 10 10 9
30 32 32 31 33 34 33 33 33 31 30 29 29 28 28 29 30 31 30 29 27 28 29 29 29 27 25 25 24 24 24 23 23 24 25 26 26 25 23 22 21 20 19 18 17 17 17 16 16 15 15 14 13 13 12 12 11 10 10 10 10 10 10
29 32 33 31 30 30 31 32 33 32 30 29 29 28 28 28 29 30 30 29 28 28 29 29 29 27 26 25 25 25 24 24 23 24 25 25 24 23 24 24 22 22 21 20 19 19 18 17 17 16 15 15 14 14 13 13 12 12 11 11 11 11 11
26 30 31 31 30 29 30 32 32 31 30 29 28 27 26 27 27 28 30 30 29 30 30 29 29 28 27 26 26 26 25 24 24 23 24 24 23 22 24 25 25 24 23 22 22 21 20 19 18 17 17 16 15 15 14 14 14 13 12 12 12 12 12
25 29 32 33 33 32 31 32 31 30 30 29 28 26 25 26 26 28 29 30 31 31 29 29 29 28 28 27 26 26 25 25 24 23 23 24 24 23 23 25 26 26 25 24 24 23 23 21 20 19 18 17 16 16 16 15 15 15 14 13 13 13 13
23 27 33 34 34 33 30 29 29 28 27 27 26 26 25 25 26 26 27 30 31 31 30 30 30 29 29 28 26 26 25 26 26 25 24 24 25 26 24 23 24 26 26 26 25 25 24 24 22 21 20 19 18 17 17 16 16 16 15 14 14 14 14
23 23 28 33 35 32 28 28 28 27 27 25 25 25 25 26 26 25 26 28 31 32 32 32 31 30 30 29 28 26 26 27 27 26 25 24 25 26 25 24 23 24 25 26 26 26 25 25 23 22 22 21 20 19 18 18 17 17 16 15 15 15 15
23 21 24 29 33 32 28 27 27 26 26 26 26 27 26 25 26 26 26 27 30 33 33 33 31 30 30 30 29 28 27 26 27 27 27 26 26 26 26 26 25 24 24 25 25 26 26 25 24 23 23 23 22 22 21 20 19 19 18 17 16 16 16
24 20 20 25 29 30 26 25 26 26 26 26 26 26 26 25 25 26 26 26 29 34 34 33 32 30 29 30 30 29 28 27 27 27 28 28 28 27 26 26 26 26 26 25 24 25 25 25 25 24 24 24 24 24 24 23 22 21 20 19 18 17 17
28 20 18 21 25 27 25 24 27 28 27 27 27 26 25 25 24 25 26 26 28 33 34 33 32 32 31 30 30 30 30 30 29 28 29 29 28 28 27 26 26 27 27 26 26 26 25 25 25 25 25 25 24 24 25 25 24 24 23 21 20 19 18
32 26 23 22 23 25 25 25 27 28 27 27 27 27 26 25 25 25 26 26 27 30 32 33 33 34 33 31 30 31 31 31 30 30 29 29 29 28 27 27 27 28 28 28 27 27 27 26 26 26 26 26 25 25 25 25 25 25 24 23 22 21 20
34 34 34 33 32 33 31 27 25 24 24 25 27 26 26 25 25 26 26 26 26 28 30 32 33 34 34 32 31 31 31 31 31 30 29 29 28 28 28 28 28 29 29 29 29 28 28 28 28 27 26 26 26 26 26 25 25 26 25 25 24 24 23
36 37 39 39 40 42 41 36 32 27 24 24 25 24 23 24 25 25 25 25 26 27 28 30 32 34 34 33 32 32 32 31 31 30 29 29 28 28 28 28 29 29 29 29 30 30 30 30 29 28 26 25 25 27 27 27 26 26 26 26 26 26 26
35 38 40 40 41 43 44 43 39 36 33 31 29 26 24 23 23 24 24 25 25 26 26 28 31 33 34 34 33 32 31 31 30 30 29 29 29 29 29 29 29 29 30 30 31 31 31 30 30 29 28 26 25 26 27 28 29 28 27 28 28 28 28
31 36 39 40 42 44 45 44 41 40 40 39 38 37 34 30 28 27 26 26 26 26 26 27 29 32 33 34 33 31 30 30 30 31 31 30 30 30 29 29 29 29 30 31 31 31 31 31 31 30 30 28 27 26 27 29 31 30 29 29 29 30 29
22 29 36 40 43 45 46 44 42 41 42 41 41 42 42 41 39 35 33 30 29 29 28 27 28 31 33 34 32 31 31 31 31 32 32 32 31 31 30 30 30 30 30 31 31 31 31 31 31 31 31 30 28 27 28 30 31 30 30 29 30 30 30
16 19 29 36 41 45 48 47 45 44 44 43 43 43 44 44 44 42 39 36 34 33 32 30 29 30 33 34 33 33 32 32 32 32 32 31 30 31 31 31 31 31 31 31 31 31 31 31 32 32 31 31 30 29 29 29 29 29 29 29 29 31 31
13 13 17 27 36 41 45 48 47 47 47 46 44 44 44 44 43 43 42 40 37 36 34 32 30 30 32 34 34 34 33 32 32 31 31 30 29 29 30 31 32 32 32 32 31 30 30 31 31 32 31 31 30 30 30 29 28 28 27 28 29 30 31
5 6 10 16 27 35 41 45 46 47 49 48 47 45 45 45 44 44 43 42 40 37 35 32 30 29 32 34 35 34 32 31 32 32 31 29 28 28 29 31 32 32 32 31 31 31 31 31 31 31 31 31 30 30 29 29 28 27 27 27 28 29 30
16 10 3 7 11 19 27 34 40 45 47 48 49 48 45 45 45 44 41 38 37 37 36 34 33 31 32 35 36 34 33 32 32 32 31 30 30 29 29 30 30 30 30 30 31 31 31 31 31 31 31 30 29 29 29 29 28 27 27 26 27 28 29
22 17 8 0 1 2 5 9 18 31 40 44 48 50 48 45 44 43 39 35 34 35 35 35 34 32 32 33 34 34 34 33 33 33 33 32 32 31 30 30 29 28 28 29 30 30 30 30 31 31 31 30 29 28 28 28 27 27 26 26 26 27 28
25 21 16 10 6 2 3 5 3 8 21 29 36 45 48 47 44 42 38 36 35 34 34 34 33 31 30 31 33 34 36 35 35 35 35 34 34 34 32 31 29 29 29 29 29 29 30 30 31 31 31 30 30 29 28 27 27 27 27 26 26 26 28
25 27 24 20 16 10 2 3 5 4 4 12 23 36 43 44 43 41 38 36 35 34 33 33 32 30 29 30 31 33 36 37 36 36 37 37 36 35 33 32 31 30 31 30 30 29 29 29 29 30 30 30 30 30 28 26 26 27 27 26 26 27 28
24 28 30 28 25 20 12 6 1 3 4 3 12 26 34 37 38 39 39 38 36 34 34 34 32 30 29 30 31 31 34 37 38 38 38 39 38 36 35 33 33 32 32 32 31 30 29 29 28 29 29 30 30 30 28 27 26 27 27 27 27 27 28
25 25 29 31 31 28 22 16 10 5 4 4 4 12 24 32 36 38 38 38 38 36 35 34 34 32 30 30 30 31 33 37 40 40 40 40 40 39 37 35 34 34 34 34 33 32 31 30 30 29 29 29 29 29 29 28 27 27 27 27 28 29 29
30 27 29 31 32 31 29 23 16 10 8 6 5 5 13 25 35 40 39 38 39 38 36 35 35 35 35 32 30 30 33 37 42 43 42 42 42 41 40 39 37 36 35 35 35 34 33 32 31 30 30 29 29 29 29 29 28 28 28 28 29 30 30
33 33 31 31 31 31 32 30 25 18 13 9 8 6 8 17 28 38 40 39 39 38 38 38 38 39 39 37 34 34 36 41 45 46 44 43 42 42 41 41 40 39 37 36 36 36 35 34 33 32 31 30 29 29 28 28 28 28 28 28 29 30 31
34 35 35 33 31 32 33 34 32 28 22 16 12 9 10 14 20 29 35 38 38 40 40 40 41 42 42 41 40 39 41 45 49 48 45 43 42 41 41 41 41 40 38 38 38 38 36 36 35 34 32 31 31 30 28 27 28 29 29 29 30 31 32
37 37 37 37 35 35 35 35 36 34 29 23 18 13 11 14 18 23 30 35 37 40 40 40 41 42 42 42 43 42 43 45 49 49 46 43 42 41 40 40 40 39 37 37 38 39 39 37 36 35 34 32 32 31 30 28 28 29 30 30 31 31 31
41 40 41 40 39 40 39 37 37 38 34 27 23 19 15 14 17 21 26 31 35 38 40 40 40 41 42 43 43 43 42 43 45 47 46 44 43 42 41 40 39 38 36 36 36 38 40 39 38 37 35 33 32 32 32 30 29 29 30 31 32 32 31
41 42 43 42 42 43 43 41 40 40 38 33 28 25 21 18 18 20 23 28 32 36 39 40 42 44 44 44 44 44 43 43 45 46 46 45 45 44 42 41 40 38 37 35 35 37 39 41 40 39 38 36 34 32 32 31 31 30 30 30 31 32 31
38 40 42 43 43 44 45 45 43 41 42 39 34 30 26 23 22 22 23 26 30 34 37 40 43 45 46 46 46 45 44 44 45 46 46 45 45 45 43 42 40 39 38 37 36 37 38 41 42 41 40 39 36 33 32 32 31 31 30 30 31 32 32
34 37 39 41 42 43 44 45 43 42 43 43 39 35 32 28 25 24 25 27 30 34 36 39 41 44 45 46 47 47 45 44 45 46 46 45 44 44 44 43 41 40 39 38 38 38 38 40 42 42 41 39 38 35 33 31 32 32 31 31 31 32 32
30 32 35 37 39 40 41 43 43 42 44 45 44 40 36 31 29 27 26 28 31 34 37 39 41 43 44 45 47 48 48 46 45 45 46 45 45 45 45 44 43 41 40 39 39 39 39 39 40 42 42 40 38 36 33 31 31 32 32 31 31 31 32
29 29 31 33 35 37 38 40 42 43 44 45 45 43 39 34 32 30 29 28 31 34 37 40 41 42 43 44 46 48 47 46 45 45 45 46 46 46 45 44 42 41 41 40 40 40 39 38 38 41 42 41 38 34 31 29 27 28 28 29 28 28 30
30 28 28 29 31 33 35 37 39 42 43 44 44 43 40 36 35 34 31 29 31 35 38 39 41 42 43 44 45 45 45 46 45 44 44 44 45 46 44 42 41 41 40 39 38 38 37 37 38 39 41 41 38 33 28 24 21 21 24 25 24 24 25
31 28 26 26 29 31 33 35 36 39 41 42 42 43 41 38 37 36 34 31 31 34 37 39 40 41 42 44 45 44 44 44 45 45 44 43 43 43 42 39 38 39 38 37 36 36 36 38 38 38 40 40 37 33 28 22 19 20 23 23 23 23 23
33 29 25 25 27 29 31 33 34 36 38 41 43 44 42 40 40 39 37 34 32 34 37 39 40 41 42 43 44 45 44 44 44 44 44 43 42 42 41 40 39 38 36 35 35 36 38 39 38 38 39 39 37 35 31 25 22 21 22 23 23 24 24

ECMWFFLT1_700_spd_063.txt.gz
Wind_Speed
28 28 29 29 28 27 27 29 30 29 28 27 26 26 26 26 26 27 27 27 26 26 26 25 24 23 22 22 22 22 22 22 22 23 22 21 21 21 20 19 18 17 16 15 14 14 13 13 13 13 13 13 12 11 10 9 9 10 10 10 9 8 7
29 29 29 29 29 27 27 29 30 30 30 28 27 26 26 26 26 27 28 27 26 26 27 26 25 24 22 22 22 23 22 22 22 22 23 22 22 22 22 21 20 19 17 16 15 16 16 16 15 14 15 14 13 13 12 11 10 10 10 10 10 9 8
30 28 27 27 29 28 27 28 29 30 30 30 29 28 27 25 25 26 28 28 27 26 27 27 26 24 23 22 23 23 22 23 22 22 22 22 22 23 23 23 22 21 20 19 18 17 18 17 16 16 15 15 14 14 13 12 12 11 11 11 11 10 10
35 32 28 26 27 28 29 30 29 29 30 30 29 28 26 25 24 25 27 27 27 27 27 28 27 26 24 24 24 23 23 23 23 22 22 21 22 23 24 24 23 22 21 21 20 19 19 19 18 17 16 15 15 15 14 13 13 13 12 12 11 11 11
36 36 34 30 28 29 31 31 30 29 29 29 28 27 26 25 25 25 26 27 28 27 27 26 27 27 26 25 25 24 23 22 22 22 22 22 22 23 23 24 24 23 22 21 21 21 21 20 19 18 17 16 16 15 15 14 14 14 14 13 13 13 13
32 34 34 31 27 27 28 29 29 29 28 28 28 26 26 26 26 25 25 26 27 28 28 27 28 28 28 27 26 25 25 24 23 22 22 23 23 24 22 21 23 24 23 23 22 22 21 21 20 19 17 17 16 16 15 15 14 14 14 14 14 14 14
30 30 30 28 25 23 24 26 28 29 28 28 28 28 27 27 26 25 25 26 27 28 29 29 29 29 29 28 27 26 26 26 25 24 23 23 24 25 23 22 22 23 25 24 23 22 22 21 21 20 19 19 18 17 16 15 15 15 15 15 15 15 16
27 27 27 28 26 23 23 23 25 28 29 29 29 28 28 27 26 26 26 25 26 28 30 30 29 29 29 29 28 27 27 26 26 25 24 24 25 25 25 24 22 22 25 26 25 25 24 22 22 21 21 21 20 19 18 17 16 16 16 16 16 16 16
24 26 27 31 33 30 28 25 25 27 29 29 29 28 26 26 26 26 25 25 26 28 29 30 30 29 30 30 30 28 27 27 27 27 26 26 25 25 25 25 23 23 24 25 26 26 26 25 24 23 23 23 22 22 21 20 19 18 17 17 17 17 17
23 26 27 31 35 34 33 32 31 31 31 30 29 27 26 25 24 24 25 24 25 27 28 29 29 30 31 31 31 30 29 28 28 28 28 28 27 26 25 25 24 24 24 24 25 27 27 27 26 26 25 25 24 24 23 22 21 20 19 18 18 18 18
19 25 27 30 34 34 33 34 36 36 36 34 31 28 26 24 24 24 24 24 24 25 26 27 28 30 31 31 32 32 31 30 29 29 29 28 28 27 26 25 25 25 25 25 25 26 26 27 27 27 27 26 25 25 24 23 23 22 22 21 20 20 19
14 22 26 28 33 35 33 33 35 37 39 40 38 35 32 28 25 24 24 23 24 24 25 25 27 29 31 32 32 32 32 31 31 30 29 29 28 27 26 27 27 27 26 26 26 26 26 27 27 27 27 27 26 26 25 24 24 24 23 23 22 22 22
5 16 24 28 31 34 34 33 34 36 38 40 40 41 40 37 32 29 27 25 24 25 25 25 25 27 31 33 33 33 33 32 32 31 30 29 28 28 28 28 28 28 27 27 27 27 27 28 28 28 28 27 27 26 26 25 25 25 24 24 24 24 24
2 9 19 25 30 33 33 32 33 35 37 38 39 40 41 41 40 38 34 30 28 27 26 26 26 26 29 32 34 34 33 32 32 32 31 30 30 29 29 29 29 29 28 28 28 28 28 28 28 28 28 28 28 27 27 27 27 26 26 26 26 26 26
7 4 11 16 22 28 31 32 32 34 36 38 39 40 40 41 41 42 40 35 33 32 30 29 28 27 28 31 34 35 34 33 33 32 32 31 31 30 29 29 29 29 29 30 30 29 29 29 29 29 30 29 29 28 28 28 28 28 27 27 28 28 27
9 3 6 10 14 20 28 31 32 33 35 37 38 39 40 41 42 43 42 39 38 37 35 33 31 29 29 30 32 32 33 34 34 33 33 32 31 31 30 30 30 30 31 31 31 30 30 30 31 31 31 31 30 30 30 29 29 28 27 27 28 29 29
9 7 2 6 9 14 22 28 31 33 34 36 38 39 39 40 41 41 41 41 40 39 38 36 33 31 30 29 29 29 30 32 34 34 34 33 32 32 31 31 31 31 31 31 31 31 31 31 32 32 31 31 31 31 31 30 29 28 27 26 27 28 29
9 8 6 2 2 8 16 24 28 31 33 35 37 38 39 39 40 40 40 40 40 39 39 37 34 31 30 29 28 28 28 30 32 34 34 33 32 32 31 32 32 32 32 32 32 32 32 32 32 32 32 32 32 32 31 30 28 28 27 26 26 27 28
14 11 10 8 6 4 8 17 24 27 31 34 34 36 39 40 40 39 39 39 38 38 38 37 34 32 29 29 29 29 29 30 31 33 34 34 33 32 32 33 33 33 33 33 33 33 33 32 32 31 32 32 32 32 31 30 29 28 27 26 26 26 28
21 19 16 14 12 9 7 7 15 21 26 30 32 34 37 40 41 41 39 39 38 37 37 36 36 34 31 30 30 30 30 31 30 31 32 33 33 34 34 34 34 33 33 34 34 34 33 32 32 31 31 31 31 31 31 30 29 28 27 26 26 26 27
24 26 24 22 18 13 8 7 7 12 20 25 28 33 35 37 40 42 41 40 39 38 38 37 37 36 34 32 32 31 31 31 31 31 31 32 33 34 34 34 33 33 33 33 34 34 34 33 33 32 31 31 30 31 30 29 28 27 27 26 25 25 27
21 26 29 28 24 17 11 8 8 9 11 14 19 28 33 34 37 41 42 42 41 40 39 38 37 36 35 35 34 33 32 32 31 31 30 30 31 32 32 32 32 32 32 32 33 33 34 34 33 33 32 31 31 31 30 28 26 26 26 26 25 26 27
19 23 27 30 29 24 18 13 10 10 9 9 11 18 25 28 31 37 42 43 42 41 40 38 37 36 35 35 35 35 33 32 32 32 31 30 30 30 30 30 31 31 31 31 32 33 33 33 32 32 32 32 31 31 30 27 26 26 26 25 26 27 28
18 21 23 27 32 33 27 21 18 16 12 9 10 11 14 19 22 27 36 42 43 42 40 39 37 36 35 35 35 35 34 33 33 32 32 32 31 31 31 30 30 30 30 30 31 32 33 33 33 33 32 31 30 29 29 28 27 26 26 25 27 28 29
20 21 22 24 30 36 35 30 26 24 18 13 11 12 12 13 12 16 27 36 41 43 40 38 38 37 36 35 34 34 34 33 33 33 33 33 33 33 32 32 31 31 31 31 32 32 33 34 34 34 31 30 29 28 28 27 27 27 27 26 27 29 29
25 24 24 24 25 30 37 37 31 28 26 21 16 13 12 12 10 14 22 30 36 40 40 39 39 38 37 36 35 35 34 33 32 33 33 34 34 34 34 34 33 33 33 32 32 32 33 34 35 35 33 31 29 28 28 27 26 27 27 26 27 29 30
31 29 28 27 25 26 33 37 35 32 31 29 23 18 14 12 12 14 19 25 32 36 37 39 39 38 38 38 36 35 35 33 32 33 33 33 34 35 36 36 36 35 35 33 33 33 34 34 35 36 35 34 32 30 28 27 26 26 26 26 27 28 30
34 34 33 31 29 27 29 33 35 36 36 34 31 26 22 16 12 12 14 18 26 32 34 35 37 38 38 38 37 36 36 36 35 35 34 33 33 34 35 37 37 37 36 35 34 34 35 35 36 36 37 36 34 32 30 28 27 27 26 26 27 28 30
34 35 36 35 33 32 31 30 32 36 39 39 37 33 29 24 18 13 12 14 21 29 34 35 37 38 39 39 38 37 37 37 37 37 35 34 34 34 34 35 36 37 37 37 36 36 37 37 37 37 38 37 35 33 31 30 29 28 27 27 27 28 29
29 33 35 36 35 36 35 34 33 35 39 42 42 38 33 29 24 19 15 15 17 24 31 35 38 40 40 40 39 38 38 39 39 39 38 36 35 34 33 32 33 34 36 37 38 38 38 38 38 39 38 37 36 34 32 31 30 29 29 29 28 28 28
25 29 32 34 34 35 37 37 37 37 38 40 44 43 37 33 30 25 20 18 17 19 25 32 36 39 41 42 42 41 41 41 40 40 39 38 36 35 33 32 32 33 35 37 39 40 40 40 39 39 39 38 37 35 33 32 30 30 30 30 30 30 29
25 27 30 32 33 34 36 37 38 40 39 38 42 45 41 36 34 31 26 23 20 19 21 26 30 34 38 42 44 44 43 42 42 41 40 39 37 36 35 34 34 35 36 38 39 40 41 41 41 41 41 40 39 37 36 34 32 31 31 31 31 31 31
28 27 29 31 32 33 35 36 37 38 39 37 38 44 45 40 38 36 33 29 25 22 22 24 26 29 33 38 42 43 42 42 41 40 40 39 38 37 37 37 37 36 37 38 39 39 40 41 42 42 41 41 40 39 39 37 36 34 32 31 30 30 31
33 30 29 30 31 32 34 36 36 36 37 36 35 40 45 45 42 41 38 35 30 26 24 25 26 27 29 34 38 41 41 41 40 39 39 39 39 38 38 39 39 39 38 39 39 39 39 40 42 42 42 41 40 40 40 40 38 36 34 33 32 31 30
36 33 30 30 32 33 33 34 36 36 36 35 34 36 41 45 46 44 42 40 37 32 27 26 27 28 29 32 36 39 40 40 40 39 38 38 39 39 40 41 41 41 40 39 40 40 40 40 41 42 41 40 40 39 40 40 39 37 36 35 34 31 29
39 36 32 31 33 34 33 33 35 35 35 34 34 35 38 43 46 46 45 44 42 37 31 28 28 28 29 32 35 39 40 40 39 37 36 36 36 37 39 40 41 41 40 39 40 41 41 40 41 40 39 39 39 39 40 40 39 38 38 37 33 29 28
42 39 35 33 34 35 34 33 34 35 34 34 34 35 36 40 45 47 46 45 45 42 37 33 31 30 29 31 34 38 40 41 39 37 36 36 35 36 36 37 38 39 39 39 39 40 40 40 40 39 38 38 38 38 39 39 39 39 39 37 34 31 30
44 42 38 35 35 36 35 34 34 35 34 34 34 35 35 38 43 47 47 46 46 47 45 40 36 33 29 30 32 36 40 42 41 39 38 36 36 36 35 35 36 37 37 37 37 37 38 38 38 37 37 38 36 35 36 36 36 36 37 37 35 33 31

ECMWFFLT1_700_spd_069.txt.gz
Wind_Speed
9 12 14 16 17 18 17 17 16 16 15 15 16 17 21 24 26 26 26 25 24 23 23 22 20 19 19 18 17 17 16 16 16 17 17 17 17 17 16 15 14 13 12 11 10 10 9 8 8 7 7 6 5 4 4 4 4 4 5 4 4 4 4
9 11 12 14 15 16 17 18 18 18 16 15 15 16 18 21 24 26 26 26 25 24 23 22 21 20 19 18 18 17 17 16 16 17 18 18 18 18 17 16 14 13 13 12 12 11 10 9 9 8 8 7 6 6 5 4 4 4 4 4 4 4 3
8 9 10 10 11 13 14 15 16 16 15 15 14 15 16 18 20 23 25 26 26 25 24 24 22 21 20 19 18 18 18 17 16 16 18 18 18 18 18 17 16 15 14 14 13 13 12 11 10 9 9 8 8 7 6 5 5 4 4 4 4 4 4
8 9 10 9 10 10 11 13 13 12 13 14 14 14 14 15 16 19 22 24 26 26 26 25 24 23 21 20 19 18 18 18 16 16 17 18 19 19 19 19 18 16 15 15 14 14 13 12 12 11 10 9 8 8 7 6 6 5 4 4 4 4 4
8 9 10 10 11 11 11 12 12 11 12 13 14 15 14 14 15 17 18 21 24 26 26 25 25 24 23 21 20 19 18 18 17 17 17 18 20 20 20 19 18 18 17 17 16 15 14 14 13 12 11 10 9 8 8 7 7 6 5 5 5 5 5
8 9 10 11 12 13 13 14 13 12 12 11 13 15 15 15 16 17 17 18 20 23 25 26 27 26 25 23 21 19 19 18 18 18 18 18 19 20 20 19 19 19 19 19 18 17 16 15 14 13 12 12 10 9 8 8 8 8 7 6 6 6 6
8 9 10 11 11 12 13 15 15 14 14 13 14 15 16 16 17 17 18 19 19 20 23 26 28 28 27 26 23 21 20 19 19 19 19 19 19 20 21 20 20 20 20 20 20 19 18 16 15 14 13 13 12 11 10 9 9 9 8 7 7 7 7
9 10 11 11 10 11 11 13 16 16 15 15 15 15 17 18 19 19 20 22 21 20 20 22 25 26 27 26 25 23 22 21 20 20 19 19 19 20 21 21 21 21 22 21 21 20 19 18 17 16 15 15 14 13 12 11 10 9 8 8 7 8 8
9 10 11 11 10 10 10 11 14 15 15 15 15 16 18 19 18 19 23 24 23 22 22 22 23 23 24 25 25 25 24 23 22 21 21 20 20 20 20 21 21 22 22 22 22 21 20 20 19 18 17 16 16 15 14 13 12 11 9 9 8 8 9
8 8 9 10 10 10 10 10 12 14 14 14 15 15 17 18 18 19 22 23 23 23 23 23 23 23 23 23 24 25 25 25 24 23 22 22 21 20 20 21 22 22 22 22 23 23 22 21 21 20 19 18 17 17 16 15 14 13 12 11 10 10 10
8 7 7 7 9 9 9 10 11 12 13 14 14 14 14 14 15 16 17 20 23 22 20 21 22 23 24 23 23 24 25 26 26 25 24 23 22 21 21 21 22 22 23 23 23 23 23 23 23 22 21 20 19 18 18 17 17 16 15 14 13 13 12
8 7 6 5 6 6 7 8 9 10 12 13 15 14 13 12 12 12 12 18 24 22 17 19 22 22 23 24 23 23 24 26 27 27 26 25 24 23 23 23 23 23 23 23 23 23 23 23 24 24 23 22 21 20 20 19 19 18 17 17 16 16 15
9 9 8 7 6 6 6 8 8 9 11 13 15 15 14 13 12 12 13 18 23 23 19 20 23 23 23 23 23 23 24 24 26 27 27 26 26 25 25 24 24 24 24 24 24 24 24 23 23 24 24 24 23 23 22 21 21 21 20 20 19 18 18
8 8 8 7 7 6 5 6 7 8 10 12 14 14 14 14 12 13 14 17 20 23 22 22 24 24 23 23 23 24 24 24 24 25 26 27 27 27 27 26 26 26 25 25 25 25 25 24 24 24 24 25 25 25 25 24 24 24 23 22 21 21 20
3 5 5 4 3 2 2 3 5 7 9 10 11 12 14 15 14 13 14 16 18 21 23 23 23 22 22 23 24 24 24 24 24 24 25 26 27 28 28 28 28 28 28 27 27 27 26 26 25 25 25 25 26 26 26 27 27 26 25 24 24 23 22
1 0 2 3 2 1 1 3 4 6 8 9 10 11 12 14 14 14 14 15 17 20 23 24 23 22 21 22 23 23 24 24 24 24 25 26 27 28 29 29 29 29 29 29 29 29 28 28 28 27 27 27 27 27 28 28 28 26 25 25 25 24 24
2 2 2 2 2 2 0 1 2 4 7 9 11 12 13 13 14 14 15 16 17 19 21 23 23 23 21 22 22 22 23 24 25 25 26 27 27 28 29 30 30 30 30 30 30 30 30 30 30 30 29 29 29 29 30 29 28 27 26 26 26 25 26
2 1 2 2 3 2 1 1 1 3 5 7 10 12 14 15 15 15 15 16 16 17 19 21 22 22 22 22 22 22 22 24 25 25 26 26 27 27 28 29 30 30 31 31 31 31 31 32 32 32 31 31 31 31 31 31 30 29 28 28 27 27 27
2 2 2 2 2 3 3 3 2 2 2 3 6 9 12 14 16 17 17 17 17 17 18 20 21 22 22 22 22 22 22 23 24 25 26 26 27 27 28 29 30 30 30 30 31 31 32 32 32 33 33 33 32 32 32 32 31 30 30 30 29 29 29
6 5 5 4 4 4 5 5 5 4 4 3 4 5 6 8 12 15 17 18 18 18 18 19 21 22 22 22 22 22 22 23 24 24 25 25 26 27 28 29 29 30 30 30 31 31 31 32 32 32 33 33 33 32 33 32 31 30 31 31 31 31 31
14 12 10 9 8 8 7 6 6 6 5 5 5 4 5 6 7 9 14 17 19 20 20 20 21 22 23 23 23 23 24 24 25 25 25 26 27 28 29 29 30 30 30 31 31 31 30 31 32 32 32 32 32 32 32 31 29 29 30 30 30 31 32
19 18 16 15 14 13 12 11 10 9 8 8 7 6 6 6 6 7 9 13 16 18 20 21 21 22 23 24 23 23 24 25 25 26 26 27 28 29 30 30 30 30 30 31 31 30 30 30 31 31 31 31 31 32 31 29 28 29 29 29 29 31 32
20 20 19 18 18 18 17 16 16 15 13 11 10 9 8 7 7 7 8 9 11 13 15 17 20 21 21 22 24 24 24 24 26 26 27 27 28 29 29 30 30 30 31 31 31 31 30 30 29 29 29 30 31 31 30 28 28 29 28 28 29 30 32
23 23 22 21 20 20 20 20 19 19 18 16 15 13 12 10 9 7 7 8 9 10 10 12 16 20 20 21 23 25 25 24 25 26 27 27 28 28 28 28 29 30 31 31 32 32 31 30 29 29 29 29 29 29 29 28 28 28 28 28 29 30 30
24 25 25 25 24 23 22 21 21 21 21 20 19 17 16 14 13 11 10 9 9 10 10 10 13 17 20 21 23 25 27 27 26 26 27 27 27 27 28 28 28 29 31 32 33 33 32 32 31 29 29 28 28 28 28 27 27 27 28 28 28 29 30
23 25 26 27 28 28 26 25 24 23 23 22 21 20 19 18 17 15 14 12 11 10 11 13 13 13 17 21 23 25 28 29 29 28 28 27 28 28 29 29 30 30 31 31 32 33 34 34 32 30 29 28 28 28 28 27 26 27 27 27 28 29 29
24 25 25 27 28 30 30 29 28 27 26 25 24 23 23 21 21 19 18 17 16 13 13 15 15 13 13 17 22 25 28 30 32 32 31 31 30 31 31 31 31 31 31 31 32 33 34 35 34 32 30 29 29 28 28 27 26 26 26 27 27 28 29
27 26 26 27 28 30 31 31 31 30 29 29 29 28 27 26 25 24 23 22 20 18 16 16 17 15 13 13 17 22 26 30 33 35 36 35 34 32 30 29 28 29 30 30 31 33 34 35 35 34 32 31 30 29 29 28 27 26 26 26 26 27 28
31 31 30 30 30 31 32 33 32 32 31 31 31 31 32 31 30 28 27 25 24 23 21 19 18 17 15 14 13 16 21 26 31 33 34 36 36 33 30 27 25 27 29 29 30 32 34 35 36 36 34 33 32 30 29 28 27 26 26 25 26 26 27
35 35 35 34 32 33 34 35 34 33 32 32 32 32 33 34 34 33 31 30 28 27 25 24 22 19 17 16 15 14 15 19 23 27 28 30 32 34 32 29 26 27 28 28 29 31 33 34 35 35 35 33 32 31 30 29 28 27 27 26 27 27 27
37 38 39 38 37 35 36 37 36 34 33 33 33 33 33 33 35 35 34 33 33 31 29 28 27 24 20 18 17 17 15 13 15 20 23 24 25 29 32 31 29 29 28 27 28 30 31 33 33 34 34 34 33 32 31 30 29 29 29 29 29 29 28
38 39 40 41 41 40 39 39 39 37 35 33 33 34 34 33 34 35 35 35 35 35 33 32 30 29 26 22 20 20 19 15 12 13 18 21 21 24 29 31 31 32 31 28 28 29 30 30 31 32 33 33 33 32 31 31 31 31 31 31 30 29 29
39 40 41 41 42 42 42 42 42 40 38 35 33 34 35 34 34 34 35 35 36 37 37 36 33 31 30 29 25 22 21 20 16 12 13 16 19 23 27 30 31 33 34 33 31 30 30 30 30 30 30 30 30 30 31 32 32 31 32 32 32 30 29
38 40 41 42 43 43 44 44 44 43 42 38 35 34 36 35 34 34 34 35 36 37 38 38 37 36 34 33 31 27 24 23 22 18 13 12 15 19 23 28 31 33 35 35 34 32 31 32 31 30 29 29 28 28 29 30 31 31 32 32 30 28 27
37 39 40 42 43 44 45 45 45 44 44 42 38 36 37 36 34 34 34 35 36 38 39 39 40 39 38 36 35 33 30 27 25 23 18 14 13 16 19 22 27 31 32 34 36 34 32 32 33 32 30 30 30 30 30 31 30 29 28 26 25 24 24
35 37 38 40 42 44 45 45 45 45 45 43 40 38 38 37 35 35 35 35 35 38 39 40 41 41 40 40 38 36 33 30 27 26 24 19 14 15 17 18 22 27 30 31 35 37 35 33 33 32 32 32 32 32 32 32 30 28 25 25 24 24 25
35 36 37 38 40 42 44 45 46 46 45 44 42 41 40 39 37 35 35 36 36 37 38 40 41 42 42 42 42 40 37 35 32 30 29 26 20 16 16 17 19 23 27 29 31 35 37 37 34 33 32 33 33 33 33 33 31 29 28 29 28 28 29
35 36 37 38 39 41 42 44 46 46 46 45 44 43 42 41 39 36 35 36 37 38 38 38 40 42 42 42 43 44 42 40 38 34 31 31 28 22 17 18 19 20 23 28 30 31 34 36 36 35 33 32 32 33 34 33 31 30 30 31 31 31 32

ECMWFFLT1_700_spd_072.txt.gz
Wind_Speed
15 15 15 14 15 17 17 17 16 17 18 20 21 23 24 26 27 26 25 23 22 21 21 20 19 18 17 17 17 18 17 18 18 18 18 16 16 16 17 17 16 14 14 13 13 13 12 11 11 10 9 8 7 6 6 6 5 5 5 5 5 6 6
17 17 16 15 16 18 18 19 17 16 17 18 19 20 22 25 26 26 25 24 23 22 21 20 20 19 17 17 17 18 18 18 18 18 18 17 16 16 17 18 17 16 15 15 14 14 13 12 11 11 10 9 8 7 6 6 6 5 5 5 5 5 5
16 16 14 14 15 16 18 21 20 17 17 18 18 19 20 22 23 24 24 24 24 23 22 21 21 20 18 18 17 18 18 18 18 18 18 18 17 17 18 18 18 17 17 16 15 15 14 13 12 11 11 10 9 8 7 6 6 6 6 6 5 5 5
14 15 14 13 13 14 15 18 20 21 20 19 18 18 19 20 21 22 23 24 24 24 23 22 21 21 20 19 18 18 18 18 18 18 19 19 19 19 19 18 18 18 18 17 16 16 15 14 13 12 11 11 10 9 8 7 7 6 6 6 6 6 5
12 13 13 14 15 15 14 15 18 20 21 19 18 17 18 18 19 21 23 24 25 25 25 24 23 22 21 20 19 18 18 18 19 19 20 21 21 20 20 19 19 19 18 18 17 16 15 14 14 13 12 11 11 10 10 9 8 7 7 7 7 6 6
9 11 12 13 15 16 17 17 17 18 18 19 18 17 17 17 17 20 22 24 27 28 29 28 27 25 23 21 20 19 19 19 19 20 20 21 21 21 21 20 20 19 19 19 18 18 17 16 14 14 13 12 12 11 11 10 10 9 9 8 8 7 7
8 9 10 12 14 15 17 19 20 19 20 20 19 18 18 18 19 20 21 21 25 26 27 28 28 27 26 24 22 21 20 19 20 20 20 20 21 22 22 22 21 20 20 20 19 19 18 17 16 15 14 14 13 12 12 11 11 11 11 10 9 9 8
7 8 9 11 12 14 15 17 18 19 20 21 21 21 20 19 20 20 19 20 22 23 24 27 28 27 27 27 25 24 22 21 21 21 21 20 21 22 23 23 22 22 21 20 20 20 20 19 18 17 16 15 14 13 13 12 12 12 12 11 11 10 10
5 7 8 9 11 13 14 15 17 20 22 24 25 25 23 21 21 21 20 19 19 20 21 24 25 27 28 28 27 26 25 23 23 22 21 21 21 21 22 23 23 23 22 21 21 21 21 20 20 19 18 17 16 15 14 14 13 13 13 12 12 12 11
2 4 7 9 10 12 14 16 17 19 23 25 26 27 27 26 25 23 22 20 19 21 21 21 23 26 28 28 27 27 27 26 25 24 23 22 21 21 21 22 23 24 23 22 22 22 22 22 22 21 20 19 18 17 16 15 15 15 14 14 14 13 13
2 1 3 6 9 11 13 16 17 19 21 22 23 26 29 30 27 25 23 21 21 23 22 20 21 24 26 28 28 28 28 28 26 25 24 23 22 21 21 22 23 23 23 24 24 23 23 23 23 22 21 20 20 19 19 18 17 17 16 16 16 15 14
4 3 1 2 5 9 12 14 17 18 20 21 21 23 26 28 27 27 27 24 22 24 24 22 22 23 25 27 29 29 29 29 28 27 26 25 24 23 22 22 23 23 23 24 24 24 24 24 24 24 23 22 21 21 21 20 20 19 18 18 18 18 17
4 2 2 2 3 5 8 11 15 17 18 19 20 22 23 23 24 27 30 29 25 25 26 26 25 25 27 28 29 30 30 29 29 28 28 27 26 25 24 24 24 23 24 24 25 25 25 25 24 24 24 23 23 23 22 22 22 22 21 21 20 20 19
4 3 3 4 4 3 4 6 10 13 16 17 17 19 19 20 22 26 29 30 29 27 27 28 28 28 29 30 31 31 30 29 29 29 29 28 28 27 26 26 25 25 24 25 25 25 25 25 25 24 24 24 25 25 25 24 24 24 23 23 23 22 21
5 3 2 2 3 2 2 3 4 7 10 13 14 16 17 17 19 22 24 26 28 29 28 29 28 27 27 30 31 31 30 30 30 29 29 29 29 29 28 28 27 27 27 27 26 26 26 26 26 26 25 25 25 26 26 27 26 26 25 25 24 24 23
7 5 4 2 1 1 1 2 2 4 7 9 10 13 16 17 17 18 19 22 25 28 30 30 29 26 25 28 31 31 31 31 31 30 30 30 31 30 30 30 30 29 29 29 28 28 28 28 28 28 27 26 26 26 27 28 28 28 27 26 26 25 25
8 7 6 5 4 4 3 2 2 3 5 6 8 9 11 14 17 17 17 19 22 25 29 31 31 28 27 28 30 31 32 32 31 30 30 31 31 31 32 32 32 32 31 31 31 30 30 30 30 30 29 28 28 28 28 28 28 28 28 27 27 27 27
8 7 7 6 5 5 4 3 3 3 3 5 7 9 9 11 13 15 16 18 19 22 25 29 31 30 29 30 30 30 31 31 32 32 31 31 31 32 33 33 33 33 33 33 33 32 33 33 32 32 31 30 30 30 30 29 28 27 27 27 28 28 29
9 8 7 6 5 5 4 4 4 4 4 5 6 8 9 11 13 15 15 15 17 19 22 26 30 32 33 32 31 30 30 30 32 33 32 32 32 32 33 34 34 34 34 34 34 34 34 34 34 33 33 33 32 32 31 30 29 28 27 26 27 27 28
11 9 8 7 6 5 4 4 3 3 3 4 5 7 8 9 12 13 14 14 15 16 18 22 26 31 32 32 32 31 29 29 30 32 33 33 33 33 34 35 34 34 35 35 35 36 35 34 34 34 34 34 34 33 32 31 30 29 27 27 27 27 28
14 12 10 9 8 7 6 5 4 3 3 3 3 4 5 6 7 8 10 12 14 15 16 18 20 24 27 28 30 31 30 28 29 32 32 33 34 34 35 35 35 35 35 35 36 36 35 34 35 35 34 34 34 34 33 32 30 29 28 27 28 28 29
18 17 15 13 12 11 10 9 7 6 5 4 4 4 5 5 5 6 6 8 10 13 15 16 18 20 22 24 26 29 30 30 30 31 33 34 34 35 35 35 35 35 35 36 36 36 35 35 35 35 34 33 34 34 33 31 30 29 28 27 28 29 31
21 21 21 20 18 17 16 15 14 12 10 9 7 7 7 7 6 6 6 7 8 10 13 15 17 19 20 22 23 25 28 32 32 31 33 34 35 36 36 36 36 35 35 36 36 36 35 35 35 35 34 33 33 33 32 30 29 29 28 27 28 30 31
22 23 23 23 23 23 22 21 20 19 17 16 14 12 11 10 9 8 8 8 9 9 11 13 15 18 20 21 22 22 25 29 30 30 32 34 35 36 37 37 36 36 36 37 37 36 36 35 35 35 34 33 33 32 31 29 29 29 29 28 29 31 31
24 24 24 24 23 24 24 24 24 23 22 21 20 18 16 15 14 13 11 10 10 11 11 12 13 15 18 19 20 21 22 25 26 28 31 33 35 36 37 37 36 35 34 35 36 36 35 35 35 35 34 33 32 31 30 29 29 29 29 29 30 31 31
26 26 25 26 25 25 24 25 25 25 25 25 24 22 21 19 18 17 16 15 14 13 13 13 13 14 16 18 20 21 21 22 23 25 29 32 34 36 36 36 35 35 33 31 32 35 35 34 34 34 34 32 31 30 29 29 29 29 29 29 30 30 31
27 26 27 27 27 26 25 25 25 26 26 27 26 26 25 23 22 20 19 19 19 17 16 15 15 15 16 18 20 22 24 24 23 23 25 29 33 36 36 33 31 32 33 31 31 34 36 35 34 34 34 33 32 31 29 28 28 28 28 28 29 30 31
27 27 28 29 29 29 28 27 26 26 26 28 28 28 28 27 26 24 23 22 22 22 20 19 18 18 18 18 20 21 24 25 26 25 25 25 28 31 33 32 29 29 32 33 33 35 36 36 35 35 34 33 33 32 30 29 28 28 27 27 27 28 30
27 28 29 30 31 32 32 32 30 28 27 28 29 30 30 30 29 28 27 26 26 25 25 23 22 21 20 20 20 21 22 24 25 26 27 26 25 26 28 30 30 29 30 31 32 33 35 37 37 36 35 34 33 33 32 30 29 28 27 26 26 27 28
26 27 28 30 31 33 35 36 35 32 30 30 31 32 32 32 31 31 30 30 29 29 28 28 26 25 24 23 22 22 22 23 23 23 25 25 25 25 24 25 28 30 29 29 29 30 32 36 38 38 37 36 35 33 32 31 30 29 28 27 27 27 28
25 26 27 29 31 32 34 36 37 36 34 32 32 33 34 34 34 34 33 33 33 33 32 31 30 29 28 27 26 24 24 23 22 22 23 23 24 25 25 23 23 26 28 31 32 31 29 32 36 38 38 38 37 35 34 34 33 31 29 28 28 28 28
24 25 27 28 30 31 33 35 36 37 36 34 34 35 35 36 37 37 35 34 35 35 35 35 34 33 32 31 31 29 27 26 24 23 23 23 22 23 24 24 22 23 26 31 34 34 31 31 35 38 39 39 38 37 37 38 37 34 32 30 30 30 29
26 26 27 28 29 31 33 34 35 37 37 36 35 35 37 37 37 38 37 37 36 37 38 38 37 35 34 34 34 34 32 30 28 25 23 23 23 22 22 24 24 24 26 30 33 35 34 34 36 39 40 40 39 38 38 38 38 36 34 33 32 31 31
28 28 29 29 30 31 32 34 35 36 38 38 37 37 38 39 38 38 38 38 38 38 39 40 40 38 37 36 36 37 37 35 33 30 27 26 26 24 22 22 24 25 26 29 32 35 36 37 39 39 39 39 38 37 37 37 35 34 34 34 33 32 33
30 31 31 31 31 31 32 33 34 35 37 38 39 39 39 40 40 39 39 39 38 38 39 40 41 40 40 38 36 37 38 39 38 36 32 29 29 28 25 23 24 25 26 27 30 34 37 38 40 40 38 37 36 35 35 35 34 34 35 34 33 32 32
31 32 32 33 33 33 33 33 34 35 36 37 38 40 41 41 41 41 40 40 39 39 39 40 40 41 41 40 38 37 38 40 41 40 37 33 31 31 30 27 25 26 26 25 27 31 35 37 39 40 39 38 36 33 33 33 32 32 34 34 33 32 31
33 33 34 35 35 35 35 35 35 35 36 36 37 39 41 42 42 42 42 42 41 41 40 40 40 40 41 41 40 38 38 39 42 43 42 39 35 33 33 32 30 28 27 27 26 28 31 35 37 38 39 40 38 35 33 33 33 33 33 33 34 33 32
35 35 36 36 37 37 37 37 37 37 37 36 37 38 39 41 42 43 43 43 43 43 42 41 40 40 40 41 41 40 39 39 41 43 45 43 40 36 35 35 34 31 29 28 28 28 29 31 34 36 38 40 41 40 37 34 34 35 35 35 36 36 35

ECMWFFLT1_700_spd_075.txt.gz
Wind_Speed
13 15 16 16 17 16 18 21 22 23 23 22 22 23 24 23 23 24 24 23 22 21 20 19 18 18 17 17 17 18 18 18 18 18 17 16 16 16 16 15 14 13 12 11 11 11 10 10 9 8 7 6 6 6 6 6 7 7 7 7 7 7 7
11 13 17 18 18 17 17 20 23 24 25 23 22 23 24 23 23 25 24 23 23 22 21 20 19 18 17 17 17 17 18 18 18 18 17 17 17 17 17 16 16 15 14 13 12 12 12 11 10 9 8 7 6 6 6 6 7 7 7 7 7 7 6
12 11 16 19 18 18 19 21 24 25 25 23 23 23 25 25 24 25 24 23 23 23 23 22 21 20 18 17 17 17 18 18 17 18 17 17 17 17 18 17 17 16 15 15 13 13 12 12 12 11 9 8 7 7 7 7 7 7 7 7 7 7 7
15 9 13 18 16 18 21 22 22 22 21 22 24 24 25 25 25 26 25 24 24 25 25 24 23 22 21 19 17 17 18 18 17 18 18 18 18 18 18 18 18 17 16 16 15 14 13 13 13 12 11 10 8 8 7 7 7 7 7 7 7 7 7
16 9 12 15 13 16 19 19 19 19 18 21 24 24 25 25 26 27 27 26 27 27 26 25 23 23 22 20 19 18 17 18 18 18 18 19 19 18 19 19 19 18 17 17 16 15 14 14 13 13 12 11 10 9 8 8 8 7 7 7 7 7 7
19 17 15 15 13 16 19 18 20 22 20 20 22 22 23 24 25 26 28 28 28 27 26 25 23 23 23 22 21 19 18 19 19 19 19 19 19 19 19 19 19 19 19 18 17 17 16 15 14 13 13 12 11 10 10 9 9 8 8 8 7 7 8
17 19 21 20 18 20 22 21 22 24 23 22 23 23 23 23 23 26 28 28 26 25 25 23 22 23 23 22 22 21 20 19 20 20 20 20 20 20 21 20 20 20 20 20 19 18 17 17 16 14 14 13 12 12 11 11 11 10 9 9 8 8 8
13 16 21 25 25 25 26 26 25 25 24 25 26 26 24 22 23 25 26 25 24 24 25 23 23 24 23 23 23 23 22 20 20 20 20 20 20 21 21 21 21 21 21 20 20 19 19 18 18 16 16 15 14 13 12 12 12 11 11 10 10 9 9
10 12 14 19 23 24 25 26 25 24 23 23 25 25 25 24 25 24 23 23 23 25 25 24 24 24 24 24 25 25 24 22 21 21 21 21 21 21 21 21 21 21 21 21 21 21 20 20 19 18 18 17 15 14 14 13 13 12 12 12 11 11 10
10 10 10 12 15 18 21 23 24 22 21 22 23 23 23 26 27 25 23 23 24 25 25 25 25 24 24 25 25 26 26 24 23 22 22 22 22 22 21 21 22 22 21 21 21 22 21 21 21 20 20 19 17 16 15 14 13 13 13 13 12 12 12
10 10 9 9 10 14 19 23 24 22 22 23 23 23 22 25 27 26 24 24 23 21 19 21 24 24 25 26 26 27 27 25 25 24 24 23 22 22 22 22 23 23 22 23 22 23 23 22 23 22 21 20 19 17 16 16 15 15 14 14 13 14 13
10 9 9 9 8 10 15 21 24 23 23 25 26 25 24 23 23 22 23 23 22 19 16 18 22 23 24 25 26 27 27 27 27 26 25 24 22 22 23 23 24 23 23 24 24 23 23 23 24 23 22 21 21 20 19 18 18 17 17 16 15 15 15
8 8 8 8 8 7 10 16 22 24 24 24 26 26 25 25 23 21 21 22 22 20 20 21 22 23 23 24 26 28 27 27 28 27 27 26 24 24 23 24 24 24 24 25 25 25 24 24 24 23 23 23 22 22 21 21 20 19 19 19 18 18 17
8 7 7 7 7 7 7 10 16 21 23 24 24 24 25 26 26 23 23 23 22 21 22 22 22 23 23 24 26 27 27 28 29 28 29 28 27 25 25 25 24 24 25 25 25 25 25 25 25 24 24 24 24 24 24 23 23 22 21 21 21 21 20
7 6 6 6 7 7 7 8 10 13 17 20 22 22 23 24 26 26 25 25 24 23 23 23 23 24 24 24 25 26 27 29 30 31 32 31 29 28 28 28 26 25 26 25 25 25 25 25 25 24 24 24 25 25 26 25 25 24 23 23 23 23 23
8 6 5 5 5 5 6 7 8 9 11 14 17 20 21 22 24 26 27 27 27 27 25 25 26 26 26 25 25 26 28 29 30 32 33 32 31 31 31 30 29 28 27 26 25 26 26 26 25 25 25 25 25 26 26 27 26 25 25 24 24 24 24
10 8 7 6 4 4 4 5 7 8 8 10 13 16 18 20 22 24 26 27 29 30 30 29 28 27 28 28 27 26 28 31 32 33 33 32 33 34 34 33 32 32 30 29 28 27 27 27 26 26 26 25 25 25 26 27 27 26 26 25 25 25 24
12 10 9 8 6 5 5 6 6 7 7 9 11 12 14 16 19 22 23 24 27 29 30 30 31 31 31 30 29 28 28 31 34 35 35 34 34 36 36 35 35 35 34 32 31 30 29 29 28 27 27 26 25 25 25 26 26 26 26 25 25 26 26
14 13 12 10 9 8 7 6 6 6 7 8 9 10 11 12 14 17 20 22 25 26 28 29 31 34 33 32 32 32 30 31 34 35 36 36 35 36 37 36 36 36 35 34 34 33 31 31 30 29 29 28 27 26 26 26 26 27 26 24 24 25 27
15 14 13 12 11 10 9 7 7 6 6 6 7 8 10 11 12 13 16 19 22 25 27 28 30 34 35 34 34 33 32 32 33 34 36 37 37 37 37 37 37 37 36 34 34 35 35 33 32 32 31 31 30 29 28 27 27 27 26 24 22 23 25
17 15 14 13 12 11 10 9 8 7 6 6 6 7 8 9 10 11 13 15 18 21 24 25 28 31 34 35 35 34 34 34 33 34 36 37 37 37 36 36 36 37 38 34 31 32 35 36 35 34 33 32 31 31 30 28 28 28 27 24 22 23 25
18 17 16 14 14 13 11 10 9 8 7 7 6 6 6 6 7 8 10 11 13 17 20 23 26 29 32 35 36 36 36 36 36 36 36 36 36 37 37 37 37 37 38 37 33 31 32 34 35 34 32 32 32 32 31 29 28 28 27 25 23 24 26
19 19 18 17 16 15 14 13 11 10 9 8 7 6 6 6 6 6 7 8 10 12 15 18 22 26 29 31 34 35 35 36 36 37 36 35 36 37 38 38 38 37 36 36 36 34 33 32 31 30 31 31 31 32 32 30 29 28 26 25 24 25 26
22 21 20 19 18 18 17 15 14 13 12 11 10 9 8 8 7 7 7 8 9 10 11 12 15 19 21 22 26 31 34 34 34 35 37 35 35 36 38 37 36 35 35 35 35 35 34 33 32 31 30 30 29 30 31 30 30 28 27 26 25 26 27
25 24 23 23 23 22 21 19 19 18 17 17 16 14 13 12 11 11 11 10 11 11 11 11 12 15 16 15 16 22 28 31 31 32 35 36 36 36 36 37 37 35 34 35 35 34 34 34 33 33 33 31 31 31 30 29 29 29 28 27 26 27 28
27 27 27 27 27 26 25 25 25 24 24 24 22 20 20 19 17 16 15 14 15 15 15 14 14 15 16 15 14 16 20 24 26 27 29 32 35 37 36 36 37 37 37 37 36 35 35 33 32 32 33 33 33 33 31 29 29 30 30 28 27 28 29
25 26 27 28 28 27 28 29 29 28 28 28 27 26 26 24 23 22 20 19 19 19 18 18 17 17 17 17 17 17 17 19 20 22 23 23 25 31 34 33 34 36 37 37 36 36 35 34 33 32 33 34 34 34 34 32 29 29 30 31 30 30 31
24 25 25 27 27 27 27 28 28 28 29 29 29 29 29 28 28 26 25 24 24 23 23 22 21 21 20 19 19 19 19 19 19 20 22 21 19 20 23 27 31 34 35 36 36 37 37 36 36 35 34 33 34 34 34 33 31 30 30 31 32 32 33
25 25 25 26 27 28 29 28 27 27 28 28 29 30 30 30 30 30 29 28 28 28 27 26 25 24 24 23 22 21 21 21 20 20 21 21 21 20 18 20 24 28 30 32 35 37 37 37 37 35 34 33 34 34 34 34 33 32 32 31 31 32 33
24 24 24 25 26 28 29 29 28 28 27 28 30 30 31 31 32 31 31 31 31 31 31 30 29 28 27 26 26 25 24 23 22 22 22 21 21 21 19 18 20 22 23 26 31 34 36 37 36 35 34 32 32 33 33 34 35 35 35 34 33 32 33
23 24 24 25 26 27 27 28 28 28 27 27 28 30 31 32 32 33 33 33 33 33 33 33 33 32 31 30 29 28 28 27 25 24 24 23 22 21 20 19 20 20 20 22 25 29 32 35 35 36 35 34 35 35 35 37 40 40 38 36 34 33 33
22 23 24 25 26 27 27 27 27 27 27 27 27 29 30 31 33 33 33 33 34 35 35 36 36 35 34 33 33 32 31 30 30 28 27 25 24 24 23 22 21 21 21 21 23 25 29 33 36 37 37 37 38 37 35 36 37 36 34 34 35 34 33
23 23 24 25 26 27 28 28 28 28 28 28 28 29 30 31 33 34 34 34 35 35 36 37 38 38 38 37 36 36 35 34 33 32 31 30 28 27 26 25 24 23 23 23 24 25 28 31 36 39 39 38 37 35 33 33 32 31 32 35 36 36 36
22 22 23 24 25 27 28 29 29 29 29 29 29 30 31 31 32 33 34 35 35 36 37 38 39 39 40 39 39 39 38 37 37 36 35 35 33 32 30 29 28 26 25 25 26 26 28 30 33 37 39 39 37 35 35 35 33 31 31 33 36 37 37
20 21 21 22 24 25 27 28 29 30 31 31 31 31 31 32 32 32 33 34 35 36 37 38 39 40 40 40 41 41 41 40 39 38 38 38 38 37 36 33 32 30 28 27 28 28 29 30 32 34 36 38 38 37 37 36 34 32 31 30 32 36 37
20 21 21 22 24 25 26 27 28 30 31 31 32 32 33 33 33 33 33 34 35 36 37 38 39 40 40 40 41 42 42 42 42 41 40 40 40 40 40 39 37 35 33 31 30 30 31 31 32 33 35 37 38 38 39 37 35 34 33 31 31 34 36
23 23 23 23 25 26 26 27 28 30 31 32 33 33 34 34 34 34 34 35 36 36 37 38 39 40 40 40 41 42 42 43 43 43 42 41 40 41 42 43 41 39 37 35 33 33 33 33 33 34 35 36 36 37 40 39 37 36 36 34 33 34 35
27 28 28 28 28 28 29 29 29 30 31 32 33 34 35 35 36 36 36 36 37 38 38 39 40 40 40 40 41 42 42 43 44 44 43 43 42 41 42 44 45 43 41 40 38 36 35 36 36 35 35 35 35 36 38 39 38 38 37 36 35 34 36

ECMWFFLT1_700_spd_078.txt.gz
Wind_Speed
18 20 23 24 24 25 24 25 26 25 23 24 25 26 25 25 24 22 21 21 20 19 18 17 16 16 16 17 17 17 18 18 17 16 16 15 14 14 14 14 13 12 11 11 10 10 9 8 7 7 6 6 5 5 4 4 4 4 5 6 6 6 7
17 18 20 20 20 22 23 24 25 24 24 25 25 26 27 27 26 24 23 22 21 21 20 18 17 16 16 17 17 17 18 18 17 17 16 15 14 15 15 14 14 13 12 12 11 10 10 9 8 7 7 7 6 6 5 5 5 5 5 5 6 6 6
17 18 20 19 19 21 23 25 25 25 26 25 24 26 28 29 29 27 25 23 23 23 21 19 18 17 16 16 17 17 17 17 17 17 16 15 15 15 16 16 15 14 13 12 11 10 10 9 8 7 7 7 7 7 6 5 6 6 6 6 6 6 7
15 16 20 21 22 22 23 24 24 24 24 24 24 25 26 28 27 23 22 23 24 23 21 19 18 18 17 17 17 17 17 17 16 16 16 15 15 16 17 17 16 15 15 13 12 11 10 10 9 8 8 8 8 7 7 6 6 7 6 6 6 6 7
16 13 16 20 23 23 22 22 21 21 21 22 24 25 24 25 23 20 21 21 20 21 20 19 19 19 19 18 17 17 17 17 17 17 16 16 16 17 18 18 17 16 15 14 14 13 11 11 10 9 9 8 8 7 7 6 6 7 6 6 6 6 7
20 14 14 15 16 17 19 20 21 21 22 23 24 25 26 24 21 19 19 18 19 19 20 21 21 21 20 19 19 18 18 18 17 17 17 16 16 16 17 17 17 17 16 15 15 14 13 11 10 9 9 9 9 8 7 7 7 7 7 7 6 6 7
27 18 17 16 16 17 20 23 24 24 23 24 24 24 24 22 20 19 18 17 19 21 22 22 23 22 22 21 21 21 20 19 18 18 18 17 16 16 16 17 17 17 17 17 16 15 14 13 12 10 10 10 10 9 8 8 7 7 7 7 7 7 7
31 22 17 17 21 23 24 25 26 25 26 26 24 23 22 19 19 20 18 17 19 20 22 24 24 24 23 23 22 22 21 20 19 18 18 18 17 17 16 17 17 17 18 18 17 16 15 14 14 13 11 11 10 10 9 9 9 8 8 7 7 7 7
29 26 20 21 24 25 24 26 26 24 27 30 27 26 23 19 19 20 19 18 18 18 19 21 22 23 23 24 24 23 23 22 21 19 18 18 18 17 17 17 17 18 18 18 18 18 17 16 15 15 14 13 12 11 11 10 10 10 9 8 8 8 8
24 26 24 24 23 22 22 24 23 21 24 27 27 27 24 21 20 19 18 17 16 17 17 19 21 22 22 24 25 25 25 24 22 21 19 18 18 18 18 18 17 18 18 18 18 19 19 18 17 16 16 15 14 13 12 12 11 11 10 9 9 9 9
17 19 20 19 19 19 20 23 23 20 20 21 22 24 23 22 21 20 18 15 14 15 16 17 20 23 23 25 26 27 26 26 25 23 21 20 19 19 19 19 19 18 18 19 19 20 20 20 19 18 17 16 15 14 13 13 12 11 11 10 10 10 10
12 12 13 13 14 15 18 21 23 22 20 19 19 21 22 22 22 21 18 15 12 13 16 19 22 24 25 28 31 29 27 26 26 24 22 21 21 20 19 19 20 19 19 19 19 20 21 20 20 20 19 18 17 16 15 15 14 14 13 12 12 12 11
11 10 9 9 9 10 13 17 20 20 21 20 19 20 22 21 21 20 19 16 11 10 14 18 21 22 24 28 34 34 30 29 29 26 24 23 23 22 20 19 20 20 19 19 19 20 21 20 20 20 19 19 18 18 18 17 17 17 16 15 14 14 13
12 10 9 9 9 8 10 14 18 19 20 20 19 20 21 21 19 16 17 18 14 10 10 12 15 20 23 26 31 32 30 30 29 27 26 25 25 24 23 21 20 19 18 18 19 20 20 20 20 20 20 20 19 20 20 20 20 20 19 18 17 17 16
12 11 10 10 9 9 9 11 16 18 18 19 20 20 20 21 19 17 17 19 19 19 18 18 18 22 25 27 28 28 27 28 28 27 27 28 29 29 27 24 22 21 18 16 17 19 19 20 21 21 21 20 20 21 22 22 22 22 21 20 20 20 19
12 11 10 10 9 9 10 10 13 16 18 19 20 20 20 20 20 20 20 20 21 23 25 26 25 26 28 29 28 26 26 27 27 27 27 28 30 30 28 26 25 23 20 18 17 18 18 19 21 22 22 21 20 21 22 23 24 24 23 22 22 22 21
11 11 11 11 10 9 9 10 11 14 16 17 18 19 19 20 21 22 22 22 23 24 26 27 27 28 30 31 29 26 26 26 25 26 27 28 29 28 26 26 26 25 24 23 21 19 19 20 21 22 22 22 21 21 22 24 24 25 24 23 23 23 23
12 12 12 11 10 10 10 10 11 12 13 15 17 18 18 19 20 21 22 23 24 25 26 27 28 28 30 31 29 28 27 25 24 26 29 29 28 27 27 28 27 27 27 27 25 23 22 21 21 21 21 21 22 22 21 22 22 24 24 24 23 24 24
14 14 13 11 11 11 11 12 13 13 13 13 15 17 18 19 19 20 20 21 22 23 24 26 27 28 28 29 30 29 28 26 26 28 29 28 25 25 27 29 29 29 30 30 27 25 25 25 23 23 22 22 22 22 21 21 21 22 23 23 22 21 23
17 16 14 13 12 12 13 14 14 15 15 14 14 15 17 18 18 19 20 20 21 22 23 25 27 29 30 31 32 31 30 30 29 28 27 26 26 27 29 30 30 31 32 31 30 28 28 28 27 25 25 25 24 23 22 21 21 22 23 23 21 19 20
17 17 16 14 14 13 13 13 14 14 15 15 14 15 15 16 17 18 18 20 21 22 23 25 27 29 31 33 33 33 33 32 31 30 28 27 28 29 29 29 29 30 30 30 31 31 30 30 30 28 27 27 27 28 27 24 22 22 24 23 22 20 20
18 17 17 16 15 15 14 13 13 13 13 13 13 13 13 13 14 15 15 17 18 20 22 24 25 26 28 29 31 32 32 33 34 33 31 29 29 28 28 27 28 30 31 31 32 33 33 33 32 31 30 29 29 31 31 28 24 24 25 24 23 22 21
20 19 18 18 17 16 15 14 14 13 13 13 12 11 11 10 10 10 11 11 13 14 17 20 22 23 24 25 26 28 30 31 32 31 31 31 31 30 28 27 27 30 32 34 34 34 34 33 32 31 31 31 31 31 31 30 27 26 26 26 25 25 24
21 21 20 20 19 18 16 15 15 14 13 13 12 11 11 10 9 8 8 8 8 9 11 12 14 17 18 19 21 21 22 24 24 26 29 32 32 30 28 28 28 30 32 34 35 35 34 32 31 29 29 30 31 31 30 29 29 29 28 28 28 29 28
24 23 21 21 20 18 16 15 16 15 14 15 13 11 11 11 10 9 8 8 8 9 9 9 9 10 12 13 14 13 13 15 17 20 26 29 29 29 29 29 30 31 32 34 34 34 34 32 32 31 29 29 30 30 30 29 29 29 30 30 30 30 31
25 23 22 22 21 18 17 18 18 17 16 16 14 13 14 13 12 12 11 11 12 12 12 10 9 10 10 11 11 10 9 10 11 13 17 21 24 26 27 29 31 31 32 33 33 33 33 33 32 32 31 30 31 31 31 31 31 31 31 31 32 31 31
27 25 24 24 22 22 22 22 21 20 20 20 19 19 19 18 18 18 17 17 17 17 17 15 14 13 13 13 13 12 10 10 9 9 9 12 15 17 18 23 28 30 32 32 32 32 32 33 33 33 33 33 33 32 32 33 35 36 35 34 33 32 31
27 25 26 26 25 26 27 26 26 25 25 25 26 26 25 24 24 24 23 23 22 22 22 21 20 18 18 17 17 15 14 12 11 10 9 8 9 10 10 13 18 23 27 30 33 33 32 32 33 33 33 34 34 34 36 36 35 34 31 30 30 31 31
25 25 26 26 27 28 28 28 28 28 29 30 30 30 30 29 29 28 28 28 27 26 26 26 25 24 22 22 22 20 19 17 15 14 13 11 10 9 8 8 10 14 19 23 27 30 30 31 32 32 32 33 34 36 37 36 33 30 28 27 28 31 32
26 26 26 27 28 28 27 27 27 27 28 30 31 31 31 31 31 31 31 31 30 30 29 29 29 29 27 26 25 25 23 22 20 19 17 15 13 12 11 9 8 10 13 16 19 22 24 27 30 31 32 33 34 35 35 33 32 31 28 28 29 30 31
29 28 28 28 28 28 27 27 27 27 27 28 29 31 31 32 32 32 32 32 32 32 32 32 32 31 31 30 29 28 28 27 25 24 22 20 18 16 15 14 13 11 12 14 16 18 20 23 25 28 31 33 33 34 33 32 32 32 32 31 29 27 27
27 28 27 27 27 27 26 26 27 27 27 27 28 29 30 31 32 32 32 32 33 33 34 34 34 34 33 33 32 31 31 30 29 28 27 25 23 21 19 19 18 17 16 16 16 17 18 20 23 25 27 29 30 31 31 31 32 32 34 32 27 21 22
25 25 25 25 26 26 25 25 25 26 26 26 26 27 28 29 30 31 32 32 33 34 34 35 35 36 35 35 35 34 33 33 32 32 31 30 28 26 24 23 23 22 21 20 19 20 20 20 22 23 24 25 25 26 28 31 32 32 33 32 29 24 22
23 24 24 24 24 25 25 25 25 25 25 26 26 26 27 27 28 29 30 31 32 33 33 34 35 35 36 36 36 36 36 35 35 35 34 34 33 31 30 28 28 27 26 25 24 24 23 22 22 23 23 23 24 25 27 29 32 33 32 32 32 31 27
22 22 22 22 23 23 24 24 24 24 24 25 25 25 26 26 27 27 29 30 31 32 33 33 34 34 35 35 36 37 37 37 37 37 37 37 36 35 34 33 33 32 31 30 28 27 27 26 25 25 24 24 24 26 26 27 29 32 32 33 34 35 33
20 19 19 20 20 20 21 22 22 23 24 24 24 25 25 25 26 26 28 29 30 31 32 33 34 34 34 34 35 36 37 37 38 38 38 38 38 38 38 37 37 37 36 34 33 32 31 31 29 28 27 26 25 27 28 28 28 30 32 33 35 37 37
19 19 19 19 19 20 21 22 23 24 25 26 26 26 27 27 27 27 28 29 30 31 32 33 33 34 34 34 35 36 37 37 38 38 38 38 38 39 40 39 39 39 39 38 37 37 36 36 34 32 31 29 28 28 29 30 30 30 31 32 35 38 39
19 19 19 20 21 22 23 24 25 26 27 28 29 29 30 30 30 30 30 31 32 32 33 33 34 34 34 35 35 36 37 38 38 38 39 39 39 39 40 40 40 39 39 39 40 40 41 40 38 36 35 33 31 30 30 31 32 33 32 32 33 36 38

ECMWFFLT1_700_spd_081.txt.gz
Wind_Speed
24 26 25 27 29 30 31 32 32 30 27 25 24 25 27 25 22 19 19 19 18 17 15 15 15 14 14 14 16 17 16 16 15 14 13 12 11 11 11 10 10 9 8 8 9 9 8 8 8 8 7 6 6 5 5 5 5 5 5 5 6 7 8
23 24 25 26 27 29 31 33 33 32 29 27 27 27 26 23 21 19 17 18 19 18 17 16 16 15 15 15 15 16 16 16 16 15 14 13 12 11 11 12 11 10 10 9 10 9 8 8 8 8 7 7 6 5 4 5 5 5 5 5 5 6 7
22 25 26 26 26 27 29 30 32 33 30 28 29 27 24 23 22 19 16 16 18 19 19 18 18 17 16 16 16 16 16 17 16 16 14 13 13 12 12 12 12 12 11 10 10 9 8 8 8 8 8 8 7 6 4 4 4 5 5 5 5 5 7
23 25 25 26 25 25 26 28 31 32 32 33 32 28 26 25 23 20 17 16 17 19 19 19 19 19 18 17 17 16 16 16 16 16 15 14 13 13 13 13 13 12 12 11 11 10 9 9 8 8 8 8 8 7 6 5 4 4 4 4 5 5 6
24 24 23 24 24 25 26 28 31 34 36 36 31 26 25 23 20 19 19 17 17 19 20 20 20 20 19 18 18 17 17 16 16 16 15 15 14 13 13 13 13 13 12 12 12 11 10 10 9 8 8 8 7 7 7 6 5 5 4 4 4 5 6
26 26 25 25 25 24 26 28 31 33 33 29 25 23 23 19 17 19 20 20 19 20 22 23 22 22 20 19 19 18 18 17 17 16 16 16 15 14 13 13 13 13 13 13 13 12 11 10 9 8 8 8 7 7 7 6 6 5 5 4 4 4 5
25 27 27 27 26 26 28 29 28 28 25 23 23 24 22 19 18 19 21 21 21 21 23 23 23 23 22 21 20 19 18 18 18 17 17 17 16 14 13 13 13 13 13 14 14 14 12 11 10 8 8 8 8 7 7 7 7 7 6 5 5 5 5
25 26 27 27 28 30 31 30 28 24 20 20 24 25 22 21 22 22 21 22 22 22 22 21 22 23 22 22 21 20 19 18 17 17 17 17 16 15 14 14 13 13 14 14 14 14 13 12 11 10 9 8 8 8 8 7 7 7 7 6 6 6 6
26 26 27 29 30 32 33 32 29 24 18 18 23 25 24 24 24 22 20 21 22 23 23 23 24 24 24 24 23 22 20 19 19 18 17 17 16 15 14 14 13 14 14 14 14 14 14 13 13 12 11 10 9 8 8 8 8 7 7 7 7 7 7
29 29 29 31 31 32 33 31 28 25 21 19 21 24 24 24 24 22 20 21 22 22 24 25 24 24 25 26 26 25 23 21 21 21 20 19 18 17 16 15 14 15 15 15 15 15 15 15 14 14 13 12 10 9 9 8 8 8 7 7 8 8 8
32 32 30 29 28 29 29 27 26 25 23 21 20 22 23 23 22 22 21 22 22 22 25 26 25 24 26 27 28 27 24 23 25 25 24 23 21 20 19 18 16 16 16 16 16 16 16 16 16 15 14 13 12 11 10 9 9 9 8 8 9 9 10
33 32 29 26 26 27 25 23 23 22 23 24 22 21 22 21 21 21 21 21 21 22 24 24 22 23 26 26 24 22 22 23 24 23 22 20 19 17 17 17 17 17 17 16 17 17 17 16 16 16 15 14 13 13 12 11 10 10 9 9 9 10 10
32 31 28 25 24 25 24 22 20 20 21 23 22 21 22 21 21 21 21 20 20 21 21 20 19 21 23 21 19 19 20 21 21 20 20 20 19 17 17 17 17 17 16 16 16 17 17 17 17 16 16 15 15 15 14 13 13 12 11 11 11 11 11
31 29 27 25 23 24 25 24 23 21 19 20 22 22 22 22 22 22 21 21 20 20 21 21 20 20 20 18 17 18 19 20 20 19 20 21 21 20 18 17 17 17 17 17 17 18 18 18 17 16 16 16 16 16 15 15 15 14 14 13 13 13 13
27 24 21 19 18 18 19 21 24 25 22 19 21 22 22 22 22 22 22 21 20 20 20 20 19 18 18 16 16 17 19 21 20 19 21 21 21 20 19 18 18 19 19 18 18 18 20 20 19 17 17 17 17 16 16 17 16 16 15 15 15 15 15
21 20 17 15 15 15 15 16 20 24 24 21 20 20 20 21 21 22 21 21 20 20 21 20 18 18 18 17 16 17 18 18 18 19 21 23 23 23 21 21 21 21 21 20 18 17 19 21 21 19 18 18 18 18 18 18 17 17 16 16 16 17 17
19 18 18 16 15 15 16 17 19 22 24 22 20 18 18 19 21 22 21 20 20 21 21 21 20 21 21 18 17 16 16 16 15 16 19 23 26 26 24 23 23 23 23 23 20 18 18 18 20 20 19 18 18 18 19 19 18 18 17 16 16 16 17
18 17 16 15 15 14 14 15 17 20 22 23 22 21 19 19 20 21 22 21 21 22 23 23 23 23 23 21 18 17 17 16 15 15 17 20 23 25 23 23 23 24 25 24 23 22 20 19 18 18 19 18 17 17 17 18 19 19 18 17 16 16 16
16 16 16 14 14 14 13 13 14 15 17 19 21 23 22 21 21 21 22 22 23 24 25 25 25 25 24 23 22 21 20 19 17 17 17 18 21 23 24 24 23 24 25 26 26 25 23 22 20 18 18 18 17 16 15 15 17 18 19 18 17 17 17
17 17 17 16 15 15 15 15 15 15 15 15 17 19 21 22 22 22 22 23 24 25 26 26 25 25 24 24 24 24 22 21 20 20 20 19 19 22 25 25 23 23 24 25 27 27 26 25 25 23 21 20 19 18 17 16 15 16 17 18 17 17 17
18 18 17 16 15 15 16 16 16 16 16 15 15 16 17 19 20 21 21 22 23 24 25 26 26 26 26 26 25 25 24 23 23 23 24 22 20 21 23 22 21 23 24 25 27 28 27 28 27 27 26 25 23 22 20 20 19 19 19 19 19 19 18
18 18 17 16 15 15 16 16 16 17 17 16 16 15 15 16 18 19 20 20 20 21 21 23 24 24 24 24 24 24 25 24 25 26 26 24 23 23 22 20 21 23 23 24 26 27 28 29 29 29 29 29 27 25 24 23 22 23 23 23 23 23 23
17 17 19 17 16 17 16 16 17 17 16 16 17 16 16 16 16 17 18 19 19 19 19 21 22 21 21 21 21 22 22 21 22 23 22 21 22 23 22 23 23 23 22 23 24 25 27 29 29 30 30 30 30 29 27 26 25 26 26 27 27 27 26
20 19 21 19 18 18 18 17 18 18 16 16 17 18 17 17 16 16 16 17 17 17 17 18 19 19 19 19 19 19 19 18 18 18 17 17 20 22 23 25 25 24 23 23 24 25 26 26 27 28 30 30 31 31 30 30 30 30 29 28 28 28 27
26 24 24 22 20 20 20 19 20 19 16 15 17 18 17 16 15 14 14 15 15 14 13 12 12 12 12 12 11 12 11 11 10 10 11 13 16 19 22 24 25 26 26 25 25 26 26 25 24 25 28 30 31 32 32 32 30 29 28 28 28 29 29
26 26 25 23 22 23 22 20 20 20 17 17 18 19 18 17 15 13 13 14 13 12 11 9 8 8 8 7 6 6 6 6 6 5 6 6 8 12 17 20 22 24 25 26 26 26 26 26 25 25 26 28 30 32 31 29 27 25 25 26 27 28 29
24 26 25 23 24 25 24 22 21 21 20 20 20 19 18 17 16 14 14 14 13 13 12 10 10 9 9 8 7 6 6 5 5 5 4 4 4 6 10 14 17 21 24 26 26 26 27 28 27 26 26 27 29 30 28 25 24 24 23 24 26 26 27
22 25 24 24 25 25 24 23 22 23 23 23 22 21 20 19 19 18 17 16 16 16 15 15 14 13 13 12 11 10 9 8 7 6 5 4 4 4 6 9 12 15 19 22 24 26 27 28 28 28 28 27 28 28 26 24 25 25 25 25 25 24 25
21 22 23 24 25 25 24 23 24 25 25 25 24 24 23 23 23 22 22 21 21 21 21 21 20 19 18 17 17 16 15 13 12 10 9 8 7 6 6 7 9 10 13 16 18 21 23 26 28 30 30 30 30 29 27 25 26 26 26 26 26 25 25
24 21 20 22 23 24 24 25 25 26 27 27 27 28 27 27 27 27 27 27 26 26 26 25 25 24 23 22 21 21 20 19 18 16 14 13 11 10 10 10 9 9 10 12 13 16 18 20 23 26 29 30 31 31 31 29 28 28 28 27 27 27 26
28 25 24 24 24 23 24 24 25 26 27 28 29 30 30 30 31 31 31 31 30 30 29 29 28 28 27 26 25 25 24 23 23 21 20 18 17 16 15 14 13 13 12 12 13 14 15 17 19 22 24 25 27 29 31 32 31 30 29 28 28 28 27
29 29 29 29 28 27 26 26 26 26 27 28 28 29 29 30 31 31 32 32 32 32 31 31 31 31 31 30 29 28 27 27 26 26 25 24 22 21 20 19 19 18 17 16 16 16 16 17 17 19 20 22 23 25 26 28 28 29 29 28 28 28 28
30 30 29 29 28 27 27 27 27 27 26 26 27 27 28 28 29 30 30 31 32 32 32 32 32 32 32 32 32 32 31 30 29 29 28 28 27 25 25 24 24 23 22 22 21 21 20 20 19 19 18 19 20 21 23 24 25 26 27 27 27 28 28
26 26 26 26 26 26 26 25 25 25 25 25 26 26 27 27 28 28 29 30 31 31 32 32 33 33 33 33 33 33 33 33 32 32 31 31 30 29 29 28 28 28 27 26 26 25 25 24 24 22 21 21 21 21 22 23 24 25 26 26 26 26 27
23 23 23 24 25 24 24 24 24 24 24 25 25 25 25 25 26 27 28 29 30 30 31 31 32 32 33 33 33 34 34 34 34 34 33 33 33 32 32 32 32 32 31 30 30 30 29 29 28 27 26 26 25 24 23 23 24 26 27 27 26 26 26
24 23 23 23 24 24 23 23 23 24 24 24 23 23 23 23 23 24 25 26 27 27 28 29 29 30 31 31 32 33 33 34 34 34 34 34 34 35 35 34 35 35 35 35 34 34 34 34 33 31 31 30 29 29 28 26 25 27 28 28 28 28 27
25 24 23 23 23 23 23 23 23 23 22 22 22 22 22 22 22 22 23 23 24 25 26 27 27 28 28 29 30 30 31 32 33 33 34 34 34 35 36 36 36 37 38 38 39 39 39 39 37 36 36 35 34 32 31 30 30 30 30 29 29 30 29
26 25 23 23 22 22 22 22 22 21 21 21 21 22 22 23 23 23 24 25 26 27 27 28 28 28 29 29 29 30 31 32 32 33 33 34 34 34 35 36 37 37 38 39 40 41 42 42 42 41 40 39 38 37 36 35 34 34 34 33 32 31 31

ECMWFFLT1_700_spd_084.txt.gz
Wind_Speed
34 37 38 37 36 35 33 31 29 26 25 23 22 22 24 24 22 21 21 20 18 17 17 17 16 17 18 19 20 19 19 18 16 14 13 11 10 9 8 7 7 6 6 5 5 6 6 5 6 6 6 6 6 6 6 6 5 5 6 6 7 8 7
32 36 39 40 40 37 38 38 35 31 28 26 23 21 22 22 21 22 21 21 20 18 17 17 16 16 17 17 19 19 19 18 17 16 15 13 11 10 9 8 9 8 7 7 7 7 6 6 6 6 6 7 7 7 7 6 6 5 6 6 6 7 7
29 33 38 43 41 38 42 44 39 34 30 27 24 21 21 20 20 20 20 21 21 20 19 18 17 16 17 17 18 18 19 19 18 16 15 14 12 11 10 9 10 10 9 8 8 7 7 7 7 7 7 7 7 7 7 7 6 6 6 6 6 6 7
30 33 38 40 40 41 42 41 36 33 29 25 23 21 21 21 20 20 20 20 21 21 20 19 18 18 17 18 18 18 18 18 18 17 16 15 13 12 12 11 11 11 10 9 8 8 8 8 8 8 7 7 7 7 7 7 7 6 6 5 5 5 6
30 33 34 34 35 36 35 33 33 31 27 25 25 22 21 21 21 21 21 21 21 21 21 19 19 20 19 19 18 18 18 17 18 18 17 16 15 14 13 12 12 12 11 11 10 9 9 8 8 8 7 7 7 7 6 7 7 7 6 6 5 5 5
28 28 28 27 26 25 26 29 31 31 29 28 27 25 23 21 21 22 23 24 23 23 23 22 22 22 21 21 19 18 18 18 18 18 17 17 16 15 15 14 14 13 13 13 11 11 10 8 8 8 8 8 7 6 6 6 7 7 6 6 6 5 5
28 27 25 25 22 21 24 27 28 29 30 29 30 29 27 25 24 23 23 24 25 26 26 25 24 24 24 24 23 21 21 20 19 19 18 18 17 17 16 16 16 15 15 14 13 12 11 9 8 8 8 8 8 7 7 7 7 7 7 7 6 6 6
29 28 26 25 23 23 26 28 28 28 29 29 31 31 30 28 27 25 24 24 28 30 28 28 28 27 25 25 25 23 22 21 21 20 19 19 18 18 17 17 17 16 16 16 15 14 13 11 10 9 9 9 9 9 8 7 7 8 8 8 7 6 6
28 28 28 26 25 25 27 28 28 28 28 28 30 31 32 31 29 28 27 27 28 28 29 30 29 24 21 20 21 23 23 22 20 19 19 18 17 17 17 17 18 17 17 16 16 15 14 13 12 11 10 10 9 10 9 9 8 8 8 8 8 8 7
26 27 28 28 26 26 27 27 26 27 28 28 29 32 33 33 31 29 29 29 26 25 29 31 24 19 18 19 20 23 23 21 20 19 18 18 17 16 16 17 18 18 17 17 17 16 14 14 13 12 12 11 10 10 10 10 9 9 8 8 8 9 9
23 25 28 29 28 28 28 27 24 25 27 27 28 30 32 32 31 31 30 28 24 24 29 27 19 17 19 20 21 22 21 21 21 20 19 19 18 18 18 18 18 18 18 17 17 17 16 15 14 14 13 12 11 11 11 10 10 10 9 9 9 9 10
25 25 26 28 29 29 29 27 25 24 25 26 26 26 28 29 29 30 30 26 22 23 24 20 16 18 20 20 22 22 20 21 21 21 21 20 19 18 18 18 18 18 18 18 17 18 18 17 16 16 15 14 14 13 12 12 12 11 10 10 10 10 10
28 28 27 27 27 26 26 26 25 25 25 25 24 24 24 23 24 27 26 21 18 20 20 17 15 18 20 21 21 21 20 21 21 22 23 22 21 19 19 18 18 18 18 18 17 18 18 19 18 17 16 16 16 15 14 14 13 13 12 12 11 11 11
29 30 28 27 25 22 22 22 22 24 25 25 25 24 23 22 21 22 21 16 14 16 18 17 15 16 18 18 18 18 20 21 22 23 23 22 21 20 19 19 18 19 19 18 17 18 18 20 20 19 18 17 17 17 17 16 16 15 15 14 13 13 12
29 31 30 28 25 21 20 20 20 22 23 23 24 25 25 23 20 19 18 15 13 15 17 17 16 15 16 16 16 17 19 21 22 21 21 22 21 20 19 19 19 19 20 19 19 19 19 20 20 20 20 19 19 19 19 18 17 17 17 16 16 15 15
27 29 30 30 27 23 20 20 21 22 21 21 22 25 25 23 21 20 20 18 15 15 16 16 15 15 14 15 15 17 20 21 22 22 22 23 22 20 20 20 20 20 20 21 21 20 20 20 21 21 20 20 21 21 20 20 19 18 18 18 18 18 18
26 26 27 28 27 24 24 24 24 25 24 21 21 24 24 24 24 24 22 19 16 15 16 15 14 14 14 14 14 15 17 19 21 21 21 21 21 21 21 21 20 20 20 21 22 21 21 21 21 21 20 20 20 21 21 21 20 20 20 20 20 20 20
24 22 22 24 25 25 25 23 21 22 26 25 23 22 22 23 24 23 20 19 19 18 18 17 16 15 15 16 15 12 12 14 16 18 18 18 18 19 21 22 22 21 20 21 23 23 23 22 21 21 20 19 19 20 21 21 20 21 21 21 22 22 22
22 21 22 22 22 21 19 18 15 15 21 26 24 22 22 22 21 20 20 21 21 20 20 19 18 16 16 16 15 12 10 10 12 15 17 16 15 15 17 20 22 22 21 22 24 25 25 24 22 21 20 19 18 18 19 19 20 20 21 21 21 22 22
22 22 22 20 18 16 14 14 16 15 18 23 24 22 20 20 20 20 20 21 20 19 20 20 19 18 18 18 15 14 13 13 14 16 15 14 13 13 13 15 17 19 20 22 24 25 26 25 24 22 21 20 18 17 17 17 18 18 19 20 20 20 21
22 23 22 19 17 16 14 14 14 15 16 19 22 22 21 19 19 19 20 21 21 21 21 21 19 19 20 19 17 16 16 16 16 17 17 15 15 15 14 14 15 17 19 21 23 25 26 26 25 24 23 22 21 20 19 18 18 18 18 18 19 19 20
19 21 21 19 18 17 16 16 15 15 16 17 18 20 21 21 20 20 19 20 21 21 22 21 21 21 21 20 19 18 18 17 17 18 19 19 19 18 17 17 17 17 18 20 23 25 27 27 26 26 25 24 24 23 23 22 21 20 19 19 19 19 20
16 20 20 19 19 18 17 17 17 17 17 17 17 17 18 19 19 19 18 17 17 18 19 21 21 21 21 20 19 18 17 16 16 18 20 21 21 22 22 22 22 21 21 21 22 25 27 28 28 27 26 26 25 24 24 24 23 23 23 23 23 23 22
15 19 19 19 19 18 17 17 16 16 17 17 16 16 16 17 17 17 17 16 16 16 17 18 18 18 18 18 18 17 16 15 16 18 20 21 22 24 25 27 28 27 27 26 25 26 28 28 29 28 26 25 25 24 24 24 25 26 26 26 26 26 25
15 20 20 20 20 18 17 17 17 16 16 16 16 16 16 17 17 16 16 16 17 17 17 17 17 16 17 17 17 17 16 16 16 17 18 20 21 22 24 27 29 29 30 30 30 30 30 29 30 29 26 23 23 24 24 25 26 27 28 28 28 28 27
16 21 21 21 20 19 17 17 18 18 17 16 16 16 16 17 17 17 16 15 16 16 16 16 15 15 14 15 15 15 15 15 15 15 16 17 19 21 24 26 28 29 30 31 31 31 31 31 32 31 27 24 24 24 24 26 27 28 30 30 29 29 29
13 20 23 22 20 19 19 18 19 19 18 18 17 17 17 17 16 16 16 15 15 15 15 14 13 13 13 13 12 12 12 13 13 14 14 14 16 19 21 23 25 27 28 29 30 30 31 32 32 30 27 26 26 26 25 26 27 29 30 30 30 30 30
9 13 20 23 21 20 21 21 21 21 20 20 21 20 20 19 18 17 17 17 16 16 15 14 13 12 12 12 11 11 11 12 12 13 13 13 13 14 15 17 18 20 22 25 26 27 29 31 31 30 29 29 29 29 28 28 28 29 30 31 31 31 31
9 9 14 20 22 22 23 23 24 23 23 22 23 23 23 22 21 20 19 19 19 18 17 16 15 14 14 13 12 12 12 11 11 12 12 12 12 12 13 13 14 15 17 19 22 25 27 29 31 31 30 30 30 30 29 29 29 30 30 31 32 32 32
14 11 11 15 20 23 25 26 26 25 25 25 25 25 25 24 23 22 22 22 22 21 20 19 19 18 17 17 17 16 16 15 15 14 14 14 13 13 13 13 14 14 15 16 18 20 23 25 27 28 29 29 30 30 30 30 31 31 31 32 33 32 32
18 16 15 14 16 21 25 28 28 28 27 27 27 27 27 27 26 26 25 25 25 25 25 24 23 22 22 22 21 21 20 20 19 19 18 18 17 17 17 17 16 16 16 16 17 17 18 20 21 22 23 24 26 27 28 28 29 29 30 32 33 32 32
21 20 21 22 22 22 24 27 28 29 29 29 30 30 30 30 30 30 29 29 29 29 29 29 28 28 27 27 26 26 25 24 24 23 22 22 21 21 21 21 21 21 20 20 20 19 19 19 19 18 19 20 21 22 22 23 23 24 26 28 29 29 30
24 26 27 28 28 27 26 27 29 30 30 31 31 32 32 32 33 33 33 33 33 33 33 33 32 32 31 31 30 30 29 29 28 27 26 26 26 25 25 25 25 25 25 25 24 24 23 23 22 21 20 20 20 20 20 20 21 22 23 25 25 26 26
26 29 30 30 29 29 29 28 29 30 30 31 32 32 33 33 34 34 35 35 35 35 35 35 35 34 34 33 33 32 32 31 31 30 30 29 29 29 29 29 29 29 29 29 29 28 28 28 27 26 26 25 24 23 22 21 21 22 23 24 25 25 26
26 27 29 29 29 29 28 28 28 28 28 29 29 30 31 32 32 33 33 34 34 34 34 34 35 34 34 34 34 34 33 33 33 33 33 32 32 32 33 33 33 33 33 33 33 32 32 32 32 31 31 31 30 29 28 26 25 25 26 26 27 27 27
29 28 28 28 28 27 26 26 26 27 27 27 27 27 28 28 29 30 30 31 31 32 32 32 32 32 32 33 33 33 34 34 34 35 35 35 35 35 35 35 36 36 36 36 36 36 36 36 35 35 35 35 34 34 34 32 30 30 30 31 31 31 30
33 31 30 29 28 27 26 26 26 26 27 26 25 25 25 26 26 27 28 28 28 29 29 29 29 29 29 30 30 31 32 33 34 34 35 35 35 36 36 36 36 37 38 39 39 39 39 40 39 39 39 39 39 38 38 38 37 36 36 36 35 34 33
36 34 32 30 28 27 26 25 25 25 25 24 24 23 23 24 24 25 25 26 26 26 26 26 27 27 28 28 29 30 31 32 32 33 33 34 34 35 36 37 37 37 38 39 41 41 42 42 42 43 43 43 43 42 42 41 41 41 41 41 39 39 38

ECMWFFLT1_700_spd_087.txt.gz
Wind_Speed
35 35 35 35 34 33 27 23 21 20 19 19 18 19 20 19 19 18 17 16 15 15 15 15 16 17 18 18 17 17 16 15 14 13 12 10 10 10 10 9 8 7 6 6 6 5 5 5 6 6 5 5 5 5 5 6 6 5 5 6 6 7 7
37 40 42 41 38 35 30 26 24 22 20 19 19 19 20 21 20 19 18 17 16 15 14 14 14 15 16 17 18 18 18 17 16 15 13 12 11 10 10 10 9 9 8 7 7 6 6 6 6 6 5 5 5 5 5 5 6 6 6 6 6 7 7
38 42 42 39 37 34 31 29 27 24 22 21 20 20 20 22 22 20 19 18 17 16 15 15 14 15 15 16 18 19 19 19 18 16 15 14 12 11 11 10 10 10 10 9 7 7 7 6 6 6 5 5 5 5 5 5 5 5 5 6 6 7 7
33 35 35 34 35 32 31 31 28 26 24 22 21 20 20 20 20 20 20 20 20 18 17 16 15 16 16 16 17 18 19 19 19 18 17 16 14 13 13 12 11 11 10 9 8 7 7 7 7 6 6 5 5 5 5 5 5 5 5 5 6 6 7
30 30 30 31 31 30 31 32 30 28 26 24 23 22 20 19 18 19 19 20 21 20 19 19 18 18 18 18 18 18 18 19 19 19 18 17 16 15 14 13 12 12 11 10 10 8 7 7 7 7 6 6 6 5 5 5 5 5 5 5 5 6 6
28 28 30 31 30 29 31 32 31 30 27 26 27 26 24 22 20 21 21 22 23 23 23 24 23 22 20 20 19 18 18 18 19 19 19 19 18 16 15 14 14 13 13 12 12 10 9 9 8 8 8 7 7 6 6 5 6 6 6 6 5 6 6
25 25 26 29 29 30 32 32 32 32 30 29 30 30 29 26 25 24 25 26 26 25 25 25 25 24 22 21 20 19 19 19 19 20 20 20 20 18 17 16 15 15 14 14 13 12 12 10 10 10 10 9 9 8 7 7 7 6 6 6 6 6 6
23 23 23 25 27 29 32 34 34 34 32 30 32 34 32 30 28 26 26 26 25 23 24 23 23 23 23 22 21 20 20 20 19 20 20 21 21 20 19 18 17 16 16 15 14 14 14 13 12 11 11 10 10 10 9 8 8 7 7 7 7 6 6
23 22 22 23 25 28 31 34 36 37 35 34 33 34 34 34 31 28 26 25 25 24 23 22 23 22 22 23 23 23 22 21 20 20 20 20 20 20 19 19 18 18 17 17 16 16 15 14 14 13 12 12 12 11 11 10 9 8 8 8 8 7 7
22 21 21 21 24 27 29 32 33 34 35 37 36 35 36 36 32 29 29 28 26 24 22 23 25 24 23 23 23 25 24 23 22 20 20 20 20 19 19 19 19 19 18 17 17 17 16 16 16 15 14 13 13 13 12 12 11 10 10 9 9 9 9
21 21 22 22 24 26 27 29 29 29 30 35 38 37 36 35 32 30 31 32 29 24 23 23 25 27 26 23 23 24 25 25 24 22 21 21 20 20 19 19 19 19 18 18 18 18 17 17 17 17 16 15 14 14 13 13 13 12 11 11 10 10 10
18 19 20 22 25 27 26 26 27 28 29 32 35 34 31 30 29 29 31 32 27 23 23 23 23 26 26 23 23 24 25 26 26 24 23 22 21 21 20 20 20 20 19 19 18 19 18 18 19 18 18 17 16 16 15 14 14 14 13 12 12 11 11
15 15 16 19 21 24 26 27 27 28 27 28 29 27 26 26 26 28 29 27 23 21 21 22 23 26 26 24 25 27 27 27 26 25 25 23 22 22 21 21 20 20 20 19 19 20 20 19 19 19 19 19 18 18 17 16 16 15 15 14 13 13 12
15 15 16 17 18 20 23 26 28 28 25 24 22 20 22 24 25 26 25 22 21 21 21 21 21 24 26 26 27 29 29 28 26 26 26 25 24 24 22 21 20 20 20 20 20 20 20 20 20 19 19 20 20 20 19 18 17 17 16 16 15 15 14
18 18 19 20 20 20 21 23 26 27 25 24 21 17 19 21 21 21 20 18 19 21 21 20 19 21 22 24 26 29 29 28 26 26 26 26 26 25 24 22 21 21 21 21 21 21 21 20 20 20 20 20 20 21 21 21 19 18 18 18 17 17 16
20 20 22 22 22 21 21 22 23 24 24 24 23 20 19 17 16 16 16 16 17 19 19 17 15 17 20 23 25 27 28 26 25 25 26 26 26 26 25 24 23 22 22 22 22 22 22 21 20 20 20 20 20 21 23 23 22 21 20 20 19 19 19
23 22 23 22 21 21 22 21 20 20 21 21 22 21 20 18 16 15 15 15 15 16 15 13 14 18 22 23 24 24 25 25 24 23 25 26 25 25 25 25 25 24 23 23 23 22 23 22 21 21 20 20 21 22 23 23 23 22 22 22 22 21 21
24 23 22 21 19 21 22 21 20 19 19 18 18 19 19 19 18 18 17 16 15 15 14 14 16 18 19 20 21 23 23 24 23 22 22 24 23 23 24 26 26 25 24 24 23 23 23 23 22 21 20 20 20 20 21 23 23 23 23 23 23 23 23
21 20 19 19 20 20 22 22 23 22 21 20 18 18 18 19 19 18 18 18 17 16 16 15 15 15 15 16 18 19 20 20 20 18 19 21 22 22 23 25 26 26 25 25 24 24 24 24 23 23 21 20 19 18 19 21 23 24 23 22 23 23 23
16 15 16 18 19 19 19 20 21 21 20 19 20 20 20 19 17 16 17 18 18 19 18 16 14 13 13 13 13 14 15 15 15 15 17 20 21 22 23 24 25 27 27 26 26 25 24 24 24 24 23 22 20 18 18 19 22 23 23 22 23 23 24
11 13 14 16 17 18 18 17 16 15 14 14 17 21 22 20 16 14 15 16 17 17 17 17 15 14 13 13 13 13 13 13 13 13 15 17 19 21 21 22 23 25 26 27 27 27 27 26 25 24 23 23 22 20 19 20 21 21 21 21 21 22 23
8 11 14 15 17 18 18 15 13 14 14 13 13 17 20 19 17 15 14 15 16 15 15 15 15 14 15 15 16 16 15 15 14 14 14 15 16 18 19 19 19 20 23 26 27 27 27 26 25 23 22 22 23 23 23 23 23 22 22 21 20 19 20
7 9 12 16 17 17 15 14 13 14 14 14 13 14 16 18 17 15 14 15 16 15 15 15 15 16 16 17 17 18 17 17 16 16 17 17 17 18 19 20 20 21 23 25 25 24 23 23 23 24 23 22 23 24 24 25 26 26 25 24 22 21 20
6 8 11 14 16 16 15 14 14 14 14 13 12 11 12 15 16 15 14 15 16 15 14 14 14 15 16 17 18 18 17 17 17 18 18 19 19 20 21 23 24 25 26 27 25 23 22 21 22 24 24 23 23 23 23 24 26 28 28 28 27 26 24
7 9 11 13 15 16 14 13 13 14 14 14 12 11 10 11 12 14 14 14 14 14 14 14 13 14 15 16 16 16 16 17 17 17 18 18 19 20 22 24 26 27 27 28 27 26 25 24 23 24 24 25 25 24 22 23 26 28 30 31 31 30 28
8 9 9 12 15 15 13 12 11 11 12 13 13 11 11 10 10 11 11 12 13 14 14 15 14 14 14 14 14 14 15 16 17 17 18 18 19 20 21 22 24 25 26 27 28 29 29 28 26 26 26 26 26 25 24 24 26 27 30 33 34 33 31
9 9 9 12 14 14 13 11 10 10 10 11 11 11 11 12 12 12 12 12 13 13 13 14 14 12 12 12 12 13 14 14 14 15 16 17 19 20 20 22 23 24 25 27 28 29 30 30 29 29 29 30 29 28 27 27 28 27 28 31 34 35 36
9 10 10 12 14 15 14 13 12 12 12 12 12 11 11 12 13 13 14 15 15 14 13 13 13 12 11 12 12 12 12 13 13 14 14 15 16 17 18 20 21 23 25 26 27 28 29 29 30 30 31 32 32 31 30 31 31 30 29 30 31 34 36
11 10 10 12 14 15 16 15 14 14 14 14 14 14 13 13 13 13 14 15 16 16 15 14 14 13 13 13 13 13 13 13 13 13 13 13 13 14 15 16 17 18 20 21 22 23 24 25 27 28 30 32 34 34 34 34 34 32 31 31 32 32 34
15 12 9 9 12 14 15 16 16 16 17 17 16 16 16 16 16 16 16 15 15 16 16 16 16 15 15 14 14 14 14 14 14 14 13 13 14 14 14 14 15 15 16 16 17 18 18 19 20 22 25 29 32 34 34 34 34 33 33 33 33 33 33
20 17 11 8 9 11 12 14 15 17 19 20 21 21 20 20 20 19 19 18 17 17 17 17 17 17 17 17 17 16 16 16 16 16 17 16 16 16 16 17 17 17 17 17 17 17 17 16 16 17 19 21 23 25 27 27 28 29 30 30 31 32 33
20 18 14 12 11 11 12 13 14 16 19 21 23 25 25 25 24 23 23 22 21 20 20 20 20 20 20 20 20 20 20 20 20 20 21 20 20 20 20 20 20 20 20 20 20 20 20 19 18 18 17 17 18 19 20 21 22 23 24 24 25 26 28
18 16 15 14 14 14 16 17 19 20 21 23 25 26 27 28 28 28 27 26 25 24 24 23 23 24 24 24 24 24 24 24 24 24 25 25 24 24 24 23 23 23 24 24 24 24 24 23 23 23 22 21 20 20 20 20 21 22 23 23 23 23 24
17 16 15 16 17 18 19 21 23 25 25 24 25 27 28 29 30 31 31 30 30 29 28 27 27 27 27 28 28 28 28 28 28 28 28 28 28 28 28 28 27 27 27 27 27 27 27 28 27 27 27 26 26 25 25 25 25 26 26 26 26 25 25
17 17 18 19 20 21 22 24 25 26 27 26 25 26 28 29 31 32 33 33 33 33 32 31 31 30 30 30 31 31 32 32 32 32 32 32 32 32 32 32 32 31 31 31 31 31 31 31 31 31 31 31 31 31 30 30 30 31 31 31 30 30 29
20 20 21 23 23 24 26 27 27 27 27 26 25 25 26 27 29 31 33 34 35 35 35 35 34 33 33 33 33 33 34 34 35 35 34 34 34 34 34 35 35 35 34 34 34 35 35 35 35 35 35 35 35 35 35 35 34 35 35 36 36 35 35
23 24 25 27 28 29 31 31 29 28 27 27 26 26 25 26 27 28 30 32 33 34 35 35 35 35 35 34 34 34 35 35 36 36 35 35 35 35 34 34 35 36 36 36 36 37 37 38 38 38 39 39 39 39 39 39 39 39 40 40 40 41 41
28 29 30 31 33 34 34 33 32 31 30 28 28 27 27 27 27 27 28 29 29 30 31 32 33 33 34 34 34 35 35 35 35 35 35 35 35 35 35 34 34 34 35 37 38 38 38 39 39 40 41 42 43 43 43 43 43 43 43 44 44 45 45

ECMWFFLT1_700_spd_093.txt.gz
Wind_Speed
33 33 31 29 26 24 23 24 24 24 24 23 22 21 21 21 20 20 19 19 19 18 17 16 15 14 14 14 15 15 15 14 13 11 10 10 10 10 9 9 8 7 7 7 7 6 6 5 5 6 5 5 5 5 5 6 6 6 6 6 6 7 7
33 33 32 30 27 25 24 24 24 24 23 23 22 21 20 20 20 19 18 17 18 18 18 17 15 15 15 15 15 16 16 15 14 13 12 11 10 10 10 9 9 8 7 7 6 6 6 6 6 6 6 6 5 5 5 6 6 7 6 6 7 7 8
33 33 33 31 29 26 25 25 25 24 24 23 23 22 20 20 18 17 16 15 15 16 17 17 16 15 16 16 16 16 16 16 15 15 14 12 11 11 10 10 9 9 8 7 6 6 6 7 6 6 6 6 6 5 5 5 6 7 7 6 7 8 8
30 31 33 33 30 28 26 25 25 24 24 24 23 21 19 18 17 17 15 14 14 14 15 15 15 16 16 17 17 17 17 17 16 16 15 14 13 13 12 11 10 10 9 8 7 6 7 7 7 7 7 7 7 6 6 6 6 6 6 6 7 8 8
31 28 31 34 33 30 29 27 25 25 24 24 23 21 20 19 19 18 17 16 15 14 14 15 15 16 16 17 18 18 18 18 18 17 16 16 15 14 13 12 12 11 10 9 8 8 8 8 8 8 8 8 7 7 7 7 6 6 6 6 7 8 8
34 32 31 34 36 34 32 29 26 25 25 24 23 22 22 22 21 20 18 17 16 15 15 15 15 16 16 16 17 18 19 19 19 19 18 18 17 16 15 14 14 13 12 11 10 10 9 9 10 10 9 9 8 8 8 7 7 6 6 6 7 7 8
27 33 28 28 33 35 34 32 29 27 26 26 25 25 25 24 23 22 20 18 17 16 16 16 16 16 16 16 16 17 17 19 20 20 20 20 19 18 17 16 15 15 14 13 12 11 11 11 11 11 11 10 10 9 9 8 7 7 7 7 7 7 7
18 23 18 17 23 26 27 28 27 26 26 26 26 27 27 27 26 25 23 22 20 19 18 18 18 18 18 18 17 17 17 18 19 20 22 22 21 20 19 18 17 17 16 14 13 13 12 12 12 12 12 12 11 10 10 9 8 7 7 7 7 7 7
18 19 15 13 16 18 19 20 21 23 24 24 25 26 27 28 28 27 26 25 24 22 21 20 19 20 21 21 21 20 19 19 19 19 21 22 22 21 20 20 19 18 17 16 15 14 14 14 13 13 13 13 13 11 11 10 9 9 8 8 8 7 7
19 19 20 19 19 19 19 19 19 22 23 24 25 25 26 27 27 27 27 26 25 24 23 22 22 22 23 23 23 23 23 22 21 20 21 21 21 21 21 21 21 20 19 18 17 16 15 15 15 15 14 14 14 13 12 11 10 10 9 9 9 8 8
20 20 21 21 21 22 21 20 19 20 21 21 23 24 24 25 26 27 27 25 24 23 23 24 25 25 24 23 23 24 24 24 23 22 21 21 21 21 21 21 22 22 21 20 19 18 17 17 16 16 16 15 15 14 13 13 12 11 11 10 10 10 9
17 18 19 19 19 20 20 21 21 20 20 20 21 21 22 23 25 25 24 23 23 23 24 27 28 27 28 26 24 24 26 26 25 24 23 22 21 20 21 21 22 22 22 21 21 20 19 18 18 17 17 17 16 15 15 15 14 12 12 11 11 11 11
14 15 15 16 16 16 18 19 19 18 19 20 20 20 19 20 22 23 22 21 21 22 24 27 27 27 29 28 25 24 26 28 27 27 26 24 23 22 22 22 22 22 22 22 22 21 20 20 19 19 19 18 18 17 17 16 16 14 13 13 13 12 12
13 13 14 14 15 16 17 16 14 14 16 18 19 19 19 20 21 22 22 21 21 22 24 25 26 26 28 27 26 26 27 28 30 29 28 27 26 25 24 23 23 23 22 23 23 23 22 21 20 20 19 19 19 19 19 18 17 17 15 15 14 14 14
13 13 13 13 13 14 13 11 10 13 15 17 18 19 19 20 20 21 23 22 23 25 25 26 26 26 27 27 26 26 26 27 29 30 30 28 26 26 27 26 25 24 23 23 23 23 22 21 21 20 20 20 20 20 20 20 19 19 18 18 17 16 15
13 13 13 13 12 11 9 7 9 12 14 16 18 18 18 19 21 23 24 24 23 25 26 27 27 27 26 26 25 25 25 26 28 29 31 29 25 24 26 27 27 25 23 23 23 22 22 22 21 21 20 20 20 20 20 21 20 20 20 20 19 19 18
13 13 12 12 11 10 8 8 9 12 15 17 19 19 19 19 21 22 22 21 21 22 24 24 25 25 26 27 27 27 27 27 27 28 30 29 26 26 28 28 27 24 23 23 23 22 22 22 22 22 21 20 20 20 20 21 21 21 21 21 21 21 20
13 13 12 11 11 11 10 10 11 13 17 19 19 20 21 21 22 20 17 17 18 20 21 21 21 21 23 25 27 26 25 25 25 25 26 27 28 30 32 29 26 24 22 23 23 23 23 22 22 23 22 21 20 20 21 21 21 21 22 22 22 22 22
13 12 11 10 10 10 10 10 11 13 17 19 19 19 20 21 21 20 17 16 17 17 18 18 19 19 20 21 21 22 22 22 23 24 26 29 30 32 32 30 26 24 24 24 24 24 23 23 23 23 23 22 21 21 22 22 22 22 23 23 23 24 23
11 10 10 9 10 11 10 9 9 12 16 19 18 17 18 18 19 18 18 17 15 15 15 15 15 16 17 17 17 18 19 21 22 22 23 25 27 28 30 29 26 24 24 25 24 23 23 24 24 24 23 22 21 21 22 22 22 23 23 23 24 24 24
10 10 10 10 10 10 9 8 8 10 14 17 17 15 15 15 15 15 16 16 15 14 14 13 13 13 14 15 16 16 18 19 19 18 18 19 22 24 26 26 24 24 25 25 24 23 24 25 25 25 24 23 22 23 23 23 23 23 23 24 24 24 25
9 9 9 9 9 9 9 10 11 12 13 16 18 17 15 14 14 14 14 15 16 15 14 14 13 14 15 16 15 15 15 15 15 16 17 18 19 19 21 22 23 24 25 24 23 23 25 25 25 25 26 25 23 23 24 24 24 24 24 24 25 25 25
6 6 6 6 7 8 9 11 12 11 10 11 14 16 16 14 14 13 13 15 16 16 17 18 17 16 16 16 16 15 14 13 14 15 17 18 17 17 18 21 22 22 22 22 21 21 23 24 24 25 26 25 23 23 24 25 25 25 25 25 25 25 25
4 3 2 3 5 7 9 11 11 9 9 10 9 11 14 15 14 14 14 14 15 15 17 19 19 19 18 16 15 15 14 13 12 11 13 15 16 16 18 19 20 20 20 20 20 21 22 22 23 24 24 24 23 23 24 25 25 24 24 25 25 26 26
6 5 5 5 6 6 7 8 8 7 10 12 10 9 11 13 14 16 16 15 15 15 16 19 20 20 20 19 18 17 15 14 13 12 11 11 11 12 14 15 16 17 17 18 19 20 20 21 22 22 21 21 21 22 23 25 25 25 25 25 26 27 28
9 9 7 7 7 6 5 7 9 8 7 8 9 9 10 9 11 15 16 16 17 18 18 19 19 18 18 20 20 19 18 18 16 14 13 12 12 13 14 15 15 16 17 18 18 19 21 22 21 21 20 20 20 21 21 22 22 23 24 25 26 27 28
8 10 8 7 6 6 5 6 8 8 7 7 8 8 8 8 10 13 15 16 16 17 18 18 17 16 16 19 20 19 18 18 17 16 16 14 14 15 16 16 17 17 18 18 18 19 22 21 19 19 21 22 22 22 22 22 22 22 23 24 25 27 28
7 8 7 7 6 6 6 6 6 6 6 7 7 7 7 7 8 10 13 13 11 11 13 14 14 14 14 15 16 16 16 15 15 16 16 14 14 15 15 16 16 16 17 17 17 18 19 18 15 16 19 21 22 24 24 25 25 25 25 25 26 26 27
6 6 6 7 7 7 8 8 6 6 5 6 7 7 7 6 6 7 9 11 10 9 8 9 10 11 11 10 10 11 12 14 14 13 12 12 13 13 13 13 13 13 14 14 14 15 15 15 14 15 16 18 20 21 22 23 24 25 26 26 27 27 27
5 4 4 7 8 9 11 10 9 8 7 6 7 7 7 7 7 7 8 10 11 12 10 9 8 9 9 9 9 9 9 12 12 10 10 12 12 12 11 11 10 10 10 11 11 11 11 11 11 12 12 14 15 15 16 17 18 19 19 20 20 21 21
5 4 5 6 8 11 12 12 12 12 11 9 9 9 8 8 9 8 8 9 10 11 11 11 10 10 10 11 11 10 10 10 10 10 10 11 11 11 10 10 9 9 9 10 10 10 11 11 11 11 11 11 12 12 12 12 12 12 12 11 11 11 13
4 5 5 6 9 11 12 12 12 12 12 11 11 11 10 10 10 10 10 11 10 11 11 12 12 13 12 12 12 12 12 11 11 11 11 11 11 11 11 11 10 10 10 11 11 11 11 12 12 12 12 12 12 12 12 12 12 11 11 10 9 9 10
6 6 7 8 10 12 12 13 12 12 12 12 12 12 11 11 11 12 12 13 14 14 14 14 15 15 15 15 15 15 15 14 14 14 13 13 13 12 12 12 13 12 12 12 12 12 12 13 13 13 13 13 13 14 14 14 14 13 13 13 12 12 12
8 8 10 11 12 14 14 14 13 13 12 12 12 11 10 9 9 10 11 12 14 15 17 17 18 18 18 18 18 18 18 18 17 17 17 16 16 15 15 15 15 15 15 15 15 15 15 15 15 15 15 16 16 16 17 18 18 17 17 16 16 16 16
9 10 11 14 16 17 18 17 16 15 13 12 12 11 9 9 8 8 9 10 11 13 15 17 18 20 20 21 21 21 21 21 21 20 20 19 19 19 19 19 18 18 18 18 18 18 18 18 18 18 18 19 19 19 20 21 21 22 21 21 20 20 20
10 11 12 14 18 20 19 19 19 17 15 14 13 12 11 11 10 10 10 10 11 12 13 15 17 18 20 21 22 22 23 23 23 23 23 23 23 22 22 22 22 22 22 22 21 21 21 21 21 21 22 22 22 23 23 24 24 25 25 25 25 24 24
12 11 12 13 17 20 21 20 20 18 17 17 16 16 15 15 14 14 14 13 13 14 14 15 16 17 18 19 20 21 23 24 24 25 25 25 25 25 25 25 25 25 25 25 25 24 24 24 24 24 24 25 25 25 26 26 26 27 27 28 28 28 28
14 13 13 14 16 19 20 19 18 18 17 17 17 18 18 18 18 18 18 17 17 16 16 16 17 17 18 18 19 19 21 22 23 24 25 25 26 26 27 27 27 27 27 27 27 27 27 27 27 27 27 27 27 28 28 28 28 28 28 28 29 29 30

ECMWFFLT1_700_spd_096.txt.gz
Wind_Speed
30 31 32 31 30 29 27 26 25 24 24 24 23 23 22 22 21 21 20 20 19 18 17 16 16 15 16 16 17 16 15 14 13 13 12 12 12 11 11 10 10 9 9 8 8 8 8 8 7 7 6 6 6 6 7 7 8 8 8 9 9 10 10
32 32 32 32 30 29 27 26 26 25 25 24 24 24 23 23 22 21 20 20 20 19 18 17 16 16 16 17 17 17 17 15 14 13 13 12 12 11 11 10 10 9 9 8 7 7 7 7 7 7 7 7 7 6 6 7 7 8 8 8 8 9 10
35 33 32 34 32 29 27 26 26 26 25 25 24 24 24 24 21 20 19 19 19 19 19 18 17 17 17 17 17 18 18 17 15 15 14 13 12 11 11 11 10 9 9 8 7 7 8 7 7 7 7 7 7 7 6 6 6 7 7 7 8 8 9
37 33 32 34 33 31 28 26 26 27 26 25 25 24 24 22 19 18 18 19 19 19 19 19 18 18 18 17 18 18 18 18 17 16 16 15 14 12 11 11 11 10 9 8 8 8 8 8 8 8 8 7 7 7 6 6 6 6 6 7 7 8 9
38 34 31 32 33 33 31 28 27 28 28 27 26 25 23 21 20 19 19 18 19 19 19 19 20 20 19 19 19 19 19 19 18 18 17 17 15 14 13 12 12 12 11 10 9 8 8 8 8 8 8 8 8 7 7 7 7 7 6 7 7 8 8
39 38 33 30 32 33 31 29 28 28 29 28 27 25 24 23 22 20 19 19 19 19 19 20 21 21 21 20 20 20 19 20 19 19 19 18 17 16 15 14 13 12 12 11 10 9 8 8 8 8 8 8 8 8 7 7 7 7 7 7 7 7 7
38 41 35 31 32 33 32 30 30 30 30 29 28 27 26 25 23 21 20 20 19 18 19 19 20 21 21 21 20 21 21 21 21 20 20 19 19 18 17 16 15 14 13 12 11 10 9 9 9 9 9 9 9 8 8 8 8 7 7 7 7 7 7
33 39 37 33 32 34 34 32 31 31 31 30 30 29 28 26 25 23 22 21 19 19 19 20 20 20 20 21 20 21 21 21 21 21 21 21 20 20 19 18 17 16 15 14 13 12 11 11 11 11 10 10 10 9 9 9 9 8 8 8 7 7 7
31 37 38 36 35 36 35 34 34 32 31 31 31 30 29 28 27 26 24 24 22 21 20 20 20 20 20 21 20 20 21 21 21 22 22 22 22 21 20 20 19 18 17 15 14 14 13 13 13 12 12 11 11 10 10 10 10 10 10 9 8 8 8
26 32 37 39 39 35 26 26 31 32 32 34 32 31 30 29 29 27 27 26 25 23 23 22 21 22 22 22 21 22 22 21 21 21 22 23 23 23 22 21 21 20 19 18 17 16 16 15 15 14 13 12 12 12 11 11 11 11 11 10 10 9 9
20 21 26 32 35 33 25 20 20 21 27 33 33 33 33 32 32 31 29 29 27 26 26 26 25 24 24 24 24 24 24 23 22 22 22 22 23 24 24 23 22 21 20 20 19 19 17 17 16 15 14 14 13 13 13 13 12 11 11 11 11 10 10
21 19 19 20 21 24 27 27 20 16 21 29 32 33 34 35 35 34 33 33 32 31 30 29 29 27 25 25 25 25 25 24 24 23 22 22 23 23 24 24 24 23 22 22 22 21 20 18 18 17 16 16 15 15 14 14 13 13 12 11 11 11 11
23 22 21 23 23 22 20 21 22 20 20 24 28 28 29 33 35 35 37 36 35 34 33 31 31 29 27 27 26 25 24 24 25 25 24 23 22 22 23 24 24 23 23 24 23 22 22 21 20 18 17 17 17 17 16 16 15 14 13 12 12 12 11
21 23 23 24 24 24 22 20 21 22 21 22 24 23 24 28 31 33 35 35 33 33 32 32 32 31 30 28 27 25 25 24 25 26 26 24 23 22 22 22 23 23 23 23 23 23 23 22 21 20 19 18 18 18 18 17 17 16 15 13 13 13 13
18 20 22 23 23 21 21 20 21 23 25 25 25 25 26 27 26 29 31 31 29 29 29 30 30 29 29 28 27 27 26 26 26 26 26 25 25 24 23 22 23 23 23 23 22 22 23 23 22 21 20 20 19 19 19 19 18 18 17 16 15 14 14
18 19 20 20 19 18 19 19 19 21 24 25 25 26 26 25 22 22 22 22 24 25 27 28 28 27 27 26 26 27 27 27 26 26 26 26 25 25 25 25 24 24 25 24 24 23 23 23 22 22 21 20 20 20 20 20 20 19 18 18 17 16 16
19 20 18 17 16 16 18 18 18 19 20 22 24 23 22 23 24 22 19 19 22 24 25 26 26 26 26 26 26 27 27 27 27 27 28 28 27 27 26 26 26 27 27 27 26 25 23 23 23 22 22 21 21 20 20 21 21 20 19 19 19 18 17
18 18 15 14 15 16 16 16 16 17 18 19 21 20 20 24 28 29 27 25 26 26 26 26 26 25 25 26 26 26 26 26 28 29 30 30 30 29 28 28 29 30 30 29 28 27 25 24 24 23 22 21 21 20 21 22 22 20 20 21 20 19 19
15 14 13 14 15 15 15 15 15 15 16 17 18 19 20 22 26 28 28 28 27 27 27 27 26 25 25 25 25 26 26 27 28 29 30 30 30 31 30 31 32 33 33 31 29 28 27 26 25 23 22 22 21 21 22 22 21 21 21 21 21 21 20
14 13 15 15 15 15 15 15 15 16 17 17 18 19 19 20 23 24 25 25 25 25 25 25 25 24 24 24 24 24 25 27 28 28 28 29 30 31 31 31 32 35 37 36 33 29 27 28 26 24 23 22 21 22 23 22 20 21 22 22 22 21 21
14 14 15 15 14 14 15 15 16 17 18 17 16 15 15 18 21 23 24 24 23 23 23 23 23 23 23 23 22 22 23 24 24 24 25 26 28 28 29 30 31 32 33 35 35 31 28 28 27 24 24 24 23 24 24 22 20 22 22 22 22 22 21
14 15 15 14 13 13 14 15 17 18 18 17 15 14 14 14 17 20 23 24 23 22 22 22 22 22 22 21 21 21 22 21 21 21 22 23 23 24 26 28 29 31 32 33 34 32 29 28 26 25 25 25 24 25 24 21 21 22 23 23 23 22 22
17 16 15 13 13 13 14 14 16 18 18 17 16 16 16 15 15 16 18 20 21 21 21 21 22 21 20 20 20 21 20 19 18 18 18 19 19 20 21 22 24 29 32 33 33 32 29 27 25 24 24 24 24 25 25 22 22 23 23 23 23 23 23
17 16 14 13 13 13 14 15 16 17 18 16 15 16 18 18 18 16 15 16 18 19 19 19 20 20 19 18 19 19 18 18 17 15 14 15 16 17 18 18 21 25 27 29 32 32 29 26 25 25 25 25 25 25 24 23 23 23 23 24 24 24 24
16 15 14 14 14 13 13 14 15 15 15 13 12 13 16 18 19 18 16 16 18 18 17 16 17 19 18 17 18 18 17 18 16 14 13 13 15 17 16 16 20 23 23 24 27 28 27 27 27 27 26 24 24 24 23 23 24 24 25 25 25 25 24
13 12 12 14 15 13 11 12 13 13 13 13 11 11 12 14 15 16 16 16 15 15 15 16 17 19 18 17 17 16 17 18 15 13 13 13 14 17 17 17 18 19 19 21 23 23 25 27 27 25 24 22 22 23 23 24 24 25 25 25 25 25 24
8 10 11 11 11 10 9 10 11 12 13 14 12 11 12 13 12 13 15 16 15 15 16 16 17 19 19 19 18 17 19 19 16 16 18 16 16 17 18 18 18 16 16 20 23 24 27 28 25 23 22 22 23 23 23 23 23 22 22 22 22 22 22
10 10 10 10 10 10 9 10 11 11 12 13 12 11 12 13 12 13 14 14 13 14 15 16 16 17 17 18 19 20 20 19 18 20 21 19 18 19 19 18 18 18 17 17 19 21 22 18 17 19 21 22 23 23 22 23 22 22 22 21 21 21 21
11 11 10 11 12 12 11 10 10 10 10 12 12 11 11 12 11 12 13 12 11 11 11 13 15 15 14 15 17 20 19 17 18 20 21 20 19 19 20 19 18 18 17 16 16 17 15 11 12 16 19 20 22 22 23 24 24 24 24 24 23 23 23
9 9 11 12 12 12 12 12 11 11 10 11 12 11 11 11 11 10 11 11 11 10 9 10 11 13 12 12 14 16 15 15 16 17 19 20 20 19 20 20 19 18 17 16 15 15 14 13 13 15 17 19 20 20 21 21 22 22 22 21 21 21 21
9 9 10 11 12 13 14 14 13 13 12 12 11 11 11 11 10 10 10 10 11 10 10 10 10 10 10 10 11 12 12 13 13 13 14 16 17 19 19 19 18 17 17 16 15 14 14 14 13 14 16 17 18 18 17 17 17 18 17 17 16 16 16
8 7 8 10 13 14 15 15 15 15 14 13 13 13 12 12 12 11 11 11 12 11 12 11 11 10 10 10 11 11 11 11 11 12 13 13 12 14 15 14 13 14 14 14 15 15 15 15 14 15 15 16 16 16 15 15 15 14 14 13 12 12 12
8 7 9 10 13 15 15 15 16 16 15 15 15 14 14 14 14 13 13 13 14 14 13 13 12 12 12 12 12 12 12 11 11 12 13 12 11 10 11 11 11 11 12 14 15 15 15 15 15 15 14 15 15 15 15 15 14 13 13 12 12 12 12
10 10 10 10 12 15 17 17 17 17 17 17 17 16 16 15 15 15 15 15 15 15 16 16 15 15 14 14 14 14 13 14 14 14 14 14 13 12 12 12 12 12 13 14 14 14 14 14 14 14 14 14 14 14 14 14 13 12 12 13 13 13 13
11 11 11 11 12 14 17 19 20 19 20 20 19 19 18 17 16 15 14 14 14 14 15 16 17 18 18 18 17 17 17 17 17 17 17 17 16 16 15 15 15 15 16 16 16 15 15 15 14 14 15 15 15 15 15 15 14 14 14 15 15 15 16
14 13 14 14 14 14 15 18 20 22 23 23 23 23 21 19 18 16 14 13 12 11 12 13 14 16 18 19 20 20 21 21 20 20 20 20 20 20 19 19 19 19 19 19 19 19 18 18 17 17 18 18 18 18 18 18 17 17 18 18 18 19 19
16 16 16 16 16 16 16 17 20 22 23 24 24 23 23 21 20 18 16 14 13 13 13 13 13 15 16 17 18 20 21 22 23 23 23 23 23 23 23 23 23 23 23 22 22 22 22 21 21 21 21 21 21 21 21 21 20 21 21 22 22 22 22
18 18 17 17 17 18 18 19 21 22 24 25 25 24 23 23 22 21 20 18 17 17 16 15 15 16 16 17 17 18 19 21 22 23 24 25 25 26 26 26 27 26 26 26 25 25 25 25 24 24 24 24 24 24 24 23 23 24 24 24 25 25 25

ECMWFFLT1_700_spd_102.txt.gz
Wind_Speed
33 33 32 31 29 28 27 25 25 25 25 24 23 23 21 19 19 18 17 16 14 15 16 16 16 17 16 15 14 13 12 11 11 11 10 10 10 8 8 7 7 7 6 6 6 5 6 5 5 4 4 4 4 4 4 4 5 6 6 6 7 7 7
37 35 34 32 31 30 28 26 26 26 25 24 24 23 22 21 19 18 17 16 16 15 15 16 17 16 16 16 15 14 13 12 12 11 10 10 9 8 8 7 6 7 6 5 5 5 6 6 5 5 5 5 5 4 4 4 5 5 6 6 6 7 7
39 38 36 33 32 31 29 28 28 27 25 24 24 23 23 23 20 19 17 17 17 16 16 17 17 17 16 16 15 14 14 13 12 11 10 10 9 8 9 8 7 8 7 6 6 6 5 5 5 5 6 5 5 5 5 5 5 5 5 6 5 6 7
40 39 37 33 31 31 30 29 29 28 26 25 25 23 23 23 20 19 18 17 17 17 16 17 17 17 17 16 15 15 15 14 13 12 12 11 10 10 9 9 8 8 7 7 7 6 5 5 6 6 6 6 6 5 5 5 5 5 5 5 5 5 6
39 40 38 35 34 33 31 30 29 28 27 25 24 23 23 22 20 20 19 18 18 18 17 17 17 18 17 16 16 15 15 15 14 14 13 12 11 11 10 10 9 8 8 8 7 6 6 6 6 6 6 6 6 6 6 6 6 6 5 5 5 5 5
35 40 40 38 37 35 33 32 29 28 26 24 24 24 23 22 20 20 20 19 19 19 19 19 19 19 18 17 17 16 16 15 15 15 14 13 13 12 11 10 9 8 8 8 7 6 7 6 6 6 6 6 7 7 6 6 6 5 5 5 5 4 4
32 39 40 39 39 38 36 34 30 27 26 25 25 25 23 22 22 21 20 20 20 20 20 21 21 20 19 18 17 17 17 16 16 16 16 15 14 13 12 11 10 8 9 9 8 8 8 8 7 7 7 7 7 7 6 6 6 5 5 5 4 4 4
28 33 38 40 40 40 40 36 31 29 28 28 26 24 23 22 22 22 21 21 20 20 20 21 21 21 19 19 18 17 17 16 16 17 16 16 16 15 14 12 11 10 10 10 9 9 9 9 8 8 8 8 8 8 7 7 7 6 6 5 4 5 5
23 28 37 42 41 39 37 34 32 31 31 30 28 26 26 26 26 24 23 22 22 21 20 20 21 20 20 20 19 18 17 17 16 16 17 17 17 17 16 15 14 13 12 11 11 11 11 10 10 9 9 9 8 8 7 8 8 8 7 6 5 6 6
17 24 32 36 36 35 35 34 32 31 30 29 28 27 28 28 26 24 22 22 22 22 22 21 21 21 21 20 20 19 18 18 18 17 17 17 17 17 17 17 16 15 15 14 13 13 12 12 12 11 11 10 10 9 8 8 9 9 8 7 7 8 7
16 20 23 27 30 31 33 34 32 29 28 27 25 24 24 23 21 21 21 20 20 21 21 22 22 21 22 21 21 21 20 19 19 18 18 17 17 17 17 18 18 17 17 16 15 15 15 14 13 12 12 12 11 10 10 9 9 10 10 9 9 9 9
16 17 16 23 31 30 29 32 32 28 27 26 25 24 23 21 20 21 21 20 20 21 21 21 21 22 22 22 22 22 21 20 20 19 19 18 18 18 18 18 18 18 18 17 17 17 17 16 15 14 13 12 12 12 11 11 11 10 10 10 10 10 10
15 16 15 20 29 30 28 31 32 30 28 27 26 25 21 20 21 21 19 19 20 21 21 21 22 22 22 22 22 22 21 20 20 20 20 19 19 19 19 18 18 18 18 18 17 18 18 18 17 16 14 14 14 13 13 13 12 12 11 11 11 11 10
15 17 17 19 25 28 27 28 30 31 32 30 28 25 22 21 22 22 21 20 20 21 21 22 21 20 21 22 22 22 21 20 20 20 20 20 19 19 19 19 19 19 19 19 18 17 18 18 18 18 16 15 15 15 15 15 14 13 12 13 12 12 12
15 15 16 18 21 24 25 25 25 27 28 28 25 24 22 22 23 24 23 22 21 21 22 22 22 21 21 22 23 23 22 22 22 22 22 21 21 20 19 19 20 20 21 21 19 18 18 18 18 19 17 16 16 16 16 16 15 14 14 14 14 14 14
14 14 15 18 20 22 23 23 23 22 21 22 22 22 21 21 22 24 25 24 24 25 26 25 25 25 25 24 24 25 25 24 24 24 24 24 23 22 22 21 22 22 22 22 21 20 20 19 18 18 18 17 16 16 17 17 17 17 16 15 15 15 15
16 15 15 17 19 21 22 23 23 21 20 21 22 22 21 20 19 21 24 25 26 27 28 28 28 28 28 28 28 28 28 27 27 26 26 26 26 26 26 25 25 25 25 24 24 23 22 20 20 19 18 17 16 17 19 19 17 18 17 16 16 15 15
16 15 14 13 14 16 17 18 19 20 21 24 25 24 23 21 21 22 24 24 25 26 28 31 32 32 32 33 33 33 33 32 30 30 29 29 29 29 28 28 28 28 28 28 28 27 26 24 22 22 21 20 19 20 22 20 17 18 19 18 17 17 16
15 13 12 13 13 14 16 16 18 20 22 25 26 26 25 23 24 24 23 23 23 24 26 28 29 30 32 34 36 36 36 35 34 33 33 33 33 32 32 32 31 31 31 31 31 31 30 27 26 26 26 25 23 22 22 22 20 19 20 19 19 18 18
11 11 15 17 15 16 18 18 19 20 21 22 24 25 24 23 24 23 22 22 23 23 24 25 25 27 30 32 34 35 36 37 36 36 35 35 36 36 35 35 36 36 35 35 35 34 33 31 30 30 29 28 26 24 23 23 23 22 22 21 19 18 19
9 11 17 18 16 18 20 19 19 20 21 22 23 24 25 25 25 24 23 24 25 26 27 27 26 27 26 26 28 30 33 35 36 37 37 37 37 36 36 36 36 37 36 37 37 36 34 33 33 33 32 31 30 28 25 25 26 25 24 23 21 19 20
9 12 15 17 17 19 21 22 22 23 23 23 24 25 27 27 26 25 26 26 27 29 29 28 26 25 23 22 22 24 26 29 30 32 33 34 35 34 34 34 34 34 34 35 36 35 35 36 36 35 35 34 34 33 29 28 29 28 26 25 23 22 22
13 15 16 17 17 18 21 23 24 25 26 26 27 27 28 28 28 28 28 28 29 30 30 28 26 26 25 23 22 23 24 25 26 26 28 30 32 33 33 33 33 33 33 34 33 32 34 36 36 35 35 36 38 37 34 30 30 30 28 26 25 24 24
18 17 15 14 12 13 17 21 21 23 25 24 24 25 27 27 27 27 27 27 28 28 28 27 27 28 29 28 27 27 27 26 26 26 26 26 28 30 31 31 30 30 30 30 29 30 32 34 34 34 35 37 38 38 37 33 31 31 30 27 25 25 25
16 13 9 8 8 9 12 16 18 21 23 21 18 18 22 23 24 25 26 26 26 27 27 27 28 29 29 28 26 25 24 25 26 26 25 25 27 29 29 27 26 25 24 25 26 27 29 31 33 33 33 34 35 34 32 32 32 32 32 29 26 25 26
13 10 7 8 9 11 12 13 15 17 20 20 17 16 17 19 20 22 22 22 23 24 24 26 27 27 27 24 22 20 20 21 22 23 24 26 29 30 29 26 24 22 21 22 24 25 26 29 32 32 29 27 27 26 25 28 31 30 30 30 28 27 26
13 12 11 10 10 12 13 13 14 15 17 18 18 17 17 19 20 20 21 20 20 20 19 20 20 21 22 21 20 18 17 17 18 20 22 26 28 28 26 24 23 21 20 21 22 23 24 24 21 20 19 18 21 23 22 25 29 29 29 30 28 26 26
11 12 12 10 8 9 10 11 12 12 13 15 17 18 19 20 19 18 18 18 19 19 18 16 15 15 15 16 16 14 13 14 16 17 21 25 26 24 22 22 23 21 19 20 21 21 23 23 18 15 17 19 20 21 21 22 26 28 28 28 25 23 24
6 9 10 9 9 9 9 9 9 9 10 11 13 16 18 18 16 14 13 14 16 18 19 17 16 14 12 12 13 12 12 13 15 17 20 23 21 18 19 21 22 21 19 19 20 19 20 23 23 23 23 23 21 20 20 22 25 26 25 25 24 24 25
1 4 6 7 8 10 9 8 8 8 9 10 10 12 14 14 13 12 11 11 12 14 16 17 16 16 14 12 12 13 13 14 15 17 18 17 15 14 18 21 21 21 18 18 19 21 20 20 20 20 22 22 21 21 20 21 25 26 25 26 26 26 26
0 3 5 6 8 9 9 10 9 9 9 9 9 9 10 11 12 11 11 10 10 11 12 12 13 14 14 13 13 14 14 13 14 15 15 14 14 16 18 20 21 21 20 18 18 20 21 21 20 19 21 23 23 22 20 21 24 24 23 25 27 27 27
4 4 6 8 10 10 10 11 11 10 9 9 9 9 10 10 11 10 10 10 10 10 9 9 10 10 11 12 11 11 11 11 11 11 12 13 15 16 17 19 19 20 20 19 18 19 20 22 23 23 24 26 27 24 21 21 22 21 21 23 24 25 25
6 6 7 7 9 10 10 11 11 10 10 11 11 12 12 12 11 10 10 10 10 10 9 9 9 9 9 10 10 9 10 11 10 9 10 11 12 13 14 15 15 16 17 17 18 19 20 22 24 24 26 28 28 26 23 22 20 19 19 20 21 21 21
9 9 8 7 8 10 10 10 11 11 12 12 13 13 13 13 12 11 11 10 10 11 10 10 10 9 9 10 11 11 11 12 12 11 10 11 10 10 11 11 10 10 13 15 16 17 19 20 21 22 23 25 26 26 24 19 15 13 14 16 17 17 17
10 11 10 9 10 11 11 11 12 13 14 14 14 14 14 13 13 12 12 11 11 12 12 11 11 11 12 12 12 13 14 14 14 14 13 13 12 10 11 11 10 9 10 11 11 13 15 16 18 20 21 22 24 26 23 16 13 12 13 15 16 16 15
12 13 13 13 13 13 13 14 14 14 15 16 16 16 16 15 15 14 14 13 13 13 13 13 13 13 14 14 14 15 15 15 15 15 15 15 15 14 14 14 12 11 12 11 11 11 12 12 14 16 16 17 21 22 17 12 12 13 14 16 17 16 17
13 14 15 15 16 15 15 16 16 17 17 18 19 19 19 18 18 17 16 16 16 16 15 16 16 16 17 17 18 18 18 17 16 17 17 17 16 16 17 17 16 15 15 14 14 14 13 13 13 13 13 13 15 15 13 12 13 14 15 16 17 17 18
14 15 16 17 18 17 17 17 18 19 19 20 21 21 21 21 21 20 20 19 19 20 19 19 19 19 18 18 19 19 19 18 17 17 18 18 18 18 18 19 19 19 18 18 18 18 17 17 16 16 16 16 15 15 15 15 16 16 17 17 18 18 19

ECMWFFLT1_700_spd_105.txt.gz
Wind_Speed
34 32 31 30 29 29 31 31 28 24 22 22 22 20 18 17 17 16 15 14 13 13 14 15 14 14 12 12 11 10 10 9 9 10 9 8 8 8 7 6 6 6 5 4 4 4 4 4 3 3 3 3 3 4 4 5 5 5 5 5 5 5 5
36 34 32 29 28 29 30 30 29 26 23 23 23 21 19 16 16 17 15 14 13 13 13 14 14 14 13 12 12 11 10 9 9 9 9 8 8 8 7 7 6 6 6 5 4 3 4 4 3 3 3 3 3 3 4 4 4 4 5 5 5 5 6
37 36 34 30 28 29 28 29 29 27 25 24 24 23 20 16 15 16 15 14 14 13 13 14 14 14 13 13 12 12 11 10 9 9 8 8 8 8 8 7 6 6 5 4 3 3 3 3 3 3 3 3 3 3 3 3 3 3 4 4 4 5 5
37 36 34 30 28 28 28 28 28 28 26 25 24 23 21 18 15 15 15 14 14 14 13 13 14 14 14 13 12 12 12 11 10 10 9 9 9 8 7 6 6 5 4 4 4 3 3 3 3 3 3 3 3 3 3 2 2 3 3 3 4 4 4
36 37 35 32 30 30 29 28 28 28 26 25 25 23 22 20 17 16 15 15 15 14 14 14 14 15 14 14 13 13 13 13 12 11 11 10 10 8 6 5 5 4 3 3 3 3 3 2 2 3 3 3 2 2 2 2 2 2 2 3 3 3 3
33 36 37 36 35 33 31 30 29 29 27 25 24 24 23 21 20 18 17 17 16 16 16 15 15 15 15 15 14 14 14 14 14 13 12 11 10 8 7 6 5 4 4 4 3 2 2 2 2 2 2 1 2 2 2 2 2 2 3 3 3 3 3
29 37 41 40 38 35 33 32 33 33 31 30 27 26 25 23 21 19 18 19 18 17 16 16 16 16 15 15 15 14 14 14 14 14 13 12 11 9 8 7 6 5 5 5 4 4 4 3 3 3 1 1 2 2 2 2 2 3 3 3 3 3 3
28 37 40 39 38 37 35 35 35 35 33 33 31 29 27 26 23 20 19 20 19 18 17 17 17 17 16 16 15 15 14 14 14 14 14 13 12 11 10 9 8 7 6 6 6 5 5 4 4 3 2 2 2 2 2 3 3 3 3 4 4 3 3
24 28 31 36 39 40 39 37 36 34 33 32 31 28 28 27 25 22 21 21 21 20 19 18 18 17 17 17 16 15 15 15 15 14 14 14 14 13 12 10 10 9 8 8 7 6 6 5 4 4 4 3 3 3 3 4 4 4 5 5 5 4 4
19 20 25 33 39 39 39 37 35 34 33 32 29 27 27 26 23 21 21 22 22 20 19 19 18 18 18 18 17 17 16 16 15 14 14 14 14 14 13 12 12 11 10 9 8 8 7 7 6 5 5 5 4 4 4 5 5 5 5 6 6 6 5
18 20 23 29 35 38 39 39 37 35 33 30 27 27 26 25 23 21 20 21 21 20 19 19 18 18 19 19 19 19 18 17 16 15 15 14 13 13 13 14 13 13 12 11 11 11 10 9 8 8 7 6 6 6 6 6 6 6 6 7 7 7 7
20 21 23 26 31 37 40 39 38 35 33 30 29 27 25 24 23 21 20 20 20 19 19 19 18 18 18 19 20 19 19 18 17 16 15 15 14 13 13 13 14 14 14 14 14 14 13 12 11 11 10 8 8 9 8 8 8 8 8 8 8 8 8
20 21 22 24 28 35 38 37 35 34 33 32 30 28 26 26 25 22 21 22 21 19 19 19 19 18 18 19 20 20 19 19 18 17 16 16 15 14 14 14 15 15 15 16 15 15 15 15 14 13 13 12 12 12 10 10 10 10 10 10 9 9 9
17 21 22 22 24 30 35 34 33 34 35 33 31 29 28 27 24 21 21 21 21 21 20 19 19 19 19 19 19 20 19 18 17 17 17 17 17 16 15 16 16 16 16 17 16 16 16 16 16 16 15 15 15 14 13 13 12 12 12 11 11 11 11
14 18 20 18 19 24 31 34 34 34 36 34 30 28 26 25 23 22 22 24 25 24 22 21 21 20 20 19 19 20 19 18 18 17 17 18 18 17 16 17 17 17 17 17 16 16 16 16 17 17 17 16 16 16 17 16 15 13 13 13 13 13 12
11 11 12 13 14 18 22 26 30 33 34 33 31 29 28 27 27 25 25 27 27 25 22 22 23 23 23 23 23 22 21 21 20 20 19 19 19 18 17 17 17 17 16 16 16 16 16 16 16 17 17 17 17 17 18 17 16 14 14 14 14 14 13
9 7 6 8 11 14 16 19 23 28 29 30 31 31 30 30 29 27 25 26 26 25 23 22 23 23 23 23 22 21 20 20 20 20 20 20 20 19 19 18 18 18 17 17 17 17 17 18 18 18 18 19 20 19 18 17 16 15 15 15 16 15 14
11 9 8 8 10 13 16 17 18 21 22 25 26 26 26 26 26 25 24 23 24 23 21 21 22 23 23 21 21 22 22 20 20 20 21 22 23 22 21 20 20 20 20 20 21 21 21 21 22 22 22 22 23 22 20 17 17 16 15 16 16 16 16
14 12 10 10 12 13 15 16 18 19 20 23 24 25 25 25 25 24 23 22 23 22 20 21 23 24 24 22 21 22 22 21 21 23 24 25 25 25 23 22 22 22 22 23 23 23 24 25 26 26 26 26 26 25 23 21 19 18 17 16 17 17 17
14 15 13 13 14 14 14 16 17 18 19 21 23 24 24 25 25 24 23 23 24 24 24 23 24 24 23 22 22 23 24 24 24 26 27 28 28 28 26 24 24 24 25 25 25 26 27 28 29 29 30 31 30 29 27 25 23 22 20 18 18 18 17
15 15 15 15 17 17 17 16 16 16 16 18 20 21 21 23 24 23 23 24 24 25 24 24 24 25 25 25 24 24 24 23 24 26 28 28 29 30 29 28 27 28 28 28 29 30 30 30 31 33 34 35 34 33 32 30 27 26 24 22 20 19 19
16 16 16 16 17 18 17 16 15 15 15 15 17 18 19 20 21 22 21 21 20 20 19 20 22 23 23 23 23 22 22 22 22 22 23 25 27 28 29 30 30 30 30 30 30 31 31 31 31 32 33 34 33 34 35 34 31 29 28 25 23 23 24
16 17 18 16 14 13 13 13 13 14 14 14 15 17 18 18 20 20 20 19 17 16 16 18 20 22 23 23 23 24 24 23 20 18 17 19 20 22 24 25 27 28 29 30 30 30 30 30 31 32 33 33 33 32 33 33 33 32 31 29 28 28 29
14 12 13 13 11 10 11 12 13 14 14 14 15 17 18 18 19 20 20 19 19 19 20 22 23 24 24 25 25 25 24 24 22 20 18 18 19 20 21 21 22 24 25 26 26 26 27 28 30 32 33 32 30 30 30 31 32 33 34 34 33 32 31
11 7 6 6 5 5 7 8 10 12 14 16 18 19 20 21 21 22 23 23 23 24 24 24 24 24 25 25 25 24 24 25 26 24 22 20 20 21 21 20 20 21 22 21 21 20 22 24 26 29 30 29 27 26 27 29 31 33 34 35 37 36 31
8 5 4 4 2 3 4 5 6 9 11 14 16 18 19 20 21 22 23 23 23 23 22 22 23 23 24 25 25 25 26 26 26 25 23 21 20 20 20 19 20 21 21 20 19 20 22 23 25 27 27 27 26 26 26 28 30 31 33 35 39 40 35
8 5 3 2 3 3 4 5 7 8 9 11 12 14 15 16 17 18 19 19 19 19 19 19 20 20 20 20 21 22 24 25 24 23 22 21 20 19 18 17 17 18 19 20 21 23 24 25 26 26 26 28 28 27 25 24 26 28 31 33 34 35 36
8 8 7 6 5 5 6 7 8 8 9 10 11 12 12 12 13 14 15 15 15 16 16 15 15 16 15 14 13 15 17 20 21 21 21 22 20 18 17 15 15 17 19 21 23 24 24 25 24 23 23 23 19 15 14 16 22 26 28 27 26 27 32
6 7 7 6 6 5 5 5 6 6 7 9 10 10 10 11 11 11 10 10 11 11 11 11 12 14 13 11 10 10 11 14 16 17 19 20 19 18 17 15 14 16 18 20 22 22 23 24 22 20 18 15 11 13 14 16 21 24 24 22 22 24 28
3 3 3 4 4 4 3 3 3 4 5 7 8 8 9 9 8 7 6 6 7 8 7 7 9 11 13 13 11 10 11 12 14 16 17 17 17 17 17 15 15 17 18 19 22 22 22 22 20 17 15 13 13 16 19 20 22 20 19 19 20 22 25
3 2 2 2 2 2 2 3 4 4 5 6 7 7 7 6 5 5 5 5 6 6 6 6 7 8 10 12 12 12 12 13 14 15 17 17 16 16 16 16 17 18 19 19 20 21 21 22 20 16 15 14 14 15 18 21 20 17 17 18 20 21 23
2 2 2 2 1 2 2 3 5 5 6 7 7 7 6 5 5 5 5 5 5 6 5 5 6 6 8 9 10 11 12 12 11 12 13 13 13 14 17 17 18 18 18 19 19 19 19 20 20 18 16 15 15 15 17 20 18 15 15 18 21 23 24
2 2 2 3 3 2 3 4 4 5 7 7 8 8 8 7 7 6 6 6 5 6 5 5 5 5 6 7 8 8 8 9 8 8 8 9 10 12 13 15 16 17 17 16 16 16 16 17 18 18 17 16 15 15 14 15 15 15 16 17 18 20 22
3 2 2 3 3 3 4 5 5 6 7 7 8 9 9 9 9 9 8 8 7 7 7 6 6 6 6 7 7 6 7 9 8 7 7 8 9 9 9 9 10 12 12 11 10 11 12 13 14 14 15 15 14 13 13 13 12 14 17 18 18 18 18
4 4 5 5 4 4 5 7 8 9 10 10 10 10 10 10 10 10 10 10 10 10 9 9 9 8 7 8 8 7 8 10 10 10 9 10 10 10 10 10 10 10 10 10 9 10 10 10 11 11 11 12 12 12 13 13 13 14 16 19 20 19 17
6 7 8 8 8 7 7 8 9 11 12 12 12 12 12 11 11 11 11 12 12 12 12 12 11 10 10 10 9 9 10 11 12 11 11 12 12 12 12 11 12 12 12 11 11 12 11 11 10 11 10 10 9 10 11 12 11 11 12 13 14 16 16
8 9 10 11 11 11 10 10 11 12 13 14 14 14 14 14 14 14 14 14 14 14 14 14 13 13 13 13 12 12 12 13 13 12 11 11 12 13 14 13 13 13 13 13 14 14 14 13 12 12 12 10 9 8 8 8 8 7 9 12 14 17 19
9 10 11 12 13 13 12 12 13 13 14 14 15 15 16 16 16 16 16 16 17 17 18 17 17 16 15 16 16 15 14 14 14 13 12 12 11 12 13 13 13 13 14 15 16 16 17 17 16 16 15 14 13 11 10 9 8 9 11 13 16 20 21

ECMWFFLT1_700_spd_108.txt.gz
Wind_Speed
36 34 33 31 30 30 28 26 24 22 21 21 21 21 20 20 21 20 19 18 17 17 16 15 15 14 13 12 12 12 11 11 10 9 10 10 9 8 8 8 7 6 6 6 6 6 6 6 5 4 4 4 5 5 5 6 6 7 7 7 8 8 7
40 37 36 34 32 32 31 28 26 24 23 21 21 21 20 20 21 20 18 18 17 17 16 15 15 14 14 13 12 11 11 10 9 9 9 9 9 8 8 8 7 6 6 6 6 6 6 6 5 5 4 4 4 4 4 5 5 6 7 8 7 7 7
42 41 39 36 35 34 33 31 28 26 24 23 23 22 20 20 21 20 18 18 18 17 17 16 16 15 15 14 13 11 11 10 9 8 9 9 9 9 9 8 7 7 7 7 6 6 5 5 5 5 5 4 4 4 4 4 5 5 6 7 7 7 7
40 42 41 38 36 36 35 33 30 28 27 25 24 22 19 19 20 20 19 18 17 17 16 16 16 16 16 15 14 13 11 11 10 9 9 10 10 10 8 7 7 7 7 7 7 6 5 5 5 5 5 5 4 4 4 4 4 5 5 6 6 7 7
40 41 42 40 38 37 36 34 33 31 30 27 25 23 20 18 19 20 20 18 17 17 16 15 16 16 17 17 15 14 13 12 11 10 10 10 10 9 8 7 7 7 7 7 7 6 6 6 5 6 6 5 5 5 5 5 5 5 4 5 6 6 6
40 41 43 43 40 39 38 35 33 33 32 30 27 25 23 19 19 20 20 19 18 18 17 16 16 16 17 17 16 16 15 14 13 12 12 11 11 10 9 8 8 8 7 7 7 6 6 6 5 5 6 6 6 6 6 6 6 5 5 5 5 6 6
37 41 43 44 43 40 38 36 34 34 34 32 29 26 25 22 20 21 21 19 18 19 19 18 17 16 16 17 17 16 16 16 15 14 14 13 12 11 11 10 9 9 8 7 7 7 7 7 6 6 6 6 6 6 6 7 6 6 6 6 6 6 6
28 38 41 43 43 42 39 37 35 35 34 33 30 28 27 24 23 23 23 22 20 19 19 19 17 17 16 17 17 17 16 16 16 16 15 14 14 13 12 11 11 10 9 8 8 8 8 7 6 6 6 6 7 7 7 7 7 6 6 6 6 6 6
20 30 38 41 43 42 40 39 38 36 35 34 32 30 29 27 25 24 24 24 23 21 20 20 19 18 17 17 17 17 17 17 17 16 16 15 15 14 13 13 12 12 10 9 9 9 8 7 7 7 7 7 6 6 7 7 7 7 7 7 7 6 6
14 20 29 37 43 44 43 42 40 38 37 36 33 31 29 28 27 25 24 24 24 23 21 20 19 19 19 18 18 17 17 17 17 17 16 16 16 15 15 14 13 12 12 11 10 9 9 9 8 8 7 7 7 7 7 7 7 8 8 8 8 8 8
11 14 18 25 35 43 45 44 40 38 38 36 34 32 30 28 27 25 25 24 24 23 22 21 21 20 20 20 19 19 18 17 17 16 16 15 15 15 15 15 14 13 13 12 12 12 12 11 10 9 9 9 9 9 9 8 8 8 9 9 9 9 9
11 11 11 13 20 29 38 42 42 41 41 39 36 34 33 31 28 26 25 24 24 24 23 22 21 21 21 21 21 20 19 18 17 16 16 15 14 15 15 15 15 15 14 14 14 15 14 13 12 11 11 11 11 11 10 10 10 10 10 10 10 10 10
10 9 11 13 14 18 26 35 42 43 44 43 40 38 35 32 29 27 26 25 24 25 25 24 24 23 22 21 21 20 19 18 17 17 16 15 15 15 16 16 16 16 15 15 15 15 15 14 14 14 13 13 13 13 12 12 12 12 12 11 11 11 12
9 10 13 14 14 15 19 27 37 43 43 43 43 42 39 36 34 33 32 31 29 28 29 28 27 25 23 21 20 20 20 20 19 18 18 17 17 17 17 17 17 16 15 15 15 15 15 15 15 15 15 15 15 15 16 15 14 13 13 12 12 12 13
7 9 11 10 11 14 15 17 25 34 39 40 40 40 40 39 40 39 36 35 32 29 28 27 24 23 23 22 21 20 20 19 19 19 19 19 18 18 18 18 18 18 17 16 16 16 16 16 15 15 15 15 16 17 18 18 16 15 14 14 15 14 14
7 6 7 8 10 12 12 12 16 24 32 37 38 37 35 35 36 33 31 31 28 24 23 21 21 22 23 21 19 19 19 18 18 18 18 18 18 18 18 18 19 19 18 17 17 16 17 16 16 16 16 15 16 16 17 18 17 17 17 17 17 17 16
8 6 5 6 6 7 8 8 12 18 24 30 33 33 32 31 29 27 27 26 22 20 19 18 20 23 23 20 17 17 17 17 17 17 17 17 18 17 17 17 18 19 18 18 17 17 17 17 17 17 17 17 17 17 17 17 17 18 18 18 19 19 19
8 7 6 4 5 8 8 6 9 13 16 23 28 29 28 26 24 24 23 21 18 18 18 18 19 21 20 19 17 16 16 17 17 17 17 18 18 18 18 18 18 19 19 19 19 19 19 18 17 17 18 18 19 19 19 19 19 19 19 19 20 21 20
8 9 7 5 7 10 10 9 10 12 14 16 19 20 20 20 21 23 22 20 20 19 17 17 19 19 18 18 18 17 17 17 17 17 17 18 18 19 20 20 20 20 21 22 22 21 21 21 20 20 20 21 21 22 22 22 22 22 21 21 21 22 22
10 11 10 9 9 10 11 11 12 13 14 15 15 16 18 20 24 25 24 23 22 20 17 17 19 19 17 16 17 20 21 19 17 17 17 17 18 20 21 22 22 23 23 24 24 23 23 24 24 24 24 24 25 25 25 26 26 26 25 24 24 24 24
12 14 13 12 11 11 12 12 12 13 15 16 17 18 21 25 26 25 24 23 23 21 19 18 20 22 20 17 18 21 21 18 17 18 18 19 20 21 23 25 26 26 25 25 26 26 26 28 28 28 28 28 29 29 29 30 30 30 30 29 28 27 27
14 13 11 10 10 10 11 12 12 12 13 15 16 17 20 23 23 22 22 22 22 20 17 18 20 21 20 19 19 19 19 18 18 19 20 20 20 21 24 27 28 28 27 28 28 29 30 31 32 31 30 31 31 32 32 33 34 34 34 33 32 31 31
12 9 8 8 8 8 10 10 10 11 12 14 14 15 18 18 17 16 16 16 15 14 13 13 14 13 13 14 15 16 17 18 19 20 21 20 20 20 21 23 23 23 26 28 29 30 32 34 34 33 31 32 33 33 34 36 37 35 34 34 35 36 35
8 8 8 8 9 10 9 8 7 9 10 11 12 12 13 13 12 11 10 11 12 12 13 13 13 12 12 13 14 15 17 19 21 22 23 22 22 21 20 19 18 19 21 23 25 27 29 32 33 32 30 30 32 33 34 36 36 33 30 31 34 37 39
8 8 8 8 9 9 8 8 8 8 8 9 9 10 10 11 11 11 12 12 12 12 13 14 15 16 16 17 18 19 19 20 22 22 23 22 23 23 22 21 19 19 20 21 23 25 26 28 29 27 25 26 28 29 29 30 31 30 28 29 31 34 38
7 7 7 9 11 11 10 10 10 9 8 9 10 11 11 12 12 14 15 14 14 14 14 16 18 19 20 20 20 20 20 21 21 21 22 22 23 24 24 23 22 20 20 22 23 24 24 26 26 23 21 21 22 22 23 24 26 27 27 27 28 29 33
8 8 9 9 10 11 11 11 10 9 9 10 12 12 13 13 14 15 16 16 16 16 16 17 18 19 20 20 20 19 19 19 19 20 21 21 22 23 23 23 23 22 22 21 21 21 22 24 24 22 19 18 19 20 21 22 23 25 26 27 26 27 29
10 10 10 8 6 6 7 8 9 9 9 9 10 11 12 12 12 13 14 14 15 15 15 16 16 16 16 16 15 14 13 13 14 16 18 19 20 21 22 22 22 22 23 22 21 21 22 23 23 22 19 18 17 17 17 18 16 15 17 21 23 26 27
9 9 7 5 4 4 5 7 8 9 9 9 9 10 10 11 11 12 12 12 12 12 11 11 11 11 11 11 10 8 7 7 9 10 12 15 16 18 20 20 20 20 21 21 21 22 23 23 23 21 19 17 16 14 15 17 15 11 12 14 18 24 26
7 6 6 6 6 6 5 6 6 7 7 6 6 6 6 7 7 7 7 8 8 7 6 5 5 5 6 6 7 7 7 7 8 9 10 12 12 13 14 15 16 17 19 20 21 21 22 23 22 20 17 16 15 14 15 16 14 11 12 14 16 22 24
8 7 7 7 7 7 6 5 4 3 3 2 2 2 2 2 2 3 3 4 4 4 3 3 2 2 3 4 5 6 8 9 10 10 11 11 10 11 12 13 15 16 16 18 19 19 20 20 20 19 17 15 14 14 15 16 13 10 10 14 18 22 22
7 7 6 6 6 6 6 5 4 3 2 2 1 1 1 1 0 0 1 1 1 1 1 2 2 2 3 3 4 4 5 6 7 7 8 9 9 10 11 12 14 15 16 16 17 17 18 18 18 18 17 15 13 14 15 16 15 12 10 13 17 20 21
7 7 6 4 4 4 4 4 4 3 3 3 3 3 3 2 2 2 2 1 1 1 1 1 2 3 4 5 5 4 4 3 4 4 4 5 6 7 8 9 11 13 13 13 14 15 16 16 16 15 14 14 13 14 15 15 14 13 12 13 14 16 18
6 6 6 4 2 2 2 1 1 2 3 3 4 5 4 4 3 3 3 2 2 2 2 2 3 4 5 6 6 6 6 5 5 5 6 6 7 8 8 8 9 9 10 10 10 11 11 12 12 11 10 10 10 11 12 13 13 13 13 13 14 14 15
5 5 6 4 1 0 0 1 2 3 3 4 5 5 6 6 5 5 4 4 3 3 3 4 5 5 5 6 8 8 8 8 8 8 9 9 10 11 11 10 10 10 10 10 10 10 10 10 10 9 8 8 8 8 8 9 11 12 13 14 14 14 14
4 4 5 5 4 3 3 3 4 5 5 6 6 6 6 7 7 7 7 7 6 6 5 5 6 6 6 7 8 8 8 9 9 10 10 10 11 11 12 12 12 12 12 12 12 12 12 12 12 11 10 9 9 8 7 7 8 10 12 14 15 15 15
4 4 5 5 6 6 6 6 7 8 8 8 8 8 8 8 8 8 8 9 9 9 9 8 8 9 8 8 9 9 9 9 10 10 10 10 10 11 11 11 11 12 13 13 13 13 14 14 14 13 13 13 12 11 10 9 8 8 9 11 13 13 15
7 7 7 8 8 8 8 9 9 10 10 10 11 10 10 10 10 10 10 11 11 11 12 11 11 12 12 12 12 12 12 12 12 12 12 12 12 12 12 12 12 12 12 13 13 13 13 14 14 14 14 14 14 14 14 13 12 10 10 10 11 12 12

ECMWFFLT1_700_spd_111.txt.gz
Wind_Speed
33 32 31 30 28 26 23 20 18 18 19 21 22 21 20 19 18 19 18 18 18 18 18 17 15 14 14 13 13 13 12 12 12 12 11 11 11 11 10 10 9 9 8 8 8 8 8 8 8 8 8 7 7 7 8 8 9 9 9 10 10 10 10
35 33 33 32 30 28 25 22 21 20 19 20 22 22 21 20 19 19 19 18 18 18 18 17 16 15 14 14 14 13 13 12 12 12 11 12 12 11 11 10 10 10 10 9 9 9 8 8 7 7 7 7 7 7 7 8 8 9 10 10 10 10 10
37 35 35 34 32 29 27 25 24 22 20 20 22 23 21 20 19 18 19 19 18 19 19 19 17 16 16 16 15 14 14 13 12 12 11 12 12 12 12 11 10 10 10 10 9 9 9 9 8 7 7 7 6 6 7 7 8 8 9 10 10 10 11
39 37 37 35 33 31 29 27 25 24 22 20 21 22 21 20 18 18 19 19 19 19 19 18 18 18 17 17 16 15 15 13 12 12 12 13 13 13 13 12 10 10 9 9 9 9 9 9 9 8 8 7 7 7 7 7 7 7 8 9 10 10 10
41 39 38 37 35 33 31 29 27 25 24 21 20 21 20 19 18 19 21 21 20 19 18 18 18 18 18 17 17 16 15 14 13 13 13 13 13 13 13 12 11 10 9 9 8 9 9 8 8 8 8 8 8 7 7 7 7 7 7 8 9 9 10
44 43 40 38 37 35 33 31 29 27 25 23 22 20 20 20 19 19 22 23 22 21 20 19 19 19 19 18 17 17 16 16 15 14 14 14 14 13 12 12 11 11 10 9 9 9 9 8 8 8 8 8 8 8 8 8 8 7 8 8 8 8 9
41 43 43 41 39 36 34 33 31 29 27 25 24 22 21 21 20 19 22 25 24 22 21 20 19 19 19 18 18 17 17 16 15 15 14 14 14 13 13 12 12 11 11 10 10 10 9 9 8 8 8 9 8 8 8 8 8 8 8 8 8 8 8
37 38 40 42 42 40 37 36 33 31 29 28 27 26 24 22 21 20 22 25 25 23 22 21 19 19 18 18 18 18 17 17 16 16 15 15 15 14 14 13 13 12 11 11 10 10 10 10 9 9 9 8 8 8 8 8 8 8 8 8 8 9 9
32 35 37 40 43 44 42 40 38 36 33 31 30 28 26 25 23 21 22 25 25 23 22 21 20 19 18 19 18 18 18 18 17 17 16 16 15 15 14 14 13 12 11 11 11 11 10 10 10 10 10 9 7 7 8 9 9 9 9 8 8 9 9
24 30 37 41 43 45 45 43 40 38 37 35 34 33 31 28 26 24 23 25 25 23 22 21 21 20 19 19 19 18 19 19 18 18 17 16 16 16 15 14 14 13 12 12 12 12 11 11 10 10 10 9 8 8 9 9 9 9 9 9 10 10 10
18 20 26 34 40 43 44 44 40 38 40 38 36 35 35 33 30 27 24 24 25 24 22 21 21 21 20 19 19 19 19 19 19 18 17 17 16 16 16 16 15 14 14 14 14 13 13 12 11 10 10 10 10 10 10 9 10 10 10 10 11 11 11
15 14 15 20 27 34 38 39 35 34 39 39 37 36 37 37 35 32 29 26 26 27 25 24 23 22 22 21 20 20 20 19 19 18 17 16 16 16 16 17 17 16 16 16 15 15 14 13 12 12 12 11 11 11 10 10 10 11 11 11 12 12 12
12 12 12 13 16 22 28 30 26 23 28 34 37 37 38 39 39 37 35 31 30 29 28 27 26 25 24 23 22 21 20 19 18 18 17 16 16 16 17 18 18 18 18 18 17 17 17 15 14 14 14 13 13 12 12 12 13 12 12 13 13 13 13
14 12 13 14 14 16 21 26 24 20 19 25 32 36 38 41 41 38 34 30 29 28 26 26 27 27 26 26 25 24 22 21 20 19 18 18 18 18 18 18 18 18 18 18 18 18 18 17 16 16 15 15 14 14 14 15 15 14 14 14 14 14 14
14 13 14 16 16 15 17 23 27 26 23 23 29 35 39 42 42 38 32 29 28 27 25 24 26 27 27 26 25 24 23 23 22 21 20 20 20 20 19 19 18 18 18 18 18 18 18 18 17 17 17 16 16 16 17 17 16 15 15 15 16 16 16
13 13 15 16 16 14 15 19 23 27 29 30 32 36 38 40 40 37 35 33 30 28 26 25 25 26 27 25 24 24 23 22 23 23 22 22 21 21 21 20 20 19 19 19 19 19 19 18 18 18 18 17 17 17 18 18 17 16 15 16 16 17 18
12 13 13 14 16 16 16 17 19 22 27 31 35 36 37 38 38 37 36 34 32 31 29 28 26 25 25 24 24 23 23 23 23 24 23 22 21 22 22 21 21 20 20 20 20 20 20 20 19 19 19 18 18 19 19 18 18 18 17 17 17 18 19
12 12 11 11 14 16 16 17 18 20 23 27 31 34 36 37 37 38 37 35 33 30 27 26 26 23 21 23 24 24 23 22 24 24 23 21 21 21 22 22 21 20 20 21 21 22 21 21 20 20 19 19 19 19 18 18 18 18 18 19 19 20 21
11 11 10 10 11 12 13 14 16 19 22 24 28 31 33 35 37 38 38 35 33 30 27 27 25 21 19 19 21 23 22 21 22 23 22 21 21 21 21 22 22 22 21 22 22 23 23 22 22 21 20 19 19 19 19 19 19 19 19 19 21 22 22
10 10 10 8 8 8 8 8 10 14 17 20 23 25 28 30 33 34 33 30 29 30 29 26 22 20 19 16 17 21 21 20 21 22 21 20 20 20 22 23 23 22 22 22 23 24 24 24 24 23 22 22 21 21 21 21 21 21 21 22 23 24 25
7 9 9 6 4 7 6 6 7 10 11 13 16 18 22 25 27 26 24 22 22 24 25 23 20 21 21 17 17 21 22 22 22 22 21 20 20 21 22 23 23 23 22 23 25 25 26 27 27 26 26 25 24 23 23 24 25 25 25 25 26 27 28
3 4 5 3 5 7 7 6 6 6 6 8 10 10 12 14 15 16 17 17 18 21 23 23 23 23 21 19 20 21 22 23 23 22 21 21 21 22 23 23 24 24 24 26 27 29 31 32 32 30 28 27 27 27 28 28 28 28 29 29 30 30 31
2 3 3 4 8 9 8 7 7 6 5 5 6 7 7 7 9 12 14 14 15 18 22 24 24 23 22 22 22 21 20 21 22 22 21 22 22 22 22 24 25 26 27 27 29 31 34 35 34 31 30 30 30 31 31 31 31 32 32 32 33 33 33
2 3 3 5 8 9 7 7 8 7 5 5 6 6 7 8 8 10 11 10 11 14 18 21 22 22 22 21 21 21 20 21 21 21 22 22 23 24 24 26 27 27 28 27 26 27 28 30 32 33 33 33 33 33 34 33 33 34 34 34 35 35 35
2 4 5 5 7 8 7 7 7 7 6 6 6 6 7 9 9 10 8 7 8 9 10 13 14 16 17 17 17 19 20 21 22 23 25 27 29 29 30 30 29 29 28 26 24 23 22 23 27 30 31 31 32 32 33 33 32 32 33 33 33 34 35
4 4 4 5 5 6 7 7 7 6 5 5 5 6 7 8 9 11 10 9 9 9 9 10 10 12 13 15 16 17 18 20 22 24 28 31 32 31 31 32 31 29 28 27 26 24 22 21 23 25 26 26 28 29 30 30 29 28 28 28 29 30 33
8 6 5 6 7 7 7 7 6 6 6 7 7 8 8 8 9 11 12 12 11 11 11 12 12 13 15 16 18 19 19 21 22 24 27 30 30 29 30 31 30 28 28 28 27 25 24 22 21 23 24 24 24 25 25 26 26 25 26 27 29 31 33
12 10 8 8 9 8 7 7 8 9 9 9 9 9 10 10 10 10 11 11 11 11 12 13 14 15 16 17 18 19 19 19 19 20 22 25 25 26 28 29 28 27 27 27 25 23 23 22 22 22 21 19 21 22 24 25 26 27 28 29 29 29 30
12 12 11 11 11 10 9 8 9 9 8 8 8 8 8 8 8 9 9 9 10 10 11 12 12 13 14 15 16 17 16 15 14 14 15 16 18 20 22 24 25 25 25 25 24 22 22 21 21 21 19 18 19 21 22 23 25 27 28 27 26 25 25
11 11 12 11 12 12 12 11 9 8 7 6 6 6 6 6 7 7 7 8 8 9 9 9 9 9 10 12 13 13 13 11 11 11 11 12 13 14 16 18 19 20 21 22 22 22 21 21 20 21 20 20 19 19 20 20 21 24 25 24 24 23 22
11 10 9 9 10 11 11 10 8 6 4 3 3 4 4 5 5 6 6 6 7 7 7 6 6 6 6 7 8 9 9 10 10 11 11 12 12 12 12 13 14 15 16 17 17 18 18 18 19 19 20 20 19 19 19 18 19 21 23 22 22 21 21
10 10 9 9 10 12 12 10 8 7 5 5 5 5 6 6 6 7 7 7 7 7 6 5 5 4 4 3 3 4 5 6 7 8 9 9 9 8 8 9 9 10 11 12 13 14 15 15 16 17 18 18 18 18 19 19 19 21 22 22 21 21 22
10 10 10 9 10 10 11 10 9 8 7 6 6 6 7 7 7 7 7 7 7 7 6 5 5 4 3 2 2 2 3 3 4 4 5 5 6 6 6 7 7 7 7 8 9 10 10 11 13 14 15 16 17 17 18 19 21 22 23 23 22 21 23
10 10 10 9 9 8 8 7 7 6 6 5 5 5 4 4 4 5 5 6 6 6 6 6 6 5 4 4 3 3 4 4 4 5 5 6 6 7 8 9 9 10 10 9 9 9 8 9 9 10 11 11 12 13 14 15 17 20 22 22 21 21 22
9 9 9 9 7 6 5 4 4 4 3 3 3 3 3 3 3 3 4 4 5 5 6 6 7 7 7 6 6 6 6 6 6 7 7 8 9 9 10 11 11 11 12 12 12 12 11 10 10 9 9 9 10 10 10 11 12 15 17 18 19 19 21
10 9 9 8 7 5 4 4 3 2 1 0 0 0 0 0 0 1 2 3 3 4 5 6 6 6 7 7 7 7 7 7 7 8 8 9 10 10 11 12 12 12 13 13 14 14 14 13 12 12 11 11 11 11 11 11 11 12 13 15 16 16 17
9 9 8 7 7 6 6 5 5 4 4 4 3 4 3 3 3 3 3 2 3 4 5 5 6 6 7 7 8 8 8 9 9 9 10 10 10 10 10 11 12 12 13 13 13 14 14 14 14 13 13 13 13 13 13 13 13 13 13 14 15 15 15
8 7 7 7 7 7 7 7 7 8 8 8 8 7 7 7 7 7 6 6 6 6 7 7 8 8 8 9 9 10 11 11 12 12 12 13 13 12 12 12 13 13 14 14 13 14 14 14 14 14 14 14 14 14 14 15 15 16 16 16 16 15 16

ECMWFFLT1_700_spd_114.txt.gz
Wind_Speed
27 26 24 22 20 21 20 17 16 16 17 18 17 17 18 17 16 15 14 14 14 15 14 13 13 13 13 14 14 14 13 13 13 13 12 12 12 11 10 10 10 9 9 9 9 8 8 8 8 8 9 9 9 9 10 10 10 10 10 10 10 10 10
30 28 27 24 22 21 20 18 16 16 16 16 16 17 18 18 17 16 15 14 14 15 15 14 13 13 13 14 15 14 14 14 14 14 13 13 12 12 11 11 10 10 10 10 9 9 9 8 8 9 9 9 9 9 10 10 10 10 11 11 11 11 11
32 30 28 26 23 21 21 20 18 17 16 15 16 17 18 19 18 16 15 15 15 15 16 15 14 13 13 15 15 15 15 15 15 14 14 13 13 13 12 11 11 11 11 11 10 10 10 9 9 9 9 9 9 9 9 10 10 10 11 11 11 11 11
34 32 29 27 25 22 21 21 20 18 17 16 15 14 16 18 17 16 16 16 16 16 16 15 15 14 14 15 15 15 15 15 15 15 14 14 14 14 13 12 12 11 11 11 11 11 10 10 10 10 9 9 9 9 9 9 9 10 10 10 10 11 11
36 34 31 29 28 25 22 21 21 20 18 17 16 14 14 16 17 17 16 16 17 16 16 16 16 16 16 16 15 15 15 15 15 15 15 15 15 15 14 14 13 13 12 12 11 11 11 11 11 11 10 10 10 10 10 9 10 10 10 10 10 10 10
38 36 34 32 30 27 24 22 21 21 19 18 17 15 14 16 17 17 16 16 17 17 17 17 18 18 17 17 17 16 16 16 15 15 15 15 16 16 15 15 15 14 13 12 11 11 11 10 11 11 11 11 11 10 10 10 10 10 10 10 10 10 9
40 38 35 33 31 28 26 24 23 21 20 18 17 16 15 16 17 17 16 16 16 17 18 19 19 19 19 19 19 18 17 16 16 15 15 16 16 16 15 15 15 15 14 13 12 11 11 10 11 11 11 11 11 11 10 10 10 10 10 10 10 9 9
40 39 36 34 33 30 28 26 24 23 22 20 20 19 18 17 16 16 16 15 15 17 18 19 20 19 19 20 20 19 19 18 17 17 16 16 16 15 15 15 15 15 14 13 12 12 11 11 11 11 11 10 11 11 10 10 10 10 10 10 10 9 10
37 37 36 34 33 31 29 28 26 25 25 24 23 22 21 20 18 17 16 15 15 16 17 19 20 20 20 21 21 20 20 19 19 18 17 17 16 15 15 15 15 15 14 13 13 13 12 12 11 11 11 10 10 10 10 10 10 10 10 10 10 10 10
36 35 34 33 32 31 30 30 29 28 27 26 25 24 23 23 21 19 18 17 16 16 17 19 21 21 20 21 21 21 21 21 20 19 18 17 16 16 16 16 16 15 14 14 14 13 13 13 12 12 11 10 10 10 10 10 10 10 10 10 10 10 10
37 34 31 30 31 31 31 31 31 30 29 27 26 25 24 24 23 23 22 21 20 18 18 20 22 22 21 21 21 21 21 20 20 20 19 18 17 17 17 17 17 16 15 15 15 14 14 14 13 12 11 11 11 11 11 11 11 10 10 10 11 11 11
32 32 30 30 30 31 32 32 32 32 31 30 29 27 25 24 24 25 24 24 24 22 21 22 23 23 22 22 22 21 20 20 20 19 19 18 18 18 18 18 18 18 17 16 16 15 14 14 14 13 13 12 13 13 12 12 12 11 11 11 11 11 12
27 28 28 30 32 35 36 36 36 35 34 34 32 30 29 27 26 26 26 26 25 25 24 25 25 24 24 24 23 22 21 20 20 20 19 19 19 20 20 20 20 19 18 18 17 16 15 15 15 15 14 14 14 14 14 14 14 13 13 12 12 12 12
25 26 26 26 29 35 39 40 40 39 38 36 34 32 31 29 28 28 29 28 26 25 25 26 26 26 25 25 25 23 22 21 21 21 21 20 21 21 21 21 21 20 20 19 19 18 17 17 17 17 16 16 15 16 16 16 16 15 14 14 13 14 14
22 24 24 22 23 27 33 37 39 39 40 39 35 31 30 30 30 30 31 30 27 25 25 26 27 28 27 26 25 24 23 23 22 22 22 22 22 22 22 22 22 21 21 21 21 20 19 19 19 19 19 18 18 18 19 19 18 17 17 16 16 16 16
19 20 19 19 20 22 26 30 34 36 38 39 37 33 30 30 30 30 31 32 30 28 29 29 28 28 28 27 26 25 24 24 24 23 23 23 22 23 23 23 23 22 22 22 21 21 21 21 21 20 20 20 20 20 21 21 21 20 20 20 19 19 19
16 17 16 16 18 20 22 25 29 32 34 36 36 35 33 32 31 31 32 34 34 32 32 33 31 29 28 28 28 27 26 25 25 24 24 23 23 23 23 23 23 23 23 22 21 21 21 21 21 21 21 21 21 21 21 22 22 22 22 22 22 21 21
14 16 16 16 18 21 22 24 26 29 32 35 37 37 36 35 34 34 35 36 37 37 36 36 34 30 31 32 29 28 27 26 26 25 25 24 24 24 25 25 24 23 23 22 21 21 21 21 22 22 21 22 21 21 22 22 22 22 22 22 23 23 23
12 14 14 15 17 20 22 23 25 26 29 32 36 39 41 41 40 40 39 39 41 41 40 39 37 35 35 33 28 25 26 26 26 26 25 25 26 26 26 26 25 25 24 24 24 24 24 23 23 23 22 22 22 23 23 23 22 22 21 22 22 22 22
10 11 12 12 12 15 19 22 23 23 25 27 29 32 35 38 40 40 40 41 42 42 42 40 39 38 35 30 24 22 23 26 27 27 26 26 26 26 27 27 27 27 27 26 26 25 24 23 23 23 23 23 23 24 24 24 24 23 23 22 22 23 23
8 9 10 9 10 12 14 16 18 19 20 21 22 24 24 26 28 31 33 36 36 36 37 37 38 37 34 29 26 23 23 25 27 28 26 26 26 26 27 29 30 30 29 27 27 25 23 23 23 24 25 25 25 25 25 25 25 25 25 25 24 24 25
6 7 8 9 10 11 11 11 12 13 13 13 14 15 15 15 15 17 22 27 29 28 26 28 31 31 30 30 31 31 27 25 26 29 27 26 26 26 28 30 30 29 25 24 26 25 23 23 24 24 25 26 26 27 28 28 28 28 28 28 28 27 27
6 8 11 11 11 12 11 10 10 9 10 9 7 7 7 7 5 4 5 11 19 21 20 22 25 26 25 26 29 32 30 25 25 27 27 25 25 27 29 30 27 25 23 23 25 24 22 23 25 25 25 26 28 31 32 31 31 31 30 31 30 31 31
6 9 10 9 8 10 10 9 9 10 11 10 9 11 10 7 5 6 7 7 11 16 18 19 22 26 25 24 25 29 30 26 23 23 24 25 25 26 28 26 23 22 23 24 25 23 21 23 25 25 24 26 29 32 35 36 36 35 33 33 33 33 34
5 7 8 7 5 5 6 6 7 8 9 9 9 10 10 7 6 8 9 9 11 14 16 16 19 24 24 22 23 25 25 24 24 23 23 25 27 27 27 25 23 23 25 25 25 23 22 22 23 23 24 26 27 28 31 35 37 37 36 35 35 35 35
6 8 9 9 7 6 5 5 5 6 7 7 8 8 9 8 8 9 10 12 13 16 17 17 18 22 21 20 21 22 21 22 23 23 23 24 26 27 28 27 26 26 27 27 27 27 27 27 27 27 28 28 27 26 26 28 32 34 35 35 36 36 36
7 9 8 8 8 9 9 7 7 8 8 7 8 8 7 7 7 7 8 9 11 14 17 18 18 19 19 18 19 19 20 21 22 23 24 24 24 25 26 28 28 29 31 32 32 32 32 30 30 31 30 28 27 26 25 26 27 29 31 32 32 32 32
8 10 10 8 7 8 7 7 8 8 8 7 7 7 7 7 7 7 7 8 9 10 11 14 16 18 18 19 19 19 20 20 21 22 24 24 25 26 27 29 30 31 33 34 33 33 32 28 27 28 27 23 23 24 24 25 25 26 26 26 26 27 27
9 9 10 9 8 6 5 5 6 6 6 6 5 5 6 6 7 7 7 8 10 10 11 12 15 15 16 18 19 19 19 20 21 22 23 24 25 26 26 27 28 29 30 30 30 31 30 27 25 26 24 21 21 21 22 22 23 23 24 24 24 25 26
9 8 7 8 7 5 5 5 5 5 6 5 4 4 5 5 5 5 5 6 9 11 11 12 12 12 13 15 16 16 18 19 20 21 22 22 21 20 20 20 20 20 20 21 21 22 23 23 22 23 22 21 20 19 20 21 21 21 22 23 23 23 24
7 7 6 5 5 5 6 6 5 5 6 5 5 5 5 4 4 4 4 5 6 7 8 9 10 11 13 14 15 15 16 17 17 18 18 17 16 15 15 15 15 15 14 14 13 14 15 16 17 17 18 18 18 18 18 19 19 19 20 21 22 23 24
9 8 6 5 5 6 7 7 6 6 6 5 5 5 5 5 4 4 4 5 6 7 8 9 9 10 10 11 12 13 13 13 13 13 13 13 13 13 13 12 11 11 10 10 10 10 11 12 13 14 14 15 16 17 17 17 18 19 19 20 21 23 24
9 9 7 6 6 6 7 8 8 7 7 6 6 6 6 6 6 5 5 6 6 7 7 7 8 8 9 9 9 9 9 9 9 9 9 10 10 10 9 8 7 7 7 7 7 8 9 10 10 11 12 12 13 14 14 16 17 18 19 20 21 22 24
10 9 8 7 6 7 7 8 8 8 8 7 7 7 7 7 7 7 7 7 7 7 7 7 7 8 8 8 7 7 8 8 9 9 9 9 8 8 8 8 7 7 7 7 8 8 9 9 10 10 11 11 11 12 12 13 14 15 16 17 18 20 21
12 11 11 10 9 9 9 9 9 9 9 9 9 8 7 7 7 7 7 8 8 8 7 7 7 7 7 7 7 8 8 9 9 10 10 9 9 9 9 9 9 9 9 9 9 10 10 10 11 11 12 12 12 13 12 13 13 14 14 15 15 16 17
13 13 12 12 11 10 9 9 9 9 9 9 9 9 9 8 8 8 8 8 8 8 8 8 8 9 8 8 9 9 9 10 10 11 11 11 10 10 11 11 11 11 10 10 10 10 11 11 12 12 13 13 14 14 15 15 15 15 15 15 16 16 16
12 11 11 11 10 9 8 7 7 6 6 7 7 7 8 8 8 8 8 9 9 9 9 9 9 10 10 10 11 11 12 12 13 13 13 13 13 13 13 13 13 13 13 13 13 12 13 13 13 13 14 14 14 15 15 16 16 16 17 17 18 18 17
9 8 8 7 7 6 5 4 3 3 2 2 3 4 5 5 6 7 8 8 9 9 9 10 10 11 11 12 12 13 13 14 14 15 15 16 16 16 15 16 16 16 16 16 16 16 16 16 16 16 16 16 16 16 16 16 16 16 16 17 18 19 19

ECMWFFLT1_700_spd_117.txt.gz
Wind_Speed
33 31 29 26 25 25 25 25 24 23 22 20 19 18 17 16 15 14 13 13 13 12 12 12 12 12 12 12 13 13 13 13 13 14 14 14 14 14 13 12 12 12 11 11 11 11 11 10 10 10 10 10 10 10 10 10 10 9 9 10 9 9 9
34 32 29 26 26 26 26 25 24 23 22 21 20 19 17 16 15 14 14 13 13 12 12 11 11 11 11 12 13 13 13 13 13 14 14 14 13 13 13 12 12 12 12 12 11 11 10 9 9 10 10 10 10 10 10 11 11 11 11 11 11 10 10
34 32 30 27 26 25 26 26 25 23 22 20 20 19 18 16 15 14 14 13 13 13 12 12 11 10 10 11 12 13 12 12 12 13 13 13 13 13 12 12 12 13 12 12 11 10 10 10 10 10 10 10 10 10 11 11 11 11 12 12 12 11 11
35 32 29 27 25 24 25 26 26 24 22 20 19 18 16 15 15 14 14 13 13 13 12 12 12 11 11 11 12 13 13 13 12 13 13 13 13 13 12 12 13 13 13 12 12 11 10 10 10 10 10 10 10 10 10 11 11 11 12 12 12 12 12
36 32 30 28 26 25 25 26 26 25 23 21 19 17 15 14 14 15 14 14 13 13 13 13 13 13 13 13 13 13 14 14 14 14 14 14 14 13 13 13 13 13 13 13 12 12 11 10 10 10 10 10 10 10 10 10 11 11 11 11 11 11 12
36 33 31 28 27 26 26 26 25 25 23 22 19 18 16 15 15 16 15 15 14 14 14 15 15 15 15 15 14 14 15 15 16 15 15 15 15 14 13 14 14 14 14 14 13 12 11 11 11 11 11 11 10 10 10 10 10 10 10 10 10 10 11
36 33 31 29 27 26 26 25 24 24 23 21 20 18 18 17 16 16 16 16 15 15 15 15 16 15 15 16 16 15 15 15 16 16 16 15 15 14 14 15 15 15 15 14 13 12 12 11 11 11 11 11 11 11 11 11 11 10 10 10 10 10 10
36 33 31 29 27 26 26 25 24 24 23 22 22 21 20 19 18 18 18 17 16 16 16 16 16 16 16 17 17 16 16 16 16 17 16 16 15 15 15 15 15 15 15 15 13 13 13 12 12 11 11 11 11 11 11 11 11 11 10 10 10 10 10
34 33 31 29 27 26 25 24 24 23 22 23 23 23 22 22 21 20 19 18 18 17 17 16 16 17 17 17 18 18 17 17 17 17 17 16 15 15 15 15 16 16 16 15 14 13 13 13 12 12 11 11 10 10 11 11 11 11 11 11 11 11 11
33 32 31 30 28 26 26 25 25 24 23 23 23 23 23 23 23 22 21 20 19 18 17 17 17 18 18 18 18 19 19 19 19 19 18 17 16 15 15 16 16 17 16 15 14 14 13 13 12 12 11 11 10 10 10 11 11 11 11 11 11 11 12
34 34 33 32 30 28 28 28 26 25 24 23 23 23 23 23 23 23 23 22 21 19 18 18 18 19 19 18 19 19 19 19 20 20 19 18 17 16 16 16 17 17 17 16 15 15 14 13 13 12 12 11 11 11 11 11 11 11 11 11 12 12 12
32 34 35 34 33 32 31 30 28 26 24 23 23 23 22 22 22 22 22 22 21 20 19 19 19 19 19 19 20 20 20 20 20 21 21 20 19 18 18 18 18 18 18 17 17 16 15 15 14 13 13 13 13 13 12 12 12 12 12 12 12 12 13
28 31 33 34 34 33 33 32 30 29 27 26 25 24 23 22 21 21 20 20 21 21 20 19 19 19 19 19 20 21 21 21 21 21 21 21 21 21 20 20 19 19 19 18 18 18 17 16 15 15 15 14 14 14 14 14 14 13 13 13 13 13 13
24 28 30 31 32 33 34 33 32 31 30 29 29 27 26 25 24 23 21 20 20 21 21 20 20 20 19 19 20 21 22 22 21 21 22 22 23 23 23 22 21 21 21 20 20 19 19 18 17 17 16 16 15 15 16 16 15 15 15 15 15 15 15
16 23 30 32 31 31 33 33 32 32 31 31 30 29 28 27 26 26 25 24 23 22 22 21 21 20 20 20 20 21 22 23 23 22 22 22 24 24 24 23 23 23 22 22 21 21 20 20 19 19 18 17 17 17 17 17 17 16 17 17 17 17 17
8 14 23 29 30 29 30 30 31 32 32 33 32 32 31 30 29 28 27 27 27 26 26 24 23 22 22 22 21 21 22 24 25 24 23 23 23 24 24 24 24 24 23 23 22 22 22 22 21 20 19 19 18 18 19 19 19 19 19 20 20 20 20
5 10 15 21 25 26 27 28 30 32 33 34 34 34 33 33 32 31 30 30 30 30 30 29 28 27 26 25 24 23 24 25 26 26 25 24 24 24 24 24 24 24 24 24 24 24 23 23 22 22 21 21 20 20 21 21 21 22 22 22 23 23 23
7 11 14 17 20 21 22 24 26 28 31 33 34 35 35 35 35 34 33 33 34 33 32 32 32 32 31 32 31 29 28 28 29 30 28 26 25 25 25 25 25 25 25 25 25 24 24 24 23 22 22 22 22 22 23 23 22 23 23 24 24 24 25
11 14 16 17 19 21 21 21 21 23 24 27 30 32 34 35 35 35 35 35 36 35 34 34 35 35 36 36 35 33 31 30 31 32 31 30 29 28 27 27 26 25 25 25 25 24 24 24 23 22 23 23 23 23 23 23 23 23 24 24 25 25 26
16 17 19 19 20 21 22 22 22 22 22 23 26 28 30 32 33 34 35 35 36 35 35 36 37 37 38 38 38 36 34 33 33 32 31 32 32 29 28 28 26 26 25 25 24 24 24 23 22 22 23 23 24 25 24 24 25 25 25 25 26 26 26
19 21 21 21 20 20 21 22 22 23 23 23 24 26 28 30 31 33 34 35 36 36 36 37 38 38 38 38 40 41 37 35 35 33 30 31 33 31 29 28 27 27 26 25 25 24 23 22 22 22 23 24 25 26 26 26 27 27 27 27 27 27 28
18 20 21 20 19 17 16 17 18 20 23 24 24 25 26 28 29 30 32 33 35 36 37 39 40 40 39 39 40 40 39 38 36 33 30 31 33 33 29 26 25 25 25 24 23 23 23 23 23 22 23 25 25 26 26 26 27 28 28 28 28 29 29
13 15 16 16 15 13 11 11 12 14 18 20 22 23 24 25 26 27 29 31 32 34 34 35 37 38 38 39 38 35 36 37 34 30 28 29 30 30 27 25 25 25 23 22 22 22 23 23 23 23 23 25 26 26 26 26 27 28 29 30 31 31 32
9 11 12 11 11 10 9 9 9 9 11 14 15 16 17 18 20 22 24 24 26 28 28 28 29 29 28 30 33 33 34 34 30 27 26 27 27 27 26 26 26 25 23 22 22 22 23 23 23 23 23 24 25 25 25 25 26 26 27 29 30 32 34
6 7 9 10 10 10 10 10 9 9 10 12 11 9 9 10 11 13 13 13 14 16 18 18 20 21 19 20 23 27 29 29 28 28 28 26 25 26 26 25 25 24 23 21 20 20 21 21 23 24 24 23 23 24 24 25 25 25 27 29 30 31 33
4 5 8 9 9 11 13 14 14 14 14 13 12 11 10 9 9 9 8 6 6 7 9 11 13 16 18 18 19 20 21 22 25 29 32 30 24 22 21 20 21 22 21 19 19 19 21 22 24 25 24 23 24 26 26 27 28 29 30 31 31 31 32
6 7 8 8 9 11 13 15 16 17 18 16 14 14 12 9 10 11 8 7 7 7 6 7 10 13 14 16 19 20 17 18 22 27 31 33 29 22 18 17 19 21 22 21 21 22 24 25 27 27 27 27 29 31 31 32 32 33 33 32 31 31 30
8 8 8 8 9 10 11 11 12 13 16 17 16 15 13 10 9 11 9 8 10 10 7 8 10 13 14 15 19 21 18 16 19 21 21 25 26 23 20 20 21 22 21 21 22 24 26 28 28 27 28 29 31 31 31 30 30 30 30 30 29 28 28
10 10 9 9 9 8 8 9 10 9 10 10 10 10 11 9 8 9 9 8 10 10 9 10 11 11 14 14 15 17 14 11 14 15 14 15 19 20 19 19 19 20 20 21 23 24 25 26 25 25 26 27 27 28 28 27 26 26 26 26 25 24 24
10 11 11 10 9 8 8 9 10 8 7 6 5 6 8 8 7 8 9 9 10 9 8 7 5 4 7 10 10 11 10 9 10 13 13 14 16 18 19 18 19 20 20 20 20 19 18 19 19 19 20 21 22 23 24 24 25 24 24 24 23 23 23
11 11 10 10 9 7 7 8 8 7 6 6 6 6 7 8 8 9 9 9 11 10 8 8 6 5 8 10 11 12 12 12 13 15 15 15 16 17 18 17 17 16 15 14 14 15 15 14 14 14 14 15 16 17 19 21 22 22 22 22 22 22 23
11 11 10 10 9 8 8 8 8 7 6 6 6 6 6 6 7 8 9 9 10 10 9 9 10 10 11 11 11 12 13 13 13 13 12 12 13 12 13 13 12 12 12 12 12 13 12 11 11 10 11 12 13 14 15 16 17 18 19 20 21 21 22
11 11 11 11 11 11 11 10 10 10 9 8 8 8 7 7 7 7 8 8 8 8 8 8 8 8 9 9 9 10 10 10 9 9 8 8 8 8 9 9 9 9 9 9 9 9 8 8 8 8 9 10 11 12 13 13 14 15 16 17 18 18 19
13 12 12 12 12 12 13 12 12 11 11 10 10 10 10 9 9 9 9 9 8 7 7 6 6 5 5 5 5 6 6 6 6 6 6 6 7 7 7 7 7 7 8 8 8 8 9 10 10 10 11 11 11 12 13 13 14 14 15 15 16 16 16
15 15 14 13 13 13 13 12 11 11 11 10 10 10 9 9 9 9 9 9 8 8 7 6 5 5 5 4 4 4 5 5 6 7 7 8 8 8 8 8 8 9 9 10 10 11 11 12 12 13 13 13 13 13 14 14 15 15 16 16 16 17 17
17 16 15 14 14 13 13 12 11 10 9 9 9 9 8 7 7 6 6 6 7 7 7 6 6 6 6 6 6 6 7 7 8 8 8 9 9 10 10 10 11 11 11 11 11 12 12 13 13 13 13 14 14 14 15 15 16 17 17 17 18 18 19
15 14 14 14 13 13 12 12 11 10 8 8 8 7 7 6 5 5 5 4 4 4 5 5 5 6 6 7 7 7 8 8 9 9 9 10 10 11 11 12 12 12 13 13 13 13 14 14 14 15 15 15 16 16 16 17 17 17 18 18 19 19 20
14 13 12 12 12 12 11 11 10 10 9 8 7 7 6 5 5 5 4 4 5 5 5 5 6 6 7 7 8 9 9 10 10 11 11 12 12 12 13 14 14 15 15 16 16 16 17 17 17 17 18 18 18 19 19 19 19 20 20 20 20 20 20

ECMWFFLT1_700_spd_123.txt.gz
Wind_Speed
28 28 27 27 28 28 27 26 26 26 24 25 25 23 22 21 20 20 20 20 20 20 20 19 19 19 18 18 17 16 15 15 14 13 13 13 13 12 12 11 11 10 10 10 10 10 10 9 9 9 9 9 9 9 9 9 9 9 9 9 9 9 10
29 29 28 28 29 29 29 27 27 27 25 24 25 23 22 21 20 20 19 19 19 19 19 19 19 19 18 18 17 16 15 15 14 14 14 14 14 13 13 12 11 11 11 10 10 10 9 9 10 9 9 10 10 9 9 9 9 10 10 9 10 10 10
30 30 29 28 30 30 30 29 28 28 26 25 25 24 23 22 20 20 19 19 19 18 18 18 18 18 18 17 17 16 16 15 14 14 15 15 15 14 14 13 12 11 11 11 10 10 10 10 10 10 10 11 10 10 9 9 9 10 10 10 10 10 10
31 32 31 29 30 31 30 30 28 28 27 26 25 24 24 22 21 21 20 19 18 18 17 17 17 17 17 17 16 16 16 15 15 15 15 15 15 15 14 13 12 12 12 12 11 11 11 10 10 10 11 11 11 10 10 11 10 11 10 10 10 10 10
32 32 33 30 30 32 31 30 29 28 28 27 25 25 24 23 22 21 21 20 19 18 17 16 16 16 16 16 15 16 16 15 15 15 15 15 15 15 14 13 13 13 13 13 13 13 12 11 11 11 11 11 11 11 11 11 11 11 10 10 10 10 10
33 33 32 31 31 32 33 31 30 29 29 28 26 25 24 23 23 22 21 21 20 19 18 17 17 17 16 16 15 15 15 15 15 15 15 15 14 14 13 13 13 13 14 13 13 13 12 12 12 12 11 12 12 12 11 11 10 10 9 9 9 9 10
32 34 32 32 32 33 33 32 30 31 30 29 27 26 24 24 24 23 22 22 20 19 19 19 18 17 17 17 16 15 15 15 15 15 15 15 15 14 14 14 14 14 14 14 13 13 13 13 13 12 12 12 12 12 11 10 10 10 9 8 9 9 10
27 33 34 32 31 33 33 32 31 31 30 29 28 27 25 24 24 23 23 22 21 20 20 20 19 18 18 17 17 16 15 15 15 15 15 15 15 14 14 14 14 14 15 14 14 13 13 13 13 13 13 12 13 12 11 11 10 10 10 9 9 9 9
24 31 35 33 31 31 32 32 32 31 31 30 28 28 27 26 25 24 23 23 22 21 21 20 20 20 19 18 17 17 16 16 16 16 15 15 15 14 14 14 15 15 15 15 15 15 15 14 14 14 13 13 13 13 12 12 11 11 11 10 10 10 10
22 29 33 34 33 31 31 33 33 32 32 32 30 29 28 27 26 25 25 24 23 22 21 21 21 20 20 19 19 18 18 17 17 16 16 16 15 15 14 14 15 16 15 15 15 15 15 15 15 15 14 14 14 13 13 13 12 12 12 11 11 10 10
20 28 32 33 33 32 33 35 36 35 34 33 32 31 29 28 28 26 25 24 23 23 22 21 21 20 20 20 20 20 19 19 18 17 17 16 16 15 15 15 15 15 16 16 15 15 15 16 17 16 15 14 14 14 13 13 13 13 12 12 11 11 11
15 25 33 33 33 35 37 38 37 36 34 33 33 32 30 29 29 27 25 24 23 23 22 22 21 20 20 20 20 20 20 20 19 18 18 17 17 17 17 17 16 15 16 16 16 16 16 17 17 17 16 15 15 14 14 13 14 14 14 12 13 13 13
13 23 33 36 36 39 40 39 38 37 35 34 34 34 32 30 29 27 25 24 23 22 22 22 21 20 19 19 20 19 19 20 20 19 19 19 19 18 18 18 17 16 17 17 17 16 16 18 18 17 16 15 15 15 15 14 14 15 15 13 13 14 14
13 20 31 36 39 41 41 40 40 38 36 36 35 34 32 31 29 27 25 24 24 24 23 23 22 21 20 20 19 19 19 20 20 21 21 21 20 20 19 19 19 19 19 19 18 16 16 17 19 18 17 16 16 16 16 16 16 16 15 14 14 15 15
11 18 28 35 40 43 44 43 41 39 38 37 36 35 33 32 30 29 28 27 26 26 25 24 23 22 22 22 20 19 19 19 21 22 23 24 23 22 22 21 21 21 22 21 20 18 17 18 18 19 19 16 15 16 17 18 18 15 14 14 15 15 14
7 14 24 33 41 45 46 43 40 39 39 38 37 37 35 34 33 32 31 30 29 28 27 27 26 25 25 23 22 22 21 20 21 23 24 25 24 24 24 23 23 23 23 23 22 20 20 20 19 19 20 18 17 17 18 19 18 15 16 16 16 15 15
5 8 15 25 37 44 45 43 42 41 40 39 39 38 37 36 34 33 33 32 31 30 29 28 28 27 27 26 26 25 23 21 21 23 24 23 23 24 24 23 23 24 24 24 24 23 22 22 21 20 20 20 21 20 20 20 18 16 17 18 17 17 17
6 7 9 16 28 39 44 45 43 41 40 40 40 39 38 37 35 34 34 33 32 32 31 31 30 30 29 29 29 26 23 23 24 24 23 23 23 25 25 24 24 25 25 25 24 23 23 24 23 23 23 23 24 23 21 21 20 18 18 18 19 19 19
10 8 7 10 17 29 39 42 40 36 39 42 41 39 38 37 36 35 34 34 34 33 33 33 32 32 32 31 31 30 27 27 26 26 26 26 26 26 26 26 26 26 26 26 25 25 25 25 25 25 24 25 26 26 24 22 21 20 20 20 21 21 21
8 9 8 8 10 18 28 35 35 31 34 38 38 38 38 37 36 36 35 35 35 34 34 34 33 34 33 33 35 35 31 29 29 29 29 28 28 29 29 28 27 27 27 26 26 27 27 25 25 26 25 25 28 30 28 26 23 22 22 22 22 22 23
5 9 14 13 8 14 21 28 31 28 27 31 33 34 35 35 35 35 35 35 34 33 33 32 32 33 33 34 36 36 31 29 31 32 31 31 31 31 31 30 29 29 29 29 28 28 28 26 26 26 25 26 29 30 29 26 24 23 23 23 23 23 24
4 5 13 16 10 10 16 21 26 28 25 26 28 29 30 32 32 34 35 35 35 34 34 33 33 34 34 35 36 34 32 32 34 35 35 35 34 34 33 33 33 32 31 30 29 28 28 27 27 28 27 27 28 29 28 26 23 22 23 23 23 24 25
6 5 3 8 10 5 11 14 17 24 26 25 24 24 24 26 27 29 31 33 35 35 35 35 35 35 35 36 36 36 36 37 38 38 38 37 36 36 35 36 36 36 35 32 29 28 29 29 28 28 27 26 27 28 27 25 24 23 24 24 24 24 25
9 8 6 1 6 2 8 10 10 16 19 20 19 20 19 19 19 21 22 24 27 31 32 33 34 34 34 35 36 38 39 40 40 40 39 38 37 37 38 38 38 39 39 37 33 30 30 30 29 28 26 25 25 26 25 25 25 25 24 23 24 24 25
11 11 10 6 1 2 4 7 10 15 16 15 14 15 15 14 14 16 17 18 20 23 25 26 28 29 29 30 33 35 37 37 38 37 37 37 37 36 37 37 37 37 38 39 38 35 32 32 30 28 27 25 23 23 25 25 25 25 24 23 23 24 24
12 12 10 9 4 0 2 4 7 11 12 12 12 12 14 15 16 16 16 16 17 17 19 20 21 22 23 25 27 29 31 32 33 33 33 33 33 34 34 34 34 33 34 38 39 36 33 33 32 29 27 25 23 22 23 24 24 24 24 23 23 24 26
12 13 11 10 7 2 1 1 3 4 4 5 7 9 12 15 18 19 17 16 15 15 15 15 16 16 17 18 20 22 25 25 25 25 26 26 25 26 29 32 35 35 34 35 37 36 34 33 32 29 26 24 23 23 23 24 24 23 23 23 24 25 27
12 12 11 10 7 3 0 1 3 4 3 3 4 5 6 8 10 13 12 12 12 11 10 10 10 10 10 11 11 12 12 11 9 10 12 14 16 16 18 21 24 25 25 25 27 29 31 30 27 24 21 21 21 22 23 24 23 22 22 24 26 27 28
13 12 12 10 8 5 4 3 4 6 6 5 6 8 8 5 5 6 7 7 8 8 7 6 6 6 5 5 4 2 1 2 3 3 4 4 7 8 9 9 9 12 16 17 17 17 19 20 22 22 23 22 21 21 23 23 22 22 23 25 26 27 26
13 12 11 11 10 8 7 6 6 7 8 8 9 9 9 7 6 6 5 5 5 7 6 5 4 4 4 3 4 6 6 4 2 4 6 5 3 1 4 5 4 5 10 14 18 20 20 18 18 21 25 27 27 26 26 27 26 25 26 27 25 23 21
13 13 11 11 11 10 9 8 8 8 8 9 10 9 8 8 7 6 4 3 5 6 5 5 7 7 7 7 8 8 7 7 7 6 5 4 3 3 4 5 5 3 4 7 10 16 20 18 15 16 19 21 24 24 25 25 23 21 21 21 18 15 14
15 15 14 13 11 10 9 9 9 9 9 10 10 9 8 8 7 5 4 4 5 6 5 6 7 7 7 7 6 5 4 4 4 2 0 2 2 2 2 1 1 2 1 2 2 2 7 10 10 10 11 13 14 14 14 14 12 11 12 13 11 11 12
17 16 15 13 11 10 10 10 10 10 11 12 11 9 9 8 7 6 5 5 5 6 5 5 5 5 4 4 4 4 3 3 2 1 0 1 3 5 6 7 6 6 5 5 4 4 5 7 6 5 6 7 8 7 7 8 8 9 11 12 12 12 13
17 16 14 12 11 10 11 12 11 11 13 14 13 11 10 10 9 8 7 6 6 5 5 6 5 5 5 5 5 5 5 4 4 5 5 5 6 7 8 8 8 7 7 6 5 5 5 5 4 4 5 6 7 8 8 9 10 11 11 12 13 14 15
16 15 13 12 11 12 13 14 13 13 14 14 13 12 11 10 9 8 7 8 9 8 9 9 9 9 9 9 9 8 7 7 7 6 6 6 5 6 6 6 6 5 3 3 2 1 2 2 4 5 6 8 8 9 10 11 11 12 13 14 15 16 17
18 16 14 13 14 13 13 14 13 12 12 12 12 11 11 10 10 10 10 10 11 11 10 10 9 9 9 8 8 7 6 5 4 4 4 4 4 4 3 3 2 2 1 2 2 3 4 5 6 7 8 9 10 11 12 13 14 15 16 17 18 19 19
20 20 18 17 16 15 14 14 14 13 13 14 14 13 12 12 11 11 11 10 10 10 9 8 7 6 6 5 4 4 3 2 2 2 2 3 3 3 3 3 4 4 4 5 6 6 7 8 9 10 11 12 13 14 15 16 17 18 19 20 20 21 22
22 21 21 19 18 18 17 17 16 15 15 16 16 15 13 12 11 11 10 9 8 7 7 6 5 4 4 3 2 1 0 1 1 2 3 4 4 5 6 6 7 7 8 8 9 10 11 12 12 13 14 15 16 17 18 19 19 20 21 22 22 23 23

ECMWFFLT1_700_spd_129.txt.gz
Wind_Speed
34 32 28 26 27 25 24 24 22 22 22 21 21 20 19 19 17 17 18 18 17 16 16 16 15 13 13 15 17 18 17 15 14 13 12 12 11 11 10 9 9 8 7 7 6 6 6 6 6 6 5 5 4 4 4 4 3 3 3 2 2 3 3
34 34 30 26 27 27 25 24 24 23 22 22 23 22 20 19 17 16 17 17 17 16 16 16 16 14 13 14 15 17 16 15 14 14 13 12 11 11 10 10 9 8 7 7 6 5 5 5 5 5 4 4 4 4 4 3 3 3 3 4 4 3 3
33 35 33 29 27 27 26 24 25 25 24 23 25 24 22 20 16 16 17 17 17 17 17 17 16 15 15 15 15 15 16 15 14 14 13 12 11 11 10 9 9 8 8 7 6 5 4 4 4 4 3 3 3 3 3 3 3 3 3 4 4 4 5
28 32 33 31 29 27 27 26 25 26 26 25 25 24 22 20 16 16 17 17 17 17 18 17 17 16 16 16 16 15 15 15 14 14 13 12 12 11 10 9 9 8 7 6 6 6 5 4 4 4 4 3 3 3 3 3 3 3 4 5 5 5 5
21 28 33 34 32 28 28 29 27 25 27 26 25 24 23 21 18 16 17 18 18 17 17 18 18 17 17 16 16 16 15 15 14 14 14 13 13 12 11 10 9 8 8 7 7 6 6 5 4 4 4 4 4 4 4 4 4 4 5 5 6 5 5
14 23 33 36 36 32 30 30 29 26 26 27 25 25 24 23 21 18 17 18 19 18 18 19 19 18 18 17 17 17 16 16 15 15 14 14 13 12 11 10 9 9 9 8 7 7 7 6 6 6 5 5 5 4 4 4 4 4 5 5 6 5 5
11 17 28 36 37 35 31 30 30 29 26 26 26 26 25 25 23 19 18 19 20 19 19 19 19 19 18 18 18 18 17 17 16 16 15 15 14 13 11 11 10 10 9 9 8 8 7 7 7 6 6 6 6 5 5 4 4 4 5 5 6 5 4
14 15 23 33 38 36 30 29 31 30 28 26 26 26 26 26 24 21 20 19 20 20 19 19 19 19 19 19 19 18 18 17 17 17 16 16 14 13 12 11 11 10 10 9 9 9 8 8 8 7 7 7 7 6 6 5 5 6 5 6 6 5 4
19 17 19 28 37 37 31 28 31 29 28 28 27 27 28 27 25 23 21 20 20 20 19 19 19 19 18 19 19 19 19 18 18 17 17 16 14 13 13 12 12 12 11 10 10 10 9 8 8 8 7 8 8 8 7 7 7 7 7 6 6 5 4
18 18 16 20 31 39 35 31 32 30 29 30 28 28 29 28 27 25 22 22 22 21 19 19 19 19 19 19 19 19 19 18 18 17 17 16 14 13 13 13 13 13 11 11 11 11 10 9 9 9 9 9 9 9 8 8 8 8 7 7 6 5 5
13 14 15 16 24 37 40 35 35 33 31 30 28 27 28 29 28 26 24 23 23 22 21 20 20 19 19 20 20 20 20 19 18 18 17 16 15 15 14 14 14 14 12 12 12 11 11 11 10 10 11 12 11 11 10 10 9 8 8 7 6 6 6
9 10 13 15 20 35 43 39 37 35 32 30 28 27 28 28 28 27 25 24 24 23 22 22 22 21 20 21 21 21 20 20 19 18 17 17 16 15 15 14 14 14 13 12 13 13 12 12 12 11 12 13 14 13 12 11 10 9 8 8 7 7 7
9 9 12 15 21 35 44 42 40 38 34 33 32 30 29 28 27 27 27 26 25 25 24 23 23 22 22 21 21 21 20 20 19 18 17 17 16 16 15 15 15 14 13 13 14 14 14 14 14 13 13 14 15 15 14 13 11 10 9 9 8 8 8
9 10 12 15 21 34 43 43 41 40 37 36 35 34 33 31 28 28 28 27 27 27 25 25 25 24 23 22 22 22 21 19 18 18 18 17 17 17 16 16 15 14 14 15 14 15 15 15 15 15 16 17 16 15 15 14 11 10 9 9 9 9 9
11 11 12 14 19 29 40 43 42 40 40 39 37 35 35 34 32 30 30 29 29 27 26 26 26 25 24 23 23 22 21 20 19 19 20 19 18 18 17 16 16 15 16 15 14 16 17 16 16 16 16 16 14 12 11 10 10 10 10 10 10 10 10
13 13 14 14 15 22 33 41 43 43 42 42 40 38 36 36 35 34 34 34 33 30 28 27 27 26 26 24 24 23 22 22 22 22 21 20 19 18 17 17 17 17 17 15 15 18 18 16 16 16 15 14 14 12 10 9 10 11 11 11 11 11 11
13 13 13 13 12 14 22 33 41 44 44 43 42 40 37 36 36 36 35 35 35 34 33 31 29 28 27 25 25 24 24 24 23 23 22 21 20 19 18 18 18 18 19 17 18 20 19 16 16 16 15 15 14 13 12 11 12 13 12 12 12 11 11
11 11 10 8 7 10 14 23 34 41 45 46 44 42 39 37 38 37 35 34 33 34 35 34 34 33 30 28 28 28 29 28 26 25 23 21 21 20 19 19 19 19 20 20 21 21 20 19 19 18 17 17 16 16 16 14 14 14 15 14 13 12 13
7 9 10 9 8 10 13 18 26 34 41 45 45 43 41 39 39 38 37 35 34 34 33 32 33 34 33 33 33 33 31 28 25 24 23 21 21 20 19 19 19 20 21 22 23 23 22 22 23 21 21 20 20 19 18 17 16 16 17 17 17 16 16
5 9 10 9 10 11 12 15 21 28 35 40 43 44 42 42 41 40 38 37 36 34 31 30 31 32 32 32 32 30 28 24 20 20 21 21 21 20 19 18 19 20 22 24 26 26 24 24 24 23 23 23 22 22 21 20 21 21 21 20 19 19 19
5 9 10 9 9 10 11 13 17 23 29 35 39 41 41 41 41 41 41 38 35 32 30 30 32 32 32 30 25 24 26 25 21 20 20 21 21 20 20 20 21 22 24 26 27 27 26 25 25 24 24 24 24 24 24 24 23 23 22 22 22 22 21
9 10 11 10 9 9 11 14 16 20 25 31 37 41 42 42 42 43 42 38 35 33 31 31 32 32 30 27 24 23 25 25 22 21 22 22 22 21 21 21 22 23 24 26 28 28 27 26 26 25 25 25 25 24 24 24 24 23 24 24 24 23 22
12 13 14 13 11 11 14 15 16 19 23 28 34 40 44 44 43 44 43 40 36 32 31 32 32 31 29 27 27 26 24 22 22 22 22 23 23 22 22 23 23 23 24 25 28 29 28 28 29 29 28 27 27 26 26 25 25 25 25 26 26 25 23
14 16 17 15 13 13 14 14 14 18 21 24 29 38 44 44 44 42 40 40 37 33 32 33 32 30 29 28 27 26 25 23 21 21 22 22 23 23 24 25 25 25 25 26 28 29 29 29 32 33 32 30 29 28 27 27 26 26 27 26 26 25 24
16 18 18 16 14 13 14 13 13 15 21 20 19 32 41 40 40 41 37 35 33 30 31 34 32 30 29 27 25 26 28 27 24 23 23 23 23 24 24 25 25 25 26 27 29 30 30 32 34 36 35 34 33 32 31 31 29 28 28 29 28 27 26
17 18 17 15 13 12 12 13 13 13 20 18 7 21 29 28 33 38 36 31 29 28 31 33 31 28 26 25 26 28 30 29 27 25 25 25 25 25 25 25 25 25 24 27 30 33 33 31 31 33 35 36 36 34 32 32 31 31 31 32 31 29 26
15 15 14 12 11 10 10 11 12 11 15 15 6 14 17 20 27 34 34 30 27 27 30 32 30 28 26 24 24 28 30 29 27 25 25 25 24 24 24 24 23 22 22 25 29 33 36 33 29 32 37 38 38 37 34 32 33 32 29 25 22 21 21
12 12 11 10 10 10 8 7 9 10 9 9 9 11 14 18 25 31 33 32 28 25 27 28 27 26 24 21 22 25 27 25 23 23 23 22 21 21 22 22 20 20 22 22 18 16 21 22 17 16 20 22 24 26 27 27 26 24 22 18 15 14 16
11 11 10 10 11 11 8 5 6 8 6 4 5 9 13 16 21 26 30 32 30 27 25 24 23 21 17 16 19 21 21 19 19 20 20 19 19 19 19 17 16 16 19 18 13 8 9 11 8 4 3 3 3 5 7 10 14 15 16 15 14 12 13
11 11 10 10 10 11 12 8 5 6 6 4 3 5 8 13 17 22 24 25 27 26 24 23 23 19 16 15 18 20 20 19 18 17 15 13 13 13 12 10 9 7 7 7 4 2 3 6 8 6 4 4 4 5 7 5 1 3 6 7 10 12 15
11 10 9 9 9 10 12 11 9 7 3 2 4 6 7 8 11 16 20 21 21 21 19 17 15 14 14 16 19 21 21 18 17 16 15 14 13 12 11 10 9 8 7 7 7 8 9 6 3 1 2 4 4 4 6 8 8 9 8 5 1 2 5
10 9 7 7 8 9 10 11 12 10 6 6 6 6 7 7 7 10 13 16 17 15 15 15 13 13 14 15 16 17 17 17 17 16 16 16 15 13 13 12 11 11 11 11 11 11 12 13 12 10 9 9 8 8 9 9 9 9 8 6 4 3 2
9 7 6 8 9 9 10 10 11 11 13 13 8 7 10 12 11 11 12 13 15 15 15 15 14 13 14 14 15 16 16 15 13 12 13 14 13 12 12 12 11 11 11 11 11 11 12 13 13 12 11 10 9 8 8 8 6 5 3 1 2 3 3
8 7 7 9 9 9 9 9 10 9 15 17 12 11 14 14 12 13 14 15 16 17 16 15 16 16 16 17 16 15 14 12 10 9 10 11 10 10 11 11 11 10 10 9 9 9 9 9 8 7 7 6 5 5 4 4 3 3 4 5 6 6 7
7 7 8 9 9 9 9 7 6 6 13 17 15 14 16 16 14 14 15 17 19 20 18 16 16 16 16 16 15 13 11 10 9 9 9 9 9 9 10 10 10 9 9 8 7 7 7 6 5 4 4 4 3 3 3 3 4 5 6 7 7 8 9
7 7 8 8 8 8 8 6 5 6 12 16 15 13 14 16 16 15 15 17 20 20 17 16 16 16 16 15 15 14 12 11 11 11 11 11 11 11 11 10 10 10 9 9 8 7 7 6 5 5 4 4 4 4 4 5 6 7 8 9 10 11 11
8 8 7 7 7 8 9 10 9 9 14 17 16 13 12 13 14 14 14 16 19 20 18 17 16 17 16 15 15 16 16 15 14 13 13 12 12 12 11 11 10 10 9 8 7 7 6 5 5 5 5 5 5 6 7 7 8 9 10 11 11 12 12
8 7 6 6 8 9 11 12 12 13 16 18 17 15 14 13 13 13 13 15 19 20 19 17 15 15 15 15 15 16 15 14 13 13 12 11 11 10 9 9 8 8 7 6 6 5 5 5 5 5 6 6 7 7 8 9 9 10 10 11 12 12 13

ECMWFFLT1_700_spd_132.txt.gz
Wind_Speed
32 38 37 34 31 27 24 21 22 23 23 21 19 20 21 20 19 19 19 19 18 18 17 17 15 13 12 13 15 16 16 15 14 13 12 11 11 11 11 10 11 10 9 9 9 9 9 9 9 9 9 8 8 8 8 8 7 7 7 7 7 8 8
28 36 38 35 32 29 25 22 21 23 23 21 19 20 21 21 19 20 20 19 18 18 18 17 15 13 11 12 14 17 17 16 15 14 14 13 12 12 12 11 11 10 10 10 10 9 9 9 9 9 9 8 8 8 7 7 7 7 7 7 7 7 7
26 34 37 35 33 30 26 24 22 22 22 22 21 20 20 20 19 19 19 19 18 18 18 18 17 15 12 12 13 16 17 17 16 15 14 13 12 12 12 12 11 11 11 11 10 10 10 10 10 10 9 9 8 8 7 7 7 7 7 7 7 7 7
24 32 36 35 33 32 28 26 24 21 22 22 22 21 19 18 17 17 19 19 19 18 18 18 17 16 15 13 13 14 17 17 16 15 14 14 13 13 13 13 12 12 12 11 11 11 11 11 10 10 10 10 9 8 8 8 7 7 7 7 7 7 8
20 30 37 36 33 32 30 27 25 22 21 22 23 23 21 18 16 16 17 19 19 18 18 17 17 17 17 15 14 14 16 16 16 15 15 15 15 15 14 13 13 13 12 12 12 12 11 11 10 10 10 10 9 9 8 8 8 8 8 8 7 8 8
15 25 34 36 34 33 31 28 26 24 22 21 22 24 23 19 16 16 16 19 20 19 18 19 19 18 18 17 16 16 16 16 16 16 16 16 16 16 15 14 13 13 13 12 12 12 12 11 11 11 10 10 10 9 9 9 9 9 9 9 8 8 8
13 19 27 34 36 35 34 32 28 26 26 23 21 23 25 22 18 17 17 19 21 21 20 20 20 19 19 18 18 17 17 17 17 16 17 17 16 16 15 15 14 14 13 13 12 12 12 12 12 11 11 10 10 10 10 9 9 9 9 9 8 7 7
13 16 21 29 36 38 37 36 33 30 28 27 24 23 25 25 22 20 19 20 22 23 21 20 20 20 19 19 19 18 17 17 17 17 18 18 17 16 16 15 14 14 14 13 13 13 13 12 12 12 12 12 11 11 10 10 10 9 9 9 8 7 7
14 16 19 24 33 40 41 40 38 35 31 29 28 26 23 24 25 22 20 20 22 24 22 20 20 20 20 20 20 19 19 19 19 19 19 19 18 17 16 16 15 15 15 14 14 14 14 13 13 13 13 13 12 12 11 10 10 9 9 9 8 7 8
14 17 20 23 29 37 42 44 41 37 33 31 30 29 24 22 25 25 23 21 22 23 23 21 20 20 20 21 21 21 20 20 20 20 20 19 18 18 17 17 17 17 16 16 16 15 15 15 15 15 15 16 16 15 15 15 13 11 10 9 8 8 9
12 15 19 23 26 29 33 39 41 37 34 33 32 31 27 22 24 26 26 23 22 23 23 22 21 20 21 21 21 22 22 21 21 21 20 19 19 18 18 18 18 18 17 17 17 16 16 16 18 20 20 18 16 14 14 13 11 11 11 11 10 10 9
10 12 15 20 24 25 24 28 35 36 34 34 34 33 30 26 24 26 27 25 23 23 23 23 22 21 21 21 22 23 23 22 22 21 20 20 19 19 19 19 18 18 17 17 17 17 18 19 20 20 16 13 11 10 10 10 9 10 11 11 10 10 10
10 12 14 17 21 25 25 25 29 34 36 35 35 35 32 29 27 28 28 28 25 23 23 24 24 23 22 22 22 23 23 22 21 21 20 20 19 19 19 19 18 18 18 17 17 18 19 19 18 16 13 10 10 9 8 9 10 10 11 11 10 10 10
12 12 13 16 19 24 28 27 27 31 36 36 36 37 34 32 31 30 30 29 28 25 25 25 25 25 24 23 23 24 23 22 21 21 21 20 19 20 20 20 19 18 18 18 19 19 18 17 16 15 13 12 11 9 8 8 9 10 10 10 10 11 11
10 9 10 13 16 20 25 28 27 29 36 37 37 38 36 33 32 31 29 29 28 27 26 27 27 27 26 25 24 23 22 21 22 22 21 21 21 21 20 20 20 19 19 20 20 20 19 17 16 15 14 12 11 9 9 9 9 10 10 10 11 13 12
6 6 8 12 14 15 20 25 26 28 34 38 36 37 37 35 33 32 30 29 29 29 28 28 28 28 27 26 25 24 22 22 22 23 23 23 23 21 21 21 20 20 20 21 21 19 18 17 15 14 14 13 11 10 11 11 10 9 10 10 12 13 13
4 6 7 10 12 13 15 20 23 25 30 38 37 36 37 36 34 33 32 30 30 32 31 30 30 30 29 28 27 26 25 25 24 25 25 24 23 21 21 21 21 21 21 22 21 19 18 17 15 14 14 13 13 12 12 12 11 11 11 12 13 14 14
7 8 8 8 10 11 13 15 18 21 27 37 39 36 36 36 35 34 33 32 32 33 33 33 32 32 31 29 28 28 28 27 25 25 25 24 23 22 21 21 21 21 21 21 21 20 20 19 18 17 16 17 16 15 14 14 13 13 13 15 16 16 16
9 9 10 9 9 10 12 13 15 17 23 34 40 39 36 36 36 37 35 34 34 34 34 34 33 33 32 30 28 28 28 27 26 25 25 25 24 23 23 23 23 22 22 22 22 22 22 22 21 20 20 20 19 18 17 17 16 16 17 17 18 18 18
11 11 12 11 9 9 11 13 15 16 19 27 37 41 40 38 39 40 39 38 38 37 36 35 35 34 33 30 29 28 27 27 26 26 25 25 25 25 25 24 24 24 24 25 25 24 25 25 24 23 22 21 21 21 21 21 20 19 19 19 19 20 21
14 14 14 13 11 10 10 12 14 15 16 19 27 36 42 42 42 42 42 42 41 40 39 38 36 35 34 32 30 28 26 27 27 27 26 25 25 26 26 26 25 25 26 26 26 26 26 25 24 24 23 22 23 23 24 23 23 23 23 23 23 24 24
16 16 16 15 13 11 11 12 13 14 16 18 21 27 34 40 43 45 45 45 44 43 42 40 38 36 34 32 31 30 28 27 28 28 27 26 26 26 27 28 27 27 27 27 26 26 25 25 25 24 24 24 25 26 25 25 25 25 25 26 25 26 27
15 17 18 17 17 15 14 15 15 15 17 19 20 23 28 34 41 46 48 48 47 45 45 43 41 38 35 33 31 31 30 29 28 29 28 27 26 26 27 29 29 28 28 28 28 28 26 25 26 26 27 27 28 28 28 28 28 28 28 28 28 28 28
16 18 19 19 19 19 18 18 18 18 20 20 20 22 26 31 38 45 50 50 48 47 46 46 44 40 36 33 31 32 31 29 28 28 27 26 27 28 29 30 30 29 30 32 32 30 26 25 27 29 30 32 33 33 32 31 30 30 29 30 31 30 31
17 19 20 20 19 19 20 20 19 20 21 22 22 21 25 29 35 42 49 52 51 49 47 44 43 41 38 34 33 33 31 29 28 28 26 24 25 27 29 31 32 32 32 32 31 27 24 25 28 29 31 34 35 36 37 36 35 34 33 33 33 33 34
18 19 20 20 20 20 20 20 19 19 21 22 23 22 24 29 35 39 43 47 50 50 47 42 38 37 35 34 33 33 31 29 28 28 28 26 25 26 28 32 34 33 29 27 27 27 26 27 29 31 35 39 39 38 37 38 38 37 36 35 35 36 39
17 18 19 20 20 19 19 19 18 17 19 21 21 21 21 23 29 34 35 38 43 45 44 41 37 34 34 33 32 32 30 28 28 28 29 28 27 29 31 32 32 30 28 27 27 28 28 29 30 32 35 40 42 39 37 39 42 40 37 37 38 38 37
15 14 15 16 17 16 16 17 15 15 18 19 18 18 14 6 12 20 23 27 32 34 36 38 36 34 33 32 30 29 28 27 27 28 29 29 30 33 33 30 29 30 29 27 28 30 30 30 28 27 26 26 27 24 22 26 33 34 33 35 36 33 28
13 12 11 12 13 13 14 15 14 14 16 16 15 14 5 7 11 10 14 19 22 25 29 32 33 31 30 29 28 28 27 26 27 28 30 31 32 33 32 30 32 32 29 28 30 32 29 26 24 24 22 20 20 20 18 17 17 14 14 20 23 21 19
12 11 10 9 10 11 12 12 12 12 13 14 13 10 2 7 7 7 11 15 19 22 25 28 28 27 26 26 26 26 26 28 30 31 31 30 29 31 32 31 31 31 29 28 29 25 21 18 19 19 17 14 14 18 21 20 15 8 0 3 6 9 10
10 9 8 8 8 9 9 10 9 9 10 12 12 8 4 7 9 10 13 17 20 22 24 26 26 26 26 27 27 28 29 30 29 28 29 29 30 32 30 24 21 20 19 19 17 13 11 10 10 9 7 5 5 6 9 11 9 3 3 5 5 4 3
8 7 7 7 7 7 7 7 8 8 9 10 9 7 2 3 7 10 14 18 19 22 24 25 24 25 25 25 26 29 32 33 31 29 30 28 26 24 20 15 14 14 14 13 12 11 10 8 7 6 6 5 6 6 6 6 5 5 6 7 8 8 6
7 7 7 7 6 5 6 6 8 9 8 7 6 4 4 1 5 8 12 15 15 17 21 22 23 25 28 28 28 27 29 30 29 27 24 20 17 17 16 16 16 15 15 15 13 12 13 13 12 11 10 9 9 9 9 9 9 9 9 8 8 7 6
8 8 8 7 6 5 4 5 7 8 6 4 3 1 3 2 8 13 15 16 15 14 15 15 15 17 20 20 19 18 18 18 19 18 18 17 17 18 18 17 15 13 13 13 13 13 14 14 13 12 12 10 9 9 9 9 8 7 7 6 6 6 5
9 9 9 8 6 5 4 4 6 6 4 4 4 1 2 4 11 16 18 20 20 17 15 14 13 12 13 14 16 17 17 16 18 18 18 17 16 16 16 14 13 12 12 11 11 12 12 11 10 10 10 9 8 7 7 6 5 5 5 5 5 5 6
10 9 9 9 7 5 4 4 4 4 3 6 5 1 1 4 11 15 17 18 18 17 16 16 16 15 15 17 18 18 17 16 18 18 17 16 15 14 14 13 12 11 10 10 9 10 9 9 8 8 7 6 6 5 5 5 5 5 6 6 7 7 9
10 10 9 8 6 4 2 2 2 2 5 9 6 3 3 3 8 14 16 16 17 19 19 19 19 19 18 18 17 17 16 16 16 16 16 16 15 14 13 12 11 11 10 10 10 10 10 9 8 7 7 7 6 7 7 7 7 7 8 8 9 9 10
11 10 9 7 6 4 3 3 3 3 8 12 10 7 7 6 8 13 16 16 17 19 20 19 18 18 19 19 18 18 18 17 16 16 16 16 16 16 15 14 14 13 12 13 12 11 11 10 9 9 9 9 9 8 8 8 8 9 9 9 9 9 10

ECMWFFLT1_700_spd_135.txt.gz
Wind_Speed
29 34 36 36 35 33 30 28 24 19 18 18 17 17 18 19 20 20 19 18 17 16 17 17 16 16 15 14 14 15 15 15 14 13 13 13 12 11 11 10 10 10 9 9 10 10 11 11 11 11 11 11 11 11 11 11 11 11 11 11 11 11 12
23 29 34 36 36 34 31 29 26 21 19 19 18 17 18 19 20 20 19 18 18 17 17 17 17 16 14 14 15 16 17 16 15 15 14 14 13 12 11 11 11 11 10 10 11 11 11 11 11 11 11 11 11 11 11 11 11 11 11 11 11 11 11
18 24 31 36 37 36 33 30 28 24 21 19 18 17 18 19 19 20 20 19 18 19 18 18 18 17 15 14 15 16 17 17 16 16 15 14 13 13 12 12 12 12 11 12 12 11 11 11 11 11 11 11 11 11 11 11 11 11 11 11 11 11 11
17 22 28 34 37 36 34 32 29 27 23 21 19 18 18 18 18 20 21 20 19 19 19 18 18 18 16 15 14 15 17 18 17 16 15 15 14 14 14 13 12 12 11 12 11 11 11 11 11 11 11 11 11 11 11 11 11 11 11 11 11 11 11
18 21 25 32 37 37 36 33 31 29 26 22 20 19 18 18 18 19 21 22 21 20 19 19 18 18 18 16 14 14 16 18 18 17 16 15 15 14 14 13 12 12 12 12 12 12 11 11 11 11 11 11 11 11 11 11 11 11 11 11 11 11 12
16 20 23 27 33 37 37 34 32 31 28 24 20 20 19 19 19 19 20 23 23 21 21 21 21 20 19 18 16 15 16 18 18 18 17 16 16 15 14 14 14 13 13 13 13 13 12 12 12 11 11 12 12 12 12 12 12 12 12 12 12 12 12
13 16 19 23 29 36 39 37 34 32 30 26 22 21 21 20 20 19 20 24 24 23 23 23 22 22 21 19 18 17 17 18 18 18 18 17 17 16 15 15 15 14 14 14 14 13 13 13 13 13 14 13 13 13 13 13 13 13 14 13 12 12 11
12 13 14 19 25 32 36 36 35 33 32 30 25 24 23 23 22 20 21 24 26 25 24 23 23 22 21 21 20 19 18 18 19 18 18 18 18 17 17 16 16 15 15 15 14 14 14 14 15 17 16 15 13 12 13 12 11 12 13 12 11 11 11
12 13 13 16 20 25 30 32 32 31 31 30 28 26 25 24 23 22 21 23 26 27 24 23 23 22 22 22 22 21 20 20 20 20 19 19 18 17 17 17 17 16 16 16 15 15 16 17 17 17 15 13 11 12 13 13 12 12 13 13 12 12 13
10 12 13 15 18 21 25 28 31 33 32 31 29 29 28 26 24 23 23 23 25 27 25 23 23 23 23 23 23 23 22 22 22 22 22 20 19 19 18 18 18 17 17 16 16 17 18 18 16 15 13 12 12 14 16 15 15 14 14 13 13 13 14
9 10 11 13 17 21 23 25 27 30 32 32 32 32 33 31 28 25 24 24 24 25 25 25 24 24 24 24 24 24 24 24 23 23 23 22 21 20 19 19 18 18 18 17 17 19 19 17 16 15 13 13 14 15 17 17 17 17 15 14 13 12 14
8 10 10 10 12 17 21 24 25 26 26 27 31 35 35 34 32 29 26 25 25 24 25 26 25 25 25 25 25 25 25 25 25 24 24 23 22 22 21 20 19 19 18 18 18 19 18 17 17 15 13 14 15 15 15 16 16 16 15 14 14 15 17
10 11 11 10 11 13 16 19 23 25 25 25 29 34 37 36 34 32 29 27 25 24 25 26 27 27 27 26 26 26 26 26 25 25 24 24 23 22 22 21 20 20 19 19 20 20 19 18 17 14 14 15 15 13 12 13 13 14 14 14 16 17 18
10 12 12 10 10 11 13 14 17 21 25 26 26 29 35 38 37 35 32 30 27 26 26 26 28 29 29 28 27 26 26 26 26 26 25 25 24 24 23 22 21 21 20 21 21 20 19 19 16 15 15 15 14 13 12 12 12 13 13 14 15 16 17
10 11 10 10 9 10 11 13 15 17 22 25 26 26 29 35 38 37 36 34 31 29 28 27 28 30 30 30 28 26 26 26 26 26 26 26 26 25 25 23 22 22 22 22 22 20 19 18 17 15 14 14 13 13 13 14 13 13 14 14 14 14 15
10 10 10 10 10 10 11 12 14 16 19 22 25 26 27 30 35 37 37 36 33 31 30 30 29 30 32 32 30 27 26 26 26 26 26 27 27 26 25 24 23 23 22 22 22 20 19 18 17 15 14 14 14 14 14 14 14 14 15 14 13 14 15
11 10 11 10 11 11 11 12 13 15 18 20 24 27 28 29 33 37 38 38 36 33 33 32 31 31 33 33 31 28 27 27 27 26 26 27 27 26 24 24 23 23 23 22 22 20 19 18 17 16 16 15 15 15 15 16 16 16 16 15 15 15 15
12 11 12 12 12 12 11 11 12 13 14 16 20 25 27 29 32 37 39 38 37 36 36 34 32 33 33 33 32 30 29 28 28 27 26 27 27 26 25 25 24 24 24 23 21 20 19 19 18 18 18 17 16 16 16 16 17 17 17 17 17 17 17
14 12 13 15 15 14 12 12 11 11 11 12 14 17 21 27 32 36 38 37 36 37 39 38 35 34 33 33 32 32 31 30 29 28 27 27 28 27 27 26 26 25 25 23 22 21 20 20 20 20 20 19 18 18 18 18 19 19 19 19 20 21 21
16 15 15 17 18 17 14 12 11 9 9 9 10 11 14 21 29 35 38 37 38 39 40 40 39 36 34 33 33 33 32 31 31 30 29 29 29 29 28 27 26 25 24 23 23 23 23 22 22 23 23 22 22 22 21 21 21 21 21 21 22 23 24
18 18 18 19 20 18 15 13 11 9 8 8 9 10 11 14 23 32 36 37 39 40 40 40 40 37 35 34 34 34 34 33 32 32 31 30 30 30 29 28 27 26 25 25 25 25 24 24 24 25 24 23 23 23 23 23 23 23 23 24 24 26 27
19 19 19 20 21 19 15 13 13 11 11 12 11 11 11 11 16 25 33 37 40 40 40 41 41 39 38 36 35 35 36 34 33 33 33 32 31 31 30 29 29 28 27 27 27 26 26 25 26 26 24 24 24 24 24 24 24 25 25 26 26 27 28
20 20 20 20 20 18 16 15 15 15 14 15 15 14 13 13 14 18 26 34 40 43 42 42 41 41 41 38 35 35 36 37 37 35 34 33 32 32 32 31 31 29 28 28 27 27 26 26 27 27 24 23 24 26 26 26 27 27 27 28 28 28 29
20 20 21 20 19 19 17 16 16 16 15 16 17 17 16 17 17 18 21 27 35 42 45 45 43 43 42 40 38 37 39 42 42 38 36 36 36 35 34 33 31 29 28 28 27 27 25 24 25 26 24 24 26 28 28 28 29 29 29 30 31 32 33
19 19 20 21 20 19 19 17 16 16 16 17 17 18 18 19 19 20 22 24 29 37 44 47 47 44 43 42 40 39 40 42 42 38 37 38 38 37 36 35 32 29 27 26 26 26 24 24 24 26 26 27 28 28 28 30 31 32 33 33 33 35 36
17 17 18 19 20 20 19 18 18 18 18 17 17 17 19 20 19 20 22 25 28 32 37 44 48 47 46 44 43 42 43 42 41 40 39 38 37 36 36 33 29 25 25 25 25 25 25 24 25 27 28 28 29 29 29 31 33 32 33 35 36 38 39
16 16 15 16 17 18 18 18 18 18 18 18 17 18 18 17 16 18 21 26 31 31 31 36 43 47 48 47 45 45 44 41 40 41 41 40 37 34 32 29 25 23 24 26 26 27 27 26 26 27 28 28 29 30 31 32 32 30 28 28 31 35 36
14 14 14 13 13 14 16 17 16 17 17 17 17 17 15 11 8 8 10 14 22 27 28 30 36 42 47 48 47 46 44 40 36 37 39 39 37 33 30 27 24 23 23 24 26 26 25 24 25 26 28 29 30 31 31 31 31 30 26 22 22 26 27
12 12 12 12 12 12 13 14 15 15 16 16 16 16 13 10 11 10 8 8 6 14 21 24 28 35 41 45 47 47 45 41 36 34 35 36 34 30 29 29 26 24 23 23 24 23 21 22 24 26 28 29 29 29 30 29 27 25 22 21 23 26 25
11 11 10 10 11 11 11 12 12 12 12 13 14 14 13 10 12 14 13 9 5 9 15 19 24 30 35 40 44 44 41 36 35 34 35 35 32 29 30 30 27 24 24 24 22 20 21 24 25 27 28 27 27 26 25 23 20 17 16 18 19 22 21
11 10 9 9 9 10 9 9 10 9 9 11 12 13 13 13 11 13 14 12 10 10 12 15 19 23 26 30 33 34 32 32 33 34 34 33 29 26 27 28 26 25 25 23 20 20 23 24 23 24 24 23 21 19 16 12 9 7 8 10 10 10 11
11 9 8 8 8 8 7 7 7 8 8 10 10 10 12 13 12 13 13 11 10 10 9 12 14 16 20 24 27 30 32 32 33 34 32 31 29 26 25 24 22 22 22 20 19 21 22 22 19 18 18 15 12 9 6 4 3 2 2 3 4 3 4
11 9 8 7 7 7 6 5 6 7 8 9 8 7 9 10 9 9 9 8 8 8 6 8 11 13 16 20 23 27 29 31 32 31 30 30 29 26 24 24 23 22 21 19 19 19 18 17 15 13 11 9 7 5 3 2 3 3 4 5 7 7 9
12 10 9 8 7 7 6 5 5 6 8 8 6 6 7 7 6 4 4 6 7 9 8 9 13 17 19 20 22 23 25 27 29 30 31 30 28 24 23 25 25 22 19 17 15 14 12 12 12 10 8 8 7 6 5 5 5 5 5 5 5 6 6
13 11 9 9 8 7 7 6 4 5 6 5 4 5 6 7 7 6 4 5 6 8 9 9 10 13 16 19 22 23 23 24 26 27 29 31 30 24 18 17 16 14 13 14 13 13 12 12 11 10 9 9 9 8 6 6 6 5 4 4 4 4 4
14 13 10 9 9 8 7 6 4 3 2 1 2 5 5 5 6 9 9 8 7 5 4 5 6 5 7 11 14 15 14 14 16 16 16 17 19 17 14 14 15 14 13 13 14 14 13 12 12 11 10 10 9 8 7 7 7 7 7 6 6 6 6
14 13 10 9 8 8 8 7 4 2 2 4 2 3 7 8 6 7 9 10 10 10 11 12 12 10 10 13 15 15 14 13 14 15 15 15 14 14 13 14 16 17 16 14 13 12 11 10 10 10 9 9 9 9 9 9 8 8 9 8 7 7 8
14 12 10 9 8 8 8 7 5 2 5 7 4 5 10 9 5 6 9 10 12 12 12 13 13 12 14 16 18 18 17 16 16 17 18 18 17 16 15 15 15 15 15 13 12 11 10 9 8 8 9 9 9 9 9 8 8 8 8 8 8 7 7

ECMWFFLT1_700_spd_141.txt.gz
Wind_Speed
7 7 8 10 14 17 17 17 17 18 18 16 15 14 14 16 17 17 17 16 14 13 13 12 12 12 12 13 14 15 15 15 14 13 12 12 12 12 11 11 11 12 11 12 12 13 14 14 13 13 13 12 12 12 12 12 12 11 11 11 11 12 12
8 7 8 9 11 15 17 17 18 19 19 18 17 16 15 16 17 17 17 16 15 14 14 13 12 12 13 13 14 15 15 16 16 15 14 14 13 12 12 11 11 11 11 12 12 13 13 13 12 12 12 12 12 12 12 12 12 12 12 12 12 13 13
9 9 8 9 9 11 15 18 18 19 20 21 22 20 17 16 17 17 16 16 16 16 15 14 14 13 14 14 15 15 16 17 16 16 15 15 14 14 13 11 11 11 11 11 12 12 12 12 12 12 12 11 12 12 12 12 12 13 13 13 13 13 13
9 8 8 8 9 10 13 16 19 21 23 24 24 23 20 18 18 18 17 16 16 17 16 15 15 14 15 15 15 16 16 17 17 16 16 16 16 15 14 12 12 12 12 11 12 12 12 11 11 11 11 11 11 11 11 12 12 13 13 12 12 13 13
9 8 8 8 9 9 11 14 18 20 21 21 22 23 21 19 19 20 19 18 16 16 16 16 17 16 16 16 16 16 16 17 17 18 17 17 17 16 15 14 13 13 13 12 12 12 12 12 11 11 11 11 11 12 12 12 12 12 12 11 11 12 13
9 9 9 9 8 9 10 12 14 16 17 18 21 23 21 19 19 20 21 21 19 17 17 17 18 18 18 17 17 17 17 17 18 19 19 19 18 17 16 15 14 14 14 14 13 13 13 12 12 12 12 12 12 12 12 12 11 12 12 11 11 12 13
9 9 10 10 10 10 10 12 13 14 16 18 20 23 24 22 21 21 22 22 20 19 18 18 18 18 18 19 18 18 18 17 18 19 20 20 20 19 18 17 16 15 15 15 14 14 13 13 13 13 13 13 13 13 12 12 11 12 11 11 12 13 14
8 8 8 9 10 10 10 12 13 14 16 18 19 22 25 25 23 23 24 23 22 21 21 20 20 19 19 19 19 19 19 18 18 19 21 22 22 21 19 18 17 17 16 16 15 15 14 14 14 15 14 14 13 13 12 12 12 12 12 12 13 14 15
6 6 6 7 9 9 10 11 12 13 14 18 20 21 24 26 26 24 23 24 24 23 22 21 20 20 19 20 20 20 20 20 19 19 21 24 24 23 21 20 19 18 17 16 16 16 16 16 16 16 15 14 13 12 13 13 13 14 14 14 14 15 16
6 5 5 6 8 9 10 11 12 12 12 15 19 22 24 26 27 25 24 25 25 25 23 22 21 21 21 21 21 21 22 21 20 20 21 24 25 24 23 21 20 19 18 18 18 17 17 17 17 16 15 14 14 14 14 15 15 16 16 16 16 16 17
5 6 5 6 7 8 10 11 11 11 12 13 15 20 25 27 27 27 26 26 25 25 24 23 23 22 22 22 22 22 23 23 22 21 21 22 24 25 24 23 22 21 20 19 19 19 18 18 18 17 15 15 15 16 16 17 18 18 18 18 18 18 18
5 6 7 7 8 9 10 10 10 10 11 12 13 16 22 26 28 28 28 27 26 25 25 25 25 24 23 22 23 23 24 24 24 23 22 22 23 24 25 24 23 22 21 21 20 20 20 19 18 17 16 16 17 18 18 19 19 19 20 20 19 19 19
6 7 8 8 9 10 11 11 11 11 11 11 13 14 17 22 26 28 28 28 27 26 26 27 27 25 24 23 23 24 25 25 25 24 23 22 23 24 25 25 25 24 22 22 21 21 21 21 20 19 18 18 19 19 20 20 20 22 23 22 19 18 18
7 7 8 9 10 11 11 12 12 13 12 12 12 14 16 19 24 27 28 28 28 28 27 28 29 27 25 25 25 25 25 26 26 26 25 24 24 24 25 25 25 25 24 23 23 22 22 22 21 20 20 20 20 20 21 21 22 24 24 21 19 18 18
9 10 10 11 11 11 11 11 12 12 13 12 12 13 15 18 22 26 28 29 30 30 29 29 30 30 29 28 28 27 26 26 27 28 28 27 26 26 26 26 26 26 26 25 24 24 24 23 23 22 22 21 21 21 21 22 23 24 23 21 19 19 19
12 12 12 12 12 12 11 10 10 11 12 12 12 12 13 16 19 23 27 29 30 31 31 31 31 32 32 32 30 29 27 27 28 29 29 29 29 28 27 27 27 27 27 27 26 26 25 25 24 24 23 23 22 22 22 23 23 22 21 21 20 19 19
14 14 14 13 13 12 11 10 10 11 12 11 11 11 12 14 17 20 24 28 29 30 31 33 34 34 34 34 33 32 30 29 29 29 30 31 30 30 29 29 28 29 28 28 28 28 27 26 25 25 25 24 23 23 23 24 23 21 21 22 22 20 19
16 16 16 15 13 13 12 11 11 12 13 12 11 10 10 12 14 18 22 26 29 30 31 33 35 36 36 35 35 35 34 32 32 31 31 31 31 31 31 30 30 30 29 29 29 29 28 28 27 26 26 25 24 24 24 24 22 21 22 23 22 20 19
17 16 16 15 14 13 13 13 13 13 14 13 12 10 9 10 12 14 18 22 27 30 32 32 33 35 38 37 36 37 36 35 34 34 33 32 32 32 32 32 32 31 30 30 29 29 29 29 28 28 27 26 25 25 25 23 22 22 22 23 22 20 19
17 17 16 16 15 14 14 14 15 15 15 15 14 11 9 9 9 11 14 17 21 27 31 32 32 34 37 40 39 39 38 38 37 36 35 33 32 32 33 33 33 32 31 31 30 30 30 29 29 29 28 27 26 25 24 22 22 23 23 23 22 21 20
17 17 16 16 15 15 14 15 15 16 16 15 15 13 11 9 8 8 10 12 15 19 25 31 33 33 35 39 42 41 39 40 39 37 36 35 35 34 34 34 34 33 33 32 31 30 29 29 29 29 29 27 26 25 25 23 23 23 23 23 21 21 21
15 16 15 15 15 15 15 15 15 16 15 14 14 14 13 12 10 9 9 11 12 14 18 25 30 33 34 37 42 43 41 40 40 39 38 38 37 36 35 35 34 33 33 32 32 31 30 30 30 30 29 28 27 26 25 25 24 24 23 22 22 22 23
14 15 15 14 14 14 14 14 15 15 15 14 13 14 15 15 13 12 11 12 13 14 15 18 23 29 32 35 39 43 44 42 40 40 39 39 38 37 36 35 33 33 33 33 33 32 31 30 30 30 30 29 28 27 26 26 26 25 24 23 24 25 25
14 14 14 13 13 12 12 12 13 14 14 13 13 14 15 16 15 15 14 14 15 16 16 17 18 22 27 32 36 40 44 44 43 42 41 40 38 37 36 35 34 34 33 33 33 33 32 31 30 30 30 29 28 27 27 27 27 25 24 25 25 26 26
13 13 13 13 12 11 10 11 11 12 13 13 13 14 15 15 16 16 16 16 17 18 18 18 19 20 23 28 32 37 41 44 44 43 42 40 38 37 37 36 36 36 35 34 33 33 33 32 32 31 30 30 29 28 28 28 27 26 25 25 26 26 25
13 12 13 12 11 10 9 9 10 10 10 12 13 14 14 15 15 16 17 18 19 19 20 20 20 21 22 25 29 34 39 43 45 45 43 41 40 39 38 38 38 37 37 36 35 34 34 34 33 31 31 31 31 31 30 29 28 27 26 25 25 25 25
13 13 13 12 12 10 9 9 9 9 9 11 12 13 14 14 15 16 17 19 20 20 21 20 21 21 22 24 27 32 37 42 44 44 44 43 43 42 41 40 40 39 39 38 37 35 34 34 34 33 33 33 33 32 30 29 28 27 25 24 24 25 25
13 13 12 12 12 10 9 9 10 10 11 11 12 13 14 15 15 16 18 19 20 21 21 20 21 22 23 23 24 28 34 40 43 44 44 45 45 45 44 43 42 41 40 40 39 37 35 35 35 34 34 34 33 31 29 29 28 26 25 24 25 25 25
12 12 12 12 12 11 10 10 10 12 13 13 13 13 14 15 16 17 17 18 20 21 21 21 22 23 24 24 23 24 28 34 41 45 46 46 46 46 45 45 44 43 42 41 40 39 37 36 36 35 35 35 33 30 28 28 27 25 24 24 24 25 24
12 12 12 12 12 11 10 10 11 12 13 14 15 14 14 14 15 16 17 19 21 22 22 22 23 24 26 28 29 28 27 30 37 44 47 48 48 46 45 45 44 43 43 42 40 40 39 39 38 37 37 35 31 26 25 25 24 23 23 23 23 22 21
11 11 12 12 12 12 11 11 12 12 13 14 15 15 14 14 15 16 18 20 21 21 21 22 23 24 26 28 29 29 28 28 32 39 44 46 47 47 46 45 45 45 44 43 42 42 41 40 38 37 37 34 30 26 23 22 23 23 22 21 20 18 17
12 12 12 12 12 12 12 12 12 13 13 13 14 14 14 14 16 17 18 19 20 20 21 21 22 22 23 23 24 25 25 26 29 33 37 39 42 45 46 45 45 45 43 42 42 42 40 39 39 37 35 33 31 27 23 21 21 20 19 17 15 13 11
13 13 13 13 13 13 12 12 13 13 13 13 13 13 14 15 17 19 19 18 18 18 18 18 18 18 18 18 19 20 21 22 25 29 31 32 34 38 42 44 45 44 42 41 41 39 38 38 38 36 33 31 29 25 22 21 18 12 11 11 9 7 6
15 15 14 14 14 13 13 12 12 13 13 13 12 13 14 15 17 17 16 15 13 12 12 13 14 15 15 14 15 17 19 20 22 25 27 27 29 32 35 39 41 41 39 38 35 34 35 36 37 37 34 31 28 23 19 20 18 12 10 11 9 9 9
16 15 14 14 14 14 13 12 12 13 12 11 11 12 13 13 13 13 12 10 8 6 7 8 9 11 14 14 13 13 15 15 18 21 23 24 25 27 32 37 40 38 35 32 31 31 31 30 31 30 24 20 21 20 16 16 17 14 12 13 12 12 11
15 14 13 13 13 13 13 12 12 12 11 9 9 10 10 9 9 10 11 9 7 5 5 5 4 4 7 9 7 6 5 6 8 14 21 25 24 23 26 31 36 37 34 31 30 29 25 19 17 16 14 14 18 19 17 17 17 15 14 12 11 10 8
13 12 11 12 12 12 12 11 12 12 10 7 6 6 5 5 7 8 8 6 4 2 1 2 2 3 5 5 5 7 8 8 6 1 6 12 11 8 8 11 16 22 23 21 20 20 19 15 12 13 15 17 19 20 20 19 17 14 12 11 9 8 7
11 10 10 11 12 11 11 11 11 11 8 5 5 4 1 4 6 5 3 4 6 10 11 11 8 7 8 9 9 11 14 15 13 11 9 9 11 10 7 5 7 10 12 13 12 12 13 15 16 17 21 23 22 21 20 18 16 14 12 10 9 9 10

ECMWFFLT1_700_spd_144.txt.gz
Wind_Speed
4 4 4 8 13 18 20 20 19 18 18 17 16 14 13 12 11 12 13 14 14 14 13 12 12 12 11 11 12 14 14 14 13 11 11 11 12 12 13 13 13 13 13 14 14 14 15 15 14 13 13 12 12 12 12 12 12 12 11 11 10 10 10
6 5 5 6 8 13 17 20 20 21 20 19 18 16 15 14 13 13 13 14 15 15 15 14 13 12 13 12 13 13 15 14 14 13 12 12 12 13 14 13 13 13 14 14 14 15 15 15 14 13 13 12 12 13 13 12 12 12 12 11 11 11 11
8 7 6 7 7 9 14 19 21 22 22 21 21 20 18 16 15 14 14 15 16 16 16 15 14 13 14 14 14 14 15 15 14 14 13 13 13 14 15 14 14 14 14 14 14 14 14 14 13 13 13 13 13 13 13 13 13 13 13 12 11 11 11
7 7 6 7 7 8 11 16 20 22 23 24 23 22 20 18 16 16 17 17 17 18 17 16 16 15 14 14 15 15 15 15 15 15 15 15 15 16 16 15 14 15 15 15 15 15 14 14 13 13 14 14 14 13 13 12 12 12 12 11 11 11 10
7 7 7 6 7 8 9 13 18 22 24 24 24 22 20 19 18 18 19 19 19 19 19 18 18 17 16 15 15 16 16 16 16 16 16 17 17 18 17 16 15 15 15 15 15 15 14 14 14 13 14 14 13 13 12 12 12 11 11 11 10 10 10
7 8 8 8 7 7 8 10 14 20 22 23 22 20 19 21 21 20 21 21 21 20 20 20 20 19 18 18 17 16 17 17 16 16 17 18 19 19 18 18 16 16 16 16 15 15 14 14 14 14 14 14 13 13 12 12 11 11 11 11 10 10 10
8 9 9 9 8 7 8 8 10 14 18 21 22 22 22 23 23 23 24 23 22 20 20 20 20 20 20 20 19 18 18 18 18 18 18 19 20 21 20 19 18 17 16 16 15 15 15 15 15 15 14 14 13 13 12 12 11 12 12 12 11 11 12
7 8 9 8 7 6 7 8 8 10 13 17 21 23 24 24 24 25 25 23 22 22 22 21 21 21 21 21 21 20 19 19 19 20 20 21 22 22 21 21 19 18 17 16 16 15 15 15 15 15 15 14 13 13 13 12 12 13 13 13 13 13 13
6 6 7 7 7 5 5 6 7 8 10 13 17 21 23 24 25 27 25 24 24 24 24 23 23 22 21 22 22 21 21 20 20 20 21 22 23 23 23 22 21 20 19 18 17 17 16 16 16 16 15 14 14 13 13 13 13 14 14 14 14 15 15
5 5 5 6 6 6 5 5 6 7 9 11 13 17 22 25 27 28 28 27 26 26 27 26 24 24 23 22 22 23 23 22 21 21 21 22 23 24 24 23 22 21 20 19 19 18 18 18 17 17 16 15 14 14 14 14 14 15 15 15 15 16 16
5 4 5 5 6 6 6 6 6 7 9 10 11 14 19 24 28 30 31 31 29 28 29 28 27 26 25 24 23 24 25 24 23 22 21 21 22 23 24 25 24 23 22 21 20 20 19 19 19 18 17 15 15 15 15 15 16 16 16 16 16 17 18
5 5 6 6 7 7 7 7 7 7 8 10 11 12 15 20 26 30 31 32 31 30 30 30 30 29 28 26 26 26 26 25 24 23 22 22 21 22 24 25 25 24 23 22 22 21 21 21 20 19 17 16 16 16 16 16 17 17 17 17 17 18 19
7 7 8 8 9 9 9 10 10 10 10 10 11 12 13 16 22 28 31 32 32 31 31 31 31 31 29 28 27 28 27 26 25 25 24 23 22 22 23 24 25 25 25 25 24 23 22 22 21 20 19 18 17 17 18 18 18 19 18 19 19 19 19
8 9 9 10 11 11 11 11 11 11 12 12 12 12 13 14 17 23 28 32 33 33 32 32 32 31 31 29 28 28 28 28 27 26 25 25 24 23 23 24 25 25 26 26 25 24 23 23 23 21 21 20 19 19 19 19 20 20 20 20 20 20 20
10 11 12 12 13 13 13 12 11 12 13 13 12 12 12 14 15 18 22 28 33 34 34 33 33 33 32 31 30 29 29 29 29 28 28 27 27 26 25 24 25 26 27 27 26 25 25 24 24 23 22 22 21 20 20 20 21 22 22 22 21 20 20
13 14 15 15 15 15 14 14 12 11 11 12 12 11 11 12 14 15 17 21 27 32 34 34 34 34 34 33 32 31 30 30 30 30 30 29 29 28 27 27 26 26 27 27 27 27 26 26 25 24 23 23 22 21 21 22 23 22 21 22 21 21 20
14 15 17 17 17 16 15 15 14 12 11 11 12 12 11 11 12 14 16 18 21 27 31 34 34 35 34 34 33 32 32 32 31 31 31 31 30 30 30 29 28 28 28 27 28 28 28 27 26 25 25 24 23 22 22 24 24 22 21 21 22 21 21
15 16 17 17 17 16 16 15 15 14 13 13 13 13 13 12 12 13 15 17 19 23 27 31 34 35 36 35 33 33 34 34 33 33 33 33 32 32 31 31 31 30 30 29 29 29 29 28 27 26 26 25 25 24 24 26 24 21 21 22 22 22 21
15 16 16 17 18 17 16 16 16 16 15 15 15 14 13 13 13 13 14 15 18 21 24 27 31 34 35 35 35 35 35 36 36 35 34 34 34 33 33 33 33 33 32 31 31 31 30 29 29 28 27 27 27 26 26 27 24 22 23 23 22 23 22
14 15 16 17 18 18 17 16 16 16 16 16 16 15 15 14 14 14 14 15 16 19 22 25 28 31 33 35 35 36 37 37 37 37 36 35 34 35 35 34 34 33 33 33 33 33 32 31 30 30 29 28 28 27 28 27 24 23 24 24 23 24 23
14 15 16 17 17 17 17 16 15 16 17 17 17 17 16 16 15 14 14 14 14 16 18 21 25 29 32 33 35 36 38 39 39 39 38 38 37 36 36 36 36 35 34 34 35 34 34 32 32 31 30 30 29 29 29 27 24 24 25 25 24 25 25
12 14 15 16 16 16 16 15 15 15 16 17 17 17 17 17 16 16 15 14 13 14 15 16 19 23 27 31 34 35 37 39 41 41 41 40 39 39 38 38 37 36 36 35 35 35 34 34 33 33 32 31 31 31 30 27 25 26 26 25 26 25 25
12 13 14 15 15 15 15 15 14 15 16 17 17 17 18 18 18 18 17 16 15 15 15 15 15 17 20 25 30 34 35 36 38 41 43 43 42 41 41 40 39 38 37 37 37 36 35 34 34 33 33 32 31 31 30 28 26 26 26 26 26 25 26
13 14 14 14 14 14 14 14 13 14 15 16 17 17 18 18 19 19 19 19 18 18 18 17 17 17 18 19 23 28 33 36 37 38 42 45 45 44 43 42 40 39 39 38 38 37 36 35 34 33 33 32 32 31 31 29 27 27 26 26 26 26 27
15 15 15 14 14 14 13 13 13 14 14 15 16 17 18 18 19 19 20 20 21 20 20 20 20 20 20 19 20 22 26 32 36 38 40 43 46 47 45 44 42 42 41 40 40 39 38 36 35 33 32 32 31 31 31 29 28 28 27 27 28 28 29
16 16 16 15 14 14 13 13 13 13 14 15 16 17 18 18 19 19 20 20 21 21 22 22 22 22 22 21 22 22 23 25 30 35 38 41 46 48 48 46 44 44 43 42 41 41 39 37 36 34 33 32 31 31 31 30 29 29 29 29 29 29 30
17 17 16 15 14 14 14 13 13 13 14 15 16 16 17 18 19 19 20 20 21 22 23 23 23 23 23 23 23 24 24 25 26 29 33 38 43 47 48 47 46 46 45 44 44 43 41 39 37 35 34 33 32 32 31 31 31 31 30 30 30 30 30
17 16 16 15 15 14 14 13 13 13 14 15 16 16 17 17 19 19 20 21 23 24 24 25 25 24 24 24 24 25 26 27 27 27 28 32 38 44 46 47 48 48 46 45 45 44 42 40 39 38 36 35 34 33 32 32 33 33 32 31 31 31 30
16 16 15 15 14 14 13 13 13 13 14 15 16 16 16 17 18 19 20 22 23 24 25 25 25 25 25 25 25 25 26 27 28 27 26 27 31 37 43 47 50 50 49 48 47 46 44 42 41 39 38 37 35 34 33 33 33 34 33 33 33 32 31
14 14 13 13 13 13 13 13 13 14 14 15 15 16 17 17 18 18 19 21 22 23 24 24 24 25 25 25 25 25 26 27 28 29 27 25 26 31 37 43 48 50 50 49 48 46 45 44 42 41 40 40 37 35 35 35 35 34 34 34 34 33 32
11 11 12 12 12 12 13 13 13 14 14 14 15 15 16 17 17 18 18 19 20 21 22 23 24 24 25 26 26 27 27 28 29 31 31 30 30 31 33 38 45 49 49 49 49 48 47 45 44 43 43 42 40 37 35 35 35 36 35 35 34 33 31
10 11 11 11 12 12 13 13 13 14 14 14 15 15 15 16 16 17 17 18 19 20 21 22 23 25 25 26 26 28 28 29 30 31 33 34 35 35 34 36 41 45 47 47 48 49 49 48 46 45 45 44 41 37 35 35 35 36 37 36 33 30 30
12 12 12 12 13 14 14 14 14 14 14 14 14 14 15 15 15 16 17 18 18 19 20 20 21 23 24 24 25 25 26 27 28 29 31 33 34 34 36 37 38 41 45 47 48 49 49 49 48 47 45 42 38 36 37 38 37 35 36 36 32 29 29
13 13 13 14 14 15 15 14 14 14 14 14 13 13 14 14 14 15 16 16 17 17 18 18 19 20 21 22 22 22 22 23 25 27 28 28 29 30 33 36 38 39 42 45 45 45 46 46 46 47 46 44 42 40 39 39 38 36 34 32 31 30 28
14 14 15 15 15 15 15 15 14 14 13 13 13 12 12 12 12 13 14 14 15 15 15 16 17 17 18 19 20 21 22 22 22 22 22 22 23 24 26 30 34 35 37 39 40 39 41 43 43 44 44 43 42 41 41 41 40 34 27 23 22 24 23
14 15 15 15 15 15 15 15 14 13 12 12 12 11 10 10 10 11 12 13 13 13 13 14 15 15 17 18 18 18 19 19 17 17 17 16 16 18 21 25 27 28 29 31 32 32 33 36 39 43 45 46 45 41 37 36 32 26 20 16 16 18 19
14 14 15 15 15 15 15 15 13 12 11 10 9 9 9 8 7 8 9 10 10 10 9 9 10 10 11 11 12 13 12 12 12 14 16 15 12 13 15 17 21 27 28 27 28 32 34 33 33 31 30 31 33 31 28 26 23 21 20 19 20 22 21
13 14 14 14 14 14 14 14 13 11 9 8 8 9 8 6 5 5 6 8 8 6 4 4 5 6 5 5 6 7 7 7 7 8 12 13 11 9 7 5 6 14 17 15 15 20 23 23 22 20 19 20 20 22 22 21 19 19 21 23 24 24 22